<?xml version="1.0" encoding="UTF-8" standalone="no" ?>
<gpx xmlns="http://www.topografix.com/GPX/1/1" xmlns:xsi="http://www.w3.org/2001/XMLSchema-instance" xsi:schemaLocation="http://www.topografix.com/GPX/1/1 http://www.topografix.com/GPX/1/1/gpx.xsd" version="1.1" creator="VisuGPX - https://www.visugpx.com">
  <metadata>
    <name>Entrainement 2012-04-22</name>
    <desc><![CDATA[Fournet - Mal passant - Pertuiset - chemin du garde
Plein de neige de neige au sommet]]></desc>
  </metadata>
  <trk>
    <name><![CDATA[22/04/2012 11:19]]></name>
    <desc><![CDATA[]]></desc>
    <trkseg>
      <trkpt lat="45.62878" lon="5.93708">
        <ele>337</ele>
        <time>2012-04-22T09:19:44.365Z</time>
      </trkpt>
      <trkpt lat="45.62878" lon="5.93708">
        <ele>337</ele>
        <time>2012-04-22T09:19:44.365Z</time>
      </trkpt>
      <trkpt lat="45.62878" lon="5.93708">
        <ele>337</ele>
        <time>2012-04-22T09:20:13.000Z</time>
      </trkpt>
      <trkpt lat="45.62877" lon="5.93702">
        <ele>337</ele>
        <time>2012-04-22T09:20:37.000Z</time>
      </trkpt>
      <trkpt lat="45.62877" lon="5.93702">
        <ele>337</ele>
        <time>2012-04-22T09:20:37.000Z</time>
      </trkpt>
      <trkpt lat="45.62877" lon="5.93702">
        <ele>337</ele>
        <time>2012-04-22T09:20:39.000Z</time>
      </trkpt>
      <trkpt lat="45.6288" lon="5.93708">
        <ele>337</ele>
        <time>2012-04-22T09:21:00.000Z</time>
      </trkpt>
      <trkpt lat="45.6288" lon="5.93714">
        <ele>338</ele>
        <time>2012-04-22T09:21:03.000Z</time>
      </trkpt>
      <trkpt lat="45.62876" lon="5.93721">
        <ele>339</ele>
        <time>2012-04-22T09:21:07.000Z</time>
      </trkpt>
      <trkpt lat="45.62871" lon="5.93721">
        <ele>338</ele>
        <time>2012-04-22T09:21:10.000Z</time>
      </trkpt>
      <trkpt lat="45.62866" lon="5.93725">
        <ele>339</ele>
        <time>2012-04-22T09:21:15.000Z</time>
      </trkpt>
      <trkpt lat="45.62863" lon="5.93732">
        <ele>339</ele>
        <time>2012-04-22T09:21:18.000Z</time>
      </trkpt>
      <trkpt lat="45.62863" lon="5.93732">
        <ele>339</ele>
        <time>2012-04-22T09:21:18.000Z</time>
      </trkpt>
      <trkpt lat="45.62863" lon="5.93732">
        <ele>339</ele>
        <time>2012-04-22T09:21:19.000Z</time>
      </trkpt>
      <trkpt lat="45.62863" lon="5.93738">
        <ele>340</ele>
        <time>2012-04-22T09:21:22.000Z</time>
      </trkpt>
      <trkpt lat="45.62863" lon="5.93744">
        <ele>340</ele>
        <time>2012-04-22T09:21:25.000Z</time>
      </trkpt>
      <trkpt lat="45.62862" lon="5.93751">
        <ele>352</ele>
        <time>2012-04-22T09:21:29.000Z</time>
      </trkpt>
      <trkpt lat="45.62862" lon="5.93751">
        <ele>352</ele>
        <time>2012-04-22T09:21:29.000Z</time>
      </trkpt>
      <trkpt lat="45.62862" lon="5.93751">
        <ele>352</ele>
        <time>2012-04-22T09:21:30.000Z</time>
      </trkpt>
      <trkpt lat="45.62862" lon="5.93757">
        <ele>352</ele>
        <time>2012-04-22T09:21:33.000Z</time>
      </trkpt>
      <trkpt lat="45.62862" lon="5.93764">
        <ele>353</ele>
        <time>2012-04-22T09:21:36.000Z</time>
      </trkpt>
      <trkpt lat="45.62862" lon="5.9377">
        <ele>353</ele>
        <time>2012-04-22T09:21:40.000Z</time>
      </trkpt>
      <trkpt lat="45.6286" lon="5.93777">
        <ele>354</ele>
        <time>2012-04-22T09:21:44.000Z</time>
      </trkpt>
      <trkpt lat="45.6286" lon="5.93777">
        <ele>354</ele>
        <time>2012-04-22T09:21:44.000Z</time>
      </trkpt>
      <trkpt lat="45.6286" lon="5.93777">
        <ele>354</ele>
        <time>2012-04-22T09:21:45.000Z</time>
      </trkpt>
      <trkpt lat="45.62857" lon="5.93783">
        <ele>355</ele>
        <time>2012-04-22T09:21:49.000Z</time>
      </trkpt>
      <trkpt lat="45.62853" lon="5.9379">
        <ele>356</ele>
        <time>2012-04-22T09:21:55.000Z</time>
      </trkpt>
      <trkpt lat="45.62852" lon="5.93796">
        <ele>357</ele>
        <time>2012-04-22T09:21:59.000Z</time>
      </trkpt>
      <trkpt lat="45.62852" lon="5.93796">
        <ele>357</ele>
        <time>2012-04-22T09:21:59.000Z</time>
      </trkpt>
      <trkpt lat="45.62852" lon="5.93796">
        <ele>357</ele>
        <time>2012-04-22T09:22:01.000Z</time>
      </trkpt>
      <trkpt lat="45.62855" lon="5.93802">
        <ele>358</ele>
        <time>2012-04-22T09:22:13.000Z</time>
      </trkpt>
      <trkpt lat="45.62855" lon="5.93802">
        <ele>358</ele>
        <time>2012-04-22T09:22:13.000Z</time>
      </trkpt>
      <trkpt lat="45.62855" lon="5.93802">
        <ele>358</ele>
        <time>2012-04-22T09:22:14.000Z</time>
      </trkpt>
      <trkpt lat="45.62854" lon="5.93809">
        <ele>360</ele>
        <time>2012-04-22T09:22:18.000Z</time>
      </trkpt>
      <trkpt lat="45.62854" lon="5.93809">
        <ele>360</ele>
        <time>2012-04-22T09:22:18.000Z</time>
      </trkpt>
      <trkpt lat="45.62854" lon="5.93809">
        <ele>360</ele>
        <time>2012-04-22T09:22:19.000Z</time>
      </trkpt>
      <trkpt lat="45.62855" lon="5.93815">
        <ele>360</ele>
        <time>2012-04-22T09:22:23.000Z</time>
      </trkpt>
      <trkpt lat="45.62857" lon="5.93822">
        <ele>361</ele>
        <time>2012-04-22T09:22:28.000Z</time>
      </trkpt>
      <trkpt lat="45.62855" lon="5.93828">
        <ele>362</ele>
        <time>2012-04-22T09:22:35.000Z</time>
      </trkpt>
      <trkpt lat="45.62853" lon="5.93835">
        <ele>375</ele>
        <time>2012-04-22T09:22:42.000Z</time>
      </trkpt>
      <trkpt lat="45.62853" lon="5.93835">
        <ele>375</ele>
        <time>2012-04-22T09:22:42.000Z</time>
      </trkpt>
      <trkpt lat="45.62853" lon="5.93835">
        <ele>375</ele>
        <time>2012-04-22T09:22:43.000Z</time>
      </trkpt>
      <trkpt lat="45.62854" lon="5.93841">
        <ele>376</ele>
        <time>2012-04-22T09:22:48.000Z</time>
      </trkpt>
      <trkpt lat="45.62854" lon="5.93841">
        <ele>376</ele>
        <time>2012-04-22T09:22:48.000Z</time>
      </trkpt>
      <trkpt lat="45.62854" lon="5.93841">
        <ele>376</ele>
        <time>2012-04-22T09:22:49.000Z</time>
      </trkpt>
      <trkpt lat="45.6286" lon="5.93841">
        <ele>377</ele>
        <time>2012-04-22T09:22:54.000Z</time>
      </trkpt>
      <trkpt lat="45.62867" lon="5.93843">
        <ele>377</ele>
        <time>2012-04-22T09:22:57.000Z</time>
      </trkpt>
      <trkpt lat="45.62871" lon="5.93845">
        <ele>377</ele>
        <time>2012-04-22T09:22:59.000Z</time>
      </trkpt>
      <trkpt lat="45.62875" lon="5.93848">
        <ele>378</ele>
        <time>2012-04-22T09:23:01.000Z</time>
      </trkpt>
      <trkpt lat="45.62881" lon="5.93848">
        <ele>377</ele>
        <time>2012-04-22T09:23:03.000Z</time>
      </trkpt>
      <trkpt lat="45.62885" lon="5.9385">
        <ele>377</ele>
        <time>2012-04-22T09:23:05.000Z</time>
      </trkpt>
      <trkpt lat="45.6289" lon="5.9385">
        <ele>377</ele>
        <time>2012-04-22T09:23:07.000Z</time>
      </trkpt>
      <trkpt lat="45.62896" lon="5.93848">
        <ele>376</ele>
        <time>2012-04-22T09:23:09.000Z</time>
      </trkpt>
      <trkpt lat="45.62902" lon="5.93848">
        <ele>375</ele>
        <time>2012-04-22T09:23:12.000Z</time>
      </trkpt>
      <trkpt lat="45.62908" lon="5.93848">
        <ele>374</ele>
        <time>2012-04-22T09:23:16.000Z</time>
      </trkpt>
      <trkpt lat="45.62914" lon="5.93848">
        <ele>373</ele>
        <time>2012-04-22T09:23:19.000Z</time>
      </trkpt>
      <trkpt lat="45.62919" lon="5.93845">
        <ele>373</ele>
        <time>2012-04-22T09:23:22.000Z</time>
      </trkpt>
      <trkpt lat="45.62926" lon="5.93845">
        <ele>374</ele>
        <time>2012-04-22T09:23:25.000Z</time>
      </trkpt>
      <trkpt lat="45.6293" lon="5.93843">
        <ele>374</ele>
        <time>2012-04-22T09:23:27.000Z</time>
      </trkpt>
      <trkpt lat="45.62935" lon="5.93843">
        <ele>375</ele>
        <time>2012-04-22T09:23:30.000Z</time>
      </trkpt>
      <trkpt lat="45.62942" lon="5.93843">
        <ele>377</ele>
        <time>2012-04-22T09:23:33.000Z</time>
      </trkpt>
      <trkpt lat="45.62948" lon="5.93843">
        <ele>378</ele>
        <time>2012-04-22T09:23:36.000Z</time>
      </trkpt>
      <trkpt lat="45.62955" lon="5.93843">
        <ele>378</ele>
        <time>2012-04-22T09:23:40.000Z</time>
      </trkpt>
      <trkpt lat="45.6296" lon="5.93843">
        <ele>379</ele>
        <time>2012-04-22T09:23:44.000Z</time>
      </trkpt>
      <trkpt lat="45.62965" lon="5.93843">
        <ele>379</ele>
        <time>2012-04-22T09:23:47.000Z</time>
      </trkpt>
      <trkpt lat="45.6297" lon="5.93841">
        <ele>379</ele>
        <time>2012-04-22T09:23:49.000Z</time>
      </trkpt>
      <trkpt lat="45.62976" lon="5.93839">
        <ele>379</ele>
        <time>2012-04-22T09:23:52.000Z</time>
      </trkpt>
      <trkpt lat="45.62982" lon="5.93837">
        <ele>378</ele>
        <time>2012-04-22T09:23:55.000Z</time>
      </trkpt>
      <trkpt lat="45.62988" lon="5.93835">
        <ele>377</ele>
        <time>2012-04-22T09:23:57.000Z</time>
      </trkpt>
      <trkpt lat="45.62992" lon="5.93832">
        <ele>370</ele>
        <time>2012-04-22T09:23:59.000Z</time>
      </trkpt>
      <trkpt lat="45.62998" lon="5.9383">
        <ele>372</ele>
        <time>2012-04-22T09:24:01.000Z</time>
      </trkpt>
      <trkpt lat="45.63002" lon="5.93828">
        <ele>372</ele>
        <time>2012-04-22T09:24:03.000Z</time>
      </trkpt>
      <trkpt lat="45.63007" lon="5.93828">
        <ele>372</ele>
        <time>2012-04-22T09:24:05.000Z</time>
      </trkpt>
      <trkpt lat="45.63012" lon="5.93826">
        <ele>371</ele>
        <time>2012-04-22T09:24:07.000Z</time>
      </trkpt>
      <trkpt lat="45.63017" lon="5.93824">
        <ele>370</ele>
        <time>2012-04-22T09:24:09.000Z</time>
      </trkpt>
      <trkpt lat="45.63021" lon="5.93822">
        <ele>370</ele>
        <time>2012-04-22T09:24:11.000Z</time>
      </trkpt>
      <trkpt lat="45.63028" lon="5.9382">
        <ele>369</ele>
        <time>2012-04-22T09:24:14.000Z</time>
      </trkpt>
      <trkpt lat="45.63033" lon="5.93815">
        <ele>369</ele>
        <time>2012-04-22T09:24:17.000Z</time>
      </trkpt>
      <trkpt lat="45.63038" lon="5.93815">
        <ele>369</ele>
        <time>2012-04-22T09:24:19.000Z</time>
      </trkpt>
      <trkpt lat="45.63044" lon="5.93813">
        <ele>369</ele>
        <time>2012-04-22T09:24:22.000Z</time>
      </trkpt>
      <trkpt lat="45.63049" lon="5.93811">
        <ele>369</ele>
        <time>2012-04-22T09:24:24.000Z</time>
      </trkpt>
      <trkpt lat="45.63056" lon="5.93811">
        <ele>370</ele>
        <time>2012-04-22T09:24:27.000Z</time>
      </trkpt>
      <trkpt lat="45.6306" lon="5.93809">
        <ele>370</ele>
        <time>2012-04-22T09:24:29.000Z</time>
      </trkpt>
      <trkpt lat="45.63065" lon="5.93809">
        <ele>370</ele>
        <time>2012-04-22T09:24:31.000Z</time>
      </trkpt>
      <trkpt lat="45.63072" lon="5.93811">
        <ele>371</ele>
        <time>2012-04-22T09:24:34.000Z</time>
      </trkpt>
      <trkpt lat="45.63077" lon="5.93811">
        <ele>371</ele>
        <time>2012-04-22T09:24:36.000Z</time>
      </trkpt>
      <trkpt lat="45.63081" lon="5.93809">
        <ele>371</ele>
        <time>2012-04-22T09:24:38.000Z</time>
      </trkpt>
      <trkpt lat="45.63088" lon="5.93811">
        <ele>374</ele>
        <time>2012-04-22T09:24:41.000Z</time>
      </trkpt>
      <trkpt lat="45.63092" lon="5.93809">
        <ele>373</ele>
        <time>2012-04-22T09:24:43.000Z</time>
      </trkpt>
      <trkpt lat="45.63098" lon="5.93809">
        <ele>373</ele>
        <time>2012-04-22T09:24:46.000Z</time>
      </trkpt>
      <trkpt lat="45.63105" lon="5.93809">
        <ele>373</ele>
        <time>2012-04-22T09:24:49.000Z</time>
      </trkpt>
      <trkpt lat="45.63109" lon="5.93807">
        <ele>372</ele>
        <time>2012-04-22T09:24:51.000Z</time>
      </trkpt>
      <trkpt lat="45.63113" lon="5.93804">
        <ele>372</ele>
        <time>2012-04-22T09:24:53.000Z</time>
      </trkpt>
      <trkpt lat="45.6312" lon="5.93804">
        <ele>372</ele>
        <time>2012-04-22T09:24:56.000Z</time>
      </trkpt>
      <trkpt lat="45.63126" lon="5.93802">
        <ele>372</ele>
        <time>2012-04-22T09:24:59.000Z</time>
      </trkpt>
      <trkpt lat="45.63134" lon="5.938">
        <ele>372</ele>
        <time>2012-04-22T09:25:02.000Z</time>
      </trkpt>
      <trkpt lat="45.63141" lon="5.93798">
        <ele>372</ele>
        <time>2012-04-22T09:25:05.000Z</time>
      </trkpt>
      <trkpt lat="45.63147" lon="5.93798">
        <ele>372</ele>
        <time>2012-04-22T09:25:07.000Z</time>
      </trkpt>
      <trkpt lat="45.63151" lon="5.938">
        <ele>372</ele>
        <time>2012-04-22T09:25:09.000Z</time>
      </trkpt>
      <trkpt lat="45.63156" lon="5.93802">
        <ele>373</ele>
        <time>2012-04-22T09:25:11.000Z</time>
      </trkpt>
      <trkpt lat="45.63161" lon="5.93804">
        <ele>373</ele>
        <time>2012-04-22T09:25:13.000Z</time>
      </trkpt>
      <trkpt lat="45.63167" lon="5.93807">
        <ele>375</ele>
        <time>2012-04-22T09:25:16.000Z</time>
      </trkpt>
      <trkpt lat="45.63171" lon="5.93809">
        <ele>375</ele>
        <time>2012-04-22T09:25:18.000Z</time>
      </trkpt>
      <trkpt lat="45.63177" lon="5.93809">
        <ele>375</ele>
        <time>2012-04-22T09:25:21.000Z</time>
      </trkpt>
      <trkpt lat="45.63182" lon="5.93811">
        <ele>375</ele>
        <time>2012-04-22T09:25:24.000Z</time>
      </trkpt>
      <trkpt lat="45.63186" lon="5.93813">
        <ele>375</ele>
        <time>2012-04-22T09:25:26.000Z</time>
      </trkpt>
      <trkpt lat="45.63191" lon="5.93815">
        <ele>375</ele>
        <time>2012-04-22T09:25:28.000Z</time>
      </trkpt>
      <trkpt lat="45.63196" lon="5.93817">
        <ele>375</ele>
        <time>2012-04-22T09:25:31.000Z</time>
      </trkpt>
      <trkpt lat="45.63201" lon="5.9382">
        <ele>375</ele>
        <time>2012-04-22T09:25:34.000Z</time>
      </trkpt>
      <trkpt lat="45.63209" lon="5.9382">
        <ele>375</ele>
        <time>2012-04-22T09:25:37.000Z</time>
      </trkpt>
      <trkpt lat="45.63213" lon="5.93822">
        <ele>375</ele>
        <time>2012-04-22T09:25:39.000Z</time>
      </trkpt>
      <trkpt lat="45.63218" lon="5.93824">
        <ele>375</ele>
        <time>2012-04-22T09:25:41.000Z</time>
      </trkpt>
      <trkpt lat="45.63223" lon="5.93824">
        <ele>376</ele>
        <time>2012-04-22T09:25:43.000Z</time>
      </trkpt>
      <trkpt lat="45.63229" lon="5.93824">
        <ele>376</ele>
        <time>2012-04-22T09:25:46.000Z</time>
      </trkpt>
      <trkpt lat="45.63236" lon="5.93824">
        <ele>377</ele>
        <time>2012-04-22T09:25:49.000Z</time>
      </trkpt>
      <trkpt lat="45.63238" lon="5.9383">
        <ele>378</ele>
        <time>2012-04-22T09:25:54.000Z</time>
      </trkpt>
      <trkpt lat="45.63237" lon="5.93837">
        <ele>386</ele>
        <time>2012-04-22T09:25:57.000Z</time>
      </trkpt>
      <trkpt lat="45.63235" lon="5.93843">
        <ele>387</ele>
        <time>2012-04-22T09:26:00.000Z</time>
      </trkpt>
      <trkpt lat="45.6323" lon="5.93848">
        <ele>388</ele>
        <time>2012-04-22T09:26:04.000Z</time>
      </trkpt>
      <trkpt lat="45.63226" lon="5.93852">
        <ele>389</ele>
        <time>2012-04-22T09:26:06.000Z</time>
      </trkpt>
      <trkpt lat="45.63222" lon="5.93854">
        <ele>389</ele>
        <time>2012-04-22T09:26:09.000Z</time>
      </trkpt>
      <trkpt lat="45.63218" lon="5.93858">
        <ele>390</ele>
        <time>2012-04-22T09:26:13.000Z</time>
      </trkpt>
      <trkpt lat="45.63213" lon="5.9386">
        <ele>390</ele>
        <time>2012-04-22T09:26:16.000Z</time>
      </trkpt>
      <trkpt lat="45.63209" lon="5.93862">
        <ele>390</ele>
        <time>2012-04-22T09:26:20.000Z</time>
      </trkpt>
      <trkpt lat="45.63205" lon="5.93867">
        <ele>391</ele>
        <time>2012-04-22T09:26:24.000Z</time>
      </trkpt>
      <trkpt lat="45.632" lon="5.93869">
        <ele>391</ele>
        <time>2012-04-22T09:26:28.000Z</time>
      </trkpt>
      <trkpt lat="45.632" lon="5.93869">
        <ele>391</ele>
        <time>2012-04-22T09:26:28.000Z</time>
      </trkpt>
      <trkpt lat="45.632" lon="5.93869">
        <ele>391</ele>
        <time>2012-04-22T09:26:29.000Z</time>
      </trkpt>
      <trkpt lat="45.63196" lon="5.93871">
        <ele>391</ele>
        <time>2012-04-22T09:26:33.000Z</time>
      </trkpt>
      <trkpt lat="45.63191" lon="5.93873">
        <ele>392</ele>
        <time>2012-04-22T09:26:37.000Z</time>
      </trkpt>
      <trkpt lat="45.63185" lon="5.93878">
        <ele>392</ele>
        <time>2012-04-22T09:26:42.000Z</time>
      </trkpt>
      <trkpt lat="45.63181" lon="5.93882">
        <ele>393</ele>
        <time>2012-04-22T09:26:46.000Z</time>
      </trkpt>
      <trkpt lat="45.63178" lon="5.93888">
        <ele>394</ele>
        <time>2012-04-22T09:26:52.000Z</time>
      </trkpt>
      <trkpt lat="45.63176" lon="5.93895">
        <ele>395</ele>
        <time>2012-04-22T09:26:56.000Z</time>
      </trkpt>
      <trkpt lat="45.63172" lon="5.93901">
        <ele>396</ele>
        <time>2012-04-22T09:27:00.000Z</time>
      </trkpt>
      <trkpt lat="45.63168" lon="5.93908">
        <ele>398</ele>
        <time>2012-04-22T09:27:05.000Z</time>
      </trkpt>
      <trkpt lat="45.63166" lon="5.93914">
        <ele>400</ele>
        <time>2012-04-22T09:27:08.000Z</time>
      </trkpt>
      <trkpt lat="45.63163" lon="5.9392">
        <ele>402</ele>
        <time>2012-04-22T09:27:12.000Z</time>
      </trkpt>
      <trkpt lat="45.63157" lon="5.93923">
        <ele>404</ele>
        <time>2012-04-22T09:27:16.000Z</time>
      </trkpt>
      <trkpt lat="45.63153" lon="5.93927">
        <ele>405</ele>
        <time>2012-04-22T09:27:20.000Z</time>
      </trkpt>
      <trkpt lat="45.63149" lon="5.93931">
        <ele>406</ele>
        <time>2012-04-22T09:27:24.000Z</time>
      </trkpt>
      <trkpt lat="45.63144" lon="5.93933">
        <ele>406</ele>
        <time>2012-04-22T09:27:27.000Z</time>
      </trkpt>
      <trkpt lat="45.63139" lon="5.93935">
        <ele>407</ele>
        <time>2012-04-22T09:27:31.000Z</time>
      </trkpt>
      <trkpt lat="45.63135" lon="5.9394">
        <ele>407</ele>
        <time>2012-04-22T09:27:34.000Z</time>
      </trkpt>
      <trkpt lat="45.6313" lon="5.93946">
        <ele>408</ele>
        <time>2012-04-22T09:27:38.000Z</time>
      </trkpt>
      <trkpt lat="45.63124" lon="5.93953">
        <ele>409</ele>
        <time>2012-04-22T09:27:42.000Z</time>
      </trkpt>
      <trkpt lat="45.6312" lon="5.93957">
        <ele>409</ele>
        <time>2012-04-22T09:27:45.000Z</time>
      </trkpt>
      <trkpt lat="45.63117" lon="5.93963">
        <ele>410</ele>
        <time>2012-04-22T09:27:48.000Z</time>
      </trkpt>
      <trkpt lat="45.63112" lon="5.93968">
        <ele>411</ele>
        <time>2012-04-22T09:27:51.000Z</time>
      </trkpt>
      <trkpt lat="45.6311" lon="5.93974">
        <ele>412</ele>
        <time>2012-04-22T09:27:54.000Z</time>
      </trkpt>
      <trkpt lat="45.63108" lon="5.9398">
        <ele>413</ele>
        <time>2012-04-22T09:27:57.000Z</time>
      </trkpt>
      <trkpt lat="45.63106" lon="5.93987">
        <ele>414</ele>
        <time>2012-04-22T09:28:00.000Z</time>
      </trkpt>
      <trkpt lat="45.63104" lon="5.93993">
        <ele>415</ele>
        <time>2012-04-22T09:28:04.000Z</time>
      </trkpt>
      <trkpt lat="45.63104" lon="5.93993">
        <ele>415</ele>
        <time>2012-04-22T09:28:04.000Z</time>
      </trkpt>
      <trkpt lat="45.63104" lon="5.93993">
        <ele>415</ele>
        <time>2012-04-22T09:28:06.000Z</time>
      </trkpt>
      <trkpt lat="45.63102" lon="5.94">
        <ele>427</ele>
        <time>2012-04-22T09:28:12.000Z</time>
      </trkpt>
      <trkpt lat="45.63098" lon="5.94006">
        <ele>427</ele>
        <time>2012-04-22T09:28:17.000Z</time>
      </trkpt>
      <trkpt lat="45.63094" lon="5.9401">
        <ele>427</ele>
        <time>2012-04-22T09:28:23.000Z</time>
      </trkpt>
      <trkpt lat="45.6309" lon="5.94013">
        <ele>427</ele>
        <time>2012-04-22T09:28:30.000Z</time>
      </trkpt>
      <trkpt lat="45.63084" lon="5.94015">
        <ele>427</ele>
        <time>2012-04-22T09:28:34.000Z</time>
      </trkpt>
      <trkpt lat="45.63079" lon="5.94019">
        <ele>430</ele>
        <time>2012-04-22T09:28:40.000Z</time>
      </trkpt>
      <trkpt lat="45.63075" lon="5.94021">
        <ele>431</ele>
        <time>2012-04-22T09:28:44.000Z</time>
      </trkpt>
      <trkpt lat="45.6307" lon="5.94026">
        <ele>433</ele>
        <time>2012-04-22T09:28:49.000Z</time>
      </trkpt>
      <trkpt lat="45.6307" lon="5.94026">
        <ele>433</ele>
        <time>2012-04-22T09:28:49.000Z</time>
      </trkpt>
      <trkpt lat="45.6307" lon="5.94026">
        <ele>433</ele>
        <time>2012-04-22T09:28:50.000Z</time>
      </trkpt>
      <trkpt lat="45.63066" lon="5.9403">
        <ele>434</ele>
        <time>2012-04-22T09:28:55.000Z</time>
      </trkpt>
      <trkpt lat="45.63066" lon="5.9403">
        <ele>434</ele>
        <time>2012-04-22T09:28:55.000Z</time>
      </trkpt>
      <trkpt lat="45.63066" lon="5.9403">
        <ele>434</ele>
        <time>2012-04-22T09:28:56.000Z</time>
      </trkpt>
      <trkpt lat="45.63062" lon="5.94032">
        <ele>435</ele>
        <time>2012-04-22T09:29:00.000Z</time>
      </trkpt>
      <trkpt lat="45.63062" lon="5.94032">
        <ele>435</ele>
        <time>2012-04-22T09:29:00.000Z</time>
      </trkpt>
      <trkpt lat="45.63062" lon="5.94032">
        <ele>435</ele>
        <time>2012-04-22T09:29:01.000Z</time>
      </trkpt>
      <trkpt lat="45.63058" lon="5.94034">
        <ele>435</ele>
        <time>2012-04-22T09:29:05.000Z</time>
      </trkpt>
      <trkpt lat="45.63053" lon="5.94038">
        <ele>436</ele>
        <time>2012-04-22T09:29:10.000Z</time>
      </trkpt>
      <trkpt lat="45.63049" lon="5.94041">
        <ele>437</ele>
        <time>2012-04-22T09:29:15.000Z</time>
      </trkpt>
      <trkpt lat="45.63044" lon="5.94045">
        <ele>438</ele>
        <time>2012-04-22T09:29:21.000Z</time>
      </trkpt>
      <trkpt lat="45.63039" lon="5.94047">
        <ele>439</ele>
        <time>2012-04-22T09:29:25.000Z</time>
      </trkpt>
      <trkpt lat="45.63039" lon="5.94047">
        <ele>439</ele>
        <time>2012-04-22T09:29:25.000Z</time>
      </trkpt>
      <trkpt lat="45.63039" lon="5.94047">
        <ele>439</ele>
        <time>2012-04-22T09:29:26.000Z</time>
      </trkpt>
      <trkpt lat="45.63035" lon="5.94049">
        <ele>439</ele>
        <time>2012-04-22T09:29:30.000Z</time>
      </trkpt>
      <trkpt lat="45.63031" lon="5.94056">
        <ele>441</ele>
        <time>2012-04-22T09:29:35.000Z</time>
      </trkpt>
      <trkpt lat="45.63026" lon="5.9406">
        <ele>442</ele>
        <time>2012-04-22T09:29:39.000Z</time>
      </trkpt>
      <trkpt lat="45.63026" lon="5.9406">
        <ele>442</ele>
        <time>2012-04-22T09:29:39.000Z</time>
      </trkpt>
      <trkpt lat="45.63026" lon="5.9406">
        <ele>442</ele>
        <time>2012-04-22T09:29:40.000Z</time>
      </trkpt>
      <trkpt lat="45.63022" lon="5.94062">
        <ele>443</ele>
        <time>2012-04-22T09:29:49.000Z</time>
      </trkpt>
      <trkpt lat="45.63022" lon="5.94062">
        <ele>443</ele>
        <time>2012-04-22T09:29:49.000Z</time>
      </trkpt>
      <trkpt lat="45.63022" lon="5.94062">
        <ele>443</ele>
        <time>2012-04-22T09:29:50.000Z</time>
      </trkpt>
      <trkpt lat="45.63024" lon="5.94068">
        <ele>444</ele>
        <time>2012-04-22T09:30:17.000Z</time>
      </trkpt>
      <trkpt lat="45.6303" lon="5.94071">
        <ele>443</ele>
        <time>2012-04-22T09:30:20.000Z</time>
      </trkpt>
      <trkpt lat="45.63035" lon="5.94071">
        <ele>442</ele>
        <time>2012-04-22T09:30:23.000Z</time>
      </trkpt>
      <trkpt lat="45.6304" lon="5.94073">
        <ele>442</ele>
        <time>2012-04-22T09:30:25.000Z</time>
      </trkpt>
      <trkpt lat="45.63047" lon="5.94073">
        <ele>442</ele>
        <time>2012-04-22T09:30:28.000Z</time>
      </trkpt>
      <trkpt lat="45.63051" lon="5.94075">
        <ele>442</ele>
        <time>2012-04-22T09:30:30.000Z</time>
      </trkpt>
      <trkpt lat="45.63056" lon="5.94079">
        <ele>442</ele>
        <time>2012-04-22T09:30:33.000Z</time>
      </trkpt>
      <trkpt lat="45.63061" lon="5.94084">
        <ele>456</ele>
        <time>2012-04-22T09:30:35.000Z</time>
      </trkpt>
      <trkpt lat="45.63065" lon="5.94086">
        <ele>456</ele>
        <time>2012-04-22T09:30:37.000Z</time>
      </trkpt>
      <trkpt lat="45.6307" lon="5.94088">
        <ele>454</ele>
        <time>2012-04-22T09:30:39.000Z</time>
      </trkpt>
      <trkpt lat="45.63075" lon="5.9409">
        <ele>453</ele>
        <time>2012-04-22T09:30:41.000Z</time>
      </trkpt>
      <trkpt lat="45.63079" lon="5.94092">
        <ele>453</ele>
        <time>2012-04-22T09:30:43.000Z</time>
      </trkpt>
      <trkpt lat="45.63086" lon="5.94092">
        <ele>451</ele>
        <time>2012-04-22T09:30:46.000Z</time>
      </trkpt>
      <trkpt lat="45.6309" lon="5.94094">
        <ele>452</ele>
        <time>2012-04-22T09:30:48.000Z</time>
      </trkpt>
      <trkpt lat="45.63095" lon="5.94094">
        <ele>453</ele>
        <time>2012-04-22T09:30:50.000Z</time>
      </trkpt>
      <trkpt lat="45.631" lon="5.94096">
        <ele>454</ele>
        <time>2012-04-22T09:30:52.000Z</time>
      </trkpt>
      <trkpt lat="45.63106" lon="5.94096">
        <ele>455</ele>
        <time>2012-04-22T09:30:55.000Z</time>
      </trkpt>
      <trkpt lat="45.6311" lon="5.94094">
        <ele>455</ele>
        <time>2012-04-22T09:30:57.000Z</time>
      </trkpt>
      <trkpt lat="45.63117" lon="5.94094">
        <ele>455</ele>
        <time>2012-04-22T09:31:00.000Z</time>
      </trkpt>
      <trkpt lat="45.63124" lon="5.94094">
        <ele>456</ele>
        <time>2012-04-22T09:31:03.000Z</time>
      </trkpt>
      <trkpt lat="45.63131" lon="5.94094">
        <ele>456</ele>
        <time>2012-04-22T09:31:06.000Z</time>
      </trkpt>
      <trkpt lat="45.63137" lon="5.94096">
        <ele>456</ele>
        <time>2012-04-22T09:31:09.000Z</time>
      </trkpt>
      <trkpt lat="45.63143" lon="5.94096">
        <ele>455</ele>
        <time>2012-04-22T09:31:12.000Z</time>
      </trkpt>
      <trkpt lat="45.63148" lon="5.94098">
        <ele>455</ele>
        <time>2012-04-22T09:31:14.000Z</time>
      </trkpt>
      <trkpt lat="45.63154" lon="5.94098">
        <ele>454</ele>
        <time>2012-04-22T09:31:17.000Z</time>
      </trkpt>
      <trkpt lat="45.63158" lon="5.94101">
        <ele>455</ele>
        <time>2012-04-22T09:31:19.000Z</time>
      </trkpt>
      <trkpt lat="45.63164" lon="5.94101">
        <ele>454</ele>
        <time>2012-04-22T09:31:22.000Z</time>
      </trkpt>
      <trkpt lat="45.6317" lon="5.94103">
        <ele>456</ele>
        <time>2012-04-22T09:31:25.000Z</time>
      </trkpt>
      <trkpt lat="45.63177" lon="5.94103">
        <ele>456</ele>
        <time>2012-04-22T09:31:28.000Z</time>
      </trkpt>
      <trkpt lat="45.63182" lon="5.94105">
        <ele>457</ele>
        <time>2012-04-22T09:31:30.000Z</time>
      </trkpt>
      <trkpt lat="45.63188" lon="5.94107">
        <ele>458</ele>
        <time>2012-04-22T09:31:33.000Z</time>
      </trkpt>
      <trkpt lat="45.63194" lon="5.94107">
        <ele>458</ele>
        <time>2012-04-22T09:31:35.000Z</time>
      </trkpt>
      <trkpt lat="45.63199" lon="5.94107">
        <ele>458</ele>
        <time>2012-04-22T09:31:37.000Z</time>
      </trkpt>
      <trkpt lat="45.63205" lon="5.94109">
        <ele>459</ele>
        <time>2012-04-22T09:31:39.000Z</time>
      </trkpt>
      <trkpt lat="45.63211" lon="5.94111">
        <ele>459</ele>
        <time>2012-04-22T09:31:42.000Z</time>
      </trkpt>
      <trkpt lat="45.63218" lon="5.94111">
        <ele>459</ele>
        <time>2012-04-22T09:31:45.000Z</time>
      </trkpt>
      <trkpt lat="45.63222" lon="5.94114">
        <ele>460</ele>
        <time>2012-04-22T09:31:47.000Z</time>
      </trkpt>
      <trkpt lat="45.63228" lon="5.94114">
        <ele>460</ele>
        <time>2012-04-22T09:31:50.000Z</time>
      </trkpt>
      <trkpt lat="45.63232" lon="5.94116">
        <ele>460</ele>
        <time>2012-04-22T09:31:52.000Z</time>
      </trkpt>
      <trkpt lat="45.63238" lon="5.94116">
        <ele>460</ele>
        <time>2012-04-22T09:31:55.000Z</time>
      </trkpt>
      <trkpt lat="45.63242" lon="5.94118">
        <ele>460</ele>
        <time>2012-04-22T09:31:57.000Z</time>
      </trkpt>
      <trkpt lat="45.63248" lon="5.94116">
        <ele>460</ele>
        <time>2012-04-22T09:32:00.000Z</time>
      </trkpt>
      <trkpt lat="45.63252" lon="5.94114">
        <ele>459</ele>
        <time>2012-04-22T09:32:02.000Z</time>
      </trkpt>
      <trkpt lat="45.63257" lon="5.94111">
        <ele>459</ele>
        <time>2012-04-22T09:32:05.000Z</time>
      </trkpt>
      <trkpt lat="45.63262" lon="5.94109">
        <ele>458</ele>
        <time>2012-04-22T09:32:07.000Z</time>
      </trkpt>
      <trkpt lat="45.63267" lon="5.94105">
        <ele>458</ele>
        <time>2012-04-22T09:32:10.000Z</time>
      </trkpt>
      <trkpt lat="45.63272" lon="5.94103">
        <ele>458</ele>
        <time>2012-04-22T09:32:13.000Z</time>
      </trkpt>
      <trkpt lat="45.63276" lon="5.94107">
        <ele>458</ele>
        <time>2012-04-22T09:32:16.000Z</time>
      </trkpt>
      <trkpt lat="45.63279" lon="5.94114">
        <ele>459</ele>
        <time>2012-04-22T09:32:20.000Z</time>
      </trkpt>
      <trkpt lat="45.63276" lon="5.9412">
        <ele>460</ele>
        <time>2012-04-22T09:32:23.000Z</time>
      </trkpt>
      <trkpt lat="45.63274" lon="5.94126">
        <ele>461</ele>
        <time>2012-04-22T09:32:26.000Z</time>
      </trkpt>
      <trkpt lat="45.63272" lon="5.94133">
        <ele>461</ele>
        <time>2012-04-22T09:32:29.000Z</time>
      </trkpt>
      <trkpt lat="45.63269" lon="5.94139">
        <ele>462</ele>
        <time>2012-04-22T09:32:32.000Z</time>
      </trkpt>
      <trkpt lat="45.63266" lon="5.94146">
        <ele>464</ele>
        <time>2012-04-22T09:32:35.000Z</time>
      </trkpt>
      <trkpt lat="45.6326" lon="5.94152">
        <ele>465</ele>
        <time>2012-04-22T09:32:38.000Z</time>
      </trkpt>
      <trkpt lat="45.63256" lon="5.94156">
        <ele>467</ele>
        <time>2012-04-22T09:32:41.000Z</time>
      </trkpt>
      <trkpt lat="45.63251" lon="5.94156">
        <ele>467</ele>
        <time>2012-04-22T09:32:44.000Z</time>
      </trkpt>
      <trkpt lat="45.63245" lon="5.94156">
        <ele>467</ele>
        <time>2012-04-22T09:32:47.000Z</time>
      </trkpt>
      <trkpt lat="45.63239" lon="5.94156">
        <ele>467</ele>
        <time>2012-04-22T09:32:51.000Z</time>
      </trkpt>
      <trkpt lat="45.63232" lon="5.94159">
        <ele>466</ele>
        <time>2012-04-22T09:32:55.000Z</time>
      </trkpt>
      <trkpt lat="45.63229" lon="5.94165">
        <ele>466</ele>
        <time>2012-04-22T09:32:59.000Z</time>
      </trkpt>
      <trkpt lat="45.63229" lon="5.94172">
        <ele>478</ele>
        <time>2012-04-22T09:33:02.000Z</time>
      </trkpt>
      <trkpt lat="45.63231" lon="5.94178">
        <ele>479</ele>
        <time>2012-04-22T09:33:05.000Z</time>
      </trkpt>
      <trkpt lat="45.63235" lon="5.94184">
        <ele>480</ele>
        <time>2012-04-22T09:33:08.000Z</time>
      </trkpt>
      <trkpt lat="45.63238" lon="5.94189">
        <ele>480</ele>
        <time>2012-04-22T09:33:10.000Z</time>
      </trkpt>
      <trkpt lat="45.63244" lon="5.94191">
        <ele>481</ele>
        <time>2012-04-22T09:33:13.000Z</time>
      </trkpt>
      <trkpt lat="45.63251" lon="5.94191">
        <ele>479</ele>
        <time>2012-04-22T09:33:15.000Z</time>
      </trkpt>
      <trkpt lat="45.63257" lon="5.94191">
        <ele>479</ele>
        <time>2012-04-22T09:33:17.000Z</time>
      </trkpt>
      <trkpt lat="45.63262" lon="5.94193">
        <ele>479</ele>
        <time>2012-04-22T09:33:19.000Z</time>
      </trkpt>
      <trkpt lat="45.63267" lon="5.94193">
        <ele>479</ele>
        <time>2012-04-22T09:33:22.000Z</time>
      </trkpt>
      <trkpt lat="45.63271" lon="5.94195">
        <ele>480</ele>
        <time>2012-04-22T09:33:24.000Z</time>
      </trkpt>
      <trkpt lat="45.63276" lon="5.94195">
        <ele>480</ele>
        <time>2012-04-22T09:33:27.000Z</time>
      </trkpt>
      <trkpt lat="45.63282" lon="5.94197">
        <ele>480</ele>
        <time>2012-04-22T09:33:30.000Z</time>
      </trkpt>
      <trkpt lat="45.63287" lon="5.94199">
        <ele>480</ele>
        <time>2012-04-22T09:33:33.000Z</time>
      </trkpt>
      <trkpt lat="45.63293" lon="5.94204">
        <ele>481</ele>
        <time>2012-04-22T09:33:36.000Z</time>
      </trkpt>
      <trkpt lat="45.63297" lon="5.94206">
        <ele>481</ele>
        <time>2012-04-22T09:33:39.000Z</time>
      </trkpt>
      <trkpt lat="45.63302" lon="5.9421">
        <ele>482</ele>
        <time>2012-04-22T09:33:42.000Z</time>
      </trkpt>
      <trkpt lat="45.63306" lon="5.94214">
        <ele>482</ele>
        <time>2012-04-22T09:33:45.000Z</time>
      </trkpt>
      <trkpt lat="45.63311" lon="5.94216">
        <ele>482</ele>
        <time>2012-04-22T09:33:48.000Z</time>
      </trkpt>
      <trkpt lat="45.63316" lon="5.94219">
        <ele>483</ele>
        <time>2012-04-22T09:33:51.000Z</time>
      </trkpt>
      <trkpt lat="45.63322" lon="5.94221">
        <ele>483</ele>
        <time>2012-04-22T09:33:54.000Z</time>
      </trkpt>
      <trkpt lat="45.63326" lon="5.94223">
        <ele>484</ele>
        <time>2012-04-22T09:33:57.000Z</time>
      </trkpt>
      <trkpt lat="45.63331" lon="5.94225">
        <ele>484</ele>
        <time>2012-04-22T09:34:00.000Z</time>
      </trkpt>
      <trkpt lat="45.63336" lon="5.94227">
        <ele>482</ele>
        <time>2012-04-22T09:34:03.000Z</time>
      </trkpt>
      <trkpt lat="45.6334" lon="5.94229">
        <ele>482</ele>
        <time>2012-04-22T09:34:05.000Z</time>
      </trkpt>
      <trkpt lat="45.63345" lon="5.94232">
        <ele>482</ele>
        <time>2012-04-22T09:34:08.000Z</time>
      </trkpt>
      <trkpt lat="45.63349" lon="5.94236">
        <ele>483</ele>
        <time>2012-04-22T09:34:11.000Z</time>
      </trkpt>
      <trkpt lat="45.63355" lon="5.9424">
        <ele>482</ele>
        <time>2012-04-22T09:34:14.000Z</time>
      </trkpt>
      <trkpt lat="45.63359" lon="5.94244">
        <ele>482</ele>
        <time>2012-04-22T09:34:17.000Z</time>
      </trkpt>
      <trkpt lat="45.63363" lon="5.94249">
        <ele>482</ele>
        <time>2012-04-22T09:34:20.000Z</time>
      </trkpt>
      <trkpt lat="45.63367" lon="5.94255">
        <ele>496</ele>
        <time>2012-04-22T09:34:23.000Z</time>
      </trkpt>
      <trkpt lat="45.6337" lon="5.94262">
        <ele>496</ele>
        <time>2012-04-22T09:34:26.000Z</time>
      </trkpt>
      <trkpt lat="45.63371" lon="5.94268">
        <ele>497</ele>
        <time>2012-04-22T09:34:29.000Z</time>
      </trkpt>
      <trkpt lat="45.63372" lon="5.94274">
        <ele>498</ele>
        <time>2012-04-22T09:34:31.000Z</time>
      </trkpt>
      <trkpt lat="45.63373" lon="5.94281">
        <ele>498</ele>
        <time>2012-04-22T09:34:34.000Z</time>
      </trkpt>
      <trkpt lat="45.63373" lon="5.9429">
        <ele>500</ele>
        <time>2012-04-22T09:34:37.000Z</time>
      </trkpt>
      <trkpt lat="45.63375" lon="5.94296">
        <ele>500</ele>
        <time>2012-04-22T09:34:40.000Z</time>
      </trkpt>
      <trkpt lat="45.63376" lon="5.94302">
        <ele>501</ele>
        <time>2012-04-22T09:34:42.000Z</time>
      </trkpt>
      <trkpt lat="45.6338" lon="5.94309">
        <ele>502</ele>
        <time>2012-04-22T09:34:45.000Z</time>
      </trkpt>
      <trkpt lat="45.63382" lon="5.94315">
        <ele>502</ele>
        <time>2012-04-22T09:34:47.000Z</time>
      </trkpt>
      <trkpt lat="45.63385" lon="5.94322">
        <ele>503</ele>
        <time>2012-04-22T09:34:50.000Z</time>
      </trkpt>
      <trkpt lat="45.63388" lon="5.94328">
        <ele>503</ele>
        <time>2012-04-22T09:34:53.000Z</time>
      </trkpt>
      <trkpt lat="45.63392" lon="5.94332">
        <ele>503</ele>
        <time>2012-04-22T09:34:56.000Z</time>
      </trkpt>
      <trkpt lat="45.63396" lon="5.94339">
        <ele>519</ele>
        <time>2012-04-22T09:34:59.000Z</time>
      </trkpt>
      <trkpt lat="45.63399" lon="5.94345">
        <ele>520</ele>
        <time>2012-04-22T09:35:02.000Z</time>
      </trkpt>
      <trkpt lat="45.63403" lon="5.9435">
        <ele>520</ele>
        <time>2012-04-22T09:35:05.000Z</time>
      </trkpt>
      <trkpt lat="45.63407" lon="5.94354">
        <ele>521</ele>
        <time>2012-04-22T09:35:08.000Z</time>
      </trkpt>
      <trkpt lat="45.63413" lon="5.94358">
        <ele>522</ele>
        <time>2012-04-22T09:35:11.000Z</time>
      </trkpt>
      <trkpt lat="45.63418" lon="5.94362">
        <ele>516</ele>
        <time>2012-04-22T09:35:14.000Z</time>
      </trkpt>
      <trkpt lat="45.63424" lon="5.94365">
        <ele>517</ele>
        <time>2012-04-22T09:35:18.000Z</time>
      </trkpt>
      <trkpt lat="45.6343" lon="5.94367">
        <ele>518</ele>
        <time>2012-04-22T09:35:22.000Z</time>
      </trkpt>
      <trkpt lat="45.63436" lon="5.94367">
        <ele>518</ele>
        <time>2012-04-22T09:35:26.000Z</time>
      </trkpt>
      <trkpt lat="45.63441" lon="5.94369">
        <ele>519</ele>
        <time>2012-04-22T09:35:29.000Z</time>
      </trkpt>
      <trkpt lat="45.63446" lon="5.94369">
        <ele>518</ele>
        <time>2012-04-22T09:35:32.000Z</time>
      </trkpt>
      <trkpt lat="45.63451" lon="5.94369">
        <ele>518</ele>
        <time>2012-04-22T09:35:35.000Z</time>
      </trkpt>
      <trkpt lat="45.63457" lon="5.94371">
        <ele>518</ele>
        <time>2012-04-22T09:35:38.000Z</time>
      </trkpt>
      <trkpt lat="45.63463" lon="5.94371">
        <ele>518</ele>
        <time>2012-04-22T09:35:42.000Z</time>
      </trkpt>
      <trkpt lat="45.63468" lon="5.94373">
        <ele>518</ele>
        <time>2012-04-22T09:35:45.000Z</time>
      </trkpt>
      <trkpt lat="45.63473" lon="5.94373">
        <ele>518</ele>
        <time>2012-04-22T09:35:48.000Z</time>
      </trkpt>
      <trkpt lat="45.63477" lon="5.94375">
        <ele>518</ele>
        <time>2012-04-22T09:35:51.000Z</time>
      </trkpt>
      <trkpt lat="45.63481" lon="5.94378">
        <ele>519</ele>
        <time>2012-04-22T09:35:54.000Z</time>
      </trkpt>
      <trkpt lat="45.63487" lon="5.9438">
        <ele>519</ele>
        <time>2012-04-22T09:35:58.000Z</time>
      </trkpt>
      <trkpt lat="45.63492" lon="5.94382">
        <ele>520</ele>
        <time>2012-04-22T09:36:01.000Z</time>
      </trkpt>
      <trkpt lat="45.63498" lon="5.94384">
        <ele>520</ele>
        <time>2012-04-22T09:36:04.000Z</time>
      </trkpt>
      <trkpt lat="45.63502" lon="5.94388">
        <ele>515</ele>
        <time>2012-04-22T09:36:07.000Z</time>
      </trkpt>
      <trkpt lat="45.63506" lon="5.94392">
        <ele>516</ele>
        <time>2012-04-22T09:36:10.000Z</time>
      </trkpt>
      <trkpt lat="45.6351" lon="5.94399">
        <ele>518</ele>
        <time>2012-04-22T09:36:13.000Z</time>
      </trkpt>
      <trkpt lat="45.63515" lon="5.94403">
        <ele>518</ele>
        <time>2012-04-22T09:36:16.000Z</time>
      </trkpt>
      <trkpt lat="45.63518" lon="5.9441">
        <ele>519</ele>
        <time>2012-04-22T09:36:19.000Z</time>
      </trkpt>
      <trkpt lat="45.63523" lon="5.94416">
        <ele>518</ele>
        <time>2012-04-22T09:36:23.000Z</time>
      </trkpt>
      <trkpt lat="45.63529" lon="5.9442">
        <ele>537</ele>
        <time>2012-04-22T09:36:27.000Z</time>
      </trkpt>
      <trkpt lat="45.63533" lon="5.94425">
        <ele>538</ele>
        <time>2012-04-22T09:36:30.000Z</time>
      </trkpt>
      <trkpt lat="45.63538" lon="5.94425">
        <ele>537</ele>
        <time>2012-04-22T09:36:34.000Z</time>
      </trkpt>
      <trkpt lat="45.63544" lon="5.94427">
        <ele>537</ele>
        <time>2012-04-22T09:36:37.000Z</time>
      </trkpt>
      <trkpt lat="45.63548" lon="5.94429">
        <ele>536</ele>
        <time>2012-04-22T09:36:40.000Z</time>
      </trkpt>
      <trkpt lat="45.63553" lon="5.94433">
        <ele>536</ele>
        <time>2012-04-22T09:36:43.000Z</time>
      </trkpt>
      <trkpt lat="45.63558" lon="5.94438">
        <ele>536</ele>
        <time>2012-04-22T09:36:46.000Z</time>
      </trkpt>
      <trkpt lat="45.63562" lon="5.9444">
        <ele>536</ele>
        <time>2012-04-22T09:36:48.000Z</time>
      </trkpt>
      <trkpt lat="45.63567" lon="5.94444">
        <ele>537</ele>
        <time>2012-04-22T09:36:51.000Z</time>
      </trkpt>
      <trkpt lat="45.63573" lon="5.94448">
        <ele>537</ele>
        <time>2012-04-22T09:36:54.000Z</time>
      </trkpt>
      <trkpt lat="45.63578" lon="5.94453">
        <ele>539</ele>
        <time>2012-04-22T09:36:57.000Z</time>
      </trkpt>
      <trkpt lat="45.63583" lon="5.94457">
        <ele>540</ele>
        <time>2012-04-22T09:37:00.000Z</time>
      </trkpt>
      <trkpt lat="45.63589" lon="5.94459">
        <ele>527</ele>
        <time>2012-04-22T09:37:03.000Z</time>
      </trkpt>
      <trkpt lat="45.63594" lon="5.94463">
        <ele>528</ele>
        <time>2012-04-22T09:37:06.000Z</time>
      </trkpt>
      <trkpt lat="45.63599" lon="5.94463">
        <ele>528</ele>
        <time>2012-04-22T09:37:08.000Z</time>
      </trkpt>
      <trkpt lat="45.63604" lon="5.94465">
        <ele>527</ele>
        <time>2012-04-22T09:37:10.000Z</time>
      </trkpt>
      <trkpt lat="45.63609" lon="5.94468">
        <ele>527</ele>
        <time>2012-04-22T09:37:13.000Z</time>
      </trkpt>
      <trkpt lat="45.63613" lon="5.9447">
        <ele>527</ele>
        <time>2012-04-22T09:37:15.000Z</time>
      </trkpt>
      <trkpt lat="45.63619" lon="5.94472">
        <ele>526</ele>
        <time>2012-04-22T09:37:18.000Z</time>
      </trkpt>
      <trkpt lat="45.63623" lon="5.94476">
        <ele>526</ele>
        <time>2012-04-22T09:37:20.000Z</time>
      </trkpt>
      <trkpt lat="45.63628" lon="5.94478">
        <ele>526</ele>
        <time>2012-04-22T09:37:23.000Z</time>
      </trkpt>
      <trkpt lat="45.63633" lon="5.94483">
        <ele>526</ele>
        <time>2012-04-22T09:37:25.000Z</time>
      </trkpt>
      <trkpt lat="45.63637" lon="5.94485">
        <ele>525</ele>
        <time>2012-04-22T09:37:27.000Z</time>
      </trkpt>
      <trkpt lat="45.63643" lon="5.94487">
        <ele>525</ele>
        <time>2012-04-22T09:37:30.000Z</time>
      </trkpt>
      <trkpt lat="45.63648" lon="5.94489">
        <ele>524</ele>
        <time>2012-04-22T09:37:32.000Z</time>
      </trkpt>
      <trkpt lat="45.63652" lon="5.94491">
        <ele>524</ele>
        <time>2012-04-22T09:37:34.000Z</time>
      </trkpt>
      <trkpt lat="45.63657" lon="5.94493">
        <ele>524</ele>
        <time>2012-04-22T09:37:37.000Z</time>
      </trkpt>
      <trkpt lat="45.63663" lon="5.94498">
        <ele>525</ele>
        <time>2012-04-22T09:37:40.000Z</time>
      </trkpt>
      <trkpt lat="45.63667" lon="5.94502">
        <ele>526</ele>
        <time>2012-04-22T09:37:43.000Z</time>
      </trkpt>
      <trkpt lat="45.63672" lon="5.94506">
        <ele>528</ele>
        <time>2012-04-22T09:37:46.000Z</time>
      </trkpt>
      <trkpt lat="45.63677" lon="5.9451">
        <ele>530</ele>
        <time>2012-04-22T09:37:49.000Z</time>
      </trkpt>
      <trkpt lat="45.63682" lon="5.94515">
        <ele>531</ele>
        <time>2012-04-22T09:37:52.000Z</time>
      </trkpt>
      <trkpt lat="45.63686" lon="5.94519">
        <ele>532</ele>
        <time>2012-04-22T09:37:55.000Z</time>
      </trkpt>
      <trkpt lat="45.63691" lon="5.94523">
        <ele>533</ele>
        <time>2012-04-22T09:37:58.000Z</time>
      </trkpt>
      <trkpt lat="45.63695" lon="5.9453">
        <ele>534</ele>
        <time>2012-04-22T09:38:01.000Z</time>
      </trkpt>
      <trkpt lat="45.63699" lon="5.94538">
        <ele>535</ele>
        <time>2012-04-22T09:38:04.000Z</time>
      </trkpt>
      <trkpt lat="45.63704" lon="5.94545">
        <ele>537</ele>
        <time>2012-04-22T09:38:07.000Z</time>
      </trkpt>
      <trkpt lat="45.63708" lon="5.94547">
        <ele>536</ele>
        <time>2012-04-22T09:38:09.000Z</time>
      </trkpt>
      <trkpt lat="45.63712" lon="5.94549">
        <ele>536</ele>
        <time>2012-04-22T09:38:11.000Z</time>
      </trkpt>
      <trkpt lat="45.63717" lon="5.94551">
        <ele>536</ele>
        <time>2012-04-22T09:38:14.000Z</time>
      </trkpt>
      <trkpt lat="45.63722" lon="5.94553">
        <ele>536</ele>
        <time>2012-04-22T09:38:16.000Z</time>
      </trkpt>
      <trkpt lat="45.63727" lon="5.94553">
        <ele>535</ele>
        <time>2012-04-22T09:38:19.000Z</time>
      </trkpt>
      <trkpt lat="45.63731" lon="5.94556">
        <ele>535</ele>
        <time>2012-04-22T09:38:21.000Z</time>
      </trkpt>
      <trkpt lat="45.63738" lon="5.94556">
        <ele>535</ele>
        <time>2012-04-22T09:38:24.000Z</time>
      </trkpt>
      <trkpt lat="45.63743" lon="5.94558">
        <ele>535</ele>
        <time>2012-04-22T09:38:27.000Z</time>
      </trkpt>
      <trkpt lat="45.63748" lon="5.9456">
        <ele>535</ele>
        <time>2012-04-22T09:38:29.000Z</time>
      </trkpt>
      <trkpt lat="45.63752" lon="5.94564">
        <ele>527</ele>
        <time>2012-04-22T09:38:32.000Z</time>
      </trkpt>
      <trkpt lat="45.63756" lon="5.94568">
        <ele>529</ele>
        <time>2012-04-22T09:38:35.000Z</time>
      </trkpt>
      <trkpt lat="45.6376" lon="5.94573">
        <ele>530</ele>
        <time>2012-04-22T09:38:38.000Z</time>
      </trkpt>
      <trkpt lat="45.63764" lon="5.94577">
        <ele>530</ele>
        <time>2012-04-22T09:38:41.000Z</time>
      </trkpt>
      <trkpt lat="45.63768" lon="5.94581">
        <ele>529</ele>
        <time>2012-04-22T09:38:44.000Z</time>
      </trkpt>
      <trkpt lat="45.63772" lon="5.94586">
        <ele>549</ele>
        <time>2012-04-22T09:38:47.000Z</time>
      </trkpt>
      <trkpt lat="45.63776" lon="5.94588">
        <ele>550</ele>
        <time>2012-04-22T09:38:50.000Z</time>
      </trkpt>
      <trkpt lat="45.63781" lon="5.9459">
        <ele>551</ele>
        <time>2012-04-22T09:38:53.000Z</time>
      </trkpt>
      <trkpt lat="45.63785" lon="5.94594">
        <ele>551</ele>
        <time>2012-04-22T09:38:57.000Z</time>
      </trkpt>
      <trkpt lat="45.6379" lon="5.94596">
        <ele>551</ele>
        <time>2012-04-22T09:39:00.000Z</time>
      </trkpt>
      <trkpt lat="45.63795" lon="5.94601">
        <ele>552</ele>
        <time>2012-04-22T09:39:03.000Z</time>
      </trkpt>
      <trkpt lat="45.63799" lon="5.94605">
        <ele>552</ele>
        <time>2012-04-22T09:39:06.000Z</time>
      </trkpt>
      <trkpt lat="45.63803" lon="5.94611">
        <ele>553</ele>
        <time>2012-04-22T09:39:09.000Z</time>
      </trkpt>
      <trkpt lat="45.63808" lon="5.94616">
        <ele>554</ele>
        <time>2012-04-22T09:39:13.000Z</time>
      </trkpt>
      <trkpt lat="45.63812" lon="5.94622">
        <ele>556</ele>
        <time>2012-04-22T09:39:16.000Z</time>
      </trkpt>
      <trkpt lat="45.63816" lon="5.94624">
        <ele>556</ele>
        <time>2012-04-22T09:39:19.000Z</time>
      </trkpt>
      <trkpt lat="45.63822" lon="5.94626">
        <ele>557</ele>
        <time>2012-04-22T09:39:22.000Z</time>
      </trkpt>
      <trkpt lat="45.63826" lon="5.94631">
        <ele>558</ele>
        <time>2012-04-22T09:39:25.000Z</time>
      </trkpt>
      <trkpt lat="45.63831" lon="5.94633">
        <ele>559</ele>
        <time>2012-04-22T09:39:28.000Z</time>
      </trkpt>
      <trkpt lat="45.63836" lon="5.94637">
        <ele>554</ele>
        <time>2012-04-22T09:39:31.000Z</time>
      </trkpt>
      <trkpt lat="45.63842" lon="5.94637">
        <ele>554</ele>
        <time>2012-04-22T09:39:34.000Z</time>
      </trkpt>
      <trkpt lat="45.63846" lon="5.94639">
        <ele>555</ele>
        <time>2012-04-22T09:39:36.000Z</time>
      </trkpt>
      <trkpt lat="45.63852" lon="5.94637">
        <ele>553</ele>
        <time>2012-04-22T09:39:39.000Z</time>
      </trkpt>
      <trkpt lat="45.63857" lon="5.94637">
        <ele>553</ele>
        <time>2012-04-22T09:39:42.000Z</time>
      </trkpt>
      <trkpt lat="45.63862" lon="5.94637">
        <ele>552</ele>
        <time>2012-04-22T09:39:45.000Z</time>
      </trkpt>
      <trkpt lat="45.63868" lon="5.94637">
        <ele>552</ele>
        <time>2012-04-22T09:39:48.000Z</time>
      </trkpt>
      <trkpt lat="45.63872" lon="5.94639">
        <ele>552</ele>
        <time>2012-04-22T09:39:50.000Z</time>
      </trkpt>
      <trkpt lat="45.63877" lon="5.94641">
        <ele>552</ele>
        <time>2012-04-22T09:39:53.000Z</time>
      </trkpt>
      <trkpt lat="45.63883" lon="5.94644">
        <ele>553</ele>
        <time>2012-04-22T09:39:56.000Z</time>
      </trkpt>
      <trkpt lat="45.63887" lon="5.94646">
        <ele>553</ele>
        <time>2012-04-22T09:39:58.000Z</time>
      </trkpt>
      <trkpt lat="45.63892" lon="5.94646">
        <ele>553</ele>
        <time>2012-04-22T09:40:01.000Z</time>
      </trkpt>
      <trkpt lat="45.63897" lon="5.94648">
        <ele>554</ele>
        <time>2012-04-22T09:40:03.000Z</time>
      </trkpt>
      <trkpt lat="45.63902" lon="5.94648">
        <ele>554</ele>
        <time>2012-04-22T09:40:06.000Z</time>
      </trkpt>
      <trkpt lat="45.63907" lon="5.94648">
        <ele>555</ele>
        <time>2012-04-22T09:40:09.000Z</time>
      </trkpt>
      <trkpt lat="45.63913" lon="5.9465">
        <ele>555</ele>
        <time>2012-04-22T09:40:12.000Z</time>
      </trkpt>
      <trkpt lat="45.63918" lon="5.94652">
        <ele>553</ele>
        <time>2012-04-22T09:40:15.000Z</time>
      </trkpt>
      <trkpt lat="45.63922" lon="5.94656">
        <ele>554</ele>
        <time>2012-04-22T09:40:18.000Z</time>
      </trkpt>
      <trkpt lat="45.63927" lon="5.94661">
        <ele>554</ele>
        <time>2012-04-22T09:40:21.000Z</time>
      </trkpt>
      <trkpt lat="45.63931" lon="5.94663">
        <ele>553</ele>
        <time>2012-04-22T09:40:23.000Z</time>
      </trkpt>
      <trkpt lat="45.63935" lon="5.94667">
        <ele>563</ele>
        <time>2012-04-22T09:40:26.000Z</time>
      </trkpt>
      <trkpt lat="45.6394" lon="5.94669">
        <ele>563</ele>
        <time>2012-04-22T09:40:33.000Z</time>
      </trkpt>
      <trkpt lat="45.63934" lon="5.94671">
        <ele>563</ele>
        <time>2012-04-22T09:40:47.000Z</time>
      </trkpt>
      <trkpt lat="45.63934" lon="5.94671">
        <ele>563</ele>
        <time>2012-04-22T09:40:47.000Z</time>
      </trkpt>
      <trkpt lat="45.63934" lon="5.94671">
        <ele>563</ele>
        <time>2012-04-22T09:40:48.000Z</time>
      </trkpt>
      <trkpt lat="45.63929" lon="5.94671">
        <ele>563</ele>
        <time>2012-04-22T09:40:55.000Z</time>
      </trkpt>
      <trkpt lat="45.63924" lon="5.94676">
        <ele>564</ele>
        <time>2012-04-22T09:40:59.000Z</time>
      </trkpt>
      <trkpt lat="45.63924" lon="5.94676">
        <ele>564</ele>
        <time>2012-04-22T09:40:59.000Z</time>
      </trkpt>
      <trkpt lat="45.63924" lon="5.94676">
        <ele>564</ele>
        <time>2012-04-22T09:41:00.000Z</time>
      </trkpt>
      <trkpt lat="45.6392" lon="5.94678">
        <ele>564</ele>
        <time>2012-04-22T09:41:04.000Z</time>
      </trkpt>
      <trkpt lat="45.63916" lon="5.94682">
        <ele>573</ele>
        <time>2012-04-22T09:41:08.000Z</time>
      </trkpt>
      <trkpt lat="45.63911" lon="5.94684">
        <ele>575</ele>
        <time>2012-04-22T09:41:14.000Z</time>
      </trkpt>
      <trkpt lat="45.63905" lon="5.94686">
        <ele>577</ele>
        <time>2012-04-22T09:41:19.000Z</time>
      </trkpt>
      <trkpt lat="45.63901" lon="5.94689">
        <ele>579</ele>
        <time>2012-04-22T09:41:24.000Z</time>
      </trkpt>
      <trkpt lat="45.63897" lon="5.94695">
        <ele>581</ele>
        <time>2012-04-22T09:41:30.000Z</time>
      </trkpt>
      <trkpt lat="45.63897" lon="5.94695">
        <ele>581</ele>
        <time>2012-04-22T09:41:30.000Z</time>
      </trkpt>
      <trkpt lat="45.63897" lon="5.94695">
        <ele>581</ele>
        <time>2012-04-22T09:41:32.000Z</time>
      </trkpt>
      <trkpt lat="45.63892" lon="5.94699">
        <ele>583</ele>
        <time>2012-04-22T09:41:37.000Z</time>
      </trkpt>
      <trkpt lat="45.63892" lon="5.94699">
        <ele>583</ele>
        <time>2012-04-22T09:41:37.000Z</time>
      </trkpt>
      <trkpt lat="45.63892" lon="5.94699">
        <ele>583</ele>
        <time>2012-04-22T09:41:38.000Z</time>
      </trkpt>
      <trkpt lat="45.63888" lon="5.94704">
        <ele>585</ele>
        <time>2012-04-22T09:41:45.000Z</time>
      </trkpt>
      <trkpt lat="45.63884" lon="5.9471">
        <ele>586</ele>
        <time>2012-04-22T09:41:52.000Z</time>
      </trkpt>
      <trkpt lat="45.63884" lon="5.9471">
        <ele>586</ele>
        <time>2012-04-22T09:41:52.000Z</time>
      </trkpt>
      <trkpt lat="45.63884" lon="5.9471">
        <ele>586</ele>
        <time>2012-04-22T09:41:53.000Z</time>
      </trkpt>
      <trkpt lat="45.63879" lon="5.94714">
        <ele>588</ele>
        <time>2012-04-22T09:42:00.000Z</time>
      </trkpt>
      <trkpt lat="45.63874" lon="5.94719">
        <ele>590</ele>
        <time>2012-04-22T09:42:09.000Z</time>
      </trkpt>
      <trkpt lat="45.63874" lon="5.94719">
        <ele>590</ele>
        <time>2012-04-22T09:42:09.000Z</time>
      </trkpt>
      <trkpt lat="45.63874" lon="5.94719">
        <ele>590</ele>
        <time>2012-04-22T09:42:10.000Z</time>
      </trkpt>
      <trkpt lat="45.63873" lon="5.94725">
        <ele>591</ele>
        <time>2012-04-22T09:42:16.000Z</time>
      </trkpt>
      <trkpt lat="45.63873" lon="5.94725">
        <ele>591</ele>
        <time>2012-04-22T09:42:16.000Z</time>
      </trkpt>
      <trkpt lat="45.63873" lon="5.94725">
        <ele>591</ele>
        <time>2012-04-22T09:42:17.000Z</time>
      </trkpt>
      <trkpt lat="45.63872" lon="5.94732">
        <ele>593</ele>
        <time>2012-04-22T09:42:23.000Z</time>
      </trkpt>
      <trkpt lat="45.6387" lon="5.94738">
        <ele>594</ele>
        <time>2012-04-22T09:42:32.000Z</time>
      </trkpt>
      <trkpt lat="45.6387" lon="5.94738">
        <ele>594</ele>
        <time>2012-04-22T09:42:32.000Z</time>
      </trkpt>
      <trkpt lat="45.6387" lon="5.94738">
        <ele>594</ele>
        <time>2012-04-22T09:42:33.000Z</time>
      </trkpt>
      <trkpt lat="45.63874" lon="5.94742">
        <ele>594</ele>
        <time>2012-04-22T09:42:37.000Z</time>
      </trkpt>
      <trkpt lat="45.63878" lon="5.94746">
        <ele>593</ele>
        <time>2012-04-22T09:42:40.000Z</time>
      </trkpt>
      <trkpt lat="45.63884" lon="5.94749">
        <ele>593</ele>
        <time>2012-04-22T09:42:43.000Z</time>
      </trkpt>
      <trkpt lat="45.63889" lon="5.94749">
        <ele>592</ele>
        <time>2012-04-22T09:42:46.000Z</time>
      </trkpt>
      <trkpt lat="45.63893" lon="5.94751">
        <ele>613</ele>
        <time>2012-04-22T09:42:49.000Z</time>
      </trkpt>
      <trkpt lat="45.63898" lon="5.94755">
        <ele>611</ele>
        <time>2012-04-22T09:42:53.000Z</time>
      </trkpt>
      <trkpt lat="45.63902" lon="5.94762">
        <ele>612</ele>
        <time>2012-04-22T09:42:57.000Z</time>
      </trkpt>
      <trkpt lat="45.63906" lon="5.94764">
        <ele>611</ele>
        <time>2012-04-22T09:43:00.000Z</time>
      </trkpt>
      <trkpt lat="45.63911" lon="5.94766">
        <ele>610</ele>
        <time>2012-04-22T09:43:03.000Z</time>
      </trkpt>
      <trkpt lat="45.63915" lon="5.9477">
        <ele>612</ele>
        <time>2012-04-22T09:43:08.000Z</time>
      </trkpt>
      <trkpt lat="45.6391" lon="5.94772">
        <ele>614</ele>
        <time>2012-04-22T09:43:15.000Z</time>
      </trkpt>
      <trkpt lat="45.63904" lon="5.94772">
        <ele>615</ele>
        <time>2012-04-22T09:43:20.000Z</time>
      </trkpt>
      <trkpt lat="45.63899" lon="5.94772">
        <ele>617</ele>
        <time>2012-04-22T09:43:24.000Z</time>
      </trkpt>
      <trkpt lat="45.63893" lon="5.94772">
        <ele>618</ele>
        <time>2012-04-22T09:43:30.000Z</time>
      </trkpt>
      <trkpt lat="45.63889" lon="5.94774">
        <ele>620</ele>
        <time>2012-04-22T09:43:34.000Z</time>
      </trkpt>
      <trkpt lat="45.63884" lon="5.94774">
        <ele>621</ele>
        <time>2012-04-22T09:43:39.000Z</time>
      </trkpt>
      <trkpt lat="45.63878" lon="5.94772">
        <ele>622</ele>
        <time>2012-04-22T09:43:44.000Z</time>
      </trkpt>
      <trkpt lat="45.63876" lon="5.94779">
        <ele>624</ele>
        <time>2012-04-22T09:43:52.000Z</time>
      </trkpt>
      <trkpt lat="45.6388" lon="5.94783">
        <ele>624</ele>
        <time>2012-04-22T09:43:57.000Z</time>
      </trkpt>
      <trkpt lat="45.63876" lon="5.94785">
        <ele>625</ele>
        <time>2012-04-22T09:44:14.000Z</time>
      </trkpt>
      <trkpt lat="45.63871" lon="5.94787">
        <ele>627</ele>
        <time>2012-04-22T09:44:19.000Z</time>
      </trkpt>
      <trkpt lat="45.63866" lon="5.94787">
        <ele>627</ele>
        <time>2012-04-22T09:44:24.000Z</time>
      </trkpt>
      <trkpt lat="45.63861" lon="5.9479">
        <ele>629</ele>
        <time>2012-04-22T09:44:27.000Z</time>
      </trkpt>
      <trkpt lat="45.63857" lon="5.94792">
        <ele>630</ele>
        <time>2012-04-22T09:44:31.000Z</time>
      </trkpt>
      <trkpt lat="45.63852" lon="5.9479">
        <ele>630</ele>
        <time>2012-04-22T09:44:36.000Z</time>
      </trkpt>
      <trkpt lat="45.63846" lon="5.9479">
        <ele>631</ele>
        <time>2012-04-22T09:44:41.000Z</time>
      </trkpt>
      <trkpt lat="45.63842" lon="5.94785">
        <ele>629</ele>
        <time>2012-04-22T09:44:53.000Z</time>
      </trkpt>
      <trkpt lat="45.63842" lon="5.94785">
        <ele>629</ele>
        <time>2012-04-22T09:44:53.000Z</time>
      </trkpt>
      <trkpt lat="45.63842" lon="5.94785">
        <ele>629</ele>
        <time>2012-04-22T09:44:54.000Z</time>
      </trkpt>
      <trkpt lat="45.6384" lon="5.94779">
        <ele>628</ele>
        <time>2012-04-22T09:44:59.000Z</time>
      </trkpt>
      <trkpt lat="45.63836" lon="5.94772">
        <ele>626</ele>
        <time>2012-04-22T09:45:04.000Z</time>
      </trkpt>
      <trkpt lat="45.63831" lon="5.94768">
        <ele>636</ele>
        <time>2012-04-22T09:45:09.000Z</time>
      </trkpt>
      <trkpt lat="45.63827" lon="5.94764">
        <ele>634</ele>
        <time>2012-04-22T09:45:13.000Z</time>
      </trkpt>
      <trkpt lat="45.63823" lon="5.94762">
        <ele>634</ele>
        <time>2012-04-22T09:45:17.000Z</time>
      </trkpt>
      <trkpt lat="45.63818" lon="5.94757">
        <ele>635</ele>
        <time>2012-04-22T09:45:21.000Z</time>
      </trkpt>
      <trkpt lat="45.63814" lon="5.94755">
        <ele>636</ele>
        <time>2012-04-22T09:45:25.000Z</time>
      </trkpt>
      <trkpt lat="45.63809" lon="5.94755">
        <ele>639</ele>
        <time>2012-04-22T09:45:30.000Z</time>
      </trkpt>
      <trkpt lat="45.63809" lon="5.94755">
        <ele>639</ele>
        <time>2012-04-22T09:45:30.000Z</time>
      </trkpt>
      <trkpt lat="45.63809" lon="5.94755">
        <ele>639</ele>
        <time>2012-04-22T09:45:31.000Z</time>
      </trkpt>
      <trkpt lat="45.63803" lon="5.94755">
        <ele>641</ele>
        <time>2012-04-22T09:45:36.000Z</time>
      </trkpt>
      <trkpt lat="45.63799" lon="5.94757">
        <ele>643</ele>
        <time>2012-04-22T09:45:40.000Z</time>
      </trkpt>
      <trkpt lat="45.63795" lon="5.94759">
        <ele>644</ele>
        <time>2012-04-22T09:45:44.000Z</time>
      </trkpt>
      <trkpt lat="45.6379" lon="5.94762">
        <ele>645</ele>
        <time>2012-04-22T09:45:47.000Z</time>
      </trkpt>
      <trkpt lat="45.63785" lon="5.94764">
        <ele>646</ele>
        <time>2012-04-22T09:45:52.000Z</time>
      </trkpt>
      <trkpt lat="45.6378" lon="5.94766">
        <ele>647</ele>
        <time>2012-04-22T09:45:57.000Z</time>
      </trkpt>
      <trkpt lat="45.63775" lon="5.94768">
        <ele>648</ele>
        <time>2012-04-22T09:46:01.000Z</time>
      </trkpt>
      <trkpt lat="45.6377" lon="5.9477">
        <ele>649</ele>
        <time>2012-04-22T09:46:05.000Z</time>
      </trkpt>
      <trkpt lat="45.63765" lon="5.94772">
        <ele>649</ele>
        <time>2012-04-22T09:46:09.000Z</time>
      </trkpt>
      <trkpt lat="45.63759" lon="5.94772">
        <ele>649</ele>
        <time>2012-04-22T09:46:14.000Z</time>
      </trkpt>
      <trkpt lat="45.63754" lon="5.94772">
        <ele>649</ele>
        <time>2012-04-22T09:46:19.000Z</time>
      </trkpt>
      <trkpt lat="45.63748" lon="5.9477">
        <ele>658</ele>
        <time>2012-04-22T09:46:24.000Z</time>
      </trkpt>
      <trkpt lat="45.63742" lon="5.9477">
        <ele>659</ele>
        <time>2012-04-22T09:46:29.000Z</time>
      </trkpt>
      <trkpt lat="45.63738" lon="5.94772">
        <ele>661</ele>
        <time>2012-04-22T09:46:33.000Z</time>
      </trkpt>
      <trkpt lat="45.63732" lon="5.94774">
        <ele>663</ele>
        <time>2012-04-22T09:46:39.000Z</time>
      </trkpt>
      <trkpt lat="45.63727" lon="5.94777">
        <ele>665</ele>
        <time>2012-04-22T09:46:44.000Z</time>
      </trkpt>
      <trkpt lat="45.63722" lon="5.94779">
        <ele>666</ele>
        <time>2012-04-22T09:46:47.000Z</time>
      </trkpt>
      <trkpt lat="45.63716" lon="5.94781">
        <ele>667</ele>
        <time>2012-04-22T09:46:50.000Z</time>
      </trkpt>
      <trkpt lat="45.63714" lon="5.94787">
        <ele>669</ele>
        <time>2012-04-22T09:46:54.000Z</time>
      </trkpt>
      <trkpt lat="45.63716" lon="5.94794">
        <ele>671</ele>
        <time>2012-04-22T09:47:01.000Z</time>
      </trkpt>
      <trkpt lat="45.63722" lon="5.94794">
        <ele>670</ele>
        <time>2012-04-22T09:47:07.000Z</time>
      </trkpt>
      <trkpt lat="45.63722" lon="5.94794">
        <ele>670</ele>
        <time>2012-04-22T09:47:07.000Z</time>
      </trkpt>
      <trkpt lat="45.63722" lon="5.94794">
        <ele>670</ele>
        <time>2012-04-22T09:47:08.000Z</time>
      </trkpt>
      <trkpt lat="45.63726" lon="5.94796">
        <ele>671</ele>
        <time>2012-04-22T09:47:14.000Z</time>
      </trkpt>
      <trkpt lat="45.6373" lon="5.94798">
        <ele>671</ele>
        <time>2012-04-22T09:47:19.000Z</time>
      </trkpt>
      <trkpt lat="45.6373" lon="5.94798">
        <ele>671</ele>
        <time>2012-04-22T09:47:19.000Z</time>
      </trkpt>
      <trkpt lat="45.6373" lon="5.94798">
        <ele>671</ele>
        <time>2012-04-22T09:47:20.000Z</time>
      </trkpt>
      <trkpt lat="45.63735" lon="5.948">
        <ele>672</ele>
        <time>2012-04-22T09:47:26.000Z</time>
      </trkpt>
      <trkpt lat="45.63735" lon="5.948">
        <ele>672</ele>
        <time>2012-04-22T09:47:26.000Z</time>
      </trkpt>
      <trkpt lat="45.63735" lon="5.948">
        <ele>672</ele>
        <time>2012-04-22T09:47:27.000Z</time>
      </trkpt>
      <trkpt lat="45.63739" lon="5.94802">
        <ele>672</ele>
        <time>2012-04-22T09:47:33.000Z</time>
      </trkpt>
      <trkpt lat="45.63739" lon="5.94802">
        <ele>672</ele>
        <time>2012-04-22T09:47:33.000Z</time>
      </trkpt>
      <trkpt lat="45.63739" lon="5.94802">
        <ele>672</ele>
        <time>2012-04-22T09:47:52.000Z</time>
      </trkpt>
      <trkpt lat="45.63734" lon="5.94802">
        <ele>672</ele>
        <time>2012-04-22T09:47:59.000Z</time>
      </trkpt>
      <trkpt lat="45.63734" lon="5.94802">
        <ele>672</ele>
        <time>2012-04-22T09:47:59.000Z</time>
      </trkpt>
      <trkpt lat="45.63734" lon="5.94802">
        <ele>672</ele>
        <time>2012-04-22T09:48:00.000Z</time>
      </trkpt>
      <trkpt lat="45.63729" lon="5.94807">
        <ele>674</ele>
        <time>2012-04-22T09:48:05.000Z</time>
      </trkpt>
      <trkpt lat="45.63725" lon="5.94811">
        <ele>675</ele>
        <time>2012-04-22T09:48:10.000Z</time>
      </trkpt>
      <trkpt lat="45.63721" lon="5.94815">
        <ele>676</ele>
        <time>2012-04-22T09:48:13.000Z</time>
      </trkpt>
      <trkpt lat="45.63716" lon="5.9482">
        <ele>677</ele>
        <time>2012-04-22T09:48:17.000Z</time>
      </trkpt>
      <trkpt lat="45.63712" lon="5.94824">
        <ele>678</ele>
        <time>2012-04-22T09:48:21.000Z</time>
      </trkpt>
      <trkpt lat="45.63708" lon="5.9483">
        <ele>679</ele>
        <time>2012-04-22T09:48:26.000Z</time>
      </trkpt>
      <trkpt lat="45.63704" lon="5.94834">
        <ele>702</ele>
        <time>2012-04-22T09:48:31.000Z</time>
      </trkpt>
      <trkpt lat="45.63704" lon="5.94834">
        <ele>702</ele>
        <time>2012-04-22T09:48:31.000Z</time>
      </trkpt>
      <trkpt lat="45.63704" lon="5.94834">
        <ele>702</ele>
        <time>2012-04-22T09:48:33.000Z</time>
      </trkpt>
      <trkpt lat="45.63699" lon="5.94837">
        <ele>702</ele>
        <time>2012-04-22T09:48:41.000Z</time>
      </trkpt>
      <trkpt lat="45.63699" lon="5.94837">
        <ele>702</ele>
        <time>2012-04-22T09:48:41.000Z</time>
      </trkpt>
      <trkpt lat="45.63699" lon="5.94837">
        <ele>702</ele>
        <time>2012-04-22T09:48:42.000Z</time>
      </trkpt>
      <trkpt lat="45.63694" lon="5.94837">
        <ele>703</ele>
        <time>2012-04-22T09:48:49.000Z</time>
      </trkpt>
      <trkpt lat="45.63694" lon="5.94837">
        <ele>703</ele>
        <time>2012-04-22T09:48:49.000Z</time>
      </trkpt>
      <trkpt lat="45.63694" lon="5.94837">
        <ele>703</ele>
        <time>2012-04-22T09:48:50.000Z</time>
      </trkpt>
      <trkpt lat="45.63688" lon="5.94832">
        <ele>684</ele>
        <time>2012-04-22T09:49:01.000Z</time>
      </trkpt>
      <trkpt lat="45.63688" lon="5.94832">
        <ele>684</ele>
        <time>2012-04-22T09:49:01.000Z</time>
      </trkpt>
      <trkpt lat="45.63688" lon="5.94832">
        <ele>684</ele>
        <time>2012-04-22T09:49:03.000Z</time>
      </trkpt>
      <trkpt lat="45.63684" lon="5.94828">
        <ele>685</ele>
        <time>2012-04-22T09:49:10.000Z</time>
      </trkpt>
      <trkpt lat="45.63684" lon="5.94828">
        <ele>685</ele>
        <time>2012-04-22T09:49:10.000Z</time>
      </trkpt>
      <trkpt lat="45.63684" lon="5.94828">
        <ele>685</ele>
        <time>2012-04-22T09:49:11.000Z</time>
      </trkpt>
      <trkpt lat="45.6368" lon="5.94824">
        <ele>686</ele>
        <time>2012-04-22T09:49:15.000Z</time>
      </trkpt>
      <trkpt lat="45.63676" lon="5.94822">
        <ele>687</ele>
        <time>2012-04-22T09:49:19.000Z</time>
      </trkpt>
      <trkpt lat="45.6367" lon="5.94822">
        <ele>688</ele>
        <time>2012-04-22T09:49:23.000Z</time>
      </trkpt>
      <trkpt lat="45.63665" lon="5.94824">
        <ele>698</ele>
        <time>2012-04-22T09:49:28.000Z</time>
      </trkpt>
      <trkpt lat="45.63662" lon="5.9483">
        <ele>698</ele>
        <time>2012-04-22T09:49:33.000Z</time>
      </trkpt>
      <trkpt lat="45.63662" lon="5.9483">
        <ele>698</ele>
        <time>2012-04-22T09:49:33.000Z</time>
      </trkpt>
      <trkpt lat="45.63662" lon="5.9483">
        <ele>698</ele>
        <time>2012-04-22T09:49:34.000Z</time>
      </trkpt>
      <trkpt lat="45.63662" lon="5.94837">
        <ele>705</ele>
        <time>2012-04-22T09:49:40.000Z</time>
      </trkpt>
      <trkpt lat="45.63662" lon="5.94837">
        <ele>705</ele>
        <time>2012-04-22T09:49:40.000Z</time>
      </trkpt>
      <trkpt lat="45.63662" lon="5.94837">
        <ele>705</ele>
        <time>2012-04-22T09:49:41.000Z</time>
      </trkpt>
      <trkpt lat="45.63661" lon="5.94843">
        <ele>710</ele>
        <time>2012-04-22T09:49:45.000Z</time>
      </trkpt>
      <trkpt lat="45.63661" lon="5.94843">
        <ele>710</ele>
        <time>2012-04-22T09:49:45.000Z</time>
      </trkpt>
      <trkpt lat="45.63661" lon="5.94843">
        <ele>710</ele>
        <time>2012-04-22T09:49:46.000Z</time>
      </trkpt>
      <trkpt lat="45.6366" lon="5.9485">
        <ele>714</ele>
        <time>2012-04-22T09:49:50.000Z</time>
      </trkpt>
      <trkpt lat="45.6366" lon="5.9485">
        <ele>714</ele>
        <time>2012-04-22T09:49:50.000Z</time>
      </trkpt>
      <trkpt lat="45.6366" lon="5.9485">
        <ele>714</ele>
        <time>2012-04-22T09:49:51.000Z</time>
      </trkpt>
      <trkpt lat="45.63657" lon="5.94856">
        <ele>718</ele>
        <time>2012-04-22T09:49:58.000Z</time>
      </trkpt>
      <trkpt lat="45.63653" lon="5.94852">
        <ele>717</ele>
        <time>2012-04-22T09:50:09.000Z</time>
      </trkpt>
      <trkpt lat="45.63653" lon="5.94852">
        <ele>717</ele>
        <time>2012-04-22T09:50:09.000Z</time>
      </trkpt>
      <trkpt lat="45.63653" lon="5.94852">
        <ele>717</ele>
        <time>2012-04-22T09:50:14.000Z</time>
      </trkpt>
      <trkpt lat="45.63649" lon="5.94847">
        <ele>717</ele>
        <time>2012-04-22T09:50:23.000Z</time>
      </trkpt>
      <trkpt lat="45.63644" lon="5.94852">
        <ele>720</ele>
        <time>2012-04-22T09:50:29.000Z</time>
      </trkpt>
      <trkpt lat="45.63646" lon="5.94858">
        <ele>721</ele>
        <time>2012-04-22T09:50:33.000Z</time>
      </trkpt>
      <trkpt lat="45.63647" lon="5.94865">
        <ele>723</ele>
        <time>2012-04-22T09:50:38.000Z</time>
      </trkpt>
      <trkpt lat="45.63647" lon="5.94865">
        <ele>723</ele>
        <time>2012-04-22T09:50:38.000Z</time>
      </trkpt>
      <trkpt lat="45.63647" lon="5.94865">
        <ele>723</ele>
        <time>2012-04-22T09:50:39.000Z</time>
      </trkpt>
      <trkpt lat="45.63642" lon="5.94869">
        <ele>725</ele>
        <time>2012-04-22T09:50:51.000Z</time>
      </trkpt>
      <trkpt lat="45.63642" lon="5.94869">
        <ele>725</ele>
        <time>2012-04-22T09:50:51.000Z</time>
      </trkpt>
      <trkpt lat="45.63642" lon="5.94869">
        <ele>725</ele>
        <time>2012-04-22T09:50:52.000Z</time>
      </trkpt>
      <trkpt lat="45.63637" lon="5.94869">
        <ele>726</ele>
        <time>2012-04-22T09:51:01.000Z</time>
      </trkpt>
      <trkpt lat="45.63633" lon="5.94867">
        <ele>726</ele>
        <time>2012-04-22T09:51:08.000Z</time>
      </trkpt>
      <trkpt lat="45.63633" lon="5.94867">
        <ele>726</ele>
        <time>2012-04-22T09:51:08.000Z</time>
      </trkpt>
      <trkpt lat="45.63633" lon="5.94867">
        <ele>726</ele>
        <time>2012-04-22T09:51:09.000Z</time>
      </trkpt>
      <trkpt lat="45.63628" lon="5.94862">
        <ele>726</ele>
        <time>2012-04-22T09:51:16.000Z</time>
      </trkpt>
      <trkpt lat="45.63628" lon="5.94862">
        <ele>726</ele>
        <time>2012-04-22T09:51:16.000Z</time>
      </trkpt>
      <trkpt lat="45.63628" lon="5.94862">
        <ele>726</ele>
        <time>2012-04-22T09:51:17.000Z</time>
      </trkpt>
      <trkpt lat="45.63624" lon="5.9486">
        <ele>727</ele>
        <time>2012-04-22T09:51:22.000Z</time>
      </trkpt>
      <trkpt lat="45.6362" lon="5.94858">
        <ele>728</ele>
        <time>2012-04-22T09:51:27.000Z</time>
      </trkpt>
      <trkpt lat="45.6362" lon="5.94858">
        <ele>728</ele>
        <time>2012-04-22T09:51:27.000Z</time>
      </trkpt>
      <trkpt lat="45.6362" lon="5.94858">
        <ele>728</ele>
        <time>2012-04-22T09:51:28.000Z</time>
      </trkpt>
      <trkpt lat="45.63619" lon="5.94865">
        <ele>729</ele>
        <time>2012-04-22T09:51:33.000Z</time>
      </trkpt>
      <trkpt lat="45.63618" lon="5.94871">
        <ele>730</ele>
        <time>2012-04-22T09:51:38.000Z</time>
      </trkpt>
      <trkpt lat="45.63618" lon="5.94871">
        <ele>730</ele>
        <time>2012-04-22T09:51:38.000Z</time>
      </trkpt>
      <trkpt lat="45.63618" lon="5.94871">
        <ele>730</ele>
        <time>2012-04-22T09:51:39.000Z</time>
      </trkpt>
      <trkpt lat="45.63617" lon="5.94877">
        <ele>731</ele>
        <time>2012-04-22T09:51:44.000Z</time>
      </trkpt>
      <trkpt lat="45.63612" lon="5.94882">
        <ele>733</ele>
        <time>2012-04-22T09:51:53.000Z</time>
      </trkpt>
      <trkpt lat="45.63608" lon="5.94877">
        <ele>733</ele>
        <time>2012-04-22T09:52:01.000Z</time>
      </trkpt>
      <trkpt lat="45.63608" lon="5.94877">
        <ele>733</ele>
        <time>2012-04-22T09:52:01.000Z</time>
      </trkpt>
      <trkpt lat="45.63608" lon="5.94877">
        <ele>733</ele>
        <time>2012-04-22T09:52:02.000Z</time>
      </trkpt>
      <trkpt lat="45.63607" lon="5.94871">
        <ele>732</ele>
        <time>2012-04-22T09:52:08.000Z</time>
      </trkpt>
      <trkpt lat="45.63603" lon="5.94867">
        <ele>732</ele>
        <time>2012-04-22T09:52:15.000Z</time>
      </trkpt>
      <trkpt lat="45.63597" lon="5.94865">
        <ele>732</ele>
        <time>2012-04-22T09:52:22.000Z</time>
      </trkpt>
      <trkpt lat="45.63597" lon="5.94865">
        <ele>732</ele>
        <time>2012-04-22T09:52:22.000Z</time>
      </trkpt>
      <trkpt lat="45.63597" lon="5.94865">
        <ele>732</ele>
        <time>2012-04-22T09:52:23.000Z</time>
      </trkpt>
      <trkpt lat="45.63593" lon="5.94862">
        <ele>732</ele>
        <time>2012-04-22T09:52:30.000Z</time>
      </trkpt>
      <trkpt lat="45.63593" lon="5.94862">
        <ele>732</ele>
        <time>2012-04-22T09:52:30.000Z</time>
      </trkpt>
      <trkpt lat="45.63593" lon="5.94862">
        <ele>732</ele>
        <time>2012-04-22T09:52:31.000Z</time>
      </trkpt>
      <trkpt lat="45.6359" lon="5.94856">
        <ele>732</ele>
        <time>2012-04-22T09:52:37.000Z</time>
      </trkpt>
      <trkpt lat="45.63586" lon="5.94852">
        <ele>732</ele>
        <time>2012-04-22T09:52:42.000Z</time>
      </trkpt>
      <trkpt lat="45.63581" lon="5.9485">
        <ele>747</ele>
        <time>2012-04-22T09:52:47.000Z</time>
      </trkpt>
      <trkpt lat="45.63577" lon="5.94847">
        <ele>746</ele>
        <time>2012-04-22T09:52:52.000Z</time>
      </trkpt>
      <trkpt lat="45.63572" lon="5.94845">
        <ele>747</ele>
        <time>2012-04-22T09:52:58.000Z</time>
      </trkpt>
      <trkpt lat="45.63566" lon="5.94845">
        <ele>750</ele>
        <time>2012-04-22T09:53:03.000Z</time>
      </trkpt>
      <trkpt lat="45.63562" lon="5.94843">
        <ele>751</ele>
        <time>2012-04-22T09:53:06.000Z</time>
      </trkpt>
      <trkpt lat="45.63556" lon="5.94843">
        <ele>754</ele>
        <time>2012-04-22T09:53:09.000Z</time>
      </trkpt>
      <trkpt lat="45.63551" lon="5.94843">
        <ele>756</ele>
        <time>2012-04-22T09:53:15.000Z</time>
      </trkpt>
      <trkpt lat="45.63546" lon="5.94841">
        <ele>757</ele>
        <time>2012-04-22T09:53:21.000Z</time>
      </trkpt>
      <trkpt lat="45.63546" lon="5.94841">
        <ele>757</ele>
        <time>2012-04-22T09:53:21.000Z</time>
      </trkpt>
      <trkpt lat="45.63546" lon="5.94841">
        <ele>757</ele>
        <time>2012-04-22T09:53:22.000Z</time>
      </trkpt>
      <trkpt lat="45.6354" lon="5.94841">
        <ele>759</ele>
        <time>2012-04-22T09:53:29.000Z</time>
      </trkpt>
      <trkpt lat="45.63535" lon="5.94841">
        <ele>760</ele>
        <time>2012-04-22T09:53:36.000Z</time>
      </trkpt>
      <trkpt lat="45.63535" lon="5.94841">
        <ele>760</ele>
        <time>2012-04-22T09:53:36.000Z</time>
      </trkpt>
      <trkpt lat="45.63535" lon="5.94841">
        <ele>760</ele>
        <time>2012-04-22T09:53:37.000Z</time>
      </trkpt>
      <trkpt lat="45.6353" lon="5.94843">
        <ele>762</ele>
        <time>2012-04-22T09:53:46.000Z</time>
      </trkpt>
      <trkpt lat="45.63526" lon="5.9485">
        <ele>763</ele>
        <time>2012-04-22T09:53:58.000Z</time>
      </trkpt>
      <trkpt lat="45.63526" lon="5.9485">
        <ele>763</ele>
        <time>2012-04-22T09:53:58.000Z</time>
      </trkpt>
      <trkpt lat="45.63526" lon="5.9485">
        <ele>763</ele>
        <time>2012-04-22T09:53:59.000Z</time>
      </trkpt>
      <trkpt lat="45.63531" lon="5.94856">
        <ele>763</ele>
        <time>2012-04-22T09:54:07.000Z</time>
      </trkpt>
      <trkpt lat="45.63531" lon="5.94856">
        <ele>763</ele>
        <time>2012-04-22T09:54:07.000Z</time>
      </trkpt>
      <trkpt lat="45.63531" lon="5.94856">
        <ele>763</ele>
        <time>2012-04-22T09:54:08.000Z</time>
      </trkpt>
      <trkpt lat="45.63534" lon="5.94862">
        <ele>763</ele>
        <time>2012-04-22T09:54:13.000Z</time>
      </trkpt>
      <trkpt lat="45.63536" lon="5.94869">
        <ele>764</ele>
        <time>2012-04-22T09:54:18.000Z</time>
      </trkpt>
      <trkpt lat="45.63538" lon="5.94875">
        <ele>765</ele>
        <time>2012-04-22T09:54:23.000Z</time>
      </trkpt>
      <trkpt lat="45.63538" lon="5.94875">
        <ele>765</ele>
        <time>2012-04-22T09:54:23.000Z</time>
      </trkpt>
      <trkpt lat="45.63538" lon="5.94875">
        <ele>765</ele>
        <time>2012-04-22T09:54:24.000Z</time>
      </trkpt>
      <trkpt lat="45.6354" lon="5.94882">
        <ele>766</ele>
        <time>2012-04-22T09:54:29.000Z</time>
      </trkpt>
      <trkpt lat="45.6354" lon="5.94882">
        <ele>766</ele>
        <time>2012-04-22T09:54:29.000Z</time>
      </trkpt>
      <trkpt lat="45.6354" lon="5.94882">
        <ele>766</ele>
        <time>2012-04-22T09:54:30.000Z</time>
      </trkpt>
      <trkpt lat="45.63539" lon="5.94888">
        <ele>767</ele>
        <time>2012-04-22T09:54:35.000Z</time>
      </trkpt>
      <trkpt lat="45.63539" lon="5.94888">
        <ele>767</ele>
        <time>2012-04-22T09:54:35.000Z</time>
      </trkpt>
      <trkpt lat="45.63539" lon="5.94888">
        <ele>767</ele>
        <time>2012-04-22T09:54:36.000Z</time>
      </trkpt>
      <trkpt lat="45.63534" lon="5.9489">
        <ele>769</ele>
        <time>2012-04-22T09:54:48.000Z</time>
      </trkpt>
      <trkpt lat="45.63534" lon="5.9489">
        <ele>769</ele>
        <time>2012-04-22T09:54:48.000Z</time>
      </trkpt>
      <trkpt lat="45.63534" lon="5.9489">
        <ele>769</ele>
        <time>2012-04-22T09:54:49.000Z</time>
      </trkpt>
      <trkpt lat="45.63529" lon="5.9489">
        <ele>771</ele>
        <time>2012-04-22T09:55:00.000Z</time>
      </trkpt>
      <trkpt lat="45.63524" lon="5.94884">
        <ele>770</ele>
        <time>2012-04-22T09:55:15.000Z</time>
      </trkpt>
      <trkpt lat="45.63524" lon="5.94884">
        <ele>770</ele>
        <time>2012-04-22T09:55:15.000Z</time>
      </trkpt>
      <trkpt lat="45.63524" lon="5.94884">
        <ele>770</ele>
        <time>2012-04-22T09:55:16.000Z</time>
      </trkpt>
      <trkpt lat="45.63519" lon="5.94884">
        <ele>772</ele>
        <time>2012-04-22T09:55:23.000Z</time>
      </trkpt>
      <trkpt lat="45.63515" lon="5.94886">
        <ele>773</ele>
        <time>2012-04-22T09:55:28.000Z</time>
      </trkpt>
      <trkpt lat="45.6351" lon="5.94888">
        <ele>775</ele>
        <time>2012-04-22T09:55:33.000Z</time>
      </trkpt>
      <trkpt lat="45.63505" lon="5.94888">
        <ele>776</ele>
        <time>2012-04-22T09:55:38.000Z</time>
      </trkpt>
      <trkpt lat="45.63501" lon="5.9489">
        <ele>777</ele>
        <time>2012-04-22T09:55:44.000Z</time>
      </trkpt>
      <trkpt lat="45.63501" lon="5.94897">
        <ele>781</ele>
        <time>2012-04-22T09:55:49.000Z</time>
      </trkpt>
      <trkpt lat="45.63501" lon="5.94897">
        <ele>781</ele>
        <time>2012-04-22T09:55:49.000Z</time>
      </trkpt>
      <trkpt lat="45.63501" lon="5.94897">
        <ele>781</ele>
        <time>2012-04-22T09:55:51.000Z</time>
      </trkpt>
      <trkpt lat="45.63503" lon="5.94903">
        <ele>785</ele>
        <time>2012-04-22T09:56:01.000Z</time>
      </trkpt>
      <trkpt lat="45.63503" lon="5.94903">
        <ele>785</ele>
        <time>2012-04-22T09:56:01.000Z</time>
      </trkpt>
      <trkpt lat="45.63503" lon="5.94903">
        <ele>785</ele>
        <time>2012-04-22T09:56:02.000Z</time>
      </trkpt>
      <trkpt lat="45.63506" lon="5.9491">
        <ele>790</ele>
        <time>2012-04-22T09:56:08.000Z</time>
      </trkpt>
      <trkpt lat="45.6351" lon="5.94914">
        <ele>788</ele>
        <time>2012-04-22T09:56:13.000Z</time>
      </trkpt>
      <trkpt lat="45.63515" lon="5.9492">
        <ele>799</ele>
        <time>2012-04-22T09:56:19.000Z</time>
      </trkpt>
      <trkpt lat="45.63515" lon="5.9492">
        <ele>799</ele>
        <time>2012-04-22T09:56:19.000Z</time>
      </trkpt>
      <trkpt lat="45.63515" lon="5.9492">
        <ele>799</ele>
        <time>2012-04-22T09:56:20.000Z</time>
      </trkpt>
      <trkpt lat="45.63512" lon="5.94927">
        <ele>799</ele>
        <time>2012-04-22T09:56:34.000Z</time>
      </trkpt>
      <trkpt lat="45.63512" lon="5.94927">
        <ele>799</ele>
        <time>2012-04-22T09:56:34.000Z</time>
      </trkpt>
      <trkpt lat="45.63512" lon="5.94927">
        <ele>799</ele>
        <time>2012-04-22T09:56:36.000Z</time>
      </trkpt>
      <trkpt lat="45.63507" lon="5.94929">
        <ele>800</ele>
        <time>2012-04-22T09:56:49.000Z</time>
      </trkpt>
      <trkpt lat="45.63507" lon="5.94929">
        <ele>800</ele>
        <time>2012-04-22T09:56:49.000Z</time>
      </trkpt>
      <trkpt lat="45.63507" lon="5.94929">
        <ele>800</ele>
        <time>2012-04-22T09:56:52.000Z</time>
      </trkpt>
      <trkpt lat="45.63502" lon="5.94931">
        <ele>800</ele>
        <time>2012-04-22T09:57:05.000Z</time>
      </trkpt>
      <trkpt lat="45.635" lon="5.94938">
        <ele>819</ele>
        <time>2012-04-22T09:57:12.000Z</time>
      </trkpt>
      <trkpt lat="45.635" lon="5.94938">
        <ele>819</ele>
        <time>2012-04-22T09:57:12.000Z</time>
      </trkpt>
      <trkpt lat="45.635" lon="5.94938">
        <ele>819</ele>
        <time>2012-04-22T09:57:13.000Z</time>
      </trkpt>
      <trkpt lat="45.63501" lon="5.94944">
        <ele>802</ele>
        <time>2012-04-22T09:57:17.000Z</time>
      </trkpt>
      <trkpt lat="45.63501" lon="5.94944">
        <ele>802</ele>
        <time>2012-04-22T09:57:17.000Z</time>
      </trkpt>
      <trkpt lat="45.63501" lon="5.94944">
        <ele>802</ele>
        <time>2012-04-22T09:57:18.000Z</time>
      </trkpt>
      <trkpt lat="45.63503" lon="5.9495">
        <ele>803</ele>
        <time>2012-04-22T09:57:24.000Z</time>
      </trkpt>
      <trkpt lat="45.63503" lon="5.9495">
        <ele>803</ele>
        <time>2012-04-22T09:57:24.000Z</time>
      </trkpt>
      <trkpt lat="45.63503" lon="5.9495">
        <ele>803</ele>
        <time>2012-04-22T09:57:26.000Z</time>
      </trkpt>
      <trkpt lat="45.63504" lon="5.94957">
        <ele>805</ele>
        <time>2012-04-22T09:57:32.000Z</time>
      </trkpt>
      <trkpt lat="45.635" lon="5.94961">
        <ele>828</ele>
        <time>2012-04-22T09:57:40.000Z</time>
      </trkpt>
      <trkpt lat="45.635" lon="5.94961">
        <ele>828</ele>
        <time>2012-04-22T09:57:40.000Z</time>
      </trkpt>
      <trkpt lat="45.635" lon="5.94961">
        <ele>828</ele>
        <time>2012-04-22T09:57:42.000Z</time>
      </trkpt>
      <trkpt lat="45.63494" lon="5.94959">
        <ele>828</ele>
        <time>2012-04-22T09:57:54.000Z</time>
      </trkpt>
      <trkpt lat="45.63491" lon="5.94952">
        <ele>826</ele>
        <time>2012-04-22T09:58:02.000Z</time>
      </trkpt>
      <trkpt lat="45.63487" lon="5.94948">
        <ele>826</ele>
        <time>2012-04-22T09:58:09.000Z</time>
      </trkpt>
      <trkpt lat="45.63487" lon="5.94948">
        <ele>826</ele>
        <time>2012-04-22T09:58:09.000Z</time>
      </trkpt>
      <trkpt lat="45.63487" lon="5.94948">
        <ele>826</ele>
        <time>2012-04-22T09:58:10.000Z</time>
      </trkpt>
      <trkpt lat="45.63484" lon="5.94942">
        <ele>824</ele>
        <time>2012-04-22T09:58:18.000Z</time>
      </trkpt>
      <trkpt lat="45.63478" lon="5.9494">
        <ele>825</ele>
        <time>2012-04-22T09:58:28.000Z</time>
      </trkpt>
      <trkpt lat="45.63478" lon="5.9494">
        <ele>825</ele>
        <time>2012-04-22T09:58:28.000Z</time>
      </trkpt>
      <trkpt lat="45.63478" lon="5.9494">
        <ele>825</ele>
        <time>2012-04-22T09:58:29.000Z</time>
      </trkpt>
      <trkpt lat="45.63473" lon="5.94942">
        <ele>827</ele>
        <time>2012-04-22T09:58:41.000Z</time>
      </trkpt>
      <trkpt lat="45.63473" lon="5.94942">
        <ele>827</ele>
        <time>2012-04-22T09:58:41.000Z</time>
      </trkpt>
      <trkpt lat="45.63473" lon="5.94942">
        <ele>827</ele>
        <time>2012-04-22T09:58:44.000Z</time>
      </trkpt>
      <trkpt lat="45.63468" lon="5.94942">
        <ele>828</ele>
        <time>2012-04-22T09:58:53.000Z</time>
      </trkpt>
      <trkpt lat="45.63462" lon="5.94942">
        <ele>830</ele>
        <time>2012-04-22T09:58:59.000Z</time>
      </trkpt>
      <trkpt lat="45.63458" lon="5.94944">
        <ele>831</ele>
        <time>2012-04-22T09:59:04.000Z</time>
      </trkpt>
      <trkpt lat="45.63458" lon="5.94944">
        <ele>831</ele>
        <time>2012-04-22T09:59:04.000Z</time>
      </trkpt>
      <trkpt lat="45.63458" lon="5.94944">
        <ele>831</ele>
        <time>2012-04-22T09:59:05.000Z</time>
      </trkpt>
      <trkpt lat="45.63456" lon="5.9495">
        <ele>832</ele>
        <time>2012-04-22T09:59:11.000Z</time>
      </trkpt>
      <trkpt lat="45.63456" lon="5.9495">
        <ele>832</ele>
        <time>2012-04-22T09:59:11.000Z</time>
      </trkpt>
      <trkpt lat="45.63456" lon="5.9495">
        <ele>832</ele>
        <time>2012-04-22T09:59:12.000Z</time>
      </trkpt>
      <trkpt lat="45.63455" lon="5.94957">
        <ele>834</ele>
        <time>2012-04-22T09:59:17.000Z</time>
      </trkpt>
      <trkpt lat="45.63455" lon="5.94957">
        <ele>834</ele>
        <time>2012-04-22T09:59:17.000Z</time>
      </trkpt>
      <trkpt lat="45.63455" lon="5.94957">
        <ele>834</ele>
        <time>2012-04-22T09:59:23.000Z</time>
      </trkpt>
      <trkpt lat="45.63451" lon="5.94963">
        <ele>836</ele>
        <time>2012-04-22T09:59:33.000Z</time>
      </trkpt>
      <trkpt lat="45.63446" lon="5.94963">
        <ele>837</ele>
        <time>2012-04-22T09:59:42.000Z</time>
      </trkpt>
      <trkpt lat="45.63446" lon="5.94963">
        <ele>837</ele>
        <time>2012-04-22T09:59:42.000Z</time>
      </trkpt>
      <trkpt lat="45.63446" lon="5.94963">
        <ele>837</ele>
        <time>2012-04-22T09:59:43.000Z</time>
      </trkpt>
      <trkpt lat="45.63441" lon="5.94963">
        <ele>838</ele>
        <time>2012-04-22T09:59:50.000Z</time>
      </trkpt>
      <trkpt lat="45.63441" lon="5.94963">
        <ele>838</ele>
        <time>2012-04-22T09:59:50.000Z</time>
      </trkpt>
      <trkpt lat="45.63441" lon="5.94963">
        <ele>838</ele>
        <time>2012-04-22T09:59:51.000Z</time>
      </trkpt>
      <trkpt lat="45.63435" lon="5.94965">
        <ele>839</ele>
        <time>2012-04-22T09:59:58.000Z</time>
      </trkpt>
      <trkpt lat="45.6343" lon="5.94965">
        <ele>840</ele>
        <time>2012-04-22T10:00:06.000Z</time>
      </trkpt>
      <trkpt lat="45.63424" lon="5.94963">
        <ele>840</ele>
        <time>2012-04-22T10:00:13.000Z</time>
      </trkpt>
      <trkpt lat="45.63424" lon="5.94963">
        <ele>840</ele>
        <time>2012-04-22T10:00:13.000Z</time>
      </trkpt>
      <trkpt lat="45.63424" lon="5.94963">
        <ele>840</ele>
        <time>2012-04-22T10:00:14.000Z</time>
      </trkpt>
      <trkpt lat="45.63419" lon="5.94963">
        <ele>841</ele>
        <time>2012-04-22T10:00:22.000Z</time>
      </trkpt>
      <trkpt lat="45.63419" lon="5.94963">
        <ele>841</ele>
        <time>2012-04-22T10:00:22.000Z</time>
      </trkpt>
      <trkpt lat="45.63419" lon="5.94963">
        <ele>841</ele>
        <time>2012-04-22T10:00:23.000Z</time>
      </trkpt>
      <trkpt lat="45.63414" lon="5.94963">
        <ele>859</ele>
        <time>2012-04-22T10:00:30.000Z</time>
      </trkpt>
      <trkpt lat="45.63414" lon="5.94963">
        <ele>859</ele>
        <time>2012-04-22T10:00:30.000Z</time>
      </trkpt>
      <trkpt lat="45.63414" lon="5.94963">
        <ele>859</ele>
        <time>2012-04-22T10:00:31.000Z</time>
      </trkpt>
      <trkpt lat="45.63407" lon="5.94968">
        <ele>860</ele>
        <time>2012-04-22T10:00:38.000Z</time>
      </trkpt>
      <trkpt lat="45.63403" lon="5.94972">
        <ele>861</ele>
        <time>2012-04-22T10:00:42.000Z</time>
      </trkpt>
      <trkpt lat="45.63403" lon="5.94972">
        <ele>861</ele>
        <time>2012-04-22T10:00:42.000Z</time>
      </trkpt>
      <trkpt lat="45.63403" lon="5.94972">
        <ele>861</ele>
        <time>2012-04-22T10:00:43.000Z</time>
      </trkpt>
      <trkpt lat="45.63401" lon="5.94978">
        <ele>862</ele>
        <time>2012-04-22T10:00:48.000Z</time>
      </trkpt>
      <trkpt lat="45.63401" lon="5.94978">
        <ele>862</ele>
        <time>2012-04-22T10:00:48.000Z</time>
      </trkpt>
      <trkpt lat="45.63401" lon="5.94978">
        <ele>862</ele>
        <time>2012-04-22T10:00:50.000Z</time>
      </trkpt>
      <trkpt lat="45.63402" lon="5.94985">
        <ele>863</ele>
        <time>2012-04-22T10:00:56.000Z</time>
      </trkpt>
      <trkpt lat="45.63406" lon="5.94991">
        <ele>864</ele>
        <time>2012-04-22T10:01:04.000Z</time>
      </trkpt>
      <trkpt lat="45.63406" lon="5.94991">
        <ele>864</ele>
        <time>2012-04-22T10:01:04.000Z</time>
      </trkpt>
      <trkpt lat="45.63406" lon="5.94991">
        <ele>864</ele>
        <time>2012-04-22T10:01:06.000Z</time>
      </trkpt>
      <trkpt lat="45.63408" lon="5.94998">
        <ele>864</ele>
        <time>2012-04-22T10:01:11.000Z</time>
      </trkpt>
      <trkpt lat="45.63408" lon="5.94998">
        <ele>864</ele>
        <time>2012-04-22T10:01:11.000Z</time>
      </trkpt>
      <trkpt lat="45.63408" lon="5.94998">
        <ele>864</ele>
        <time>2012-04-22T10:01:12.000Z</time>
      </trkpt>
      <trkpt lat="45.6341" lon="5.95004">
        <ele>875</ele>
        <time>2012-04-22T10:01:16.000Z</time>
      </trkpt>
      <trkpt lat="45.63413" lon="5.9501">
        <ele>879</ele>
        <time>2012-04-22T10:01:22.000Z</time>
      </trkpt>
      <trkpt lat="45.63413" lon="5.9501">
        <ele>879</ele>
        <time>2012-04-22T10:01:22.000Z</time>
      </trkpt>
      <trkpt lat="45.63413" lon="5.9501">
        <ele>879</ele>
        <time>2012-04-22T10:01:23.000Z</time>
      </trkpt>
      <trkpt lat="45.63415" lon="5.95017">
        <ele>885</ele>
        <time>2012-04-22T10:01:28.000Z</time>
      </trkpt>
      <trkpt lat="45.63418" lon="5.95023">
        <ele>874</ele>
        <time>2012-04-22T10:01:34.000Z</time>
      </trkpt>
      <trkpt lat="45.63418" lon="5.95023">
        <ele>874</ele>
        <time>2012-04-22T10:01:34.000Z</time>
      </trkpt>
      <trkpt lat="45.63418" lon="5.95023">
        <ele>874</ele>
        <time>2012-04-22T10:01:35.000Z</time>
      </trkpt>
      <trkpt lat="45.63418" lon="5.9503">
        <ele>877</ele>
        <time>2012-04-22T10:01:38.000Z</time>
      </trkpt>
      <trkpt lat="45.63418" lon="5.9503">
        <ele>877</ele>
        <time>2012-04-22T10:01:38.000Z</time>
      </trkpt>
      <trkpt lat="45.63418" lon="5.9503">
        <ele>877</ele>
        <time>2012-04-22T10:01:39.000Z</time>
      </trkpt>
      <trkpt lat="45.63417" lon="5.95036">
        <ele>879</ele>
        <time>2012-04-22T10:01:42.000Z</time>
      </trkpt>
      <trkpt lat="45.63418" lon="5.95043">
        <ele>883</ele>
        <time>2012-04-22T10:01:46.000Z</time>
      </trkpt>
      <trkpt lat="45.63414" lon="5.95047">
        <ele>904</ele>
        <time>2012-04-22T10:01:54.000Z</time>
      </trkpt>
      <trkpt lat="45.63414" lon="5.95047">
        <ele>904</ele>
        <time>2012-04-22T10:01:54.000Z</time>
      </trkpt>
      <trkpt lat="45.63414" lon="5.95047">
        <ele>904</ele>
        <time>2012-04-22T10:01:55.000Z</time>
      </trkpt>
      <trkpt lat="45.6341" lon="5.95049">
        <ele>905</ele>
        <time>2012-04-22T10:02:10.000Z</time>
      </trkpt>
      <trkpt lat="45.6341" lon="5.95049">
        <ele>905</ele>
        <time>2012-04-22T10:02:10.000Z</time>
      </trkpt>
      <trkpt lat="45.6341" lon="5.95049">
        <ele>905</ele>
        <time>2012-04-22T10:02:11.000Z</time>
      </trkpt>
      <trkpt lat="45.63411" lon="5.95056">
        <ele>908</ele>
        <time>2012-04-22T10:02:17.000Z</time>
      </trkpt>
      <trkpt lat="45.6341" lon="5.95062">
        <ele>910</ele>
        <time>2012-04-22T10:02:30.000Z</time>
      </trkpt>
      <trkpt lat="45.6341" lon="5.95062">
        <ele>910</ele>
        <time>2012-04-22T10:02:30.000Z</time>
      </trkpt>
      <trkpt lat="45.6341" lon="5.95062">
        <ele>910</ele>
        <time>2012-04-22T10:02:31.000Z</time>
      </trkpt>
      <trkpt lat="45.63407" lon="5.95068">
        <ele>912</ele>
        <time>2012-04-22T10:02:45.000Z</time>
      </trkpt>
      <trkpt lat="45.63407" lon="5.95075">
        <ele>915</ele>
        <time>2012-04-22T10:02:55.000Z</time>
      </trkpt>
      <trkpt lat="45.63407" lon="5.95075">
        <ele>915</ele>
        <time>2012-04-22T10:02:55.000Z</time>
      </trkpt>
      <trkpt lat="45.63407" lon="5.95075">
        <ele>915</ele>
        <time>2012-04-22T10:02:57.000Z</time>
      </trkpt>
      <trkpt lat="45.63412" lon="5.95077">
        <ele>916</ele>
        <time>2012-04-22T10:03:17.000Z</time>
      </trkpt>
      <trkpt lat="45.63412" lon="5.95077">
        <ele>916</ele>
        <time>2012-04-22T10:03:17.000Z</time>
      </trkpt>
      <trkpt lat="45.63412" lon="5.95077">
        <ele>916</ele>
        <time>2012-04-22T10:03:18.000Z</time>
      </trkpt>
      <trkpt lat="45.63416" lon="5.95081">
        <ele>919</ele>
        <time>2012-04-22T10:03:23.000Z</time>
      </trkpt>
      <trkpt lat="45.63421" lon="5.95081">
        <ele>912</ele>
        <time>2012-04-22T10:03:28.000Z</time>
      </trkpt>
      <trkpt lat="45.63426" lon="5.95083">
        <ele>906</ele>
        <time>2012-04-22T10:03:32.000Z</time>
      </trkpt>
      <trkpt lat="45.6343" lon="5.95086">
        <ele>922</ele>
        <time>2012-04-22T10:03:37.000Z</time>
      </trkpt>
      <trkpt lat="45.63434" lon="5.95088">
        <ele>922</ele>
        <time>2012-04-22T10:03:43.000Z</time>
      </trkpt>
      <trkpt lat="45.63438" lon="5.95092">
        <ele>922</ele>
        <time>2012-04-22T10:03:49.000Z</time>
      </trkpt>
      <trkpt lat="45.63441" lon="5.95098">
        <ele>922</ele>
        <time>2012-04-22T10:03:55.000Z</time>
      </trkpt>
      <trkpt lat="45.63441" lon="5.95098">
        <ele>922</ele>
        <time>2012-04-22T10:03:55.000Z</time>
      </trkpt>
      <trkpt lat="45.63441" lon="5.95098">
        <ele>922</ele>
        <time>2012-04-22T10:03:56.000Z</time>
      </trkpt>
      <trkpt lat="45.63444" lon="5.95103">
        <ele>923</ele>
        <time>2012-04-22T10:04:00.000Z</time>
      </trkpt>
      <trkpt lat="45.63444" lon="5.95103">
        <ele>923</ele>
        <time>2012-04-22T10:04:00.000Z</time>
      </trkpt>
      <trkpt lat="45.63444" lon="5.95103">
        <ele>923</ele>
        <time>2012-04-22T10:04:01.000Z</time>
      </trkpt>
      <trkpt lat="45.63447" lon="5.95109">
        <ele>924</ele>
        <time>2012-04-22T10:04:06.000Z</time>
      </trkpt>
      <trkpt lat="45.63451" lon="5.95116">
        <ele>925</ele>
        <time>2012-04-22T10:04:12.000Z</time>
      </trkpt>
      <trkpt lat="45.63451" lon="5.95116">
        <ele>925</ele>
        <time>2012-04-22T10:04:12.000Z</time>
      </trkpt>
      <trkpt lat="45.63451" lon="5.95116">
        <ele>925</ele>
        <time>2012-04-22T10:04:13.000Z</time>
      </trkpt>
      <trkpt lat="45.63456" lon="5.95118">
        <ele>925</ele>
        <time>2012-04-22T10:04:18.000Z</time>
      </trkpt>
      <trkpt lat="45.6346" lon="5.9512">
        <ele>925</ele>
        <time>2012-04-22T10:04:24.000Z</time>
      </trkpt>
      <trkpt lat="45.63464" lon="5.95122">
        <ele>924</ele>
        <time>2012-04-22T10:04:29.000Z</time>
      </trkpt>
      <trkpt lat="45.6347" lon="5.95122">
        <ele>923</ele>
        <time>2012-04-22T10:04:34.000Z</time>
      </trkpt>
      <trkpt lat="45.63475" lon="5.95124">
        <ele>923</ele>
        <time>2012-04-22T10:04:39.000Z</time>
      </trkpt>
      <trkpt lat="45.63475" lon="5.95124">
        <ele>923</ele>
        <time>2012-04-22T10:04:39.000Z</time>
      </trkpt>
      <trkpt lat="45.63475" lon="5.95124">
        <ele>923</ele>
        <time>2012-04-22T10:04:40.000Z</time>
      </trkpt>
      <trkpt lat="45.63479" lon="5.95128">
        <ele>924</ele>
        <time>2012-04-22T10:04:46.000Z</time>
      </trkpt>
      <trkpt lat="45.63479" lon="5.95128">
        <ele>924</ele>
        <time>2012-04-22T10:04:46.000Z</time>
      </trkpt>
      <trkpt lat="45.63479" lon="5.95128">
        <ele>924</ele>
        <time>2012-04-22T10:04:47.000Z</time>
      </trkpt>
      <trkpt lat="45.63484" lon="5.95126">
        <ele>923</ele>
        <time>2012-04-22T10:04:56.000Z</time>
      </trkpt>
      <trkpt lat="45.63484" lon="5.95126">
        <ele>923</ele>
        <time>2012-04-22T10:04:56.000Z</time>
      </trkpt>
      <trkpt lat="45.63484" lon="5.95126">
        <ele>923</ele>
        <time>2012-04-22T10:04:57.000Z</time>
      </trkpt>
      <trkpt lat="45.63485" lon="5.95133">
        <ele>926</ele>
        <time>2012-04-22T10:05:08.000Z</time>
      </trkpt>
      <trkpt lat="45.63485" lon="5.95133">
        <ele>926</ele>
        <time>2012-04-22T10:05:08.000Z</time>
      </trkpt>
      <trkpt lat="45.63485" lon="5.95133">
        <ele>926</ele>
        <time>2012-04-22T10:05:09.000Z</time>
      </trkpt>
      <trkpt lat="45.63489" lon="5.95137">
        <ele>927</ele>
        <time>2012-04-22T10:05:20.000Z</time>
      </trkpt>
      <trkpt lat="45.63494" lon="5.95137">
        <ele>927</ele>
        <time>2012-04-22T10:05:30.000Z</time>
      </trkpt>
      <trkpt lat="45.63494" lon="5.95137">
        <ele>927</ele>
        <time>2012-04-22T10:05:30.000Z</time>
      </trkpt>
      <trkpt lat="45.63494" lon="5.95137">
        <ele>927</ele>
        <time>2012-04-22T10:05:36.000Z</time>
      </trkpt>
      <trkpt lat="45.63493" lon="5.95144">
        <ele>930</ele>
        <time>2012-04-22T10:05:53.000Z</time>
      </trkpt>
      <trkpt lat="45.63493" lon="5.95144">
        <ele>930</ele>
        <time>2012-04-22T10:05:53.000Z</time>
      </trkpt>
      <trkpt lat="45.63493" lon="5.95144">
        <ele>930</ele>
        <time>2012-04-22T10:05:54.000Z</time>
      </trkpt>
      <trkpt lat="45.63498" lon="5.95148">
        <ele>932</ele>
        <time>2012-04-22T10:06:02.000Z</time>
      </trkpt>
      <trkpt lat="45.63502" lon="5.95146">
        <ele>921</ele>
        <time>2012-04-22T10:06:07.000Z</time>
      </trkpt>
      <trkpt lat="45.63506" lon="5.95141">
        <ele>917</ele>
        <time>2012-04-22T10:06:13.000Z</time>
      </trkpt>
      <trkpt lat="45.6351" lon="5.95139">
        <ele>916</ele>
        <time>2012-04-22T10:06:18.000Z</time>
      </trkpt>
      <trkpt lat="45.63516" lon="5.95139">
        <ele>915</ele>
        <time>2012-04-22T10:06:23.000Z</time>
      </trkpt>
      <trkpt lat="45.6352" lon="5.95141">
        <ele>915</ele>
        <time>2012-04-22T10:06:27.000Z</time>
      </trkpt>
      <trkpt lat="45.6352" lon="5.95141">
        <ele>915</ele>
        <time>2012-04-22T10:06:27.000Z</time>
      </trkpt>
      <trkpt lat="45.6352" lon="5.95141">
        <ele>915</ele>
        <time>2012-04-22T10:06:28.000Z</time>
      </trkpt>
      <trkpt lat="45.63525" lon="5.95141">
        <ele>914</ele>
        <time>2012-04-22T10:06:35.000Z</time>
      </trkpt>
      <trkpt lat="45.63529" lon="5.95148">
        <ele>916</ele>
        <time>2012-04-22T10:06:45.000Z</time>
      </trkpt>
      <trkpt lat="45.63529" lon="5.95148">
        <ele>916</ele>
        <time>2012-04-22T10:06:45.000Z</time>
      </trkpt>
      <trkpt lat="45.63529" lon="5.95148">
        <ele>916</ele>
        <time>2012-04-22T10:06:46.000Z</time>
      </trkpt>
      <trkpt lat="45.63533" lon="5.9515">
        <ele>915</ele>
        <time>2012-04-22T10:06:53.000Z</time>
      </trkpt>
      <trkpt lat="45.63533" lon="5.9515">
        <ele>915</ele>
        <time>2012-04-22T10:06:53.000Z</time>
      </trkpt>
      <trkpt lat="45.63533" lon="5.9515">
        <ele>915</ele>
        <time>2012-04-22T10:06:54.000Z</time>
      </trkpt>
      <trkpt lat="45.63537" lon="5.95156">
        <ele>916</ele>
        <time>2012-04-22T10:07:00.000Z</time>
      </trkpt>
      <trkpt lat="45.63537" lon="5.95156">
        <ele>916</ele>
        <time>2012-04-22T10:07:00.000Z</time>
      </trkpt>
      <trkpt lat="45.63537" lon="5.95156">
        <ele>916</ele>
        <time>2012-04-22T10:07:01.000Z</time>
      </trkpt>
      <trkpt lat="45.6354" lon="5.95163">
        <ele>917</ele>
        <time>2012-04-22T10:07:07.000Z</time>
      </trkpt>
      <trkpt lat="45.63545" lon="5.95167">
        <ele>942</ele>
        <time>2012-04-22T10:07:15.000Z</time>
      </trkpt>
      <trkpt lat="45.63545" lon="5.95167">
        <ele>942</ele>
        <time>2012-04-22T10:07:15.000Z</time>
      </trkpt>
      <trkpt lat="45.63545" lon="5.95167">
        <ele>942</ele>
        <time>2012-04-22T10:07:17.000Z</time>
      </trkpt>
      <trkpt lat="45.63548" lon="5.95174">
        <ele>942</ele>
        <time>2012-04-22T10:07:26.000Z</time>
      </trkpt>
      <trkpt lat="45.63548" lon="5.95174">
        <ele>942</ele>
        <time>2012-04-22T10:07:26.000Z</time>
      </trkpt>
      <trkpt lat="45.63548" lon="5.95174">
        <ele>942</ele>
        <time>2012-04-22T10:07:27.000Z</time>
      </trkpt>
      <trkpt lat="45.6355" lon="5.9518">
        <ele>943</ele>
        <time>2012-04-22T10:07:33.000Z</time>
      </trkpt>
      <trkpt lat="45.6355" lon="5.9518">
        <ele>943</ele>
        <time>2012-04-22T10:07:33.000Z</time>
      </trkpt>
      <trkpt lat="45.6355" lon="5.9518">
        <ele>943</ele>
        <time>2012-04-22T10:07:34.000Z</time>
      </trkpt>
      <trkpt lat="45.63551" lon="5.95186">
        <ele>943</ele>
        <time>2012-04-22T10:07:42.000Z</time>
      </trkpt>
      <trkpt lat="45.63551" lon="5.95186">
        <ele>943</ele>
        <time>2012-04-22T10:07:42.000Z</time>
      </trkpt>
      <trkpt lat="45.63551" lon="5.95186">
        <ele>943</ele>
        <time>2012-04-22T10:07:48.000Z</time>
      </trkpt>
      <trkpt lat="45.63546" lon="5.95189">
        <ele>944</ele>
        <time>2012-04-22T10:07:59.000Z</time>
      </trkpt>
      <trkpt lat="45.63546" lon="5.95189">
        <ele>944</ele>
        <time>2012-04-22T10:07:59.000Z</time>
      </trkpt>
      <trkpt lat="45.63546" lon="5.95189">
        <ele>944</ele>
        <time>2012-04-22T10:08:00.000Z</time>
      </trkpt>
      <trkpt lat="45.63542" lon="5.95191">
        <ele>945</ele>
        <time>2012-04-22T10:08:12.000Z</time>
      </trkpt>
      <trkpt lat="45.63542" lon="5.95191">
        <ele>945</ele>
        <time>2012-04-22T10:08:12.000Z</time>
      </trkpt>
      <trkpt lat="45.63542" lon="5.95191">
        <ele>945</ele>
        <time>2012-04-22T10:08:14.000Z</time>
      </trkpt>
      <trkpt lat="45.63536" lon="5.95191">
        <ele>945</ele>
        <time>2012-04-22T10:08:18.000Z</time>
      </trkpt>
      <trkpt lat="45.63531" lon="5.95191">
        <ele>946</ele>
        <time>2012-04-22T10:08:21.000Z</time>
      </trkpt>
      <trkpt lat="45.63525" lon="5.95191">
        <ele>946</ele>
        <time>2012-04-22T10:08:24.000Z</time>
      </trkpt>
      <trkpt lat="45.63521" lon="5.95193">
        <ele>946</ele>
        <time>2012-04-22T10:08:27.000Z</time>
      </trkpt>
      <trkpt lat="45.63515" lon="5.95195">
        <ele>947</ele>
        <time>2012-04-22T10:08:31.000Z</time>
      </trkpt>
      <trkpt lat="45.63509" lon="5.95195">
        <ele>947</ele>
        <time>2012-04-22T10:08:35.000Z</time>
      </trkpt>
      <trkpt lat="45.63505" lon="5.95197">
        <ele>947</ele>
        <time>2012-04-22T10:08:38.000Z</time>
      </trkpt>
      <trkpt lat="45.635" lon="5.95204">
        <ele>954</ele>
        <time>2012-04-22T10:08:41.000Z</time>
      </trkpt>
      <trkpt lat="45.63495" lon="5.9521">
        <ele>956</ele>
        <time>2012-04-22T10:08:43.000Z</time>
      </trkpt>
      <trkpt lat="45.63491" lon="5.95216">
        <ele>957</ele>
        <time>2012-04-22T10:08:46.000Z</time>
      </trkpt>
      <trkpt lat="45.63489" lon="5.95223">
        <ele>958</ele>
        <time>2012-04-22T10:08:48.000Z</time>
      </trkpt>
      <trkpt lat="45.63486" lon="5.95232">
        <ele>959</ele>
        <time>2012-04-22T10:08:51.000Z</time>
      </trkpt>
      <trkpt lat="45.63484" lon="5.95238">
        <ele>959</ele>
        <time>2012-04-22T10:08:54.000Z</time>
      </trkpt>
      <trkpt lat="45.63484" lon="5.95244">
        <ele>960</ele>
        <time>2012-04-22T10:08:57.000Z</time>
      </trkpt>
      <trkpt lat="45.63482" lon="5.95251">
        <ele>967</ele>
        <time>2012-04-22T10:09:00.000Z</time>
      </trkpt>
      <trkpt lat="45.63481" lon="5.95257">
        <ele>968</ele>
        <time>2012-04-22T10:09:03.000Z</time>
      </trkpt>
      <trkpt lat="45.6348" lon="5.95264">
        <ele>968</ele>
        <time>2012-04-22T10:09:07.000Z</time>
      </trkpt>
      <trkpt lat="45.63479" lon="5.9527">
        <ele>969</ele>
        <time>2012-04-22T10:09:10.000Z</time>
      </trkpt>
      <trkpt lat="45.63478" lon="5.95276">
        <ele>970</ele>
        <time>2012-04-22T10:09:14.000Z</time>
      </trkpt>
      <trkpt lat="45.63477" lon="5.95283">
        <ele>971</ele>
        <time>2012-04-22T10:09:17.000Z</time>
      </trkpt>
      <trkpt lat="45.63477" lon="5.95283">
        <ele>971</ele>
        <time>2012-04-22T10:09:17.000Z</time>
      </trkpt>
      <trkpt lat="45.63477" lon="5.95283">
        <ele>971</ele>
        <time>2012-04-22T10:09:18.000Z</time>
      </trkpt>
      <trkpt lat="45.63476" lon="5.95289">
        <ele>971</ele>
        <time>2012-04-22T10:09:21.000Z</time>
      </trkpt>
      <trkpt lat="45.63474" lon="5.95296">
        <ele>972</ele>
        <time>2012-04-22T10:09:25.000Z</time>
      </trkpt>
      <trkpt lat="45.63474" lon="5.95296">
        <ele>972</ele>
        <time>2012-04-22T10:09:25.000Z</time>
      </trkpt>
      <trkpt lat="45.63474" lon="5.95296">
        <ele>972</ele>
        <time>2012-04-22T10:09:26.000Z</time>
      </trkpt>
      <trkpt lat="45.63475" lon="5.95302">
        <ele>973</ele>
        <time>2012-04-22T10:09:30.000Z</time>
      </trkpt>
      <trkpt lat="45.63478" lon="5.95309">
        <ele>974</ele>
        <time>2012-04-22T10:09:34.000Z</time>
      </trkpt>
      <trkpt lat="45.63482" lon="5.95311">
        <ele>974</ele>
        <time>2012-04-22T10:09:37.000Z</time>
      </trkpt>
      <trkpt lat="45.63488" lon="5.95313">
        <ele>975</ele>
        <time>2012-04-22T10:09:40.000Z</time>
      </trkpt>
      <trkpt lat="45.63493" lon="5.95315">
        <ele>975</ele>
        <time>2012-04-22T10:09:43.000Z</time>
      </trkpt>
      <trkpt lat="45.63498" lon="5.95317">
        <ele>976</ele>
        <time>2012-04-22T10:09:46.000Z</time>
      </trkpt>
      <trkpt lat="45.63502" lon="5.9532">
        <ele>975</ele>
        <time>2012-04-22T10:09:48.000Z</time>
      </trkpt>
      <trkpt lat="45.63506" lon="5.95322">
        <ele>975</ele>
        <time>2012-04-22T10:09:50.000Z</time>
      </trkpt>
      <trkpt lat="45.6351" lon="5.95324">
        <ele>975</ele>
        <time>2012-04-22T10:09:53.000Z</time>
      </trkpt>
      <trkpt lat="45.63515" lon="5.95322">
        <ele>973</ele>
        <time>2012-04-22T10:10:01.000Z</time>
      </trkpt>
      <trkpt lat="45.6352" lon="5.95322">
        <ele>972</ele>
        <time>2012-04-22T10:10:09.000Z</time>
      </trkpt>
      <trkpt lat="45.6352" lon="5.95322">
        <ele>972</ele>
        <time>2012-04-22T10:10:09.000Z</time>
      </trkpt>
      <trkpt lat="45.6352" lon="5.95322">
        <ele>972</ele>
        <time>2012-04-22T10:10:10.000Z</time>
      </trkpt>
      <trkpt lat="45.63525" lon="5.95322">
        <ele>972</ele>
        <time>2012-04-22T10:10:17.000Z</time>
      </trkpt>
      <trkpt lat="45.63525" lon="5.95322">
        <ele>972</ele>
        <time>2012-04-22T10:10:17.000Z</time>
      </trkpt>
      <trkpt lat="45.63525" lon="5.95322">
        <ele>972</ele>
        <time>2012-04-22T10:10:18.000Z</time>
      </trkpt>
      <trkpt lat="45.6353" lon="5.95317">
        <ele>970</ele>
        <time>2012-04-22T10:10:35.000Z</time>
      </trkpt>
      <trkpt lat="45.6353" lon="5.95317">
        <ele>970</ele>
        <time>2012-04-22T10:10:35.000Z</time>
      </trkpt>
      <trkpt lat="45.6353" lon="5.95317">
        <ele>970</ele>
        <time>2012-04-22T10:10:36.000Z</time>
      </trkpt>
      <trkpt lat="45.63529" lon="5.95311">
        <ele>970</ele>
        <time>2012-04-22T10:10:54.000Z</time>
      </trkpt>
      <trkpt lat="45.63534" lon="5.95313">
        <ele>970</ele>
        <time>2012-04-22T10:10:58.000Z</time>
      </trkpt>
      <trkpt lat="45.63539" lon="5.95315">
        <ele>970</ele>
        <time>2012-04-22T10:11:02.000Z</time>
      </trkpt>
      <trkpt lat="45.63544" lon="5.95317">
        <ele>969</ele>
        <time>2012-04-22T10:11:05.000Z</time>
      </trkpt>
      <trkpt lat="45.63548" lon="5.95322">
        <ele>969</ele>
        <time>2012-04-22T10:11:08.000Z</time>
      </trkpt>
      <trkpt lat="45.63552" lon="5.95326">
        <ele>970</ele>
        <time>2012-04-22T10:11:11.000Z</time>
      </trkpt>
      <trkpt lat="45.63556" lon="5.95328">
        <ele>970</ele>
        <time>2012-04-22T10:11:15.000Z</time>
      </trkpt>
      <trkpt lat="45.63562" lon="5.9533">
        <ele>970</ele>
        <time>2012-04-22T10:11:18.000Z</time>
      </trkpt>
      <trkpt lat="45.63566" lon="5.95337">
        <ele>978</ele>
        <time>2012-04-22T10:11:20.000Z</time>
      </trkpt>
      <trkpt lat="45.6357" lon="5.95343">
        <ele>978</ele>
        <time>2012-04-22T10:11:23.000Z</time>
      </trkpt>
      <trkpt lat="45.63575" lon="5.9535">
        <ele>978</ele>
        <time>2012-04-22T10:11:26.000Z</time>
      </trkpt>
      <trkpt lat="45.6358" lon="5.95354">
        <ele>979</ele>
        <time>2012-04-22T10:11:30.000Z</time>
      </trkpt>
      <trkpt lat="45.63586" lon="5.95354">
        <ele>975</ele>
        <time>2012-04-22T10:11:33.000Z</time>
      </trkpt>
      <trkpt lat="45.63591" lon="5.95354">
        <ele>975</ele>
        <time>2012-04-22T10:11:36.000Z</time>
      </trkpt>
      <trkpt lat="45.63596" lon="5.95354">
        <ele>975</ele>
        <time>2012-04-22T10:11:38.000Z</time>
      </trkpt>
      <trkpt lat="45.63602" lon="5.95354">
        <ele>975</ele>
        <time>2012-04-22T10:11:41.000Z</time>
      </trkpt>
      <trkpt lat="45.63606" lon="5.95356">
        <ele>976</ele>
        <time>2012-04-22T10:11:43.000Z</time>
      </trkpt>
      <trkpt lat="45.6361" lon="5.95358">
        <ele>976</ele>
        <time>2012-04-22T10:11:46.000Z</time>
      </trkpt>
      <trkpt lat="45.63614" lon="5.9536">
        <ele>976</ele>
        <time>2012-04-22T10:11:48.000Z</time>
      </trkpt>
      <trkpt lat="45.63619" lon="5.95364">
        <ele>976</ele>
        <time>2012-04-22T10:11:50.000Z</time>
      </trkpt>
      <trkpt lat="45.63623" lon="5.95367">
        <ele>976</ele>
        <time>2012-04-22T10:11:52.000Z</time>
      </trkpt>
      <trkpt lat="45.63627" lon="5.95369">
        <ele>976</ele>
        <time>2012-04-22T10:11:54.000Z</time>
      </trkpt>
      <trkpt lat="45.63632" lon="5.95371">
        <ele>976</ele>
        <time>2012-04-22T10:11:56.000Z</time>
      </trkpt>
      <trkpt lat="45.63636" lon="5.95373">
        <ele>976</ele>
        <time>2012-04-22T10:11:58.000Z</time>
      </trkpt>
      <trkpt lat="45.6364" lon="5.95375">
        <ele>976</ele>
        <time>2012-04-22T10:12:00.000Z</time>
      </trkpt>
      <trkpt lat="45.63646" lon="5.9538">
        <ele>976</ele>
        <time>2012-04-22T10:12:02.000Z</time>
      </trkpt>
      <trkpt lat="45.6365" lon="5.95382">
        <ele>976</ele>
        <time>2012-04-22T10:12:04.000Z</time>
      </trkpt>
      <trkpt lat="45.63654" lon="5.95384">
        <ele>976</ele>
        <time>2012-04-22T10:12:06.000Z</time>
      </trkpt>
      <trkpt lat="45.63658" lon="5.95388">
        <ele>976</ele>
        <time>2012-04-22T10:12:08.000Z</time>
      </trkpt>
      <trkpt lat="45.63663" lon="5.95392">
        <ele>977</ele>
        <time>2012-04-22T10:12:10.000Z</time>
      </trkpt>
      <trkpt lat="45.63667" lon="5.95395">
        <ele>971</ele>
        <time>2012-04-22T10:12:12.000Z</time>
      </trkpt>
      <trkpt lat="45.63671" lon="5.95399">
        <ele>971</ele>
        <time>2012-04-22T10:12:14.000Z</time>
      </trkpt>
      <trkpt lat="45.63676" lon="5.95401">
        <ele>971</ele>
        <time>2012-04-22T10:12:16.000Z</time>
      </trkpt>
      <trkpt lat="45.6368" lon="5.95405">
        <ele>971</ele>
        <time>2012-04-22T10:12:18.000Z</time>
      </trkpt>
      <trkpt lat="45.63686" lon="5.95407">
        <ele>970</ele>
        <time>2012-04-22T10:12:21.000Z</time>
      </trkpt>
      <trkpt lat="45.63691" lon="5.9541">
        <ele>970</ele>
        <time>2012-04-22T10:12:23.000Z</time>
      </trkpt>
      <trkpt lat="45.63696" lon="5.9541">
        <ele>969</ele>
        <time>2012-04-22T10:12:25.000Z</time>
      </trkpt>
      <trkpt lat="45.637" lon="5.95412">
        <ele>968</ele>
        <time>2012-04-22T10:12:27.000Z</time>
      </trkpt>
      <trkpt lat="45.63706" lon="5.95416">
        <ele>967</ele>
        <time>2012-04-22T10:12:30.000Z</time>
      </trkpt>
      <trkpt lat="45.63711" lon="5.9542">
        <ele>972</ele>
        <time>2012-04-22T10:12:33.000Z</time>
      </trkpt>
      <trkpt lat="45.63716" lon="5.95427">
        <ele>972</ele>
        <time>2012-04-22T10:12:36.000Z</time>
      </trkpt>
      <trkpt lat="45.63722" lon="5.95431">
        <ele>971</ele>
        <time>2012-04-22T10:12:39.000Z</time>
      </trkpt>
      <trkpt lat="45.63725" lon="5.9544">
        <ele>971</ele>
        <time>2012-04-22T10:12:42.000Z</time>
      </trkpt>
      <trkpt lat="45.63727" lon="5.95446">
        <ele>972</ele>
        <time>2012-04-22T10:12:45.000Z</time>
      </trkpt>
      <trkpt lat="45.63728" lon="5.95455">
        <ele>972</ele>
        <time>2012-04-22T10:12:48.000Z</time>
      </trkpt>
      <trkpt lat="45.63727" lon="5.95461">
        <ele>972</ele>
        <time>2012-04-22T10:12:51.000Z</time>
      </trkpt>
      <trkpt lat="45.63728" lon="5.95468">
        <ele>972</ele>
        <time>2012-04-22T10:12:53.000Z</time>
      </trkpt>
      <trkpt lat="45.63728" lon="5.95474">
        <ele>972</ele>
        <time>2012-04-22T10:12:55.000Z</time>
      </trkpt>
      <trkpt lat="45.63729" lon="5.9548">
        <ele>972</ele>
        <time>2012-04-22T10:12:58.000Z</time>
      </trkpt>
      <trkpt lat="45.63731" lon="5.95487">
        <ele>972</ele>
        <time>2012-04-22T10:13:00.000Z</time>
      </trkpt>
      <trkpt lat="45.63732" lon="5.95493">
        <ele>971</ele>
        <time>2012-04-22T10:13:03.000Z</time>
      </trkpt>
      <trkpt lat="45.63734" lon="5.955">
        <ele>971</ele>
        <time>2012-04-22T10:13:06.000Z</time>
      </trkpt>
      <trkpt lat="45.63734" lon="5.95506">
        <ele>975</ele>
        <time>2012-04-22T10:13:09.000Z</time>
      </trkpt>
      <trkpt lat="45.63735" lon="5.95513">
        <ele>975</ele>
        <time>2012-04-22T10:13:12.000Z</time>
      </trkpt>
      <trkpt lat="45.63735" lon="5.95519">
        <ele>976</ele>
        <time>2012-04-22T10:13:14.000Z</time>
      </trkpt>
      <trkpt lat="45.63735" lon="5.95526">
        <ele>977</ele>
        <time>2012-04-22T10:13:16.000Z</time>
      </trkpt>
      <trkpt lat="45.63736" lon="5.95532">
        <ele>978</ele>
        <time>2012-04-22T10:13:18.000Z</time>
      </trkpt>
      <trkpt lat="45.63738" lon="5.9554">
        <ele>979</ele>
        <time>2012-04-22T10:13:20.000Z</time>
      </trkpt>
      <trkpt lat="45.63739" lon="5.95549">
        <ele>979</ele>
        <time>2012-04-22T10:13:22.000Z</time>
      </trkpt>
      <trkpt lat="45.6374" lon="5.95556">
        <ele>979</ele>
        <time>2012-04-22T10:13:24.000Z</time>
      </trkpt>
      <trkpt lat="45.63742" lon="5.95562">
        <ele>978</ele>
        <time>2012-04-22T10:13:26.000Z</time>
      </trkpt>
      <trkpt lat="45.63745" lon="5.95568">
        <ele>977</ele>
        <time>2012-04-22T10:13:29.000Z</time>
      </trkpt>
      <trkpt lat="45.63748" lon="5.95575">
        <ele>976</ele>
        <time>2012-04-22T10:13:32.000Z</time>
      </trkpt>
      <trkpt lat="45.63752" lon="5.95583">
        <ele>972</ele>
        <time>2012-04-22T10:13:36.000Z</time>
      </trkpt>
      <trkpt lat="45.63755" lon="5.9559">
        <ele>975</ele>
        <time>2012-04-22T10:13:39.000Z</time>
      </trkpt>
      <trkpt lat="45.63757" lon="5.95596">
        <ele>976</ele>
        <time>2012-04-22T10:13:41.000Z</time>
      </trkpt>
      <trkpt lat="45.63759" lon="5.95603">
        <ele>977</ele>
        <time>2012-04-22T10:13:43.000Z</time>
      </trkpt>
      <trkpt lat="45.63762" lon="5.95609">
        <ele>978</ele>
        <time>2012-04-22T10:13:45.000Z</time>
      </trkpt>
      <trkpt lat="45.63765" lon="5.95616">
        <ele>979</ele>
        <time>2012-04-22T10:13:47.000Z</time>
      </trkpt>
      <trkpt lat="45.63768" lon="5.95622">
        <ele>980</ele>
        <time>2012-04-22T10:13:49.000Z</time>
      </trkpt>
      <trkpt lat="45.63771" lon="5.95628">
        <ele>981</ele>
        <time>2012-04-22T10:13:52.000Z</time>
      </trkpt>
      <trkpt lat="45.63774" lon="5.95635">
        <ele>982</ele>
        <time>2012-04-22T10:13:54.000Z</time>
      </trkpt>
      <trkpt lat="45.63778" lon="5.95641">
        <ele>982</ele>
        <time>2012-04-22T10:13:57.000Z</time>
      </trkpt>
      <trkpt lat="45.63782" lon="5.95648">
        <ele>983</ele>
        <time>2012-04-22T10:14:01.000Z</time>
      </trkpt>
      <trkpt lat="45.63786" lon="5.95652">
        <ele>983</ele>
        <time>2012-04-22T10:14:05.000Z</time>
      </trkpt>
      <trkpt lat="45.63789" lon="5.95658">
        <ele>983</ele>
        <time>2012-04-22T10:14:10.000Z</time>
      </trkpt>
      <trkpt lat="45.63789" lon="5.95658">
        <ele>983</ele>
        <time>2012-04-22T10:14:10.000Z</time>
      </trkpt>
      <trkpt lat="45.63789" lon="5.95658">
        <ele>983</ele>
        <time>2012-04-22T10:14:11.000Z</time>
      </trkpt>
      <trkpt lat="45.63792" lon="5.95665">
        <ele>983</ele>
        <time>2012-04-22T10:14:15.000Z</time>
      </trkpt>
      <trkpt lat="45.63797" lon="5.95669">
        <ele>1003</ele>
        <time>2012-04-22T10:14:21.000Z</time>
      </trkpt>
      <trkpt lat="45.63801" lon="5.95671">
        <ele>1003</ele>
        <time>2012-04-22T10:14:26.000Z</time>
      </trkpt>
      <trkpt lat="45.63805" lon="5.95674">
        <ele>1002</ele>
        <time>2012-04-22T10:14:31.000Z</time>
      </trkpt>
      <trkpt lat="45.63805" lon="5.95674">
        <ele>1002</ele>
        <time>2012-04-22T10:14:31.000Z</time>
      </trkpt>
      <trkpt lat="45.63805" lon="5.95674">
        <ele>1002</ele>
        <time>2012-04-22T10:14:32.000Z</time>
      </trkpt>
      <trkpt lat="45.6381" lon="5.95676">
        <ele>1001</ele>
        <time>2012-04-22T10:14:36.000Z</time>
      </trkpt>
      <trkpt lat="45.63814" lon="5.95678">
        <ele>1000</ele>
        <time>2012-04-22T10:14:40.000Z</time>
      </trkpt>
      <trkpt lat="45.63818" lon="5.9568">
        <ele>999</ele>
        <time>2012-04-22T10:14:43.000Z</time>
      </trkpt>
      <trkpt lat="45.63823" lon="5.95682">
        <ele>998</ele>
        <time>2012-04-22T10:14:46.000Z</time>
      </trkpt>
      <trkpt lat="45.63828" lon="5.95684">
        <ele>998</ele>
        <time>2012-04-22T10:14:49.000Z</time>
      </trkpt>
      <trkpt lat="45.63833" lon="5.95684">
        <ele>998</ele>
        <time>2012-04-22T10:14:55.000Z</time>
      </trkpt>
      <trkpt lat="45.63839" lon="5.95686">
        <ele>994</ele>
        <time>2012-04-22T10:14:59.000Z</time>
      </trkpt>
      <trkpt lat="45.63843" lon="5.95688">
        <ele>995</ele>
        <time>2012-04-22T10:15:02.000Z</time>
      </trkpt>
      <trkpt lat="45.63847" lon="5.95691">
        <ele>996</ele>
        <time>2012-04-22T10:15:05.000Z</time>
      </trkpt>
      <trkpt lat="45.63852" lon="5.95693">
        <ele>997</ele>
        <time>2012-04-22T10:15:08.000Z</time>
      </trkpt>
      <trkpt lat="45.63856" lon="5.95695">
        <ele>998</ele>
        <time>2012-04-22T10:15:11.000Z</time>
      </trkpt>
      <trkpt lat="45.6386" lon="5.95699">
        <ele>999</ele>
        <time>2012-04-22T10:15:14.000Z</time>
      </trkpt>
      <trkpt lat="45.63866" lon="5.95701">
        <ele>1000</ele>
        <time>2012-04-22T10:15:19.000Z</time>
      </trkpt>
      <trkpt lat="45.6387" lon="5.95704">
        <ele>1000</ele>
        <time>2012-04-22T10:15:22.000Z</time>
      </trkpt>
      <trkpt lat="45.63875" lon="5.95706">
        <ele>1000</ele>
        <time>2012-04-22T10:15:26.000Z</time>
      </trkpt>
      <trkpt lat="45.63878" lon="5.9571">
        <ele>1001</ele>
        <time>2012-04-22T10:15:28.000Z</time>
      </trkpt>
      <trkpt lat="45.63883" lon="5.95712">
        <ele>1001</ele>
        <time>2012-04-22T10:15:31.000Z</time>
      </trkpt>
      <trkpt lat="45.63887" lon="5.95714">
        <ele>1002</ele>
        <time>2012-04-22T10:15:34.000Z</time>
      </trkpt>
      <trkpt lat="45.63893" lon="5.95714">
        <ele>1002</ele>
        <time>2012-04-22T10:15:38.000Z</time>
      </trkpt>
      <trkpt lat="45.63899" lon="5.95716">
        <ele>1002</ele>
        <time>2012-04-22T10:15:40.000Z</time>
      </trkpt>
      <trkpt lat="45.63904" lon="5.95719">
        <ele>1003</ele>
        <time>2012-04-22T10:15:42.000Z</time>
      </trkpt>
      <trkpt lat="45.63908" lon="5.95721">
        <ele>1003</ele>
        <time>2012-04-22T10:15:44.000Z</time>
      </trkpt>
      <trkpt lat="45.63914" lon="5.95723">
        <ele>1004</ele>
        <time>2012-04-22T10:15:47.000Z</time>
      </trkpt>
      <trkpt lat="45.63918" lon="5.95727">
        <ele>1002</ele>
        <time>2012-04-22T10:15:50.000Z</time>
      </trkpt>
      <trkpt lat="45.63923" lon="5.95731">
        <ele>1003</ele>
        <time>2012-04-22T10:15:53.000Z</time>
      </trkpt>
      <trkpt lat="45.63929" lon="5.95736">
        <ele>1004</ele>
        <time>2012-04-22T10:15:56.000Z</time>
      </trkpt>
      <trkpt lat="45.63933" lon="5.9574">
        <ele>1004</ele>
        <time>2012-04-22T10:15:58.000Z</time>
      </trkpt>
      <trkpt lat="45.63937" lon="5.95742">
        <ele>1003</ele>
        <time>2012-04-22T10:16:01.000Z</time>
      </trkpt>
      <trkpt lat="45.63942" lon="5.95744">
        <ele>1003</ele>
        <time>2012-04-22T10:16:04.000Z</time>
      </trkpt>
      <trkpt lat="45.63946" lon="5.95746">
        <ele>1002</ele>
        <time>2012-04-22T10:16:07.000Z</time>
      </trkpt>
      <trkpt lat="45.63951" lon="5.95746">
        <ele>1002</ele>
        <time>2012-04-22T10:16:11.000Z</time>
      </trkpt>
      <trkpt lat="45.63956" lon="5.95749">
        <ele>1001</ele>
        <time>2012-04-22T10:16:15.000Z</time>
      </trkpt>
      <trkpt lat="45.6396" lon="5.95746">
        <ele>1001</ele>
        <time>2012-04-22T10:16:18.000Z</time>
      </trkpt>
      <trkpt lat="45.63965" lon="5.95746">
        <ele>1001</ele>
        <time>2012-04-22T10:16:22.000Z</time>
      </trkpt>
      <trkpt lat="45.6397" lon="5.95744">
        <ele>1001</ele>
        <time>2012-04-22T10:16:25.000Z</time>
      </trkpt>
      <trkpt lat="45.63976" lon="5.95744">
        <ele>1002</ele>
        <time>2012-04-22T10:16:29.000Z</time>
      </trkpt>
      <trkpt lat="45.63982" lon="5.95744">
        <ele>1002</ele>
        <time>2012-04-22T10:16:32.000Z</time>
      </trkpt>
      <trkpt lat="45.63988" lon="5.95746">
        <ele>1004</ele>
        <time>2012-04-22T10:16:35.000Z</time>
      </trkpt>
      <trkpt lat="45.63992" lon="5.95749">
        <ele>1005</ele>
        <time>2012-04-22T10:16:39.000Z</time>
      </trkpt>
      <trkpt lat="45.63996" lon="5.95751">
        <ele>1013</ele>
        <time>2012-04-22T10:16:44.000Z</time>
      </trkpt>
      <trkpt lat="45.64001" lon="5.95753">
        <ele>1013</ele>
        <time>2012-04-22T10:16:48.000Z</time>
      </trkpt>
      <trkpt lat="45.64005" lon="5.95755">
        <ele>1017</ele>
        <time>2012-04-22T10:16:51.000Z</time>
      </trkpt>
      <trkpt lat="45.64009" lon="5.95757">
        <ele>1021</ele>
        <time>2012-04-22T10:16:56.000Z</time>
      </trkpt>
      <trkpt lat="45.64015" lon="5.95757">
        <ele>1025</ele>
        <time>2012-04-22T10:17:01.000Z</time>
      </trkpt>
      <trkpt lat="45.6402" lon="5.95751">
        <ele>1026</ele>
        <time>2012-04-22T10:17:05.000Z</time>
      </trkpt>
      <trkpt lat="45.64024" lon="5.95746">
        <ele>1006</ele>
        <time>2012-04-22T10:17:07.000Z</time>
      </trkpt>
      <trkpt lat="45.64031" lon="5.95742">
        <ele>1006</ele>
        <time>2012-04-22T10:17:10.000Z</time>
      </trkpt>
      <trkpt lat="45.64035" lon="5.9574">
        <ele>1007</ele>
        <time>2012-04-22T10:17:12.000Z</time>
      </trkpt>
      <trkpt lat="45.6404" lon="5.95738">
        <ele>1007</ele>
        <time>2012-04-22T10:17:14.000Z</time>
      </trkpt>
      <trkpt lat="45.64046" lon="5.9574">
        <ele>1008</ele>
        <time>2012-04-22T10:17:17.000Z</time>
      </trkpt>
      <trkpt lat="45.64051" lon="5.9574">
        <ele>1009</ele>
        <time>2012-04-22T10:17:20.000Z</time>
      </trkpt>
      <trkpt lat="45.64056" lon="5.9574">
        <ele>1010</ele>
        <time>2012-04-22T10:17:24.000Z</time>
      </trkpt>
      <trkpt lat="45.64061" lon="5.95738">
        <ele>1011</ele>
        <time>2012-04-22T10:17:27.000Z</time>
      </trkpt>
      <trkpt lat="45.64066" lon="5.9574">
        <ele>1014</ele>
        <time>2012-04-22T10:17:31.000Z</time>
      </trkpt>
      <trkpt lat="45.64072" lon="5.9574">
        <ele>1016</ele>
        <time>2012-04-22T10:17:35.000Z</time>
      </trkpt>
      <trkpt lat="45.64076" lon="5.95742">
        <ele>1018</ele>
        <time>2012-04-22T10:17:39.000Z</time>
      </trkpt>
      <trkpt lat="45.6408" lon="5.95744">
        <ele>1021</ele>
        <time>2012-04-22T10:17:42.000Z</time>
      </trkpt>
      <trkpt lat="45.64084" lon="5.95746">
        <ele>1026</ele>
        <time>2012-04-22T10:17:45.000Z</time>
      </trkpt>
      <trkpt lat="45.6409" lon="5.95749">
        <ele>1026</ele>
        <time>2012-04-22T10:17:49.000Z</time>
      </trkpt>
      <trkpt lat="45.64094" lon="5.95751">
        <ele>1039</ele>
        <time>2012-04-22T10:17:53.000Z</time>
      </trkpt>
      <trkpt lat="45.64094" lon="5.95751">
        <ele>1039</ele>
        <time>2012-04-22T10:17:53.000Z</time>
      </trkpt>
      <trkpt lat="45.64094" lon="5.95751">
        <ele>1039</ele>
        <time>2012-04-22T10:17:54.000Z</time>
      </trkpt>
      <trkpt lat="45.64098" lon="5.95753">
        <ele>1043</ele>
        <time>2012-04-22T10:17:59.000Z</time>
      </trkpt>
      <trkpt lat="45.64104" lon="5.95753">
        <ele>1046</ele>
        <time>2012-04-22T10:18:03.000Z</time>
      </trkpt>
      <trkpt lat="45.64109" lon="5.95751">
        <ele>1048</ele>
        <time>2012-04-22T10:18:06.000Z</time>
      </trkpt>
      <trkpt lat="45.64113" lon="5.95746">
        <ele>1025</ele>
        <time>2012-04-22T10:18:09.000Z</time>
      </trkpt>
      <trkpt lat="45.64118" lon="5.95744">
        <ele>1025</ele>
        <time>2012-04-22T10:18:11.000Z</time>
      </trkpt>
      <trkpt lat="45.64122" lon="5.9574">
        <ele>1025</ele>
        <time>2012-04-22T10:18:14.000Z</time>
      </trkpt>
      <trkpt lat="45.64126" lon="5.95738">
        <ele>1025</ele>
        <time>2012-04-22T10:18:18.000Z</time>
      </trkpt>
      <trkpt lat="45.64132" lon="5.95738">
        <ele>1027</ele>
        <time>2012-04-22T10:18:22.000Z</time>
      </trkpt>
      <trkpt lat="45.64136" lon="5.95736">
        <ele>1027</ele>
        <time>2012-04-22T10:18:25.000Z</time>
      </trkpt>
      <trkpt lat="45.64141" lon="5.95736">
        <ele>1028</ele>
        <time>2012-04-22T10:18:30.000Z</time>
      </trkpt>
      <trkpt lat="45.64141" lon="5.95736">
        <ele>1028</ele>
        <time>2012-04-22T10:18:30.000Z</time>
      </trkpt>
      <trkpt lat="45.64141" lon="5.95736">
        <ele>1028</ele>
        <time>2012-04-22T10:18:31.000Z</time>
      </trkpt>
      <trkpt lat="45.64146" lon="5.95734">
        <ele>1029</ele>
        <time>2012-04-22T10:18:34.000Z</time>
      </trkpt>
      <trkpt lat="45.6415" lon="5.95731">
        <ele>1029</ele>
        <time>2012-04-22T10:18:38.000Z</time>
      </trkpt>
      <trkpt lat="45.64155" lon="5.95731">
        <ele>1030</ele>
        <time>2012-04-22T10:18:42.000Z</time>
      </trkpt>
      <trkpt lat="45.6416" lon="5.95729">
        <ele>1030</ele>
        <time>2012-04-22T10:18:45.000Z</time>
      </trkpt>
      <trkpt lat="45.64165" lon="5.95729">
        <ele>1031</ele>
        <time>2012-04-22T10:18:49.000Z</time>
      </trkpt>
      <trkpt lat="45.64169" lon="5.95727">
        <ele>1040</ele>
        <time>2012-04-22T10:18:52.000Z</time>
      </trkpt>
      <trkpt lat="45.64174" lon="5.95725">
        <ele>1039</ele>
        <time>2012-04-22T10:18:57.000Z</time>
      </trkpt>
      <trkpt lat="45.64179" lon="5.95723">
        <ele>1039</ele>
        <time>2012-04-22T10:19:00.000Z</time>
      </trkpt>
      <trkpt lat="45.64183" lon="5.95721">
        <ele>1039</ele>
        <time>2012-04-22T10:19:04.000Z</time>
      </trkpt>
      <trkpt lat="45.64188" lon="5.95721">
        <ele>1039</ele>
        <time>2012-04-22T10:19:09.000Z</time>
      </trkpt>
      <trkpt lat="45.64194" lon="5.95721">
        <ele>1040</ele>
        <time>2012-04-22T10:19:14.000Z</time>
      </trkpt>
      <trkpt lat="45.64198" lon="5.95723">
        <ele>1040</ele>
        <time>2012-04-22T10:19:18.000Z</time>
      </trkpt>
      <trkpt lat="45.64202" lon="5.95721">
        <ele>1040</ele>
        <time>2012-04-22T10:19:21.000Z</time>
      </trkpt>
      <trkpt lat="45.64208" lon="5.95719">
        <ele>1040</ele>
        <time>2012-04-22T10:19:25.000Z</time>
      </trkpt>
      <trkpt lat="45.64213" lon="5.95719">
        <ele>1041</ele>
        <time>2012-04-22T10:19:30.000Z</time>
      </trkpt>
      <trkpt lat="45.64218" lon="5.95719">
        <ele>1042</ele>
        <time>2012-04-22T10:19:33.000Z</time>
      </trkpt>
      <trkpt lat="45.64224" lon="5.95721">
        <ele>1043</ele>
        <time>2012-04-22T10:19:36.000Z</time>
      </trkpt>
      <trkpt lat="45.6423" lon="5.95721">
        <ele>1043</ele>
        <time>2012-04-22T10:19:39.000Z</time>
      </trkpt>
      <trkpt lat="45.64236" lon="5.95721">
        <ele>1044</ele>
        <time>2012-04-22T10:19:42.000Z</time>
      </trkpt>
      <trkpt lat="45.6424" lon="5.95723">
        <ele>1045</ele>
        <time>2012-04-22T10:19:44.000Z</time>
      </trkpt>
      <trkpt lat="45.64245" lon="5.95723">
        <ele>1045</ele>
        <time>2012-04-22T10:19:47.000Z</time>
      </trkpt>
      <trkpt lat="45.6425" lon="5.95725">
        <ele>1046</ele>
        <time>2012-04-22T10:19:49.000Z</time>
      </trkpt>
      <trkpt lat="45.64255" lon="5.95725">
        <ele>1052</ele>
        <time>2012-04-22T10:19:52.000Z</time>
      </trkpt>
      <trkpt lat="45.6426" lon="5.95727">
        <ele>1052</ele>
        <time>2012-04-22T10:19:55.000Z</time>
      </trkpt>
      <trkpt lat="45.64266" lon="5.95729">
        <ele>1053</ele>
        <time>2012-04-22T10:19:58.000Z</time>
      </trkpt>
      <trkpt lat="45.6427" lon="5.95734">
        <ele>1053</ele>
        <time>2012-04-22T10:20:01.000Z</time>
      </trkpt>
      <trkpt lat="45.64274" lon="5.95736">
        <ele>1053</ele>
        <time>2012-04-22T10:20:04.000Z</time>
      </trkpt>
      <trkpt lat="45.6428" lon="5.95736">
        <ele>1053</ele>
        <time>2012-04-22T10:20:07.000Z</time>
      </trkpt>
      <trkpt lat="45.64284" lon="5.95738">
        <ele>1053</ele>
        <time>2012-04-22T10:20:10.000Z</time>
      </trkpt>
      <trkpt lat="45.64288" lon="5.9574">
        <ele>1053</ele>
        <time>2012-04-22T10:20:14.000Z</time>
      </trkpt>
      <trkpt lat="45.64292" lon="5.95742">
        <ele>1053</ele>
        <time>2012-04-22T10:20:18.000Z</time>
      </trkpt>
      <trkpt lat="45.64297" lon="5.95744">
        <ele>1054</ele>
        <time>2012-04-22T10:20:24.000Z</time>
      </trkpt>
      <trkpt lat="45.64297" lon="5.95744">
        <ele>1054</ele>
        <time>2012-04-22T10:20:24.000Z</time>
      </trkpt>
      <trkpt lat="45.64297" lon="5.95744">
        <ele>1054</ele>
        <time>2012-04-22T10:20:25.000Z</time>
      </trkpt>
      <trkpt lat="45.64301" lon="5.95749">
        <ele>1054</ele>
        <time>2012-04-22T10:20:30.000Z</time>
      </trkpt>
      <trkpt lat="45.64305" lon="5.95753">
        <ele>1073</ele>
        <time>2012-04-22T10:20:35.000Z</time>
      </trkpt>
      <trkpt lat="45.6431" lon="5.95757">
        <ele>1072</ele>
        <time>2012-04-22T10:20:40.000Z</time>
      </trkpt>
      <trkpt lat="45.64314" lon="5.95764">
        <ele>1073</ele>
        <time>2012-04-22T10:20:46.000Z</time>
      </trkpt>
      <trkpt lat="45.64318" lon="5.95766">
        <ele>1073</ele>
        <time>2012-04-22T10:20:51.000Z</time>
      </trkpt>
      <trkpt lat="45.64322" lon="5.95768">
        <ele>1073</ele>
        <time>2012-04-22T10:20:56.000Z</time>
      </trkpt>
      <trkpt lat="45.64327" lon="5.95766">
        <ele>1071</ele>
        <time>2012-04-22T10:21:01.000Z</time>
      </trkpt>
      <trkpt lat="45.64331" lon="5.95768">
        <ele>1072</ele>
        <time>2012-04-22T10:21:04.000Z</time>
      </trkpt>
      <trkpt lat="45.64336" lon="5.95768">
        <ele>1067</ele>
        <time>2012-04-22T10:21:08.000Z</time>
      </trkpt>
      <trkpt lat="45.64341" lon="5.9577">
        <ele>1068</ele>
        <time>2012-04-22T10:21:10.000Z</time>
      </trkpt>
      <trkpt lat="45.64347" lon="5.9577">
        <ele>1068</ele>
        <time>2012-04-22T10:21:13.000Z</time>
      </trkpt>
      <trkpt lat="45.64352" lon="5.95772">
        <ele>1069</ele>
        <time>2012-04-22T10:21:15.000Z</time>
      </trkpt>
      <trkpt lat="45.64356" lon="5.95774">
        <ele>1069</ele>
        <time>2012-04-22T10:21:18.000Z</time>
      </trkpt>
      <trkpt lat="45.64361" lon="5.95776">
        <ele>1070</ele>
        <time>2012-04-22T10:21:22.000Z</time>
      </trkpt>
      <trkpt lat="45.64368" lon="5.95776">
        <ele>1070</ele>
        <time>2012-04-22T10:21:26.000Z</time>
      </trkpt>
      <trkpt lat="45.64372" lon="5.95779">
        <ele>1070</ele>
        <time>2012-04-22T10:21:28.000Z</time>
      </trkpt>
      <trkpt lat="45.64377" lon="5.95779">
        <ele>1070</ele>
        <time>2012-04-22T10:21:30.000Z</time>
      </trkpt>
      <trkpt lat="45.64385" lon="5.95781">
        <ele>1069</ele>
        <time>2012-04-22T10:21:33.000Z</time>
      </trkpt>
      <trkpt lat="45.6439" lon="5.95781">
        <ele>1069</ele>
        <time>2012-04-22T10:21:35.000Z</time>
      </trkpt>
      <trkpt lat="45.64394" lon="5.95783">
        <ele>1069</ele>
        <time>2012-04-22T10:21:37.000Z</time>
      </trkpt>
      <trkpt lat="45.64402" lon="5.95783">
        <ele>1068</ele>
        <time>2012-04-22T10:21:40.000Z</time>
      </trkpt>
      <trkpt lat="45.64406" lon="5.95785">
        <ele>1069</ele>
        <time>2012-04-22T10:21:42.000Z</time>
      </trkpt>
      <trkpt lat="45.64412" lon="5.95789">
        <ele>1069</ele>
        <time>2012-04-22T10:21:44.000Z</time>
      </trkpt>
      <trkpt lat="45.64417" lon="5.95794">
        <ele>1059</ele>
        <time>2012-04-22T10:21:46.000Z</time>
      </trkpt>
      <trkpt lat="45.64422" lon="5.95796">
        <ele>1060</ele>
        <time>2012-04-22T10:21:49.000Z</time>
      </trkpt>
      <trkpt lat="45.64428" lon="5.95798">
        <ele>1060</ele>
        <time>2012-04-22T10:21:52.000Z</time>
      </trkpt>
      <trkpt lat="45.64433" lon="5.958">
        <ele>1059</ele>
        <time>2012-04-22T10:21:55.000Z</time>
      </trkpt>
      <trkpt lat="45.64436" lon="5.95804">
        <ele>1060</ele>
        <time>2012-04-22T10:21:57.000Z</time>
      </trkpt>
      <trkpt lat="45.64441" lon="5.95811">
        <ele>1061</ele>
        <time>2012-04-22T10:22:01.000Z</time>
      </trkpt>
      <trkpt lat="45.64444" lon="5.95817">
        <ele>1061</ele>
        <time>2012-04-22T10:22:04.000Z</time>
      </trkpt>
      <trkpt lat="45.64446" lon="5.95824">
        <ele>1061</ele>
        <time>2012-04-22T10:22:06.000Z</time>
      </trkpt>
      <trkpt lat="45.64451" lon="5.9583">
        <ele>1060</ele>
        <time>2012-04-22T10:22:11.000Z</time>
      </trkpt>
      <trkpt lat="45.64454" lon="5.95839">
        <ele>1076</ele>
        <time>2012-04-22T10:22:13.000Z</time>
      </trkpt>
      <trkpt lat="45.64458" lon="5.95847">
        <ele>1076</ele>
        <time>2012-04-22T10:22:15.000Z</time>
      </trkpt>
      <trkpt lat="45.64461" lon="5.95854">
        <ele>1076</ele>
        <time>2012-04-22T10:22:17.000Z</time>
      </trkpt>
      <trkpt lat="45.64464" lon="5.9586">
        <ele>1076</ele>
        <time>2012-04-22T10:22:19.000Z</time>
      </trkpt>
      <trkpt lat="45.64464" lon="5.9586">
        <ele>1076</ele>
        <time>2012-04-22T10:22:19.000Z</time>
      </trkpt>
      <trkpt lat="45.64464" lon="5.9586">
        <ele>1076</ele>
        <time>2012-04-22T10:22:20.000Z</time>
      </trkpt>
      <trkpt lat="45.64466" lon="5.95867">
        <ele>1077</ele>
        <time>2012-04-22T10:22:25.000Z</time>
      </trkpt>
      <trkpt lat="45.64466" lon="5.95867">
        <ele>1077</ele>
        <time>2012-04-22T10:22:25.000Z</time>
      </trkpt>
      <trkpt lat="45.64466" lon="5.95867">
        <ele>1077</ele>
        <time>2012-04-22T10:22:26.000Z</time>
      </trkpt>
      <trkpt lat="45.64471" lon="5.95871">
        <ele>1076</ele>
        <time>2012-04-22T10:22:32.000Z</time>
      </trkpt>
      <trkpt lat="45.64476" lon="5.95871">
        <ele>1075</ele>
        <time>2012-04-22T10:22:37.000Z</time>
      </trkpt>
      <trkpt lat="45.6448" lon="5.95873">
        <ele>1074</ele>
        <time>2012-04-22T10:22:41.000Z</time>
      </trkpt>
      <trkpt lat="45.64484" lon="5.95877">
        <ele>1074</ele>
        <time>2012-04-22T10:22:46.000Z</time>
      </trkpt>
      <trkpt lat="45.64484" lon="5.95877">
        <ele>1074</ele>
        <time>2012-04-22T10:22:46.000Z</time>
      </trkpt>
      <trkpt lat="45.64484" lon="5.95877">
        <ele>1074</ele>
        <time>2012-04-22T10:22:47.000Z</time>
      </trkpt>
      <trkpt lat="45.64489" lon="5.9588">
        <ele>1074</ele>
        <time>2012-04-22T10:22:53.000Z</time>
      </trkpt>
      <trkpt lat="45.64493" lon="5.95884">
        <ele>1074</ele>
        <time>2012-04-22T10:23:01.000Z</time>
      </trkpt>
      <trkpt lat="45.64493" lon="5.95884">
        <ele>1074</ele>
        <time>2012-04-22T10:23:01.000Z</time>
      </trkpt>
      <trkpt lat="45.64493" lon="5.95884">
        <ele>1074</ele>
        <time>2012-04-22T10:23:05.000Z</time>
      </trkpt>
      <trkpt lat="45.64497" lon="5.95886">
        <ele>1073</ele>
        <time>2012-04-22T10:23:09.000Z</time>
      </trkpt>
      <trkpt lat="45.64497" lon="5.95886">
        <ele>1073</ele>
        <time>2012-04-22T10:23:09.000Z</time>
      </trkpt>
      <trkpt lat="45.64497" lon="5.95886">
        <ele>1073</ele>
        <time>2012-04-22T10:23:10.000Z</time>
      </trkpt>
      <trkpt lat="45.64503" lon="5.95886">
        <ele>1056</ele>
        <time>2012-04-22T10:23:14.000Z</time>
      </trkpt>
      <trkpt lat="45.64508" lon="5.95888">
        <ele>1056</ele>
        <time>2012-04-22T10:23:18.000Z</time>
      </trkpt>
      <trkpt lat="45.64512" lon="5.9589">
        <ele>1056</ele>
        <time>2012-04-22T10:23:21.000Z</time>
      </trkpt>
      <trkpt lat="45.64516" lon="5.95894">
        <ele>1057</ele>
        <time>2012-04-22T10:23:23.000Z</time>
      </trkpt>
      <trkpt lat="45.64521" lon="5.95899">
        <ele>1057</ele>
        <time>2012-04-22T10:23:26.000Z</time>
      </trkpt>
      <trkpt lat="45.64526" lon="5.95903">
        <ele>1057</ele>
        <time>2012-04-22T10:23:29.000Z</time>
      </trkpt>
      <trkpt lat="45.64528" lon="5.9591">
        <ele>1057</ele>
        <time>2012-04-22T10:23:33.000Z</time>
      </trkpt>
      <trkpt lat="45.64533" lon="5.95912">
        <ele>1056</ele>
        <time>2012-04-22T10:23:40.000Z</time>
      </trkpt>
      <trkpt lat="45.64537" lon="5.95914">
        <ele>1056</ele>
        <time>2012-04-22T10:23:44.000Z</time>
      </trkpt>
      <trkpt lat="45.64542" lon="5.95914">
        <ele>1055</ele>
        <time>2012-04-22T10:23:48.000Z</time>
      </trkpt>
      <trkpt lat="45.64548" lon="5.95916">
        <ele>1055</ele>
        <time>2012-04-22T10:23:52.000Z</time>
      </trkpt>
      <trkpt lat="45.64553" lon="5.95916">
        <ele>1054</ele>
        <time>2012-04-22T10:23:55.000Z</time>
      </trkpt>
      <trkpt lat="45.64559" lon="5.95918">
        <ele>1069</ele>
        <time>2012-04-22T10:23:58.000Z</time>
      </trkpt>
      <trkpt lat="45.64563" lon="5.9592">
        <ele>1068</ele>
        <time>2012-04-22T10:24:01.000Z</time>
      </trkpt>
      <trkpt lat="45.64567" lon="5.95925">
        <ele>1068</ele>
        <time>2012-04-22T10:24:05.000Z</time>
      </trkpt>
      <trkpt lat="45.64571" lon="5.95927">
        <ele>1067</ele>
        <time>2012-04-22T10:24:10.000Z</time>
      </trkpt>
      <trkpt lat="45.64577" lon="5.95927">
        <ele>1065</ele>
        <time>2012-04-22T10:24:21.000Z</time>
      </trkpt>
      <trkpt lat="45.64583" lon="5.95927">
        <ele>1064</ele>
        <time>2012-04-22T10:24:25.000Z</time>
      </trkpt>
      <trkpt lat="45.6459" lon="5.95927">
        <ele>1066</ele>
        <time>2012-04-22T10:24:28.000Z</time>
      </trkpt>
      <trkpt lat="45.64596" lon="5.95925">
        <ele>1068</ele>
        <time>2012-04-22T10:24:31.000Z</time>
      </trkpt>
      <trkpt lat="45.64602" lon="5.95927">
        <ele>1071</ele>
        <time>2012-04-22T10:24:34.000Z</time>
      </trkpt>
      <trkpt lat="45.64607" lon="5.95927">
        <ele>1072</ele>
        <time>2012-04-22T10:24:37.000Z</time>
      </trkpt>
      <trkpt lat="45.64612" lon="5.95927">
        <ele>1074</ele>
        <time>2012-04-22T10:24:40.000Z</time>
      </trkpt>
      <trkpt lat="45.64616" lon="5.95929">
        <ele>1075</ele>
        <time>2012-04-22T10:24:43.000Z</time>
      </trkpt>
      <trkpt lat="45.64621" lon="5.95931">
        <ele>1076</ele>
        <time>2012-04-22T10:24:47.000Z</time>
      </trkpt>
      <trkpt lat="45.64626" lon="5.95933">
        <ele>1077</ele>
        <time>2012-04-22T10:24:50.000Z</time>
      </trkpt>
      <trkpt lat="45.6463" lon="5.95937">
        <ele>1078</ele>
        <time>2012-04-22T10:24:53.000Z</time>
      </trkpt>
      <trkpt lat="45.64636" lon="5.9594">
        <ele>1079</ele>
        <time>2012-04-22T10:24:56.000Z</time>
      </trkpt>
      <trkpt lat="45.6464" lon="5.95942">
        <ele>1080</ele>
        <time>2012-04-22T10:24:59.000Z</time>
      </trkpt>
      <trkpt lat="45.64646" lon="5.95944">
        <ele>1080</ele>
        <time>2012-04-22T10:25:02.000Z</time>
      </trkpt>
      <trkpt lat="45.64651" lon="5.95942">
        <ele>1080</ele>
        <time>2012-04-22T10:25:05.000Z</time>
      </trkpt>
      <trkpt lat="45.64656" lon="5.95942">
        <ele>1080</ele>
        <time>2012-04-22T10:25:10.000Z</time>
      </trkpt>
      <trkpt lat="45.6466" lon="5.9594">
        <ele>1080</ele>
        <time>2012-04-22T10:25:14.000Z</time>
      </trkpt>
      <trkpt lat="45.64665" lon="5.95937">
        <ele>1079</ele>
        <time>2012-04-22T10:25:18.000Z</time>
      </trkpt>
      <trkpt lat="45.6467" lon="5.95937">
        <ele>1084</ele>
        <time>2012-04-22T10:25:24.000Z</time>
      </trkpt>
      <trkpt lat="45.64676" lon="5.95937">
        <ele>1084</ele>
        <time>2012-04-22T10:25:29.000Z</time>
      </trkpt>
      <trkpt lat="45.6468" lon="5.9594">
        <ele>1086</ele>
        <time>2012-04-22T10:25:32.000Z</time>
      </trkpt>
      <trkpt lat="45.64685" lon="5.95942">
        <ele>1087</ele>
        <time>2012-04-22T10:25:37.000Z</time>
      </trkpt>
      <trkpt lat="45.6469" lon="5.95942">
        <ele>1087</ele>
        <time>2012-04-22T10:25:42.000Z</time>
      </trkpt>
      <trkpt lat="45.64696" lon="5.95942">
        <ele>1088</ele>
        <time>2012-04-22T10:25:46.000Z</time>
      </trkpt>
      <trkpt lat="45.64701" lon="5.95944">
        <ele>1089</ele>
        <time>2012-04-22T10:25:50.000Z</time>
      </trkpt>
      <trkpt lat="45.64701" lon="5.95944">
        <ele>1089</ele>
        <time>2012-04-22T10:25:50.000Z</time>
      </trkpt>
      <trkpt lat="45.64701" lon="5.95944">
        <ele>1089</ele>
        <time>2012-04-22T10:25:52.000Z</time>
      </trkpt>
      <trkpt lat="45.64707" lon="5.95944">
        <ele>1089</ele>
        <time>2012-04-22T10:25:59.000Z</time>
      </trkpt>
      <trkpt lat="45.64711" lon="5.95946">
        <ele>1089</ele>
        <time>2012-04-22T10:26:03.000Z</time>
      </trkpt>
      <trkpt lat="45.64716" lon="5.95944">
        <ele>1089</ele>
        <time>2012-04-22T10:26:06.000Z</time>
      </trkpt>
      <trkpt lat="45.64721" lon="5.95942">
        <ele>1089</ele>
        <time>2012-04-22T10:26:07.000Z</time>
      </trkpt>
      <trkpt lat="45.64728" lon="5.95942">
        <ele>1089</ele>
        <time>2012-04-22T10:26:09.000Z</time>
      </trkpt>
      <trkpt lat="45.64734" lon="5.95942">
        <ele>1089</ele>
        <time>2012-04-22T10:26:11.000Z</time>
      </trkpt>
      <trkpt lat="45.64739" lon="5.95944">
        <ele>1089</ele>
        <time>2012-04-22T10:26:16.000Z</time>
      </trkpt>
      <trkpt lat="45.64743" lon="5.95948">
        <ele>1090</ele>
        <time>2012-04-22T10:26:19.000Z</time>
      </trkpt>
      <trkpt lat="45.64748" lon="5.95952">
        <ele>1091</ele>
        <time>2012-04-22T10:26:22.000Z</time>
      </trkpt>
      <trkpt lat="45.64754" lon="5.95957">
        <ele>1085</ele>
        <time>2012-04-22T10:26:25.000Z</time>
      </trkpt>
      <trkpt lat="45.64758" lon="5.95961">
        <ele>1086</ele>
        <time>2012-04-22T10:26:27.000Z</time>
      </trkpt>
      <trkpt lat="45.64762" lon="5.95968">
        <ele>1087</ele>
        <time>2012-04-22T10:26:29.000Z</time>
      </trkpt>
      <trkpt lat="45.64767" lon="5.95974">
        <ele>1088</ele>
        <time>2012-04-22T10:26:31.000Z</time>
      </trkpt>
      <trkpt lat="45.64771" lon="5.95978">
        <ele>1088</ele>
        <time>2012-04-22T10:26:33.000Z</time>
      </trkpt>
      <trkpt lat="45.64775" lon="5.95982">
        <ele>1088</ele>
        <time>2012-04-22T10:26:35.000Z</time>
      </trkpt>
      <trkpt lat="45.6478" lon="5.95987">
        <ele>1087</ele>
        <time>2012-04-22T10:26:37.000Z</time>
      </trkpt>
      <trkpt lat="45.64784" lon="5.95989">
        <ele>1086</ele>
        <time>2012-04-22T10:26:39.000Z</time>
      </trkpt>
      <trkpt lat="45.64789" lon="5.95993">
        <ele>1086</ele>
        <time>2012-04-22T10:26:42.000Z</time>
      </trkpt>
      <trkpt lat="45.64794" lon="5.95995">
        <ele>1085</ele>
        <time>2012-04-22T10:26:45.000Z</time>
      </trkpt>
      <trkpt lat="45.64798" lon="5.96">
        <ele>1084</ele>
        <time>2012-04-22T10:26:48.000Z</time>
      </trkpt>
      <trkpt lat="45.64802" lon="5.96002">
        <ele>1099</ele>
        <time>2012-04-22T10:26:51.000Z</time>
      </trkpt>
      <trkpt lat="45.64806" lon="5.96004">
        <ele>1098</ele>
        <time>2012-04-22T10:26:54.000Z</time>
      </trkpt>
      <trkpt lat="45.64812" lon="5.96006">
        <ele>1096</ele>
        <time>2012-04-22T10:26:57.000Z</time>
      </trkpt>
      <trkpt lat="45.64816" lon="5.9601">
        <ele>1095</ele>
        <time>2012-04-22T10:27:00.000Z</time>
      </trkpt>
      <trkpt lat="45.64821" lon="5.96015">
        <ele>1095</ele>
        <time>2012-04-22T10:27:04.000Z</time>
      </trkpt>
      <trkpt lat="45.64826" lon="5.96019">
        <ele>1095</ele>
        <time>2012-04-22T10:27:07.000Z</time>
      </trkpt>
      <trkpt lat="45.64831" lon="5.96021">
        <ele>1095</ele>
        <time>2012-04-22T10:27:10.000Z</time>
      </trkpt>
      <trkpt lat="45.64836" lon="5.96023">
        <ele>1085</ele>
        <time>2012-04-22T10:27:13.000Z</time>
      </trkpt>
      <trkpt lat="45.64842" lon="5.96028">
        <ele>1086</ele>
        <time>2012-04-22T10:27:16.000Z</time>
      </trkpt>
      <trkpt lat="45.64846" lon="5.9603">
        <ele>1086</ele>
        <time>2012-04-22T10:27:19.000Z</time>
      </trkpt>
      <trkpt lat="45.6485" lon="5.96032">
        <ele>1086</ele>
        <time>2012-04-22T10:27:22.000Z</time>
      </trkpt>
      <trkpt lat="45.64856" lon="5.96034">
        <ele>1086</ele>
        <time>2012-04-22T10:27:25.000Z</time>
      </trkpt>
      <trkpt lat="45.6486" lon="5.96036">
        <ele>1086</ele>
        <time>2012-04-22T10:27:28.000Z</time>
      </trkpt>
      <trkpt lat="45.64866" lon="5.96036">
        <ele>1086</ele>
        <time>2012-04-22T10:27:31.000Z</time>
      </trkpt>
      <trkpt lat="45.64872" lon="5.96038">
        <ele>1086</ele>
        <time>2012-04-22T10:27:34.000Z</time>
      </trkpt>
      <trkpt lat="45.64876" lon="5.9604">
        <ele>1086</ele>
        <time>2012-04-22T10:27:37.000Z</time>
      </trkpt>
      <trkpt lat="45.6488" lon="5.96043">
        <ele>1086</ele>
        <time>2012-04-22T10:27:40.000Z</time>
      </trkpt>
      <trkpt lat="45.64885" lon="5.96045">
        <ele>1086</ele>
        <time>2012-04-22T10:27:43.000Z</time>
      </trkpt>
      <trkpt lat="45.64889" lon="5.96047">
        <ele>1085</ele>
        <time>2012-04-22T10:27:46.000Z</time>
      </trkpt>
      <trkpt lat="45.64893" lon="5.96049">
        <ele>1085</ele>
        <time>2012-04-22T10:27:49.000Z</time>
      </trkpt>
      <trkpt lat="45.64899" lon="5.96051">
        <ele>1085</ele>
        <time>2012-04-22T10:27:53.000Z</time>
      </trkpt>
      <trkpt lat="45.64905" lon="5.96053">
        <ele>1085</ele>
        <time>2012-04-22T10:27:58.000Z</time>
      </trkpt>
      <trkpt lat="45.6491" lon="5.96056">
        <ele>1085</ele>
        <time>2012-04-22T10:28:01.000Z</time>
      </trkpt>
      <trkpt lat="45.64917" lon="5.96058">
        <ele>1084</ele>
        <time>2012-04-22T10:28:04.000Z</time>
      </trkpt>
      <trkpt lat="45.64922" lon="5.96058">
        <ele>1084</ele>
        <time>2012-04-22T10:28:07.000Z</time>
      </trkpt>
      <trkpt lat="45.64928" lon="5.96058">
        <ele>1084</ele>
        <time>2012-04-22T10:28:11.000Z</time>
      </trkpt>
      <trkpt lat="45.64932" lon="5.9606">
        <ele>1084</ele>
        <time>2012-04-22T10:28:14.000Z</time>
      </trkpt>
      <trkpt lat="45.64936" lon="5.96064">
        <ele>1085</ele>
        <time>2012-04-22T10:28:17.000Z</time>
      </trkpt>
      <trkpt lat="45.6494" lon="5.96066">
        <ele>1085</ele>
        <time>2012-04-22T10:28:20.000Z</time>
      </trkpt>
      <trkpt lat="45.64946" lon="5.96066">
        <ele>1085</ele>
        <time>2012-04-22T10:28:24.000Z</time>
      </trkpt>
      <trkpt lat="45.64951" lon="5.96068">
        <ele>1086</ele>
        <time>2012-04-22T10:28:26.000Z</time>
      </trkpt>
      <trkpt lat="45.64959" lon="5.96068">
        <ele>1086</ele>
        <time>2012-04-22T10:28:28.000Z</time>
      </trkpt>
      <trkpt lat="45.64965" lon="5.96068">
        <ele>1087</ele>
        <time>2012-04-22T10:28:30.000Z</time>
      </trkpt>
      <trkpt lat="45.64971" lon="5.96068">
        <ele>1087</ele>
        <time>2012-04-22T10:28:33.000Z</time>
      </trkpt>
      <trkpt lat="45.64975" lon="5.9607">
        <ele>1088</ele>
        <time>2012-04-22T10:28:36.000Z</time>
      </trkpt>
      <trkpt lat="45.64979" lon="5.96073">
        <ele>1089</ele>
        <time>2012-04-22T10:28:39.000Z</time>
      </trkpt>
      <trkpt lat="45.64984" lon="5.96073">
        <ele>1090</ele>
        <time>2012-04-22T10:28:46.000Z</time>
      </trkpt>
      <trkpt lat="45.64989" lon="5.96068">
        <ele>1090</ele>
        <time>2012-04-22T10:28:50.000Z</time>
      </trkpt>
      <trkpt lat="45.64994" lon="5.96064">
        <ele>1090</ele>
        <time>2012-04-22T10:28:53.000Z</time>
      </trkpt>
      <trkpt lat="45.64998" lon="5.96062">
        <ele>1089</ele>
        <time>2012-04-22T10:28:55.000Z</time>
      </trkpt>
      <trkpt lat="45.65004" lon="5.9606">
        <ele>1098</ele>
        <time>2012-04-22T10:28:57.000Z</time>
      </trkpt>
      <trkpt lat="45.65009" lon="5.9606">
        <ele>1098</ele>
        <time>2012-04-22T10:29:03.000Z</time>
      </trkpt>
      <trkpt lat="45.65009" lon="5.9606">
        <ele>1098</ele>
        <time>2012-04-22T10:29:03.000Z</time>
      </trkpt>
      <trkpt lat="45.65009" lon="5.9606">
        <ele>1098</ele>
        <time>2012-04-22T10:29:05.000Z</time>
      </trkpt>
      <trkpt lat="45.65017" lon="5.9606">
        <ele>1099</ele>
        <time>2012-04-22T10:29:08.000Z</time>
      </trkpt>
      <trkpt lat="45.65024" lon="5.96062">
        <ele>1099</ele>
        <time>2012-04-22T10:29:10.000Z</time>
      </trkpt>
      <trkpt lat="45.6503" lon="5.9606">
        <ele>1100</ele>
        <time>2012-04-22T10:29:12.000Z</time>
      </trkpt>
      <trkpt lat="45.65035" lon="5.9606">
        <ele>1101</ele>
        <time>2012-04-22T10:29:14.000Z</time>
      </trkpt>
      <trkpt lat="45.65041" lon="5.9606">
        <ele>1101</ele>
        <time>2012-04-22T10:29:17.000Z</time>
      </trkpt>
      <trkpt lat="45.65047" lon="5.9606">
        <ele>1102</ele>
        <time>2012-04-22T10:29:20.000Z</time>
      </trkpt>
      <trkpt lat="45.65051" lon="5.96056">
        <ele>1103</ele>
        <time>2012-04-22T10:29:26.000Z</time>
      </trkpt>
      <trkpt lat="45.65058" lon="5.96056">
        <ele>1104</ele>
        <time>2012-04-22T10:29:31.000Z</time>
      </trkpt>
      <trkpt lat="45.65063" lon="5.96056">
        <ele>1105</ele>
        <time>2012-04-22T10:29:40.000Z</time>
      </trkpt>
      <trkpt lat="45.65063" lon="5.96056">
        <ele>1105</ele>
        <time>2012-04-22T10:29:40.000Z</time>
      </trkpt>
      <trkpt lat="45.65063" lon="5.96056">
        <ele>1105</ele>
        <time>2012-04-22T10:29:41.000Z</time>
      </trkpt>
      <trkpt lat="45.65063" lon="5.96062">
        <ele>1106</ele>
        <time>2012-04-22T10:29:48.000Z</time>
      </trkpt>
      <trkpt lat="45.65063" lon="5.96062">
        <ele>1106</ele>
        <time>2012-04-22T10:29:48.000Z</time>
      </trkpt>
      <trkpt lat="45.65063" lon="5.96062">
        <ele>1106</ele>
        <time>2012-04-22T10:29:51.000Z</time>
      </trkpt>
      <trkpt lat="45.65067" lon="5.96064">
        <ele>1107</ele>
        <time>2012-04-22T10:30:11.000Z</time>
      </trkpt>
      <trkpt lat="45.65071" lon="5.96062">
        <ele>1107</ele>
        <time>2012-04-22T10:30:26.000Z</time>
      </trkpt>
      <trkpt lat="45.65072" lon="5.96056">
        <ele>1106</ele>
        <time>2012-04-22T10:30:32.000Z</time>
      </trkpt>
      <trkpt lat="45.65072" lon="5.96056">
        <ele>1106</ele>
        <time>2012-04-22T10:30:32.000Z</time>
      </trkpt>
      <trkpt lat="45.65072" lon="5.96056">
        <ele>1106</ele>
        <time>2012-04-22T10:30:34.000Z</time>
      </trkpt>
      <trkpt lat="45.65076" lon="5.96049">
        <ele>1105</ele>
        <time>2012-04-22T10:30:40.000Z</time>
      </trkpt>
      <trkpt lat="45.65079" lon="5.96043">
        <ele>1104</ele>
        <time>2012-04-22T10:30:45.000Z</time>
      </trkpt>
      <trkpt lat="45.65083" lon="5.96036">
        <ele>1103</ele>
        <time>2012-04-22T10:30:48.000Z</time>
      </trkpt>
      <trkpt lat="45.65088" lon="5.9603">
        <ele>1119</ele>
        <time>2012-04-22T10:30:50.000Z</time>
      </trkpt>
      <trkpt lat="45.65092" lon="5.96025">
        <ele>1118</ele>
        <time>2012-04-22T10:30:54.000Z</time>
      </trkpt>
      <trkpt lat="45.65096" lon="5.96019">
        <ele>1117</ele>
        <time>2012-04-22T10:31:00.000Z</time>
      </trkpt>
      <trkpt lat="45.65096" lon="5.96019">
        <ele>1117</ele>
        <time>2012-04-22T10:31:00.000Z</time>
      </trkpt>
      <trkpt lat="45.65096" lon="5.96019">
        <ele>1117</ele>
        <time>2012-04-22T10:31:01.000Z</time>
      </trkpt>
      <trkpt lat="45.65098" lon="5.96012">
        <ele>1115</ele>
        <time>2012-04-22T10:31:07.000Z</time>
      </trkpt>
      <trkpt lat="45.65098" lon="5.96012">
        <ele>1115</ele>
        <time>2012-04-22T10:31:07.000Z</time>
      </trkpt>
      <trkpt lat="45.65098" lon="5.96012">
        <ele>1115</ele>
        <time>2012-04-22T10:31:08.000Z</time>
      </trkpt>
      <trkpt lat="45.65098" lon="5.96004">
        <ele>1113</ele>
        <time>2012-04-22T10:31:14.000Z</time>
      </trkpt>
      <trkpt lat="45.65098" lon="5.96004">
        <ele>1113</ele>
        <time>2012-04-22T10:31:14.000Z</time>
      </trkpt>
      <trkpt lat="45.65098" lon="5.96004">
        <ele>1113</ele>
        <time>2012-04-22T10:31:16.000Z</time>
      </trkpt>
      <trkpt lat="45.65098" lon="5.95998">
        <ele>1106</ele>
        <time>2012-04-22T10:31:23.000Z</time>
      </trkpt>
      <trkpt lat="45.65098" lon="5.95998">
        <ele>1106</ele>
        <time>2012-04-22T10:31:23.000Z</time>
      </trkpt>
      <trkpt lat="45.65098" lon="5.95998">
        <ele>1106</ele>
        <time>2012-04-22T10:31:24.000Z</time>
      </trkpt>
      <trkpt lat="45.65099" lon="5.95991">
        <ele>1107</ele>
        <time>2012-04-22T10:31:34.000Z</time>
      </trkpt>
      <trkpt lat="45.65099" lon="5.95991">
        <ele>1107</ele>
        <time>2012-04-22T10:31:34.000Z</time>
      </trkpt>
      <trkpt lat="45.65099" lon="5.95991">
        <ele>1107</ele>
        <time>2012-04-22T10:31:36.000Z</time>
      </trkpt>
      <trkpt lat="45.651" lon="5.95985">
        <ele>1108</ele>
        <time>2012-04-22T10:31:40.000Z</time>
      </trkpt>
      <trkpt lat="45.65102" lon="5.95978">
        <ele>1109</ele>
        <time>2012-04-22T10:31:45.000Z</time>
      </trkpt>
      <trkpt lat="45.65106" lon="5.95972">
        <ele>1109</ele>
        <time>2012-04-22T10:31:52.000Z</time>
      </trkpt>
      <trkpt lat="45.65106" lon="5.95972">
        <ele>1109</ele>
        <time>2012-04-22T10:31:52.000Z</time>
      </trkpt>
      <trkpt lat="45.65106" lon="5.95972">
        <ele>1109</ele>
        <time>2012-04-22T10:31:53.000Z</time>
      </trkpt>
      <trkpt lat="45.65109" lon="5.95965">
        <ele>1110</ele>
        <time>2012-04-22T10:31:57.000Z</time>
      </trkpt>
      <trkpt lat="45.65112" lon="5.95959">
        <ele>1110</ele>
        <time>2012-04-22T10:32:00.000Z</time>
      </trkpt>
      <trkpt lat="45.65115" lon="5.95952">
        <ele>1111</ele>
        <time>2012-04-22T10:32:03.000Z</time>
      </trkpt>
      <trkpt lat="45.6512" lon="5.95946">
        <ele>1111</ele>
        <time>2012-04-22T10:32:07.000Z</time>
      </trkpt>
      <trkpt lat="45.6512" lon="5.95946">
        <ele>1111</ele>
        <time>2012-04-22T10:32:07.000Z</time>
      </trkpt>
      <trkpt lat="45.6512" lon="5.95946">
        <ele>1111</ele>
        <time>2012-04-22T10:32:08.000Z</time>
      </trkpt>
      <trkpt lat="45.65124" lon="5.9594">
        <ele>1112</ele>
        <time>2012-04-22T10:32:12.000Z</time>
      </trkpt>
      <trkpt lat="45.65128" lon="5.95933">
        <ele>1112</ele>
        <time>2012-04-22T10:32:15.000Z</time>
      </trkpt>
      <trkpt lat="45.65134" lon="5.95929">
        <ele>1113</ele>
        <time>2012-04-22T10:32:19.000Z</time>
      </trkpt>
      <trkpt lat="45.65138" lon="5.95922">
        <ele>1114</ele>
        <time>2012-04-22T10:32:24.000Z</time>
      </trkpt>
      <trkpt lat="45.65138" lon="5.95922">
        <ele>1114</ele>
        <time>2012-04-22T10:32:24.000Z</time>
      </trkpt>
      <trkpt lat="45.65138" lon="5.95922">
        <ele>1114</ele>
        <time>2012-04-22T10:32:25.000Z</time>
      </trkpt>
      <trkpt lat="45.6514" lon="5.95916">
        <ele>1110</ele>
        <time>2012-04-22T10:32:30.000Z</time>
      </trkpt>
      <trkpt lat="45.6514" lon="5.95916">
        <ele>1110</ele>
        <time>2012-04-22T10:32:30.000Z</time>
      </trkpt>
      <trkpt lat="45.6514" lon="5.95916">
        <ele>1110</ele>
        <time>2012-04-22T10:32:32.000Z</time>
      </trkpt>
      <trkpt lat="45.65139" lon="5.9591">
        <ele>1109</ele>
        <time>2012-04-22T10:32:37.000Z</time>
      </trkpt>
      <trkpt lat="45.65137" lon="5.95903">
        <ele>1109</ele>
        <time>2012-04-22T10:32:50.000Z</time>
      </trkpt>
      <trkpt lat="45.65137" lon="5.95903">
        <ele>1109</ele>
        <time>2012-04-22T10:32:50.000Z</time>
      </trkpt>
      <trkpt lat="45.65137" lon="5.95903">
        <ele>1109</ele>
        <time>2012-04-22T10:32:51.000Z</time>
      </trkpt>
      <trkpt lat="45.6514" lon="5.95897">
        <ele>1109</ele>
        <time>2012-04-22T10:32:55.000Z</time>
      </trkpt>
      <trkpt lat="45.6514" lon="5.9589">
        <ele>1108</ele>
        <time>2012-04-22T10:33:14.000Z</time>
      </trkpt>
      <trkpt lat="45.6514" lon="5.9589">
        <ele>1108</ele>
        <time>2012-04-22T10:33:14.000Z</time>
      </trkpt>
      <trkpt lat="45.6514" lon="5.9589">
        <ele>1108</ele>
        <time>2012-04-22T10:33:15.000Z</time>
      </trkpt>
      <trkpt lat="45.65136" lon="5.95892">
        <ele>1108</ele>
        <time>2012-04-22T10:33:25.000Z</time>
      </trkpt>
      <trkpt lat="45.65139" lon="5.95899">
        <ele>1109</ele>
        <time>2012-04-22T10:33:33.000Z</time>
      </trkpt>
      <trkpt lat="45.65144" lon="5.95899">
        <ele>1110</ele>
        <time>2012-04-22T10:33:38.000Z</time>
      </trkpt>
      <trkpt lat="45.65149" lon="5.95901">
        <ele>1111</ele>
        <time>2012-04-22T10:33:42.000Z</time>
      </trkpt>
      <trkpt lat="45.65154" lon="5.95901">
        <ele>1112</ele>
        <time>2012-04-22T10:33:46.000Z</time>
      </trkpt>
      <trkpt lat="45.65158" lon="5.95899">
        <ele>1112</ele>
        <time>2012-04-22T10:33:49.000Z</time>
      </trkpt>
      <trkpt lat="45.65163" lon="5.95903">
        <ele>1114</ele>
        <time>2012-04-22T10:33:52.000Z</time>
      </trkpt>
      <trkpt lat="45.65168" lon="5.95905">
        <ele>1120</ele>
        <time>2012-04-22T10:33:56.000Z</time>
      </trkpt>
      <trkpt lat="45.65173" lon="5.95905">
        <ele>1120</ele>
        <time>2012-04-22T10:33:59.000Z</time>
      </trkpt>
      <trkpt lat="45.65179" lon="5.95905">
        <ele>1120</ele>
        <time>2012-04-22T10:34:03.000Z</time>
      </trkpt>
      <trkpt lat="45.65183" lon="5.95907">
        <ele>1120</ele>
        <time>2012-04-22T10:34:06.000Z</time>
      </trkpt>
      <trkpt lat="45.65188" lon="5.95907">
        <ele>1121</ele>
        <time>2012-04-22T10:34:10.000Z</time>
      </trkpt>
      <trkpt lat="45.65194" lon="5.95905">
        <ele>1121</ele>
        <time>2012-04-22T10:34:14.000Z</time>
      </trkpt>
      <trkpt lat="45.65199" lon="5.95905">
        <ele>1121</ele>
        <time>2012-04-22T10:34:18.000Z</time>
      </trkpt>
      <trkpt lat="45.65204" lon="5.95903">
        <ele>1122</ele>
        <time>2012-04-22T10:34:23.000Z</time>
      </trkpt>
      <trkpt lat="45.6521" lon="5.95903">
        <ele>1122</ele>
        <time>2012-04-22T10:34:27.000Z</time>
      </trkpt>
      <trkpt lat="45.65214" lon="5.95901">
        <ele>1122</ele>
        <time>2012-04-22T10:34:29.000Z</time>
      </trkpt>
      <trkpt lat="45.65218" lon="5.95903">
        <ele>1123</ele>
        <time>2012-04-22T10:34:31.000Z</time>
      </trkpt>
      <trkpt lat="45.65225" lon="5.95905">
        <ele>1124</ele>
        <time>2012-04-22T10:34:34.000Z</time>
      </trkpt>
      <trkpt lat="45.65229" lon="5.95907">
        <ele>1125</ele>
        <time>2012-04-22T10:34:36.000Z</time>
      </trkpt>
      <trkpt lat="45.65233" lon="5.9591">
        <ele>1126</ele>
        <time>2012-04-22T10:34:38.000Z</time>
      </trkpt>
      <trkpt lat="45.65238" lon="5.95912">
        <ele>1128</ele>
        <time>2012-04-22T10:34:40.000Z</time>
      </trkpt>
      <trkpt lat="45.65243" lon="5.95912">
        <ele>1129</ele>
        <time>2012-04-22T10:34:43.000Z</time>
      </trkpt>
      <trkpt lat="45.65248" lon="5.95914">
        <ele>1131</ele>
        <time>2012-04-22T10:34:46.000Z</time>
      </trkpt>
      <trkpt lat="45.65254" lon="5.95914">
        <ele>1131</ele>
        <time>2012-04-22T10:34:49.000Z</time>
      </trkpt>
      <trkpt lat="45.65258" lon="5.95916">
        <ele>1130</ele>
        <time>2012-04-22T10:34:52.000Z</time>
      </trkpt>
      <trkpt lat="45.65262" lon="5.95918">
        <ele>1134</ele>
        <time>2012-04-22T10:34:54.000Z</time>
      </trkpt>
      <trkpt lat="45.65268" lon="5.95918">
        <ele>1134</ele>
        <time>2012-04-22T10:34:56.000Z</time>
      </trkpt>
      <trkpt lat="45.65273" lon="5.95918">
        <ele>1134</ele>
        <time>2012-04-22T10:34:58.000Z</time>
      </trkpt>
      <trkpt lat="45.65277" lon="5.9592">
        <ele>1134</ele>
        <time>2012-04-22T10:35:00.000Z</time>
      </trkpt>
      <trkpt lat="45.65283" lon="5.9592">
        <ele>1134</ele>
        <time>2012-04-22T10:35:03.000Z</time>
      </trkpt>
      <trkpt lat="45.65289" lon="5.9592">
        <ele>1134</ele>
        <time>2012-04-22T10:35:06.000Z</time>
      </trkpt>
      <trkpt lat="45.65295" lon="5.9592">
        <ele>1134</ele>
        <time>2012-04-22T10:35:09.000Z</time>
      </trkpt>
      <trkpt lat="45.653" lon="5.95922">
        <ele>1133</ele>
        <time>2012-04-22T10:35:12.000Z</time>
      </trkpt>
      <trkpt lat="45.65305" lon="5.95925">
        <ele>1133</ele>
        <time>2012-04-22T10:35:15.000Z</time>
      </trkpt>
      <trkpt lat="45.65311" lon="5.95929">
        <ele>1133</ele>
        <time>2012-04-22T10:35:18.000Z</time>
      </trkpt>
      <trkpt lat="45.65315" lon="5.95931">
        <ele>1133</ele>
        <time>2012-04-22T10:35:20.000Z</time>
      </trkpt>
      <trkpt lat="45.65319" lon="5.95935">
        <ele>1133</ele>
        <time>2012-04-22T10:35:22.000Z</time>
      </trkpt>
      <trkpt lat="45.65324" lon="5.95937">
        <ele>1132</ele>
        <time>2012-04-22T10:35:24.000Z</time>
      </trkpt>
      <trkpt lat="45.65328" lon="5.95942">
        <ele>1133</ele>
        <time>2012-04-22T10:35:26.000Z</time>
      </trkpt>
      <trkpt lat="45.65332" lon="5.95946">
        <ele>1133</ele>
        <time>2012-04-22T10:35:29.000Z</time>
      </trkpt>
      <trkpt lat="45.65336" lon="5.9595">
        <ele>1123</ele>
        <time>2012-04-22T10:35:32.000Z</time>
      </trkpt>
      <trkpt lat="45.65341" lon="5.95952">
        <ele>1123</ele>
        <time>2012-04-22T10:35:35.000Z</time>
      </trkpt>
      <trkpt lat="45.65346" lon="5.95957">
        <ele>1122</ele>
        <time>2012-04-22T10:35:38.000Z</time>
      </trkpt>
      <trkpt lat="45.65351" lon="5.95961">
        <ele>1122</ele>
        <time>2012-04-22T10:35:41.000Z</time>
      </trkpt>
      <trkpt lat="45.65357" lon="5.95965">
        <ele>1122</ele>
        <time>2012-04-22T10:35:44.000Z</time>
      </trkpt>
      <trkpt lat="45.65362" lon="5.95968">
        <ele>1121</ele>
        <time>2012-04-22T10:35:47.000Z</time>
      </trkpt>
      <trkpt lat="45.65366" lon="5.9597">
        <ele>1121</ele>
        <time>2012-04-22T10:35:49.000Z</time>
      </trkpt>
      <trkpt lat="45.65372" lon="5.9597">
        <ele>1120</ele>
        <time>2012-04-22T10:35:52.000Z</time>
      </trkpt>
      <trkpt lat="45.65376" lon="5.95972">
        <ele>1120</ele>
        <time>2012-04-22T10:35:54.000Z</time>
      </trkpt>
      <trkpt lat="45.65382" lon="5.95974">
        <ele>1119</ele>
        <time>2012-04-22T10:35:57.000Z</time>
      </trkpt>
      <trkpt lat="45.65386" lon="5.95976">
        <ele>1119</ele>
        <time>2012-04-22T10:35:59.000Z</time>
      </trkpt>
      <trkpt lat="45.6539" lon="5.95978">
        <ele>1119</ele>
        <time>2012-04-22T10:36:02.000Z</time>
      </trkpt>
      <trkpt lat="45.65395" lon="5.9598">
        <ele>1118</ele>
        <time>2012-04-22T10:36:06.000Z</time>
      </trkpt>
      <trkpt lat="45.65401" lon="5.9598">
        <ele>1118</ele>
        <time>2012-04-22T10:36:10.000Z</time>
      </trkpt>
      <trkpt lat="45.65406" lon="5.9598">
        <ele>1117</ele>
        <time>2012-04-22T10:36:13.000Z</time>
      </trkpt>
      <trkpt lat="45.6541" lon="5.95982">
        <ele>1117</ele>
        <time>2012-04-22T10:36:16.000Z</time>
      </trkpt>
      <trkpt lat="45.65415" lon="5.95985">
        <ele>1117</ele>
        <time>2012-04-22T10:36:18.000Z</time>
      </trkpt>
      <trkpt lat="45.6542" lon="5.95989">
        <ele>1112</ele>
        <time>2012-04-22T10:36:20.000Z</time>
      </trkpt>
      <trkpt lat="45.65426" lon="5.95995">
        <ele>1112</ele>
        <time>2012-04-22T10:36:22.000Z</time>
      </trkpt>
      <trkpt lat="45.6543" lon="5.96004">
        <ele>1118</ele>
        <time>2012-04-22T10:36:24.000Z</time>
      </trkpt>
      <trkpt lat="45.65435" lon="5.96008">
        <ele>1119</ele>
        <time>2012-04-22T10:36:26.000Z</time>
      </trkpt>
      <trkpt lat="45.6544" lon="5.96012">
        <ele>1120</ele>
        <time>2012-04-22T10:36:28.000Z</time>
      </trkpt>
      <trkpt lat="45.65446" lon="5.96017">
        <ele>1120</ele>
        <time>2012-04-22T10:36:31.000Z</time>
      </trkpt>
      <trkpt lat="45.65451" lon="5.96017">
        <ele>1120</ele>
        <time>2012-04-22T10:36:34.000Z</time>
      </trkpt>
      <trkpt lat="45.65457" lon="5.96017">
        <ele>1120</ele>
        <time>2012-04-22T10:36:37.000Z</time>
      </trkpt>
      <trkpt lat="45.65462" lon="5.96017">
        <ele>1120</ele>
        <time>2012-04-22T10:36:40.000Z</time>
      </trkpt>
      <trkpt lat="45.65466" lon="5.96019">
        <ele>1120</ele>
        <time>2012-04-22T10:36:43.000Z</time>
      </trkpt>
      <trkpt lat="45.65472" lon="5.96019">
        <ele>1120</ele>
        <time>2012-04-22T10:36:47.000Z</time>
      </trkpt>
      <trkpt lat="45.65477" lon="5.96019">
        <ele>1119</ele>
        <time>2012-04-22T10:36:51.000Z</time>
      </trkpt>
      <trkpt lat="45.65481" lon="5.96021">
        <ele>1119</ele>
        <time>2012-04-22T10:36:53.000Z</time>
      </trkpt>
      <trkpt lat="45.65487" lon="5.96021">
        <ele>1119</ele>
        <time>2012-04-22T10:36:55.000Z</time>
      </trkpt>
      <trkpt lat="45.65492" lon="5.96021">
        <ele>1119</ele>
        <time>2012-04-22T10:36:58.000Z</time>
      </trkpt>
      <trkpt lat="45.65497" lon="5.96023">
        <ele>1119</ele>
        <time>2012-04-22T10:37:00.000Z</time>
      </trkpt>
      <trkpt lat="45.65505" lon="5.96023">
        <ele>1115</ele>
        <time>2012-04-22T10:37:03.000Z</time>
      </trkpt>
      <trkpt lat="45.65511" lon="5.96023">
        <ele>1115</ele>
        <time>2012-04-22T10:37:05.000Z</time>
      </trkpt>
      <trkpt lat="45.65518" lon="5.96023">
        <ele>1115</ele>
        <time>2012-04-22T10:37:07.000Z</time>
      </trkpt>
      <trkpt lat="45.65524" lon="5.96023">
        <ele>1115</ele>
        <time>2012-04-22T10:37:09.000Z</time>
      </trkpt>
      <trkpt lat="45.65528" lon="5.96025">
        <ele>1115</ele>
        <time>2012-04-22T10:37:11.000Z</time>
      </trkpt>
      <trkpt lat="45.65533" lon="5.96028">
        <ele>1115</ele>
        <time>2012-04-22T10:37:13.000Z</time>
      </trkpt>
      <trkpt lat="45.65538" lon="5.96032">
        <ele>1115</ele>
        <time>2012-04-22T10:37:16.000Z</time>
      </trkpt>
      <trkpt lat="45.65542" lon="5.96034">
        <ele>1115</ele>
        <time>2012-04-22T10:37:18.000Z</time>
      </trkpt>
      <trkpt lat="45.65547" lon="5.96038">
        <ele>1115</ele>
        <time>2012-04-22T10:37:20.000Z</time>
      </trkpt>
      <trkpt lat="45.65551" lon="5.9604">
        <ele>1115</ele>
        <time>2012-04-22T10:37:23.000Z</time>
      </trkpt>
      <trkpt lat="45.65555" lon="5.96045">
        <ele>1115</ele>
        <time>2012-04-22T10:37:26.000Z</time>
      </trkpt>
      <trkpt lat="45.6556" lon="5.96049">
        <ele>1115</ele>
        <time>2012-04-22T10:37:29.000Z</time>
      </trkpt>
      <trkpt lat="45.65564" lon="5.96053">
        <ele>1115</ele>
        <time>2012-04-22T10:37:32.000Z</time>
      </trkpt>
      <trkpt lat="45.65568" lon="5.96058">
        <ele>1115</ele>
        <time>2012-04-22T10:37:35.000Z</time>
      </trkpt>
      <trkpt lat="45.65572" lon="5.9606">
        <ele>1115</ele>
        <time>2012-04-22T10:37:38.000Z</time>
      </trkpt>
      <trkpt lat="45.65578" lon="5.96064">
        <ele>1115</ele>
        <time>2012-04-22T10:37:41.000Z</time>
      </trkpt>
      <trkpt lat="45.65583" lon="5.96066">
        <ele>1115</ele>
        <time>2012-04-22T10:37:44.000Z</time>
      </trkpt>
      <trkpt lat="45.6559" lon="5.96066">
        <ele>1105</ele>
        <time>2012-04-22T10:37:47.000Z</time>
      </trkpt>
      <trkpt lat="45.65595" lon="5.96066">
        <ele>1104</ele>
        <time>2012-04-22T10:37:50.000Z</time>
      </trkpt>
      <trkpt lat="45.656" lon="5.96066">
        <ele>1102</ele>
        <time>2012-04-22T10:37:53.000Z</time>
      </trkpt>
      <trkpt lat="45.65605" lon="5.96068">
        <ele>1101</ele>
        <time>2012-04-22T10:37:56.000Z</time>
      </trkpt>
      <trkpt lat="45.6561" lon="5.96073">
        <ele>1100</ele>
        <time>2012-04-22T10:37:59.000Z</time>
      </trkpt>
      <trkpt lat="45.65615" lon="5.96077">
        <ele>1099</ele>
        <time>2012-04-22T10:38:01.000Z</time>
      </trkpt>
      <trkpt lat="45.6562" lon="5.96081">
        <ele>1098</ele>
        <time>2012-04-22T10:38:03.000Z</time>
      </trkpt>
      <trkpt lat="45.65624" lon="5.9609">
        <ele>1101</ele>
        <time>2012-04-22T10:38:05.000Z</time>
      </trkpt>
      <trkpt lat="45.65627" lon="5.96096">
        <ele>1101</ele>
        <time>2012-04-22T10:38:06.000Z</time>
      </trkpt>
      <trkpt lat="45.6563" lon="5.96103">
        <ele>1100</ele>
        <time>2012-04-22T10:38:07.000Z</time>
      </trkpt>
      <trkpt lat="45.65632" lon="5.96109">
        <ele>1100</ele>
        <time>2012-04-22T10:38:08.000Z</time>
      </trkpt>
      <trkpt lat="45.65637" lon="5.96118">
        <ele>1100</ele>
        <time>2012-04-22T10:38:10.000Z</time>
      </trkpt>
      <trkpt lat="45.65641" lon="5.96126">
        <ele>1100</ele>
        <time>2012-04-22T10:38:12.000Z</time>
      </trkpt>
      <trkpt lat="45.65644" lon="5.96133">
        <ele>1100</ele>
        <time>2012-04-22T10:38:14.000Z</time>
      </trkpt>
      <trkpt lat="45.65649" lon="5.96141">
        <ele>1099</ele>
        <time>2012-04-22T10:38:17.000Z</time>
      </trkpt>
      <trkpt lat="45.65654" lon="5.96148">
        <ele>1098</ele>
        <time>2012-04-22T10:38:20.000Z</time>
      </trkpt>
      <trkpt lat="45.65657" lon="5.96154">
        <ele>1097</ele>
        <time>2012-04-22T10:38:22.000Z</time>
      </trkpt>
      <trkpt lat="45.6566" lon="5.96161">
        <ele>1096</ele>
        <time>2012-04-22T10:38:24.000Z</time>
      </trkpt>
      <trkpt lat="45.65664" lon="5.96167">
        <ele>1095</ele>
        <time>2012-04-22T10:38:27.000Z</time>
      </trkpt>
      <trkpt lat="45.65667" lon="5.96171">
        <ele>1092</ele>
        <time>2012-04-22T10:38:30.000Z</time>
      </trkpt>
      <trkpt lat="45.6567" lon="5.96178">
        <ele>1091</ele>
        <time>2012-04-22T10:38:33.000Z</time>
      </trkpt>
      <trkpt lat="45.65674" lon="5.96182">
        <ele>1090</ele>
        <time>2012-04-22T10:38:36.000Z</time>
      </trkpt>
      <trkpt lat="45.65679" lon="5.96184">
        <ele>1090</ele>
        <time>2012-04-22T10:38:39.000Z</time>
      </trkpt>
      <trkpt lat="45.65684" lon="5.96186">
        <ele>1089</ele>
        <time>2012-04-22T10:38:42.000Z</time>
      </trkpt>
      <trkpt lat="45.65688" lon="5.96188">
        <ele>1088</ele>
        <time>2012-04-22T10:38:45.000Z</time>
      </trkpt>
      <trkpt lat="45.65694" lon="5.96188">
        <ele>1088</ele>
        <time>2012-04-22T10:38:49.000Z</time>
      </trkpt>
      <trkpt lat="45.65699" lon="5.96191">
        <ele>1087</ele>
        <time>2012-04-22T10:38:52.000Z</time>
      </trkpt>
      <trkpt lat="45.65704" lon="5.96193">
        <ele>1087</ele>
        <time>2012-04-22T10:38:54.000Z</time>
      </trkpt>
      <trkpt lat="45.65709" lon="5.96195">
        <ele>1086</ele>
        <time>2012-04-22T10:38:56.000Z</time>
      </trkpt>
      <trkpt lat="45.65714" lon="5.96197">
        <ele>1085</ele>
        <time>2012-04-22T10:38:58.000Z</time>
      </trkpt>
      <trkpt lat="45.65718" lon="5.96199">
        <ele>1085</ele>
        <time>2012-04-22T10:39:00.000Z</time>
      </trkpt>
      <trkpt lat="45.65723" lon="5.96201">
        <ele>1084</ele>
        <time>2012-04-22T10:39:02.000Z</time>
      </trkpt>
      <trkpt lat="45.65727" lon="5.96204">
        <ele>1084</ele>
        <time>2012-04-22T10:39:04.000Z</time>
      </trkpt>
      <trkpt lat="45.65731" lon="5.96206">
        <ele>1084</ele>
        <time>2012-04-22T10:39:06.000Z</time>
      </trkpt>
      <trkpt lat="45.65737" lon="5.9621">
        <ele>1084</ele>
        <time>2012-04-22T10:39:08.000Z</time>
      </trkpt>
      <trkpt lat="45.65741" lon="5.96212">
        <ele>1084</ele>
        <time>2012-04-22T10:39:10.000Z</time>
      </trkpt>
      <trkpt lat="45.65745" lon="5.96214">
        <ele>1084</ele>
        <time>2012-04-22T10:39:12.000Z</time>
      </trkpt>
      <trkpt lat="45.6575" lon="5.96216">
        <ele>1083</ele>
        <time>2012-04-22T10:39:14.000Z</time>
      </trkpt>
      <trkpt lat="45.65755" lon="5.96218">
        <ele>1074</ele>
        <time>2012-04-22T10:39:17.000Z</time>
      </trkpt>
      <trkpt lat="45.6576" lon="5.96221">
        <ele>1074</ele>
        <time>2012-04-22T10:39:19.000Z</time>
      </trkpt>
      <trkpt lat="45.65766" lon="5.96223">
        <ele>1074</ele>
        <time>2012-04-22T10:39:21.000Z</time>
      </trkpt>
      <trkpt lat="45.6577" lon="5.96225">
        <ele>1074</ele>
        <time>2012-04-22T10:39:23.000Z</time>
      </trkpt>
      <trkpt lat="45.65776" lon="5.96227">
        <ele>1073</ele>
        <time>2012-04-22T10:39:26.000Z</time>
      </trkpt>
      <trkpt lat="45.65782" lon="5.96229">
        <ele>1073</ele>
        <time>2012-04-22T10:39:28.000Z</time>
      </trkpt>
      <trkpt lat="45.65788" lon="5.96231">
        <ele>1072</ele>
        <time>2012-04-22T10:39:31.000Z</time>
      </trkpt>
      <trkpt lat="45.65794" lon="5.96231">
        <ele>1072</ele>
        <time>2012-04-22T10:39:34.000Z</time>
      </trkpt>
      <trkpt lat="45.65801" lon="5.96231">
        <ele>1071</ele>
        <time>2012-04-22T10:39:37.000Z</time>
      </trkpt>
      <trkpt lat="45.65808" lon="5.96231">
        <ele>1071</ele>
        <time>2012-04-22T10:39:40.000Z</time>
      </trkpt>
      <trkpt lat="45.65815" lon="5.96231">
        <ele>1071</ele>
        <time>2012-04-22T10:39:43.000Z</time>
      </trkpt>
      <trkpt lat="45.65821" lon="5.96231">
        <ele>1071</ele>
        <time>2012-04-22T10:39:46.000Z</time>
      </trkpt>
      <trkpt lat="45.65827" lon="5.96231">
        <ele>1071</ele>
        <time>2012-04-22T10:39:49.000Z</time>
      </trkpt>
      <trkpt lat="45.65832" lon="5.96236">
        <ele>1071</ele>
        <time>2012-04-22T10:39:52.000Z</time>
      </trkpt>
      <trkpt lat="45.65838" lon="5.96238">
        <ele>1067</ele>
        <time>2012-04-22T10:39:55.000Z</time>
      </trkpt>
      <trkpt lat="45.65842" lon="5.9624">
        <ele>1067</ele>
        <time>2012-04-22T10:39:58.000Z</time>
      </trkpt>
      <trkpt lat="45.65847" lon="5.9624">
        <ele>1065</ele>
        <time>2012-04-22T10:40:01.000Z</time>
      </trkpt>
      <trkpt lat="45.65852" lon="5.9624">
        <ele>1064</ele>
        <time>2012-04-22T10:40:04.000Z</time>
      </trkpt>
      <trkpt lat="45.65859" lon="5.9624">
        <ele>1063</ele>
        <time>2012-04-22T10:40:08.000Z</time>
      </trkpt>
      <trkpt lat="45.65864" lon="5.96242">
        <ele>1062</ele>
        <time>2012-04-22T10:40:11.000Z</time>
      </trkpt>
      <trkpt lat="45.65871" lon="5.96242">
        <ele>1061</ele>
        <time>2012-04-22T10:40:15.000Z</time>
      </trkpt>
      <trkpt lat="45.65876" lon="5.96242">
        <ele>1061</ele>
        <time>2012-04-22T10:40:18.000Z</time>
      </trkpt>
      <trkpt lat="45.65881" lon="5.96242">
        <ele>1060</ele>
        <time>2012-04-22T10:40:23.000Z</time>
      </trkpt>
      <trkpt lat="45.65886" lon="5.9624">
        <ele>1060</ele>
        <time>2012-04-22T10:40:26.000Z</time>
      </trkpt>
      <trkpt lat="45.65891" lon="5.9624">
        <ele>1059</ele>
        <time>2012-04-22T10:40:29.000Z</time>
      </trkpt>
      <trkpt lat="45.65896" lon="5.96238">
        <ele>1059</ele>
        <time>2012-04-22T10:40:31.000Z</time>
      </trkpt>
      <trkpt lat="45.65902" lon="5.96238">
        <ele>1059</ele>
        <time>2012-04-22T10:40:34.000Z</time>
      </trkpt>
      <trkpt lat="45.65908" lon="5.96238">
        <ele>1059</ele>
        <time>2012-04-22T10:40:38.000Z</time>
      </trkpt>
      <trkpt lat="45.65914" lon="5.96238">
        <ele>1059</ele>
        <time>2012-04-22T10:40:41.000Z</time>
      </trkpt>
      <trkpt lat="45.65919" lon="5.96236">
        <ele>1056</ele>
        <time>2012-04-22T10:40:43.000Z</time>
      </trkpt>
      <trkpt lat="45.65924" lon="5.96236">
        <ele>1056</ele>
        <time>2012-04-22T10:40:45.000Z</time>
      </trkpt>
      <trkpt lat="45.65929" lon="5.96234">
        <ele>1055</ele>
        <time>2012-04-22T10:40:47.000Z</time>
      </trkpt>
      <trkpt lat="45.65934" lon="5.96236">
        <ele>1054</ele>
        <time>2012-04-22T10:40:50.000Z</time>
      </trkpt>
      <trkpt lat="45.65938" lon="5.96238">
        <ele>1054</ele>
        <time>2012-04-22T10:40:52.000Z</time>
      </trkpt>
      <trkpt lat="45.65943" lon="5.96242">
        <ele>1054</ele>
        <time>2012-04-22T10:40:54.000Z</time>
      </trkpt>
      <trkpt lat="45.65948" lon="5.96244">
        <ele>1054</ele>
        <time>2012-04-22T10:40:56.000Z</time>
      </trkpt>
      <trkpt lat="45.65956" lon="5.96244">
        <ele>1053</ele>
        <time>2012-04-22T10:40:58.000Z</time>
      </trkpt>
      <trkpt lat="45.6596" lon="5.96242">
        <ele>1053</ele>
        <time>2012-04-22T10:40:59.000Z</time>
      </trkpt>
      <trkpt lat="45.65967" lon="5.96242">
        <ele>1053</ele>
        <time>2012-04-22T10:41:01.000Z</time>
      </trkpt>
      <trkpt lat="45.65973" lon="5.96242">
        <ele>1053</ele>
        <time>2012-04-22T10:41:03.000Z</time>
      </trkpt>
      <trkpt lat="45.65978" lon="5.96242">
        <ele>1053</ele>
        <time>2012-04-22T10:41:05.000Z</time>
      </trkpt>
      <trkpt lat="45.65983" lon="5.96244">
        <ele>1053</ele>
        <time>2012-04-22T10:41:07.000Z</time>
      </trkpt>
      <trkpt lat="45.6599" lon="5.96249">
        <ele>1054</ele>
        <time>2012-04-22T10:41:09.000Z</time>
      </trkpt>
      <trkpt lat="45.65995" lon="5.96251">
        <ele>1059</ele>
        <time>2012-04-22T10:41:11.000Z</time>
      </trkpt>
      <trkpt lat="45.66" lon="5.96255">
        <ele>1059</ele>
        <time>2012-04-22T10:41:14.000Z</time>
      </trkpt>
      <trkpt lat="45.66005" lon="5.96257">
        <ele>1059</ele>
        <time>2012-04-22T10:41:16.000Z</time>
      </trkpt>
      <trkpt lat="45.6601" lon="5.96257">
        <ele>1060</ele>
        <time>2012-04-22T10:41:19.000Z</time>
      </trkpt>
      <trkpt lat="45.66014" lon="5.96259">
        <ele>1061</ele>
        <time>2012-04-22T10:41:22.000Z</time>
      </trkpt>
      <trkpt lat="45.6602" lon="5.96259">
        <ele>1062</ele>
        <time>2012-04-22T10:41:25.000Z</time>
      </trkpt>
      <trkpt lat="45.66025" lon="5.96259">
        <ele>1062</ele>
        <time>2012-04-22T10:41:28.000Z</time>
      </trkpt>
      <trkpt lat="45.6603" lon="5.96262">
        <ele>1063</ele>
        <time>2012-04-22T10:41:30.000Z</time>
      </trkpt>
      <trkpt lat="45.66035" lon="5.96259">
        <ele>1062</ele>
        <time>2012-04-22T10:41:33.000Z</time>
      </trkpt>
      <trkpt lat="45.66042" lon="5.96259">
        <ele>1062</ele>
        <time>2012-04-22T10:41:36.000Z</time>
      </trkpt>
      <trkpt lat="45.66049" lon="5.96259">
        <ele>1062</ele>
        <time>2012-04-22T10:41:39.000Z</time>
      </trkpt>
      <trkpt lat="45.66056" lon="5.96257">
        <ele>1061</ele>
        <time>2012-04-22T10:41:41.000Z</time>
      </trkpt>
      <trkpt lat="45.66062" lon="5.96255">
        <ele>1060</ele>
        <time>2012-04-22T10:41:43.000Z</time>
      </trkpt>
      <trkpt lat="45.66068" lon="5.96255">
        <ele>1058</ele>
        <time>2012-04-22T10:41:45.000Z</time>
      </trkpt>
      <trkpt lat="45.66076" lon="5.96255">
        <ele>1056</ele>
        <time>2012-04-22T10:41:47.000Z</time>
      </trkpt>
      <trkpt lat="45.66081" lon="5.96255">
        <ele>1055</ele>
        <time>2012-04-22T10:41:49.000Z</time>
      </trkpt>
      <trkpt lat="45.66086" lon="5.96253">
        <ele>1053</ele>
        <time>2012-04-22T10:41:51.000Z</time>
      </trkpt>
      <trkpt lat="45.66093" lon="5.96253">
        <ele>1053</ele>
        <time>2012-04-22T10:41:53.000Z</time>
      </trkpt>
      <trkpt lat="45.66097" lon="5.96251">
        <ele>1053</ele>
        <time>2012-04-22T10:41:55.000Z</time>
      </trkpt>
      <trkpt lat="45.66101" lon="5.96249">
        <ele>1044</ele>
        <time>2012-04-22T10:41:56.000Z</time>
      </trkpt>
      <trkpt lat="45.66108" lon="5.96246">
        <ele>1042</ele>
        <time>2012-04-22T10:41:58.000Z</time>
      </trkpt>
      <trkpt lat="45.66113" lon="5.96246">
        <ele>1041</ele>
        <time>2012-04-22T10:42:00.000Z</time>
      </trkpt>
      <trkpt lat="45.6612" lon="5.96249">
        <ele>1040</ele>
        <time>2012-04-22T10:42:03.000Z</time>
      </trkpt>
      <trkpt lat="45.66125" lon="5.96249">
        <ele>1040</ele>
        <time>2012-04-22T10:42:05.000Z</time>
      </trkpt>
      <trkpt lat="45.66129" lon="5.96251">
        <ele>1052</ele>
        <time>2012-04-22T10:42:07.000Z</time>
      </trkpt>
      <trkpt lat="45.66136" lon="5.96251">
        <ele>1051</ele>
        <time>2012-04-22T10:42:10.000Z</time>
      </trkpt>
      <trkpt lat="45.6614" lon="5.96253">
        <ele>1050</ele>
        <time>2012-04-22T10:42:13.000Z</time>
      </trkpt>
      <trkpt lat="45.66145" lon="5.96251">
        <ele>1049</ele>
        <time>2012-04-22T10:42:18.000Z</time>
      </trkpt>
      <trkpt lat="45.66152" lon="5.96251">
        <ele>1046</ele>
        <time>2012-04-22T10:42:22.000Z</time>
      </trkpt>
      <trkpt lat="45.66156" lon="5.96253">
        <ele>1045</ele>
        <time>2012-04-22T10:42:24.000Z</time>
      </trkpt>
      <trkpt lat="45.66162" lon="5.96255">
        <ele>1043</ele>
        <time>2012-04-22T10:42:27.000Z</time>
      </trkpt>
      <trkpt lat="45.66167" lon="5.96257">
        <ele>1041</ele>
        <time>2012-04-22T10:42:30.000Z</time>
      </trkpt>
      <trkpt lat="45.66172" lon="5.96257">
        <ele>1042</ele>
        <time>2012-04-22T10:42:33.000Z</time>
      </trkpt>
      <trkpt lat="45.66178" lon="5.96257">
        <ele>1042</ele>
        <time>2012-04-22T10:42:38.000Z</time>
      </trkpt>
      <trkpt lat="45.66182" lon="5.96255">
        <ele>1043</ele>
        <time>2012-04-22T10:42:41.000Z</time>
      </trkpt>
      <trkpt lat="45.66188" lon="5.96253">
        <ele>1043</ele>
        <time>2012-04-22T10:42:44.000Z</time>
      </trkpt>
      <trkpt lat="45.66194" lon="5.96253">
        <ele>1044</ele>
        <time>2012-04-22T10:42:48.000Z</time>
      </trkpt>
      <trkpt lat="45.66198" lon="5.96251">
        <ele>1044</ele>
        <time>2012-04-22T10:42:51.000Z</time>
      </trkpt>
      <trkpt lat="45.66204" lon="5.96249">
        <ele>1029</ele>
        <time>2012-04-22T10:42:54.000Z</time>
      </trkpt>
      <trkpt lat="45.66209" lon="5.96246">
        <ele>1028</ele>
        <time>2012-04-22T10:42:56.000Z</time>
      </trkpt>
      <trkpt lat="45.66214" lon="5.96244">
        <ele>1028</ele>
        <time>2012-04-22T10:42:58.000Z</time>
      </trkpt>
      <trkpt lat="45.66218" lon="5.96242">
        <ele>1028</ele>
        <time>2012-04-22T10:43:00.000Z</time>
      </trkpt>
      <trkpt lat="45.66223" lon="5.9624">
        <ele>1028</ele>
        <time>2012-04-22T10:43:02.000Z</time>
      </trkpt>
      <trkpt lat="45.66229" lon="5.96238">
        <ele>1028</ele>
        <time>2012-04-22T10:43:06.000Z</time>
      </trkpt>
      <trkpt lat="45.66236" lon="5.9624">
        <ele>1029</ele>
        <time>2012-04-22T10:43:09.000Z</time>
      </trkpt>
      <trkpt lat="45.6624" lon="5.96242">
        <ele>1030</ele>
        <time>2012-04-22T10:43:13.000Z</time>
      </trkpt>
      <trkpt lat="45.66244" lon="5.96244">
        <ele>1031</ele>
        <time>2012-04-22T10:43:18.000Z</time>
      </trkpt>
      <trkpt lat="45.66249" lon="5.96246">
        <ele>1032</ele>
        <time>2012-04-22T10:43:23.000Z</time>
      </trkpt>
      <trkpt lat="45.66255" lon="5.96246">
        <ele>1034</ele>
        <time>2012-04-22T10:43:34.000Z</time>
      </trkpt>
      <trkpt lat="45.66259" lon="5.96244">
        <ele>1035</ele>
        <time>2012-04-22T10:43:38.000Z</time>
      </trkpt>
      <trkpt lat="45.66261" lon="5.96238">
        <ele>1035</ele>
        <time>2012-04-22T10:43:44.000Z</time>
      </trkpt>
      <trkpt lat="45.66261" lon="5.96238">
        <ele>1035</ele>
        <time>2012-04-22T10:43:44.000Z</time>
      </trkpt>
      <trkpt lat="45.66261" lon="5.96238">
        <ele>1035</ele>
        <time>2012-04-22T10:43:45.000Z</time>
      </trkpt>
      <trkpt lat="45.66264" lon="5.96231">
        <ele>1034</ele>
        <time>2012-04-22T10:43:49.000Z</time>
      </trkpt>
      <trkpt lat="45.66264" lon="5.96231">
        <ele>1034</ele>
        <time>2012-04-22T10:43:49.000Z</time>
      </trkpt>
      <trkpt lat="45.66264" lon="5.96231">
        <ele>1034</ele>
        <time>2012-04-22T10:43:50.000Z</time>
      </trkpt>
      <trkpt lat="45.66269" lon="5.96227">
        <ele>1035</ele>
        <time>2012-04-22T10:43:53.000Z</time>
      </trkpt>
      <trkpt lat="45.66274" lon="5.96225">
        <ele>1035</ele>
        <time>2012-04-22T10:43:56.000Z</time>
      </trkpt>
      <trkpt lat="45.66278" lon="5.96223">
        <ele>1035</ele>
        <time>2012-04-22T10:43:58.000Z</time>
      </trkpt>
      <trkpt lat="45.66284" lon="5.96221">
        <ele>1036</ele>
        <time>2012-04-22T10:44:00.000Z</time>
      </trkpt>
      <trkpt lat="45.66288" lon="5.96218">
        <ele>1037</ele>
        <time>2012-04-22T10:44:02.000Z</time>
      </trkpt>
      <trkpt lat="45.66292" lon="5.96216">
        <ele>1037</ele>
        <time>2012-04-22T10:44:05.000Z</time>
      </trkpt>
      <trkpt lat="45.66297" lon="5.9621">
        <ele>1037</ele>
        <time>2012-04-22T10:44:08.000Z</time>
      </trkpt>
      <trkpt lat="45.66301" lon="5.96206">
        <ele>1038</ele>
        <time>2012-04-22T10:44:12.000Z</time>
      </trkpt>
      <trkpt lat="45.66304" lon="5.96199">
        <ele>1037</ele>
        <time>2012-04-22T10:44:16.000Z</time>
      </trkpt>
      <trkpt lat="45.66308" lon="5.96193">
        <ele>1038</ele>
        <time>2012-04-22T10:44:20.000Z</time>
      </trkpt>
      <trkpt lat="45.66312" lon="5.96186">
        <ele>1038</ele>
        <time>2012-04-22T10:44:23.000Z</time>
      </trkpt>
      <trkpt lat="45.66314" lon="5.9618">
        <ele>1039</ele>
        <time>2012-04-22T10:44:25.000Z</time>
      </trkpt>
      <trkpt lat="45.66316" lon="5.96174">
        <ele>1039</ele>
        <time>2012-04-22T10:44:28.000Z</time>
      </trkpt>
      <trkpt lat="45.66317" lon="5.96165">
        <ele>1032</ele>
        <time>2012-04-22T10:44:32.000Z</time>
      </trkpt>
      <trkpt lat="45.66319" lon="5.96158">
        <ele>1031</ele>
        <time>2012-04-22T10:44:34.000Z</time>
      </trkpt>
      <trkpt lat="45.66324" lon="5.9615">
        <ele>1031</ele>
        <time>2012-04-22T10:44:37.000Z</time>
      </trkpt>
      <trkpt lat="45.66329" lon="5.96141">
        <ele>1028</ele>
        <time>2012-04-22T10:44:40.000Z</time>
      </trkpt>
      <trkpt lat="45.66333" lon="5.96137">
        <ele>1027</ele>
        <time>2012-04-22T10:44:42.000Z</time>
      </trkpt>
      <trkpt lat="45.66335" lon="5.96131">
        <ele>1050</ele>
        <time>2012-04-22T10:44:44.000Z</time>
      </trkpt>
      <trkpt lat="45.66337" lon="5.96124">
        <ele>1049</ele>
        <time>2012-04-22T10:44:47.000Z</time>
      </trkpt>
      <trkpt lat="45.6634" lon="5.96118">
        <ele>1048</ele>
        <time>2012-04-22T10:44:51.000Z</time>
      </trkpt>
      <trkpt lat="45.66342" lon="5.96111">
        <ele>1047</ele>
        <time>2012-04-22T10:44:54.000Z</time>
      </trkpt>
      <trkpt lat="45.66343" lon="5.96105">
        <ele>1045</ele>
        <time>2012-04-22T10:44:56.000Z</time>
      </trkpt>
      <trkpt lat="45.66344" lon="5.96098">
        <ele>1043</ele>
        <time>2012-04-22T10:44:59.000Z</time>
      </trkpt>
      <trkpt lat="45.66344" lon="5.96088">
        <ele>1039</ele>
        <time>2012-04-22T10:45:03.000Z</time>
      </trkpt>
      <trkpt lat="45.66343" lon="5.96081">
        <ele>1033</ele>
        <time>2012-04-22T10:45:06.000Z</time>
      </trkpt>
      <trkpt lat="45.66344" lon="5.96075">
        <ele>1034</ele>
        <time>2012-04-22T10:45:10.000Z</time>
      </trkpt>
      <trkpt lat="45.66346" lon="5.96068">
        <ele>1036</ele>
        <time>2012-04-22T10:45:14.000Z</time>
      </trkpt>
      <trkpt lat="45.66349" lon="5.96062">
        <ele>1037</ele>
        <time>2012-04-22T10:45:18.000Z</time>
      </trkpt>
      <trkpt lat="45.66354" lon="5.96056">
        <ele>1038</ele>
        <time>2012-04-22T10:45:22.000Z</time>
      </trkpt>
      <trkpt lat="45.66358" lon="5.96049">
        <ele>1038</ele>
        <time>2012-04-22T10:45:26.000Z</time>
      </trkpt>
      <trkpt lat="45.66363" lon="5.96043">
        <ele>1039</ele>
        <time>2012-04-22T10:45:31.000Z</time>
      </trkpt>
      <trkpt lat="45.66366" lon="5.96036">
        <ele>1039</ele>
        <time>2012-04-22T10:45:33.000Z</time>
      </trkpt>
      <trkpt lat="45.66371" lon="5.9603">
        <ele>1040</ele>
        <time>2012-04-22T10:45:35.000Z</time>
      </trkpt>
      <trkpt lat="45.66375" lon="5.96021">
        <ele>1040</ele>
        <time>2012-04-22T10:45:37.000Z</time>
      </trkpt>
      <trkpt lat="45.66378" lon="5.96015">
        <ele>1040</ele>
        <time>2012-04-22T10:45:39.000Z</time>
      </trkpt>
      <trkpt lat="45.66382" lon="5.96008">
        <ele>1041</ele>
        <time>2012-04-22T10:45:42.000Z</time>
      </trkpt>
      <trkpt lat="45.66387" lon="5.96004">
        <ele>1043</ele>
        <time>2012-04-22T10:45:45.000Z</time>
      </trkpt>
      <trkpt lat="45.66391" lon="5.96">
        <ele>1036</ele>
        <time>2012-04-22T10:45:49.000Z</time>
      </trkpt>
      <trkpt lat="45.66396" lon="5.96">
        <ele>1038</ele>
        <time>2012-04-22T10:45:53.000Z</time>
      </trkpt>
      <trkpt lat="45.66402" lon="5.95995">
        <ele>1041</ele>
        <time>2012-04-22T10:45:56.000Z</time>
      </trkpt>
      <trkpt lat="45.66407" lon="5.95993">
        <ele>1043</ele>
        <time>2012-04-22T10:45:59.000Z</time>
      </trkpt>
      <trkpt lat="45.66414" lon="5.95993">
        <ele>1046</ele>
        <time>2012-04-22T10:46:02.000Z</time>
      </trkpt>
      <trkpt lat="45.66418" lon="5.95991">
        <ele>1052</ele>
        <time>2012-04-22T10:46:04.000Z</time>
      </trkpt>
      <trkpt lat="45.66424" lon="5.95991">
        <ele>1052</ele>
        <time>2012-04-22T10:46:07.000Z</time>
      </trkpt>
      <trkpt lat="45.6643" lon="5.95991">
        <ele>1052</ele>
        <time>2012-04-22T10:46:10.000Z</time>
      </trkpt>
      <trkpt lat="45.66435" lon="5.95991">
        <ele>1052</ele>
        <time>2012-04-22T10:46:13.000Z</time>
      </trkpt>
      <trkpt lat="45.6644" lon="5.95991">
        <ele>1052</ele>
        <time>2012-04-22T10:46:16.000Z</time>
      </trkpt>
      <trkpt lat="45.66445" lon="5.95989">
        <ele>1052</ele>
        <time>2012-04-22T10:46:18.000Z</time>
      </trkpt>
      <trkpt lat="45.6645" lon="5.95987">
        <ele>1053</ele>
        <time>2012-04-22T10:46:21.000Z</time>
      </trkpt>
      <trkpt lat="45.66455" lon="5.95985">
        <ele>1053</ele>
        <time>2012-04-22T10:46:24.000Z</time>
      </trkpt>
      <trkpt lat="45.6646" lon="5.95982">
        <ele>1053</ele>
        <time>2012-04-22T10:46:26.000Z</time>
      </trkpt>
      <trkpt lat="45.66464" lon="5.9598">
        <ele>1054</ele>
        <time>2012-04-22T10:46:29.000Z</time>
      </trkpt>
      <trkpt lat="45.66468" lon="5.95978">
        <ele>1054</ele>
        <time>2012-04-22T10:46:31.000Z</time>
      </trkpt>
      <trkpt lat="45.66473" lon="5.95976">
        <ele>1054</ele>
        <time>2012-04-22T10:46:33.000Z</time>
      </trkpt>
      <trkpt lat="45.66478" lon="5.95976">
        <ele>1055</ele>
        <time>2012-04-22T10:46:36.000Z</time>
      </trkpt>
      <trkpt lat="45.66483" lon="5.95976">
        <ele>1055</ele>
        <time>2012-04-22T10:46:39.000Z</time>
      </trkpt>
      <trkpt lat="45.66488" lon="5.95978">
        <ele>1056</ele>
        <time>2012-04-22T10:46:42.000Z</time>
      </trkpt>
      <trkpt lat="45.66492" lon="5.9598">
        <ele>1057</ele>
        <time>2012-04-22T10:46:45.000Z</time>
      </trkpt>
      <trkpt lat="45.66496" lon="5.95982">
        <ele>1058</ele>
        <time>2012-04-22T10:46:48.000Z</time>
      </trkpt>
      <trkpt lat="45.66502" lon="5.95982">
        <ele>1063</ele>
        <time>2012-04-22T10:46:51.000Z</time>
      </trkpt>
      <trkpt lat="45.66508" lon="5.95982">
        <ele>1063</ele>
        <time>2012-04-22T10:46:55.000Z</time>
      </trkpt>
      <trkpt lat="45.66513" lon="5.95982">
        <ele>1063</ele>
        <time>2012-04-22T10:46:59.000Z</time>
      </trkpt>
      <trkpt lat="45.66519" lon="5.95982">
        <ele>1063</ele>
        <time>2012-04-22T10:47:02.000Z</time>
      </trkpt>
      <trkpt lat="45.66525" lon="5.95982">
        <ele>1063</ele>
        <time>2012-04-22T10:47:06.000Z</time>
      </trkpt>
      <trkpt lat="45.66532" lon="5.95982">
        <ele>1063</ele>
        <time>2012-04-22T10:47:10.000Z</time>
      </trkpt>
      <trkpt lat="45.66536" lon="5.95985">
        <ele>1063</ele>
        <time>2012-04-22T10:47:14.000Z</time>
      </trkpt>
      <trkpt lat="45.6654" lon="5.95989">
        <ele>1064</ele>
        <time>2012-04-22T10:47:18.000Z</time>
      </trkpt>
      <trkpt lat="45.6654" lon="5.95989">
        <ele>1064</ele>
        <time>2012-04-22T10:47:18.000Z</time>
      </trkpt>
      <trkpt lat="45.6654" lon="5.95989">
        <ele>1064</ele>
        <time>2012-04-22T10:47:19.000Z</time>
      </trkpt>
      <trkpt lat="45.66544" lon="5.95993">
        <ele>1064</ele>
        <time>2012-04-22T10:47:24.000Z</time>
      </trkpt>
      <trkpt lat="45.66548" lon="5.96">
        <ele>1065</ele>
        <time>2012-04-22T10:47:28.000Z</time>
      </trkpt>
      <trkpt lat="45.66551" lon="5.96006">
        <ele>1077</ele>
        <time>2012-04-22T10:47:35.000Z</time>
      </trkpt>
      <trkpt lat="45.66555" lon="5.9601">
        <ele>1078</ele>
        <time>2012-04-22T10:47:41.000Z</time>
      </trkpt>
      <trkpt lat="45.66555" lon="5.9601">
        <ele>1078</ele>
        <time>2012-04-22T10:47:41.000Z</time>
      </trkpt>
      <trkpt lat="45.66555" lon="5.9601">
        <ele>1078</ele>
        <time>2012-04-22T10:47:42.000Z</time>
      </trkpt>
      <trkpt lat="45.6656" lon="5.96012">
        <ele>1078</ele>
        <time>2012-04-22T10:47:46.000Z</time>
      </trkpt>
      <trkpt lat="45.6656" lon="5.96012">
        <ele>1078</ele>
        <time>2012-04-22T10:47:46.000Z</time>
      </trkpt>
      <trkpt lat="45.6656" lon="5.96012">
        <ele>1078</ele>
        <time>2012-04-22T10:47:47.000Z</time>
      </trkpt>
      <trkpt lat="45.66563" lon="5.96019">
        <ele>1078</ele>
        <time>2012-04-22T10:47:53.000Z</time>
      </trkpt>
      <trkpt lat="45.66567" lon="5.96025">
        <ele>1079</ele>
        <time>2012-04-22T10:48:00.000Z</time>
      </trkpt>
      <trkpt lat="45.66567" lon="5.96025">
        <ele>1079</ele>
        <time>2012-04-22T10:48:00.000Z</time>
      </trkpt>
      <trkpt lat="45.66567" lon="5.96025">
        <ele>1079</ele>
        <time>2012-04-22T10:48:01.000Z</time>
      </trkpt>
      <trkpt lat="45.6657" lon="5.96032">
        <ele>1080</ele>
        <time>2012-04-22T10:48:06.000Z</time>
      </trkpt>
      <trkpt lat="45.6657" lon="5.96032">
        <ele>1080</ele>
        <time>2012-04-22T10:48:06.000Z</time>
      </trkpt>
      <trkpt lat="45.6657" lon="5.96032">
        <ele>1080</ele>
        <time>2012-04-22T10:48:07.000Z</time>
      </trkpt>
      <trkpt lat="45.66574" lon="5.96036">
        <ele>1081</ele>
        <time>2012-04-22T10:48:12.000Z</time>
      </trkpt>
      <trkpt lat="45.66579" lon="5.9604">
        <ele>1081</ele>
        <time>2012-04-22T10:48:17.000Z</time>
      </trkpt>
      <trkpt lat="45.66583" lon="5.96043">
        <ele>1082</ele>
        <time>2012-04-22T10:48:21.000Z</time>
      </trkpt>
      <trkpt lat="45.66587" lon="5.96047">
        <ele>1082</ele>
        <time>2012-04-22T10:48:27.000Z</time>
      </trkpt>
      <trkpt lat="45.66588" lon="5.96053">
        <ele>1083</ele>
        <time>2012-04-22T10:48:33.000Z</time>
      </trkpt>
      <trkpt lat="45.66588" lon="5.96053">
        <ele>1083</ele>
        <time>2012-04-22T10:48:33.000Z</time>
      </trkpt>
      <trkpt lat="45.66588" lon="5.96053">
        <ele>1083</ele>
        <time>2012-04-22T10:48:36.000Z</time>
      </trkpt>
      <trkpt lat="45.66593" lon="5.9606">
        <ele>1084</ele>
        <time>2012-04-22T10:48:44.000Z</time>
      </trkpt>
      <trkpt lat="45.66595" lon="5.96066">
        <ele>1085</ele>
        <time>2012-04-22T10:48:48.000Z</time>
      </trkpt>
      <trkpt lat="45.66595" lon="5.96066">
        <ele>1085</ele>
        <time>2012-04-22T10:48:48.000Z</time>
      </trkpt>
      <trkpt lat="45.66595" lon="5.96066">
        <ele>1085</ele>
        <time>2012-04-22T10:48:49.000Z</time>
      </trkpt>
      <trkpt lat="45.66599" lon="5.96064">
        <ele>1085</ele>
        <time>2012-04-22T10:49:07.000Z</time>
      </trkpt>
      <trkpt lat="45.66597" lon="5.96058">
        <ele>1084</ele>
        <time>2012-04-22T10:49:11.000Z</time>
      </trkpt>
      <trkpt lat="45.66594" lon="5.96051">
        <ele>1083</ele>
        <time>2012-04-22T10:49:16.000Z</time>
      </trkpt>
      <trkpt lat="45.66594" lon="5.96051">
        <ele>1083</ele>
        <time>2012-04-22T10:49:16.000Z</time>
      </trkpt>
      <trkpt lat="45.66594" lon="5.96051">
        <ele>1083</ele>
        <time>2012-04-22T10:49:21.000Z</time>
      </trkpt>
      <trkpt lat="45.66596" lon="5.96058">
        <ele>1084</ele>
        <time>2012-04-22T10:49:44.000Z</time>
      </trkpt>
      <trkpt lat="45.666" lon="5.96064">
        <ele>1084</ele>
        <time>2012-04-22T10:49:50.000Z</time>
      </trkpt>
      <trkpt lat="45.66604" lon="5.9607">
        <ele>1085</ele>
        <time>2012-04-22T10:49:55.000Z</time>
      </trkpt>
      <trkpt lat="45.66608" lon="5.96073">
        <ele>1085</ele>
        <time>2012-04-22T10:49:59.000Z</time>
      </trkpt>
      <trkpt lat="45.66612" lon="5.96077">
        <ele>1085</ele>
        <time>2012-04-22T10:50:03.000Z</time>
      </trkpt>
      <trkpt lat="45.66616" lon="5.96083">
        <ele>1085</ele>
        <time>2012-04-22T10:50:07.000Z</time>
      </trkpt>
      <trkpt lat="45.66621" lon="5.96086">
        <ele>1099</ele>
        <time>2012-04-22T10:50:12.000Z</time>
      </trkpt>
      <trkpt lat="45.66624" lon="5.96092">
        <ele>1100</ele>
        <time>2012-04-22T10:50:16.000Z</time>
      </trkpt>
      <trkpt lat="45.66626" lon="5.96098">
        <ele>1100</ele>
        <time>2012-04-22T10:50:20.000Z</time>
      </trkpt>
      <trkpt lat="45.66629" lon="5.96105">
        <ele>1101</ele>
        <time>2012-04-22T10:50:23.000Z</time>
      </trkpt>
      <trkpt lat="45.66631" lon="5.96111">
        <ele>1101</ele>
        <time>2012-04-22T10:50:26.000Z</time>
      </trkpt>
      <trkpt lat="45.66635" lon="5.96118">
        <ele>1102</ele>
        <time>2012-04-22T10:50:29.000Z</time>
      </trkpt>
      <trkpt lat="45.66637" lon="5.96124">
        <ele>1103</ele>
        <time>2012-04-22T10:50:32.000Z</time>
      </trkpt>
      <trkpt lat="45.66641" lon="5.96128">
        <ele>1103</ele>
        <time>2012-04-22T10:50:38.000Z</time>
      </trkpt>
      <trkpt lat="45.66644" lon="5.96133">
        <ele>1104</ele>
        <time>2012-04-22T10:50:44.000Z</time>
      </trkpt>
      <trkpt lat="45.66644" lon="5.96133">
        <ele>1104</ele>
        <time>2012-04-22T10:50:44.000Z</time>
      </trkpt>
      <trkpt lat="45.66644" lon="5.96133">
        <ele>1104</ele>
        <time>2012-04-22T10:50:45.000Z</time>
      </trkpt>
      <trkpt lat="45.66646" lon="5.96139">
        <ele>1104</ele>
        <time>2012-04-22T10:51:02.000Z</time>
      </trkpt>
      <trkpt lat="45.66646" lon="5.96139">
        <ele>1104</ele>
        <time>2012-04-22T10:51:02.000Z</time>
      </trkpt>
      <trkpt lat="45.66646" lon="5.96139">
        <ele>1104</ele>
        <time>2012-04-22T10:51:03.000Z</time>
      </trkpt>
      <trkpt lat="45.66641" lon="5.96137">
        <ele>1104</ele>
        <time>2012-04-22T10:51:14.000Z</time>
      </trkpt>
      <trkpt lat="45.66637" lon="5.96133">
        <ele>1104</ele>
        <time>2012-04-22T10:51:18.000Z</time>
      </trkpt>
      <trkpt lat="45.6663" lon="5.96131">
        <ele>1105</ele>
        <time>2012-04-22T10:51:21.000Z</time>
      </trkpt>
      <trkpt lat="45.66624" lon="5.96128">
        <ele>1105</ele>
        <time>2012-04-22T10:51:24.000Z</time>
      </trkpt>
      <trkpt lat="45.66618" lon="5.96128">
        <ele>1105</ele>
        <time>2012-04-22T10:51:26.000Z</time>
      </trkpt>
      <trkpt lat="45.66613" lon="5.96128">
        <ele>1106</ele>
        <time>2012-04-22T10:51:29.000Z</time>
      </trkpt>
      <trkpt lat="45.66607" lon="5.96131">
        <ele>1107</ele>
        <time>2012-04-22T10:51:32.000Z</time>
      </trkpt>
      <trkpt lat="45.66601" lon="5.96135">
        <ele>1108</ele>
        <time>2012-04-22T10:51:35.000Z</time>
      </trkpt>
      <trkpt lat="45.66596" lon="5.96137">
        <ele>1110</ele>
        <time>2012-04-22T10:51:40.000Z</time>
      </trkpt>
      <trkpt lat="45.66591" lon="5.96137">
        <ele>1110</ele>
        <time>2012-04-22T10:51:48.000Z</time>
      </trkpt>
      <trkpt lat="45.66591" lon="5.96137">
        <ele>1110</ele>
        <time>2012-04-22T10:51:48.000Z</time>
      </trkpt>
      <trkpt lat="45.66591" lon="5.96137">
        <ele>1110</ele>
        <time>2012-04-22T10:51:53.000Z</time>
      </trkpt>
      <trkpt lat="45.66586" lon="5.96133">
        <ele>1109</ele>
        <time>2012-04-22T10:52:05.000Z</time>
      </trkpt>
      <trkpt lat="45.66586" lon="5.96133">
        <ele>1109</ele>
        <time>2012-04-22T10:52:05.000Z</time>
      </trkpt>
      <trkpt lat="45.66586" lon="5.96133">
        <ele>1109</ele>
        <time>2012-04-22T10:52:07.000Z</time>
      </trkpt>
      <trkpt lat="45.6658" lon="5.96131">
        <ele>1111</ele>
        <time>2012-04-22T10:52:17.000Z</time>
      </trkpt>
      <trkpt lat="45.66576" lon="5.96128">
        <ele>1110</ele>
        <time>2012-04-22T10:52:21.000Z</time>
      </trkpt>
      <trkpt lat="45.6657" lon="5.96126">
        <ele>1109</ele>
        <time>2012-04-22T10:52:28.000Z</time>
      </trkpt>
      <trkpt lat="45.6657" lon="5.96126">
        <ele>1109</ele>
        <time>2012-04-22T10:52:28.000Z</time>
      </trkpt>
      <trkpt lat="45.6657" lon="5.96126">
        <ele>1109</ele>
        <time>2012-04-22T10:52:39.000Z</time>
      </trkpt>
      <trkpt lat="45.66574" lon="5.96128">
        <ele>1110</ele>
        <time>2012-04-22T10:52:56.000Z</time>
      </trkpt>
      <trkpt lat="45.66574" lon="5.96128">
        <ele>1110</ele>
        <time>2012-04-22T10:52:56.000Z</time>
      </trkpt>
      <trkpt lat="45.66574" lon="5.96128">
        <ele>1110</ele>
        <time>2012-04-22T10:52:57.000Z</time>
      </trkpt>
      <trkpt lat="45.66574" lon="5.96122">
        <ele>1108</ele>
        <time>2012-04-22T10:53:11.000Z</time>
      </trkpt>
      <trkpt lat="45.66574" lon="5.96122">
        <ele>1108</ele>
        <time>2012-04-22T10:53:11.000Z</time>
      </trkpt>
      <trkpt lat="45.66574" lon="5.96122">
        <ele>1108</ele>
        <time>2012-04-22T10:53:13.000Z</time>
      </trkpt>
      <trkpt lat="45.66569" lon="5.96124">
        <ele>1109</ele>
        <time>2012-04-22T10:53:21.000Z</time>
      </trkpt>
      <trkpt lat="45.66565" lon="5.96126">
        <ele>1109</ele>
        <time>2012-04-22T10:53:31.000Z</time>
      </trkpt>
      <trkpt lat="45.66562" lon="5.96133">
        <ele>1111</ele>
        <time>2012-04-22T10:53:36.000Z</time>
      </trkpt>
      <trkpt lat="45.66558" lon="5.96139">
        <ele>1112</ele>
        <time>2012-04-22T10:53:42.000Z</time>
      </trkpt>
      <trkpt lat="45.66558" lon="5.96139">
        <ele>1112</ele>
        <time>2012-04-22T10:53:42.000Z</time>
      </trkpt>
      <trkpt lat="45.66558" lon="5.96139">
        <ele>1112</ele>
        <time>2012-04-22T10:53:43.000Z</time>
      </trkpt>
      <trkpt lat="45.66556" lon="5.96146">
        <ele>1114</ele>
        <time>2012-04-22T10:53:48.000Z</time>
      </trkpt>
      <trkpt lat="45.66554" lon="5.96152">
        <ele>1114</ele>
        <time>2012-04-22T10:53:55.000Z</time>
      </trkpt>
      <trkpt lat="45.66554" lon="5.96152">
        <ele>1114</ele>
        <time>2012-04-22T10:53:55.000Z</time>
      </trkpt>
      <trkpt lat="45.66554" lon="5.96152">
        <ele>1114</ele>
        <time>2012-04-22T10:53:56.000Z</time>
      </trkpt>
      <trkpt lat="45.66553" lon="5.96158">
        <ele>1115</ele>
        <time>2012-04-22T10:54:01.000Z</time>
      </trkpt>
      <trkpt lat="45.66553" lon="5.96158">
        <ele>1115</ele>
        <time>2012-04-22T10:54:01.000Z</time>
      </trkpt>
      <trkpt lat="45.66553" lon="5.96158">
        <ele>1115</ele>
        <time>2012-04-22T10:54:03.000Z</time>
      </trkpt>
      <trkpt lat="45.66553" lon="5.96165">
        <ele>1116</ele>
        <time>2012-04-22T10:54:11.000Z</time>
      </trkpt>
      <trkpt lat="45.66549" lon="5.96171">
        <ele>1136</ele>
        <time>2012-04-22T10:54:26.000Z</time>
      </trkpt>
      <trkpt lat="45.66544" lon="5.96176">
        <ele>1136</ele>
        <time>2012-04-22T10:54:31.000Z</time>
      </trkpt>
      <trkpt lat="45.6654" lon="5.9618">
        <ele>1136</ele>
        <time>2012-04-22T10:54:37.000Z</time>
      </trkpt>
      <trkpt lat="45.66537" lon="5.96186">
        <ele>1137</ele>
        <time>2012-04-22T10:54:43.000Z</time>
      </trkpt>
      <trkpt lat="45.66533" lon="5.96191">
        <ele>1137</ele>
        <time>2012-04-22T10:54:48.000Z</time>
      </trkpt>
      <trkpt lat="45.66528" lon="5.96197">
        <ele>1138</ele>
        <time>2012-04-22T10:54:53.000Z</time>
      </trkpt>
      <trkpt lat="45.66523" lon="5.96201">
        <ele>1138</ele>
        <time>2012-04-22T10:54:57.000Z</time>
      </trkpt>
      <trkpt lat="45.66518" lon="5.96206">
        <ele>1139</ele>
        <time>2012-04-22T10:55:01.000Z</time>
      </trkpt>
      <trkpt lat="45.66512" lon="5.9621">
        <ele>1140</ele>
        <time>2012-04-22T10:55:05.000Z</time>
      </trkpt>
      <trkpt lat="45.66508" lon="5.96214">
        <ele>1140</ele>
        <time>2012-04-22T10:55:09.000Z</time>
      </trkpt>
      <trkpt lat="45.66505" lon="5.96221">
        <ele>1142</ele>
        <time>2012-04-22T10:55:14.000Z</time>
      </trkpt>
      <trkpt lat="45.66504" lon="5.96227">
        <ele>1143</ele>
        <time>2012-04-22T10:55:18.000Z</time>
      </trkpt>
      <trkpt lat="45.66502" lon="5.96234">
        <ele>1145</ele>
        <time>2012-04-22T10:55:23.000Z</time>
      </trkpt>
      <trkpt lat="45.66498" lon="5.9624">
        <ele>1137</ele>
        <time>2012-04-22T10:55:28.000Z</time>
      </trkpt>
      <trkpt lat="45.66496" lon="5.96246">
        <ele>1141</ele>
        <time>2012-04-22T10:55:32.000Z</time>
      </trkpt>
      <trkpt lat="45.66496" lon="5.96246">
        <ele>1141</ele>
        <time>2012-04-22T10:55:32.000Z</time>
      </trkpt>
      <trkpt lat="45.66496" lon="5.96246">
        <ele>1141</ele>
        <time>2012-04-22T10:55:33.000Z</time>
      </trkpt>
      <trkpt lat="45.66494" lon="5.96253">
        <ele>1146</ele>
        <time>2012-04-22T10:55:37.000Z</time>
      </trkpt>
      <trkpt lat="45.66492" lon="5.96259">
        <ele>1145</ele>
        <time>2012-04-22T10:55:41.000Z</time>
      </trkpt>
      <trkpt lat="45.66491" lon="5.96266">
        <ele>1144</ele>
        <time>2012-04-22T10:55:44.000Z</time>
      </trkpt>
      <trkpt lat="45.6649" lon="5.96272">
        <ele>1144</ele>
        <time>2012-04-22T10:55:48.000Z</time>
      </trkpt>
      <trkpt lat="45.66489" lon="5.96279">
        <ele>1144</ele>
        <time>2012-04-22T10:55:52.000Z</time>
      </trkpt>
      <trkpt lat="45.66486" lon="5.96285">
        <ele>1144</ele>
        <time>2012-04-22T10:55:55.000Z</time>
      </trkpt>
      <trkpt lat="45.66486" lon="5.96285">
        <ele>1144</ele>
        <time>2012-04-22T10:55:55.000Z</time>
      </trkpt>
      <trkpt lat="45.66486" lon="5.96285">
        <ele>1144</ele>
        <time>2012-04-22T10:55:56.000Z</time>
      </trkpt>
      <trkpt lat="45.66486" lon="5.96292">
        <ele>1146</ele>
        <time>2012-04-22T10:55:59.000Z</time>
      </trkpt>
      <trkpt lat="45.66483" lon="5.96298">
        <ele>1147</ele>
        <time>2012-04-22T10:56:03.000Z</time>
      </trkpt>
      <trkpt lat="45.66481" lon="5.96304">
        <ele>1148</ele>
        <time>2012-04-22T10:56:07.000Z</time>
      </trkpt>
      <trkpt lat="45.6648" lon="5.96311">
        <ele>1150</ele>
        <time>2012-04-22T10:56:11.000Z</time>
      </trkpt>
      <trkpt lat="45.66478" lon="5.96317">
        <ele>1151</ele>
        <time>2012-04-22T10:56:15.000Z</time>
      </trkpt>
      <trkpt lat="45.66476" lon="5.96324">
        <ele>1152</ele>
        <time>2012-04-22T10:56:19.000Z</time>
      </trkpt>
      <trkpt lat="45.66475" lon="5.9633">
        <ele>1152</ele>
        <time>2012-04-22T10:56:23.000Z</time>
      </trkpt>
      <trkpt lat="45.66472" lon="5.96337">
        <ele>1171</ele>
        <time>2012-04-22T10:56:28.000Z</time>
      </trkpt>
      <trkpt lat="45.66467" lon="5.96343">
        <ele>1171</ele>
        <time>2012-04-22T10:56:33.000Z</time>
      </trkpt>
      <trkpt lat="45.66464" lon="5.96349">
        <ele>1170</ele>
        <time>2012-04-22T10:56:39.000Z</time>
      </trkpt>
      <trkpt lat="45.66461" lon="5.96356">
        <ele>1171</ele>
        <time>2012-04-22T10:56:44.000Z</time>
      </trkpt>
      <trkpt lat="45.66461" lon="5.96356">
        <ele>1171</ele>
        <time>2012-04-22T10:56:44.000Z</time>
      </trkpt>
      <trkpt lat="45.66461" lon="5.96356">
        <ele>1171</ele>
        <time>2012-04-22T10:56:45.000Z</time>
      </trkpt>
      <trkpt lat="45.66459" lon="5.96362">
        <ele>1171</ele>
        <time>2012-04-22T10:56:48.000Z</time>
      </trkpt>
      <trkpt lat="45.66459" lon="5.96362">
        <ele>1171</ele>
        <time>2012-04-22T10:56:48.000Z</time>
      </trkpt>
      <trkpt lat="45.66459" lon="5.96362">
        <ele>1171</ele>
        <time>2012-04-22T10:56:49.000Z</time>
      </trkpt>
      <trkpt lat="45.6646" lon="5.96369">
        <ele>1173</ele>
        <time>2012-04-22T10:56:54.000Z</time>
      </trkpt>
      <trkpt lat="45.66463" lon="5.96373">
        <ele>1175</ele>
        <time>2012-04-22T10:57:00.000Z</time>
      </trkpt>
      <trkpt lat="45.66468" lon="5.96371">
        <ele>1176</ele>
        <time>2012-04-22T10:57:06.000Z</time>
      </trkpt>
      <trkpt lat="45.66468" lon="5.96371">
        <ele>1176</ele>
        <time>2012-04-22T10:57:06.000Z</time>
      </trkpt>
      <trkpt lat="45.66468" lon="5.96371">
        <ele>1176</ele>
        <time>2012-04-22T10:57:07.000Z</time>
      </trkpt>
      <trkpt lat="45.66472" lon="5.96364">
        <ele>1175</ele>
        <time>2012-04-22T10:57:12.000Z</time>
      </trkpt>
      <trkpt lat="45.66476" lon="5.96358">
        <ele>1175</ele>
        <time>2012-04-22T10:57:20.000Z</time>
      </trkpt>
      <trkpt lat="45.66476" lon="5.96358">
        <ele>1175</ele>
        <time>2012-04-22T10:57:20.000Z</time>
      </trkpt>
      <trkpt lat="45.66476" lon="5.96358">
        <ele>1175</ele>
        <time>2012-04-22T10:57:22.000Z</time>
      </trkpt>
      <trkpt lat="45.66479" lon="5.96352">
        <ele>1174</ele>
        <time>2012-04-22T10:57:27.000Z</time>
      </trkpt>
      <trkpt lat="45.66479" lon="5.96352">
        <ele>1174</ele>
        <time>2012-04-22T10:57:27.000Z</time>
      </trkpt>
      <trkpt lat="45.66479" lon="5.96352">
        <ele>1174</ele>
        <time>2012-04-22T10:57:28.000Z</time>
      </trkpt>
      <trkpt lat="45.66482" lon="5.96345">
        <ele>1174</ele>
        <time>2012-04-22T10:57:32.000Z</time>
      </trkpt>
      <trkpt lat="45.66482" lon="5.96345">
        <ele>1174</ele>
        <time>2012-04-22T10:57:32.000Z</time>
      </trkpt>
      <trkpt lat="45.66482" lon="5.96345">
        <ele>1174</ele>
        <time>2012-04-22T10:57:33.000Z</time>
      </trkpt>
      <trkpt lat="45.66486" lon="5.96339">
        <ele>1175</ele>
        <time>2012-04-22T10:57:37.000Z</time>
      </trkpt>
      <trkpt lat="45.66489" lon="5.96332">
        <ele>1163</ele>
        <time>2012-04-22T10:57:41.000Z</time>
      </trkpt>
      <trkpt lat="45.66491" lon="5.96326">
        <ele>1162</ele>
        <time>2012-04-22T10:57:44.000Z</time>
      </trkpt>
      <trkpt lat="45.66495" lon="5.96324">
        <ele>1163</ele>
        <time>2012-04-22T10:57:48.000Z</time>
      </trkpt>
      <trkpt lat="45.66499" lon="5.96322">
        <ele>1163</ele>
        <time>2012-04-22T10:57:52.000Z</time>
      </trkpt>
      <trkpt lat="45.66504" lon="5.96317">
        <ele>1174</ele>
        <time>2012-04-22T10:57:57.000Z</time>
      </trkpt>
      <trkpt lat="45.66508" lon="5.96311">
        <ele>1173</ele>
        <time>2012-04-22T10:58:01.000Z</time>
      </trkpt>
      <trkpt lat="45.66512" lon="5.96306">
        <ele>1173</ele>
        <time>2012-04-22T10:58:06.000Z</time>
      </trkpt>
      <trkpt lat="45.66517" lon="5.96304">
        <ele>1173</ele>
        <time>2012-04-22T10:58:10.000Z</time>
      </trkpt>
      <trkpt lat="45.66523" lon="5.96304">
        <ele>1173</ele>
        <time>2012-04-22T10:58:14.000Z</time>
      </trkpt>
      <trkpt lat="45.6653" lon="5.96302">
        <ele>1173</ele>
        <time>2012-04-22T10:58:16.000Z</time>
      </trkpt>
      <trkpt lat="45.66535" lon="5.96302">
        <ele>1174</ele>
        <time>2012-04-22T10:58:18.000Z</time>
      </trkpt>
      <trkpt lat="45.6654" lon="5.96302">
        <ele>1175</ele>
        <time>2012-04-22T10:58:22.000Z</time>
      </trkpt>
      <trkpt lat="45.6654" lon="5.96309">
        <ele>1176</ele>
        <time>2012-04-22T10:58:28.000Z</time>
      </trkpt>
      <trkpt lat="45.6654" lon="5.96309">
        <ele>1176</ele>
        <time>2012-04-22T10:58:28.000Z</time>
      </trkpt>
      <trkpt lat="45.6654" lon="5.96309">
        <ele>1176</ele>
        <time>2012-04-22T10:58:29.000Z</time>
      </trkpt>
      <trkpt lat="45.66537" lon="5.96315">
        <ele>1176</ele>
        <time>2012-04-22T10:58:35.000Z</time>
      </trkpt>
      <trkpt lat="45.66533" lon="5.96317">
        <ele>1176</ele>
        <time>2012-04-22T10:58:39.000Z</time>
      </trkpt>
      <trkpt lat="45.66533" lon="5.96317">
        <ele>1176</ele>
        <time>2012-04-22T10:58:39.000Z</time>
      </trkpt>
      <trkpt lat="45.66533" lon="5.96317">
        <ele>1176</ele>
        <time>2012-04-22T10:58:40.000Z</time>
      </trkpt>
      <trkpt lat="45.66528" lon="5.96322">
        <ele>1176</ele>
        <time>2012-04-22T10:58:45.000Z</time>
      </trkpt>
      <trkpt lat="45.66524" lon="5.96328">
        <ele>1176</ele>
        <time>2012-04-22T10:58:50.000Z</time>
      </trkpt>
      <trkpt lat="45.66524" lon="5.96328">
        <ele>1176</ele>
        <time>2012-04-22T10:58:50.000Z</time>
      </trkpt>
      <trkpt lat="45.66524" lon="5.96328">
        <ele>1176</ele>
        <time>2012-04-22T10:58:51.000Z</time>
      </trkpt>
      <trkpt lat="45.6652" lon="5.96334">
        <ele>1194</ele>
        <time>2012-04-22T10:58:55.000Z</time>
      </trkpt>
      <trkpt lat="45.6652" lon="5.96334">
        <ele>1194</ele>
        <time>2012-04-22T10:58:55.000Z</time>
      </trkpt>
      <trkpt lat="45.6652" lon="5.96334">
        <ele>1194</ele>
        <time>2012-04-22T10:58:56.000Z</time>
      </trkpt>
      <trkpt lat="45.66516" lon="5.96339">
        <ele>1192</ele>
        <time>2012-04-22T10:59:00.000Z</time>
      </trkpt>
      <trkpt lat="45.66511" lon="5.96345">
        <ele>1192</ele>
        <time>2012-04-22T10:59:04.000Z</time>
      </trkpt>
      <trkpt lat="45.66511" lon="5.96345">
        <ele>1192</ele>
        <time>2012-04-22T10:59:04.000Z</time>
      </trkpt>
      <trkpt lat="45.66511" lon="5.96345">
        <ele>1192</ele>
        <time>2012-04-22T10:59:05.000Z</time>
      </trkpt>
      <trkpt lat="45.66507" lon="5.96352">
        <ele>1194</ele>
        <time>2012-04-22T10:59:10.000Z</time>
      </trkpt>
      <trkpt lat="45.66505" lon="5.96358">
        <ele>1197</ele>
        <time>2012-04-22T10:59:14.000Z</time>
      </trkpt>
      <trkpt lat="45.66503" lon="5.96364">
        <ele>1200</ele>
        <time>2012-04-22T10:59:18.000Z</time>
      </trkpt>
      <trkpt lat="45.66499" lon="5.96371">
        <ele>1181</ele>
        <time>2012-04-22T10:59:23.000Z</time>
      </trkpt>
      <trkpt lat="45.66498" lon="5.96377">
        <ele>1183</ele>
        <time>2012-04-22T10:59:27.000Z</time>
      </trkpt>
      <trkpt lat="45.66494" lon="5.96382">
        <ele>1185</ele>
        <time>2012-04-22T10:59:31.000Z</time>
      </trkpt>
      <trkpt lat="45.6649" lon="5.96384">
        <ele>1185</ele>
        <time>2012-04-22T10:59:34.000Z</time>
      </trkpt>
      <trkpt lat="45.66486" lon="5.96388">
        <ele>1186</ele>
        <time>2012-04-22T10:59:38.000Z</time>
      </trkpt>
      <trkpt lat="45.66482" lon="5.96394">
        <ele>1187</ele>
        <time>2012-04-22T10:59:42.000Z</time>
      </trkpt>
      <trkpt lat="45.66478" lon="5.96401">
        <ele>1188</ele>
        <time>2012-04-22T10:59:47.000Z</time>
      </trkpt>
      <trkpt lat="45.66475" lon="5.96407">
        <ele>1188</ele>
        <time>2012-04-22T10:59:51.000Z</time>
      </trkpt>
      <trkpt lat="45.66475" lon="5.96407">
        <ele>1188</ele>
        <time>2012-04-22T10:59:51.000Z</time>
      </trkpt>
      <trkpt lat="45.66475" lon="5.96407">
        <ele>1188</ele>
        <time>2012-04-22T10:59:52.000Z</time>
      </trkpt>
      <trkpt lat="45.66473" lon="5.96414">
        <ele>1189</ele>
        <time>2012-04-22T10:59:55.000Z</time>
      </trkpt>
      <trkpt lat="45.66469" lon="5.9642">
        <ele>1214</ele>
        <time>2012-04-22T11:00:00.000Z</time>
      </trkpt>
      <trkpt lat="45.66465" lon="5.96424">
        <ele>1213</ele>
        <time>2012-04-22T11:00:04.000Z</time>
      </trkpt>
      <trkpt lat="45.66461" lon="5.96429">
        <ele>1212</ele>
        <time>2012-04-22T11:00:08.000Z</time>
      </trkpt>
      <trkpt lat="45.66456" lon="5.96433">
        <ele>1211</ele>
        <time>2012-04-22T11:00:11.000Z</time>
      </trkpt>
      <trkpt lat="45.66452" lon="5.96435">
        <ele>1210</ele>
        <time>2012-04-22T11:00:14.000Z</time>
      </trkpt>
      <trkpt lat="45.66448" lon="5.9644">
        <ele>1210</ele>
        <time>2012-04-22T11:00:18.000Z</time>
      </trkpt>
      <trkpt lat="45.66444" lon="5.96446">
        <ele>1211</ele>
        <time>2012-04-22T11:00:23.000Z</time>
      </trkpt>
      <trkpt lat="45.66439" lon="5.96452">
        <ele>1212</ele>
        <time>2012-04-22T11:00:29.000Z</time>
      </trkpt>
      <trkpt lat="45.66436" lon="5.96459">
        <ele>1214</ele>
        <time>2012-04-22T11:00:35.000Z</time>
      </trkpt>
      <trkpt lat="45.66433" lon="5.96465">
        <ele>1215</ele>
        <time>2012-04-22T11:00:41.000Z</time>
      </trkpt>
      <trkpt lat="45.6643" lon="5.96472">
        <ele>1217</ele>
        <time>2012-04-22T11:00:47.000Z</time>
      </trkpt>
      <trkpt lat="45.66429" lon="5.96478">
        <ele>1218</ele>
        <time>2012-04-22T11:00:50.000Z</time>
      </trkpt>
      <trkpt lat="45.66428" lon="5.96485">
        <ele>1220</ele>
        <time>2012-04-22T11:00:52.000Z</time>
      </trkpt>
      <trkpt lat="45.66426" lon="5.96491">
        <ele>1220</ele>
        <time>2012-04-22T11:00:55.000Z</time>
      </trkpt>
      <trkpt lat="45.66425" lon="5.96498">
        <ele>1221</ele>
        <time>2012-04-22T11:00:57.000Z</time>
      </trkpt>
      <trkpt lat="45.66422" lon="5.96504">
        <ele>1236</ele>
        <time>2012-04-22T11:01:01.000Z</time>
      </trkpt>
      <trkpt lat="45.66422" lon="5.96504">
        <ele>1236</ele>
        <time>2012-04-22T11:01:01.000Z</time>
      </trkpt>
      <trkpt lat="45.66422" lon="5.96504">
        <ele>1236</ele>
        <time>2012-04-22T11:01:02.000Z</time>
      </trkpt>
      <trkpt lat="45.66419" lon="5.9651">
        <ele>1243</ele>
        <time>2012-04-22T11:01:06.000Z</time>
      </trkpt>
      <trkpt lat="45.66415" lon="5.96515">
        <ele>1229</ele>
        <time>2012-04-22T11:01:11.000Z</time>
      </trkpt>
      <trkpt lat="45.6641" lon="5.96519">
        <ele>1231</ele>
        <time>2012-04-22T11:01:15.000Z</time>
      </trkpt>
      <trkpt lat="45.6641" lon="5.96519">
        <ele>1231</ele>
        <time>2012-04-22T11:01:15.000Z</time>
      </trkpt>
      <trkpt lat="45.6641" lon="5.96519">
        <ele>1231</ele>
        <time>2012-04-22T11:01:16.000Z</time>
      </trkpt>
      <trkpt lat="45.66406" lon="5.96523">
        <ele>1233</ele>
        <time>2012-04-22T11:01:21.000Z</time>
      </trkpt>
      <trkpt lat="45.66402" lon="5.96525">
        <ele>1233</ele>
        <time>2012-04-22T11:01:25.000Z</time>
      </trkpt>
      <trkpt lat="45.66398" lon="5.96528">
        <ele>1234</ele>
        <time>2012-04-22T11:01:29.000Z</time>
      </trkpt>
      <trkpt lat="45.66393" lon="5.96532">
        <ele>1235</ele>
        <time>2012-04-22T11:01:33.000Z</time>
      </trkpt>
      <trkpt lat="45.66389" lon="5.96536">
        <ele>1236</ele>
        <time>2012-04-22T11:01:36.000Z</time>
      </trkpt>
      <trkpt lat="45.66385" lon="5.96538">
        <ele>1236</ele>
        <time>2012-04-22T11:01:39.000Z</time>
      </trkpt>
      <trkpt lat="45.6638" lon="5.96542">
        <ele>1237</ele>
        <time>2012-04-22T11:01:42.000Z</time>
      </trkpt>
      <trkpt lat="45.66376" lon="5.96547">
        <ele>1238</ele>
        <time>2012-04-22T11:01:47.000Z</time>
      </trkpt>
      <trkpt lat="45.66372" lon="5.96551">
        <ele>1238</ele>
        <time>2012-04-22T11:01:52.000Z</time>
      </trkpt>
      <trkpt lat="45.66372" lon="5.96551">
        <ele>1238</ele>
        <time>2012-04-22T11:01:52.000Z</time>
      </trkpt>
      <trkpt lat="45.66372" lon="5.96551">
        <ele>1238</ele>
        <time>2012-04-22T11:01:53.000Z</time>
      </trkpt>
      <trkpt lat="45.66366" lon="5.96555">
        <ele>1238</ele>
        <time>2012-04-22T11:01:58.000Z</time>
      </trkpt>
      <trkpt lat="45.66362" lon="5.96558">
        <ele>1238</ele>
        <time>2012-04-22T11:02:01.000Z</time>
      </trkpt>
      <trkpt lat="45.66358" lon="5.96562">
        <ele>1238</ele>
        <time>2012-04-22T11:02:04.000Z</time>
      </trkpt>
      <trkpt lat="45.66352" lon="5.96564">
        <ele>1238</ele>
        <time>2012-04-22T11:02:08.000Z</time>
      </trkpt>
      <trkpt lat="45.66347" lon="5.96566">
        <ele>1238</ele>
        <time>2012-04-22T11:02:15.000Z</time>
      </trkpt>
      <trkpt lat="45.66343" lon="5.9657">
        <ele>1239</ele>
        <time>2012-04-22T11:02:19.000Z</time>
      </trkpt>
      <trkpt lat="45.66338" lon="5.96575">
        <ele>1240</ele>
        <time>2012-04-22T11:02:23.000Z</time>
      </trkpt>
      <trkpt lat="45.66334" lon="5.96579">
        <ele>1241</ele>
        <time>2012-04-22T11:02:28.000Z</time>
      </trkpt>
      <trkpt lat="45.66332" lon="5.96586">
        <ele>1245</ele>
        <time>2012-04-22T11:02:32.000Z</time>
      </trkpt>
      <trkpt lat="45.66332" lon="5.96586">
        <ele>1245</ele>
        <time>2012-04-22T11:02:32.000Z</time>
      </trkpt>
      <trkpt lat="45.66332" lon="5.96586">
        <ele>1245</ele>
        <time>2012-04-22T11:02:33.000Z</time>
      </trkpt>
      <trkpt lat="45.66328" lon="5.96592">
        <ele>1251</ele>
        <time>2012-04-22T11:02:38.000Z</time>
      </trkpt>
      <trkpt lat="45.66328" lon="5.96592">
        <ele>1251</ele>
        <time>2012-04-22T11:02:38.000Z</time>
      </trkpt>
      <trkpt lat="45.66328" lon="5.96592">
        <ele>1251</ele>
        <time>2012-04-22T11:02:39.000Z</time>
      </trkpt>
      <trkpt lat="45.66326" lon="5.96598">
        <ele>1256</ele>
        <time>2012-04-22T11:02:43.000Z</time>
      </trkpt>
      <trkpt lat="45.66322" lon="5.96605">
        <ele>1260</ele>
        <time>2012-04-22T11:02:47.000Z</time>
      </trkpt>
      <trkpt lat="45.66322" lon="5.96611">
        <ele>1264</ele>
        <time>2012-04-22T11:02:53.000Z</time>
      </trkpt>
      <trkpt lat="45.66327" lon="5.96613">
        <ele>1265</ele>
        <time>2012-04-22T11:03:00.000Z</time>
      </trkpt>
      <trkpt lat="45.66327" lon="5.96613">
        <ele>1265</ele>
        <time>2012-04-22T11:03:00.000Z</time>
      </trkpt>
      <trkpt lat="45.66327" lon="5.96613">
        <ele>1265</ele>
        <time>2012-04-22T11:03:01.000Z</time>
      </trkpt>
      <trkpt lat="45.66329" lon="5.9662">
        <ele>1270</ele>
        <time>2012-04-22T11:03:14.000Z</time>
      </trkpt>
      <trkpt lat="45.66329" lon="5.9662">
        <ele>1270</ele>
        <time>2012-04-22T11:03:14.000Z</time>
      </trkpt>
      <trkpt lat="45.66329" lon="5.9662">
        <ele>1270</ele>
        <time>2012-04-22T11:03:15.000Z</time>
      </trkpt>
      <trkpt lat="45.66327" lon="5.96626">
        <ele>1275</ele>
        <time>2012-04-22T11:03:21.000Z</time>
      </trkpt>
      <trkpt lat="45.66322" lon="5.9663">
        <ele>1277</ele>
        <time>2012-04-22T11:03:27.000Z</time>
      </trkpt>
      <trkpt lat="45.66324" lon="5.96637">
        <ele>1283</ele>
        <time>2012-04-22T11:03:47.000Z</time>
      </trkpt>
      <trkpt lat="45.66324" lon="5.96637">
        <ele>1283</ele>
        <time>2012-04-22T11:03:47.000Z</time>
      </trkpt>
      <trkpt lat="45.66324" lon="5.96637">
        <ele>1283</ele>
        <time>2012-04-22T11:03:48.000Z</time>
      </trkpt>
      <trkpt lat="45.66319" lon="5.96637">
        <ele>1282</ele>
        <time>2012-04-22T11:03:59.000Z</time>
      </trkpt>
      <trkpt lat="45.66315" lon="5.96639">
        <ele>1282</ele>
        <time>2012-04-22T11:04:08.000Z</time>
      </trkpt>
      <trkpt lat="45.66311" lon="5.96646">
        <ele>1285</ele>
        <time>2012-04-22T11:04:12.000Z</time>
      </trkpt>
      <trkpt lat="45.66311" lon="5.96646">
        <ele>1285</ele>
        <time>2012-04-22T11:04:12.000Z</time>
      </trkpt>
      <trkpt lat="45.66311" lon="5.96646">
        <ele>1285</ele>
        <time>2012-04-22T11:04:13.000Z</time>
      </trkpt>
      <trkpt lat="45.66306" lon="5.9665">
        <ele>1284</ele>
        <time>2012-04-22T11:04:18.000Z</time>
      </trkpt>
      <trkpt lat="45.66302" lon="5.96652">
        <ele>1283</ele>
        <time>2012-04-22T11:04:21.000Z</time>
      </trkpt>
      <trkpt lat="45.66297" lon="5.96656">
        <ele>1281</ele>
        <time>2012-04-22T11:04:25.000Z</time>
      </trkpt>
      <trkpt lat="45.66291" lon="5.96658">
        <ele>1278</ele>
        <time>2012-04-22T11:04:30.000Z</time>
      </trkpt>
      <trkpt lat="45.66287" lon="5.96661">
        <ele>1277</ele>
        <time>2012-04-22T11:04:34.000Z</time>
      </trkpt>
      <trkpt lat="45.66283" lon="5.96663">
        <ele>1276</ele>
        <time>2012-04-22T11:04:44.000Z</time>
      </trkpt>
      <trkpt lat="45.66283" lon="5.96663">
        <ele>1276</ele>
        <time>2012-04-22T11:04:44.000Z</time>
      </trkpt>
      <trkpt lat="45.66283" lon="5.96663">
        <ele>1276</ele>
        <time>2012-04-22T11:04:45.000Z</time>
      </trkpt>
      <trkpt lat="45.66278" lon="5.96665">
        <ele>1275</ele>
        <time>2012-04-22T11:04:54.000Z</time>
      </trkpt>
      <trkpt lat="45.66274" lon="5.96669">
        <ele>1320</ele>
        <time>2012-04-22T11:04:59.000Z</time>
      </trkpt>
      <trkpt lat="45.6627" lon="5.96673">
        <ele>1317</ele>
        <time>2012-04-22T11:05:05.000Z</time>
      </trkpt>
      <trkpt lat="45.66266" lon="5.96678">
        <ele>1316</ele>
        <time>2012-04-22T11:05:11.000Z</time>
      </trkpt>
      <trkpt lat="45.66266" lon="5.96678">
        <ele>1316</ele>
        <time>2012-04-22T11:05:11.000Z</time>
      </trkpt>
      <trkpt lat="45.66266" lon="5.96678">
        <ele>1316</ele>
        <time>2012-04-22T11:05:12.000Z</time>
      </trkpt>
      <trkpt lat="45.66261" lon="5.96682">
        <ele>1315</ele>
        <time>2012-04-22T11:05:17.000Z</time>
      </trkpt>
      <trkpt lat="45.66257" lon="5.96686">
        <ele>1318</ele>
        <time>2012-04-22T11:05:21.000Z</time>
      </trkpt>
      <trkpt lat="45.66261" lon="5.96688">
        <ele>1323</ele>
        <time>2012-04-22T11:05:48.000Z</time>
      </trkpt>
      <trkpt lat="45.66267" lon="5.96688">
        <ele>1327</ele>
        <time>2012-04-22T11:05:54.000Z</time>
      </trkpt>
      <trkpt lat="45.66272" lon="5.96688">
        <ele>1330</ele>
        <time>2012-04-22T11:06:00.000Z</time>
      </trkpt>
      <trkpt lat="45.66275" lon="5.96682">
        <ele>1328</ele>
        <time>2012-04-22T11:06:11.000Z</time>
      </trkpt>
      <trkpt lat="45.6628" lon="5.9668">
        <ele>1330</ele>
        <time>2012-04-22T11:06:16.000Z</time>
      </trkpt>
      <trkpt lat="45.66284" lon="5.96678">
        <ele>1332</ele>
        <time>2012-04-22T11:06:19.000Z</time>
      </trkpt>
      <trkpt lat="45.66288" lon="5.96676">
        <ele>1334</ele>
        <time>2012-04-22T11:06:25.000Z</time>
      </trkpt>
      <trkpt lat="45.66288" lon="5.96676">
        <ele>1334</ele>
        <time>2012-04-22T11:06:25.000Z</time>
      </trkpt>
      <trkpt lat="45.66288" lon="5.96676">
        <ele>1334</ele>
        <time>2012-04-22T11:06:26.000Z</time>
      </trkpt>
      <trkpt lat="45.66292" lon="5.96678">
        <ele>1336</ele>
        <time>2012-04-22T11:06:32.000Z</time>
      </trkpt>
      <trkpt lat="45.66297" lon="5.96682">
        <ele>1340</ele>
        <time>2012-04-22T11:06:35.000Z</time>
      </trkpt>
      <trkpt lat="45.66301" lon="5.96684">
        <ele>1342</ele>
        <time>2012-04-22T11:06:38.000Z</time>
      </trkpt>
      <trkpt lat="45.66305" lon="5.96686">
        <ele>1344</ele>
        <time>2012-04-22T11:06:41.000Z</time>
      </trkpt>
      <trkpt lat="45.6631" lon="5.96688">
        <ele>1345</ele>
        <time>2012-04-22T11:06:44.000Z</time>
      </trkpt>
      <trkpt lat="45.66314" lon="5.96691">
        <ele>1347</ele>
        <time>2012-04-22T11:06:47.000Z</time>
      </trkpt>
      <trkpt lat="45.66319" lon="5.96691">
        <ele>1348</ele>
        <time>2012-04-22T11:06:51.000Z</time>
      </trkpt>
      <trkpt lat="45.66324" lon="5.96688">
        <ele>1346</ele>
        <time>2012-04-22T11:06:55.000Z</time>
      </trkpt>
      <trkpt lat="45.66329" lon="5.96686">
        <ele>1345</ele>
        <time>2012-04-22T11:07:00.000Z</time>
      </trkpt>
      <trkpt lat="45.66333" lon="5.9668">
        <ele>1342</ele>
        <time>2012-04-22T11:07:06.000Z</time>
      </trkpt>
      <trkpt lat="45.66333" lon="5.9668">
        <ele>1342</ele>
        <time>2012-04-22T11:07:06.000Z</time>
      </trkpt>
      <trkpt lat="45.66333" lon="5.9668">
        <ele>1342</ele>
        <time>2012-04-22T11:07:07.000Z</time>
      </trkpt>
      <trkpt lat="45.66335" lon="5.96673">
        <ele>1346</ele>
        <time>2012-04-22T11:07:14.000Z</time>
      </trkpt>
      <trkpt lat="45.6634" lon="5.96671">
        <ele>1349</ele>
        <time>2012-04-22T11:07:16.000Z</time>
      </trkpt>
      <trkpt lat="45.66345" lon="5.96671">
        <ele>1355</ele>
        <time>2012-04-22T11:07:18.000Z</time>
      </trkpt>
      <trkpt lat="45.66349" lon="5.96669">
        <ele>1360</ele>
        <time>2012-04-22T11:07:21.000Z</time>
      </trkpt>
      <trkpt lat="45.66354" lon="5.96671">
        <ele>1365</ele>
        <time>2012-04-22T11:07:25.000Z</time>
      </trkpt>
      <trkpt lat="45.66355" lon="5.96678">
        <ele>1369</ele>
        <time>2012-04-22T11:07:29.000Z</time>
      </trkpt>
      <trkpt lat="45.66356" lon="5.96684">
        <ele>1373</ele>
        <time>2012-04-22T11:07:33.000Z</time>
      </trkpt>
      <trkpt lat="45.66355" lon="5.96691">
        <ele>1376</ele>
        <time>2012-04-22T11:07:37.000Z</time>
      </trkpt>
      <trkpt lat="45.66352" lon="5.96697">
        <ele>1378</ele>
        <time>2012-04-22T11:07:42.000Z</time>
      </trkpt>
      <trkpt lat="45.66349" lon="5.96704">
        <ele>1382</ele>
        <time>2012-04-22T11:07:47.000Z</time>
      </trkpt>
      <trkpt lat="45.66345" lon="5.96708">
        <ele>1384</ele>
        <time>2012-04-22T11:07:54.000Z</time>
      </trkpt>
      <trkpt lat="45.66345" lon="5.96708">
        <ele>1384</ele>
        <time>2012-04-22T11:07:54.000Z</time>
      </trkpt>
      <trkpt lat="45.66345" lon="5.96708">
        <ele>1384</ele>
        <time>2012-04-22T11:07:55.000Z</time>
      </trkpt>
      <trkpt lat="45.66341" lon="5.96712">
        <ele>1386</ele>
        <time>2012-04-22T11:08:06.000Z</time>
      </trkpt>
      <trkpt lat="45.66336" lon="5.96718">
        <ele>1389</ele>
        <time>2012-04-22T11:08:15.000Z</time>
      </trkpt>
      <trkpt lat="45.66336" lon="5.96718">
        <ele>1389</ele>
        <time>2012-04-22T11:08:15.000Z</time>
      </trkpt>
      <trkpt lat="45.66336" lon="5.96718">
        <ele>1389</ele>
        <time>2012-04-22T11:08:16.000Z</time>
      </trkpt>
      <trkpt lat="45.66332" lon="5.96723">
        <ele>1372</ele>
        <time>2012-04-22T11:08:19.000Z</time>
      </trkpt>
      <trkpt lat="45.66328" lon="5.96725">
        <ele>1374</ele>
        <time>2012-04-22T11:08:21.000Z</time>
      </trkpt>
      <trkpt lat="45.66324" lon="5.96727">
        <ele>1374</ele>
        <time>2012-04-22T11:08:23.000Z</time>
      </trkpt>
      <trkpt lat="45.66318" lon="5.96727">
        <ele>1372</ele>
        <time>2012-04-22T11:08:25.000Z</time>
      </trkpt>
      <trkpt lat="45.66313" lon="5.96729">
        <ele>1371</ele>
        <time>2012-04-22T11:08:28.000Z</time>
      </trkpt>
      <trkpt lat="45.66307" lon="5.96729">
        <ele>1369</ele>
        <time>2012-04-22T11:08:31.000Z</time>
      </trkpt>
      <trkpt lat="45.66303" lon="5.96731">
        <ele>1368</ele>
        <time>2012-04-22T11:08:34.000Z</time>
      </trkpt>
      <trkpt lat="45.66299" lon="5.96734">
        <ele>1368</ele>
        <time>2012-04-22T11:08:38.000Z</time>
      </trkpt>
      <trkpt lat="45.66294" lon="5.96736">
        <ele>1367</ele>
        <time>2012-04-22T11:08:42.000Z</time>
      </trkpt>
      <trkpt lat="45.66294" lon="5.96736">
        <ele>1367</ele>
        <time>2012-04-22T11:08:42.000Z</time>
      </trkpt>
      <trkpt lat="45.66294" lon="5.96736">
        <ele>1367</ele>
        <time>2012-04-22T11:08:43.000Z</time>
      </trkpt>
      <trkpt lat="45.6629" lon="5.96738">
        <ele>1367</ele>
        <time>2012-04-22T11:08:49.000Z</time>
      </trkpt>
      <trkpt lat="45.66285" lon="5.9674">
        <ele>1367</ele>
        <time>2012-04-22T11:08:55.000Z</time>
      </trkpt>
      <trkpt lat="45.6628" lon="5.9674">
        <ele>1367</ele>
        <time>2012-04-22T11:09:00.000Z</time>
      </trkpt>
      <trkpt lat="45.66275" lon="5.96742">
        <ele>1368</ele>
        <time>2012-04-22T11:09:04.000Z</time>
      </trkpt>
      <trkpt lat="45.66271" lon="5.96744">
        <ele>1370</ele>
        <time>2012-04-22T11:09:07.000Z</time>
      </trkpt>
      <trkpt lat="45.66267" lon="5.96746">
        <ele>1372</ele>
        <time>2012-04-22T11:09:11.000Z</time>
      </trkpt>
      <trkpt lat="45.66261" lon="5.96746">
        <ele>1376</ele>
        <time>2012-04-22T11:09:15.000Z</time>
      </trkpt>
      <trkpt lat="45.66256" lon="5.96744">
        <ele>1379</ele>
        <time>2012-04-22T11:09:19.000Z</time>
      </trkpt>
      <trkpt lat="45.66252" lon="5.96742">
        <ele>1378</ele>
        <time>2012-04-22T11:09:24.000Z</time>
      </trkpt>
      <trkpt lat="45.66252" lon="5.96742">
        <ele>1378</ele>
        <time>2012-04-22T11:09:24.000Z</time>
      </trkpt>
      <trkpt lat="45.66252" lon="5.96742">
        <ele>1378</ele>
        <time>2012-04-22T11:09:25.000Z</time>
      </trkpt>
      <trkpt lat="45.66246" lon="5.9674">
        <ele>1372</ele>
        <time>2012-04-22T11:09:33.000Z</time>
      </trkpt>
      <trkpt lat="45.66246" lon="5.9674">
        <ele>1372</ele>
        <time>2012-04-22T11:09:33.000Z</time>
      </trkpt>
      <trkpt lat="45.66246" lon="5.9674">
        <ele>1372</ele>
        <time>2012-04-22T11:09:34.000Z</time>
      </trkpt>
      <trkpt lat="45.66241" lon="5.9674">
        <ele>1370</ele>
        <time>2012-04-22T11:09:42.000Z</time>
      </trkpt>
      <trkpt lat="45.66236" lon="5.9674">
        <ele>1366</ele>
        <time>2012-04-22T11:09:46.000Z</time>
      </trkpt>
      <trkpt lat="45.66231" lon="5.96738">
        <ele>1362</ele>
        <time>2012-04-22T11:09:50.000Z</time>
      </trkpt>
      <trkpt lat="45.66226" lon="5.96734">
        <ele>1358</ele>
        <time>2012-04-22T11:09:55.000Z</time>
      </trkpt>
      <trkpt lat="45.6622" lon="5.96731">
        <ele>1355</ele>
        <time>2012-04-22T11:10:01.000Z</time>
      </trkpt>
      <trkpt lat="45.6622" lon="5.96731">
        <ele>1355</ele>
        <time>2012-04-22T11:10:01.000Z</time>
      </trkpt>
      <trkpt lat="45.6622" lon="5.96731">
        <ele>1355</ele>
        <time>2012-04-22T11:10:02.000Z</time>
      </trkpt>
      <trkpt lat="45.66215" lon="5.96734">
        <ele>1357</ele>
        <time>2012-04-22T11:10:07.000Z</time>
      </trkpt>
      <trkpt lat="45.6621" lon="5.96736">
        <ele>1358</ele>
        <time>2012-04-22T11:10:11.000Z</time>
      </trkpt>
      <trkpt lat="45.66204" lon="5.96738">
        <ele>1359</ele>
        <time>2012-04-22T11:10:15.000Z</time>
      </trkpt>
      <trkpt lat="45.662" lon="5.9674">
        <ele>1361</ele>
        <time>2012-04-22T11:10:20.000Z</time>
      </trkpt>
      <trkpt lat="45.66195" lon="5.9674">
        <ele>1363</ele>
        <time>2012-04-22T11:10:27.000Z</time>
      </trkpt>
      <trkpt lat="45.66195" lon="5.9674">
        <ele>1363</ele>
        <time>2012-04-22T11:10:27.000Z</time>
      </trkpt>
      <trkpt lat="45.66195" lon="5.9674">
        <ele>1363</ele>
        <time>2012-04-22T11:10:28.000Z</time>
      </trkpt>
      <trkpt lat="45.66189" lon="5.96742">
        <ele>1368</ele>
        <time>2012-04-22T11:10:48.000Z</time>
      </trkpt>
      <trkpt lat="45.66184" lon="5.96742">
        <ele>1371</ele>
        <time>2012-04-22T11:10:57.000Z</time>
      </trkpt>
      <trkpt lat="45.66184" lon="5.96742">
        <ele>1371</ele>
        <time>2012-04-22T11:10:57.000Z</time>
      </trkpt>
      <trkpt lat="45.66184" lon="5.96742">
        <ele>1371</ele>
        <time>2012-04-22T11:10:58.000Z</time>
      </trkpt>
      <trkpt lat="45.66181" lon="5.96748">
        <ele>1377</ele>
        <time>2012-04-22T11:11:05.000Z</time>
      </trkpt>
      <trkpt lat="45.66181" lon="5.96748">
        <ele>1377</ele>
        <time>2012-04-22T11:11:05.000Z</time>
      </trkpt>
      <trkpt lat="45.66181" lon="5.96748">
        <ele>1377</ele>
        <time>2012-04-22T11:11:06.000Z</time>
      </trkpt>
      <trkpt lat="45.66181" lon="5.96755">
        <ele>1405</ele>
        <time>2012-04-22T11:11:11.000Z</time>
      </trkpt>
      <trkpt lat="45.66185" lon="5.96757">
        <ele>1405</ele>
        <time>2012-04-22T11:11:19.000Z</time>
      </trkpt>
      <trkpt lat="45.66185" lon="5.96757">
        <ele>1405</ele>
        <time>2012-04-22T11:11:19.000Z</time>
      </trkpt>
      <trkpt lat="45.66185" lon="5.96757">
        <ele>1405</ele>
        <time>2012-04-22T11:11:21.000Z</time>
      </trkpt>
      <trkpt lat="45.66188" lon="5.96764">
        <ele>1406</ele>
        <time>2012-04-22T11:11:28.000Z</time>
      </trkpt>
      <trkpt lat="45.66193" lon="5.96766">
        <ele>1406</ele>
        <time>2012-04-22T11:11:33.000Z</time>
      </trkpt>
      <trkpt lat="45.66197" lon="5.96768">
        <ele>1406</ele>
        <time>2012-04-22T11:11:40.000Z</time>
      </trkpt>
      <trkpt lat="45.66198" lon="5.96774">
        <ele>1407</ele>
        <time>2012-04-22T11:11:47.000Z</time>
      </trkpt>
      <trkpt lat="45.66198" lon="5.96774">
        <ele>1407</ele>
        <time>2012-04-22T11:11:47.000Z</time>
      </trkpt>
      <trkpt lat="45.66198" lon="5.96774">
        <ele>1407</ele>
        <time>2012-04-22T11:11:49.000Z</time>
      </trkpt>
      <trkpt lat="45.66194" lon="5.96779">
        <ele>1407</ele>
        <time>2012-04-22T11:11:56.000Z</time>
      </trkpt>
      <trkpt lat="45.66194" lon="5.96779">
        <ele>1407</ele>
        <time>2012-04-22T11:11:56.000Z</time>
      </trkpt>
      <trkpt lat="45.66194" lon="5.96779">
        <ele>1407</ele>
        <time>2012-04-22T11:12:00.000Z</time>
      </trkpt>
      <trkpt lat="45.66188" lon="5.96783">
        <ele>1408</ele>
        <time>2012-04-22T11:12:10.000Z</time>
      </trkpt>
      <trkpt lat="45.66183" lon="5.96783">
        <ele>1408</ele>
        <time>2012-04-22T11:12:17.000Z</time>
      </trkpt>
      <trkpt lat="45.6618" lon="5.96776">
        <ele>1407</ele>
        <time>2012-04-22T11:12:22.000Z</time>
      </trkpt>
      <trkpt lat="45.6618" lon="5.96776">
        <ele>1407</ele>
        <time>2012-04-22T11:12:22.000Z</time>
      </trkpt>
      <trkpt lat="45.6618" lon="5.96776">
        <ele>1407</ele>
        <time>2012-04-22T11:12:23.000Z</time>
      </trkpt>
      <trkpt lat="45.66175" lon="5.96772">
        <ele>1407</ele>
        <time>2012-04-22T11:12:31.000Z</time>
      </trkpt>
      <trkpt lat="45.66175" lon="5.96772">
        <ele>1407</ele>
        <time>2012-04-22T11:12:31.000Z</time>
      </trkpt>
      <trkpt lat="45.66175" lon="5.96772">
        <ele>1407</ele>
        <time>2012-04-22T11:12:32.000Z</time>
      </trkpt>
      <trkpt lat="45.66176" lon="5.96779">
        <ele>1408</ele>
        <time>2012-04-22T11:12:44.000Z</time>
      </trkpt>
      <trkpt lat="45.66176" lon="5.96779">
        <ele>1408</ele>
        <time>2012-04-22T11:12:44.000Z</time>
      </trkpt>
      <trkpt lat="45.66176" lon="5.96779">
        <ele>1408</ele>
        <time>2012-04-22T11:12:45.000Z</time>
      </trkpt>
      <trkpt lat="45.66172" lon="5.96783">
        <ele>1408</ele>
        <time>2012-04-22T11:13:07.000Z</time>
      </trkpt>
      <trkpt lat="45.66168" lon="5.96785">
        <ele>1409</ele>
        <time>2012-04-22T11:13:14.000Z</time>
      </trkpt>
      <trkpt lat="45.66168" lon="5.96785">
        <ele>1409</ele>
        <time>2012-04-22T11:13:14.000Z</time>
      </trkpt>
      <trkpt lat="45.66168" lon="5.96785">
        <ele>1409</ele>
        <time>2012-04-22T11:13:15.000Z</time>
      </trkpt>
      <trkpt lat="45.66167" lon="5.96792">
        <ele>1410</ele>
        <time>2012-04-22T11:13:31.000Z</time>
      </trkpt>
      <trkpt lat="45.66167" lon="5.96792">
        <ele>1410</ele>
        <time>2012-04-22T11:13:31.000Z</time>
      </trkpt>
      <trkpt lat="45.66167" lon="5.96792">
        <ele>1410</ele>
        <time>2012-04-22T11:13:33.000Z</time>
      </trkpt>
      <trkpt lat="45.66164" lon="5.96798">
        <ele>1415</ele>
        <time>2012-04-22T11:13:52.000Z</time>
      </trkpt>
      <trkpt lat="45.66164" lon="5.96798">
        <ele>1415</ele>
        <time>2012-04-22T11:13:52.000Z</time>
      </trkpt>
      <trkpt lat="45.66164" lon="5.96798">
        <ele>1415</ele>
        <time>2012-04-22T11:13:53.000Z</time>
      </trkpt>
      <trkpt lat="45.66166" lon="5.96804">
        <ele>1416</ele>
        <time>2012-04-22T11:14:00.000Z</time>
      </trkpt>
      <trkpt lat="45.66166" lon="5.96804">
        <ele>1416</ele>
        <time>2012-04-22T11:14:00.000Z</time>
      </trkpt>
      <trkpt lat="45.66166" lon="5.96804">
        <ele>1416</ele>
        <time>2012-04-22T11:14:01.000Z</time>
      </trkpt>
      <trkpt lat="45.66167" lon="5.96811">
        <ele>1415</ele>
        <time>2012-04-22T11:14:10.000Z</time>
      </trkpt>
      <trkpt lat="45.66167" lon="5.96811">
        <ele>1415</ele>
        <time>2012-04-22T11:14:10.000Z</time>
      </trkpt>
      <trkpt lat="45.66167" lon="5.96811">
        <ele>1415</ele>
        <time>2012-04-22T11:14:11.000Z</time>
      </trkpt>
      <trkpt lat="45.66168" lon="5.96817">
        <ele>1416</ele>
        <time>2012-04-22T11:14:17.000Z</time>
      </trkpt>
      <trkpt lat="45.66165" lon="5.96824">
        <ele>1420</ele>
        <time>2012-04-22T11:14:25.000Z</time>
      </trkpt>
      <trkpt lat="45.66165" lon="5.96824">
        <ele>1420</ele>
        <time>2012-04-22T11:14:25.000Z</time>
      </trkpt>
      <trkpt lat="45.66165" lon="5.96824">
        <ele>1420</ele>
        <time>2012-04-22T11:14:26.000Z</time>
      </trkpt>
      <trkpt lat="45.66162" lon="5.9683">
        <ele>1421</ele>
        <time>2012-04-22T11:14:38.000Z</time>
      </trkpt>
      <trkpt lat="45.6616" lon="5.96824">
        <ele>1420</ele>
        <time>2012-04-22T11:14:50.000Z</time>
      </trkpt>
      <trkpt lat="45.66157" lon="5.96817">
        <ele>1418</ele>
        <time>2012-04-22T11:14:52.000Z</time>
      </trkpt>
      <trkpt lat="45.66156" lon="5.96811">
        <ele>1417</ele>
        <time>2012-04-22T11:14:54.000Z</time>
      </trkpt>
      <trkpt lat="45.66153" lon="5.96804">
        <ele>1416</ele>
        <time>2012-04-22T11:14:57.000Z</time>
      </trkpt>
      <trkpt lat="45.66149" lon="5.968">
        <ele>1415</ele>
        <time>2012-04-22T11:15:02.000Z</time>
      </trkpt>
      <trkpt lat="45.66145" lon="5.96806">
        <ele>1416</ele>
        <time>2012-04-22T11:15:15.000Z</time>
      </trkpt>
      <trkpt lat="45.66145" lon="5.96806">
        <ele>1416</ele>
        <time>2012-04-22T11:15:15.000Z</time>
      </trkpt>
      <trkpt lat="45.66145" lon="5.96806">
        <ele>1416</ele>
        <time>2012-04-22T11:15:17.000Z</time>
      </trkpt>
      <trkpt lat="45.66145" lon="5.96813">
        <ele>1416</ele>
        <time>2012-04-22T11:15:22.000Z</time>
      </trkpt>
      <trkpt lat="45.66145" lon="5.96819">
        <ele>1417</ele>
        <time>2012-04-22T11:15:29.000Z</time>
      </trkpt>
      <trkpt lat="45.66145" lon="5.96819">
        <ele>1417</ele>
        <time>2012-04-22T11:15:29.000Z</time>
      </trkpt>
      <trkpt lat="45.66145" lon="5.96819">
        <ele>1417</ele>
        <time>2012-04-22T11:15:30.000Z</time>
      </trkpt>
      <trkpt lat="45.66144" lon="5.96826">
        <ele>1418</ele>
        <time>2012-04-22T11:15:35.000Z</time>
      </trkpt>
      <trkpt lat="45.66144" lon="5.96826">
        <ele>1418</ele>
        <time>2012-04-22T11:15:35.000Z</time>
      </trkpt>
      <trkpt lat="45.66144" lon="5.96826">
        <ele>1418</ele>
        <time>2012-04-22T11:15:36.000Z</time>
      </trkpt>
      <trkpt lat="45.66144" lon="5.96832">
        <ele>1418</ele>
        <time>2012-04-22T11:15:39.000Z</time>
      </trkpt>
      <trkpt lat="45.66144" lon="5.96839">
        <ele>1421</ele>
        <time>2012-04-22T11:15:42.000Z</time>
      </trkpt>
      <trkpt lat="45.66145" lon="5.96845">
        <ele>1421</ele>
        <time>2012-04-22T11:15:46.000Z</time>
      </trkpt>
      <trkpt lat="45.6615" lon="5.96849">
        <ele>1422</ele>
        <time>2012-04-22T11:15:56.000Z</time>
      </trkpt>
      <trkpt lat="45.66155" lon="5.96847">
        <ele>1422</ele>
        <time>2012-04-22T11:16:00.000Z</time>
      </trkpt>
      <trkpt lat="45.66159" lon="5.96841">
        <ele>1422</ele>
        <time>2012-04-22T11:16:04.000Z</time>
      </trkpt>
      <trkpt lat="45.66159" lon="5.96841">
        <ele>1422</ele>
        <time>2012-04-22T11:16:04.000Z</time>
      </trkpt>
      <trkpt lat="45.66159" lon="5.96841">
        <ele>1422</ele>
        <time>2012-04-22T11:16:05.000Z</time>
      </trkpt>
      <trkpt lat="45.66162" lon="5.96834">
        <ele>1423</ele>
        <time>2012-04-22T11:16:10.000Z</time>
      </trkpt>
      <trkpt lat="45.66162" lon="5.96834">
        <ele>1423</ele>
        <time>2012-04-22T11:16:10.000Z</time>
      </trkpt>
      <trkpt lat="45.66162" lon="5.96834">
        <ele>1423</ele>
        <time>2012-04-22T11:16:11.000Z</time>
      </trkpt>
      <trkpt lat="45.66165" lon="5.96828">
        <ele>1421</ele>
        <time>2012-04-22T11:16:16.000Z</time>
      </trkpt>
      <trkpt lat="45.66165" lon="5.96828">
        <ele>1421</ele>
        <time>2012-04-22T11:16:16.000Z</time>
      </trkpt>
      <trkpt lat="45.66165" lon="5.96828">
        <ele>1421</ele>
        <time>2012-04-22T11:16:17.000Z</time>
      </trkpt>
      <trkpt lat="45.66168" lon="5.96822">
        <ele>1418</ele>
        <time>2012-04-22T11:16:32.000Z</time>
      </trkpt>
      <trkpt lat="45.66172" lon="5.96819">
        <ele>1417</ele>
        <time>2012-04-22T11:16:38.000Z</time>
      </trkpt>
      <trkpt lat="45.66178" lon="5.96819">
        <ele>1416</ele>
        <time>2012-04-22T11:16:42.000Z</time>
      </trkpt>
      <trkpt lat="45.66182" lon="5.96817">
        <ele>1415</ele>
        <time>2012-04-22T11:16:46.000Z</time>
      </trkpt>
      <trkpt lat="45.66186" lon="5.96815">
        <ele>1414</ele>
        <time>2012-04-22T11:16:50.000Z</time>
      </trkpt>
      <trkpt lat="45.66192" lon="5.96817">
        <ele>1413</ele>
        <time>2012-04-22T11:16:54.000Z</time>
      </trkpt>
      <trkpt lat="45.66197" lon="5.96819">
        <ele>1413</ele>
        <time>2012-04-22T11:16:59.000Z</time>
      </trkpt>
      <trkpt lat="45.66201" lon="5.96822">
        <ele>1413</ele>
        <time>2012-04-22T11:17:06.000Z</time>
      </trkpt>
      <trkpt lat="45.66206" lon="5.96817">
        <ele>1412</ele>
        <time>2012-04-22T11:17:13.000Z</time>
      </trkpt>
      <trkpt lat="45.6621" lon="5.96815">
        <ele>1412</ele>
        <time>2012-04-22T11:17:19.000Z</time>
      </trkpt>
      <trkpt lat="45.6621" lon="5.96815">
        <ele>1412</ele>
        <time>2012-04-22T11:17:19.000Z</time>
      </trkpt>
      <trkpt lat="45.6621" lon="5.96815">
        <ele>1412</ele>
        <time>2012-04-22T11:17:20.000Z</time>
      </trkpt>
      <trkpt lat="45.66214" lon="5.96813">
        <ele>1412</ele>
        <time>2012-04-22T11:17:25.000Z</time>
      </trkpt>
      <trkpt lat="45.66218" lon="5.96809">
        <ele>1411</ele>
        <time>2012-04-22T11:17:30.000Z</time>
      </trkpt>
      <trkpt lat="45.66223" lon="5.96811">
        <ele>1411</ele>
        <time>2012-04-22T11:17:35.000Z</time>
      </trkpt>
      <trkpt lat="45.66223" lon="5.96817">
        <ele>1412</ele>
        <time>2012-04-22T11:17:40.000Z</time>
      </trkpt>
      <trkpt lat="45.66217" lon="5.96822">
        <ele>1413</ele>
        <time>2012-04-22T11:17:44.000Z</time>
      </trkpt>
      <trkpt lat="45.66213" lon="5.96824">
        <ele>1413</ele>
        <time>2012-04-22T11:17:48.000Z</time>
      </trkpt>
      <trkpt lat="45.66209" lon="5.96826">
        <ele>1413</ele>
        <time>2012-04-22T11:18:02.000Z</time>
      </trkpt>
      <trkpt lat="45.66209" lon="5.96826">
        <ele>1413</ele>
        <time>2012-04-22T11:18:02.000Z</time>
      </trkpt>
      <trkpt lat="45.66209" lon="5.96826">
        <ele>1413</ele>
        <time>2012-04-22T11:18:20.000Z</time>
      </trkpt>
      <trkpt lat="45.6621" lon="5.96832">
        <ele>1413</ele>
        <time>2012-04-22T11:18:33.000Z</time>
      </trkpt>
      <trkpt lat="45.6621" lon="5.96832">
        <ele>1413</ele>
        <time>2012-04-22T11:18:33.000Z</time>
      </trkpt>
      <trkpt lat="45.6621" lon="5.96832">
        <ele>1413</ele>
        <time>2012-04-22T11:18:36.000Z</time>
      </trkpt>
      <trkpt lat="45.6621" lon="5.96839">
        <ele>1423</ele>
        <time>2012-04-22T11:18:44.000Z</time>
      </trkpt>
      <trkpt lat="45.6621" lon="5.96839">
        <ele>1423</ele>
        <time>2012-04-22T11:18:44.000Z</time>
      </trkpt>
      <trkpt lat="45.6621" lon="5.96839">
        <ele>1423</ele>
        <time>2012-04-22T11:18:47.000Z</time>
      </trkpt>
      <trkpt lat="45.66214" lon="5.96836">
        <ele>1422</ele>
        <time>2012-04-22T11:19:04.000Z</time>
      </trkpt>
      <trkpt lat="45.66214" lon="5.96836">
        <ele>1422</ele>
        <time>2012-04-22T11:19:04.000Z</time>
      </trkpt>
      <trkpt lat="45.66214" lon="5.96836">
        <ele>1422</ele>
        <time>2012-04-22T11:19:30.000Z</time>
      </trkpt>
      <trkpt lat="45.66209" lon="5.96836">
        <ele>1423</ele>
        <time>2012-04-22T11:19:49.000Z</time>
      </trkpt>
      <trkpt lat="45.66209" lon="5.96836">
        <ele>1423</ele>
        <time>2012-04-22T11:19:49.000Z</time>
      </trkpt>
      <trkpt lat="45.66209" lon="5.96836">
        <ele>1423</ele>
        <time>2012-04-22T11:19:52.000Z</time>
      </trkpt>
      <trkpt lat="45.66206" lon="5.96843">
        <ele>1423</ele>
        <time>2012-04-22T11:20:11.000Z</time>
      </trkpt>
      <trkpt lat="45.66204" lon="5.96849">
        <ele>1423</ele>
        <time>2012-04-22T11:20:15.000Z</time>
      </trkpt>
      <trkpt lat="45.66203" lon="5.96856">
        <ele>1423</ele>
        <time>2012-04-22T11:20:18.000Z</time>
      </trkpt>
      <trkpt lat="45.66202" lon="5.96862">
        <ele>1423</ele>
        <time>2012-04-22T11:20:23.000Z</time>
      </trkpt>
      <trkpt lat="45.66202" lon="5.96862">
        <ele>1423</ele>
        <time>2012-04-22T11:20:23.000Z</time>
      </trkpt>
      <trkpt lat="45.66202" lon="5.96862">
        <ele>1423</ele>
        <time>2012-04-22T11:20:28.000Z</time>
      </trkpt>
      <trkpt lat="45.66201" lon="5.96869">
        <ele>1423</ele>
        <time>2012-04-22T11:20:37.000Z</time>
      </trkpt>
      <trkpt lat="45.66199" lon="5.96875">
        <ele>1423</ele>
        <time>2012-04-22T11:20:41.000Z</time>
      </trkpt>
      <trkpt lat="45.66197" lon="5.96882">
        <ele>1423</ele>
        <time>2012-04-22T11:20:55.000Z</time>
      </trkpt>
      <trkpt lat="45.66197" lon="5.96882">
        <ele>1423</ele>
        <time>2012-04-22T11:20:55.000Z</time>
      </trkpt>
      <trkpt lat="45.66197" lon="5.96882">
        <ele>1423</ele>
        <time>2012-04-22T11:21:02.000Z</time>
      </trkpt>
      <trkpt lat="45.66196" lon="5.96875">
        <ele>1423</ele>
        <time>2012-04-22T11:21:08.000Z</time>
      </trkpt>
      <trkpt lat="45.66196" lon="5.96875">
        <ele>1423</ele>
        <time>2012-04-22T11:21:08.000Z</time>
      </trkpt>
      <trkpt lat="45.66196" lon="5.96875">
        <ele>1423</ele>
        <time>2012-04-22T11:21:09.000Z</time>
      </trkpt>
      <trkpt lat="45.66197" lon="5.96869">
        <ele>1423</ele>
        <time>2012-04-22T11:21:12.000Z</time>
      </trkpt>
      <trkpt lat="45.662" lon="5.96862">
        <ele>1423</ele>
        <time>2012-04-22T11:21:16.000Z</time>
      </trkpt>
      <trkpt lat="45.662" lon="5.96862">
        <ele>1423</ele>
        <time>2012-04-22T11:21:16.000Z</time>
      </trkpt>
      <trkpt lat="45.662" lon="5.96862">
        <ele>1423</ele>
        <time>2012-04-22T11:21:17.000Z</time>
      </trkpt>
      <trkpt lat="45.66202" lon="5.96856">
        <ele>1423</ele>
        <time>2012-04-22T11:21:21.000Z</time>
      </trkpt>
      <trkpt lat="45.66204" lon="5.96849">
        <ele>1423</ele>
        <time>2012-04-22T11:21:32.000Z</time>
      </trkpt>
      <trkpt lat="45.66204" lon="5.96849">
        <ele>1423</ele>
        <time>2012-04-22T11:21:32.000Z</time>
      </trkpt>
      <trkpt lat="45.66204" lon="5.96849">
        <ele>1423</ele>
        <time>2012-04-22T11:21:33.000Z</time>
      </trkpt>
      <trkpt lat="45.66208" lon="5.96843">
        <ele>1423</ele>
        <time>2012-04-22T11:21:38.000Z</time>
      </trkpt>
      <trkpt lat="45.66211" lon="5.96836">
        <ele>1423</ele>
        <time>2012-04-22T11:21:41.000Z</time>
      </trkpt>
      <trkpt lat="45.66215" lon="5.9683">
        <ele>1413</ele>
        <time>2012-04-22T11:21:44.000Z</time>
      </trkpt>
      <trkpt lat="45.66219" lon="5.96824">
        <ele>1413</ele>
        <time>2012-04-22T11:21:48.000Z</time>
      </trkpt>
      <trkpt lat="45.66224" lon="5.96819">
        <ele>1413</ele>
        <time>2012-04-22T11:21:51.000Z</time>
      </trkpt>
      <trkpt lat="45.66226" lon="5.96813">
        <ele>1412</ele>
        <time>2012-04-22T11:21:56.000Z</time>
      </trkpt>
      <trkpt lat="45.66226" lon="5.96813">
        <ele>1412</ele>
        <time>2012-04-22T11:21:56.000Z</time>
      </trkpt>
      <trkpt lat="45.66226" lon="5.96813">
        <ele>1412</ele>
        <time>2012-04-22T11:21:57.000Z</time>
      </trkpt>
      <trkpt lat="45.6623" lon="5.96809">
        <ele>1411</ele>
        <time>2012-04-22T11:22:28.000Z</time>
      </trkpt>
      <trkpt lat="45.6623" lon="5.96809">
        <ele>1411</ele>
        <time>2012-04-22T11:22:28.000Z</time>
      </trkpt>
      <trkpt lat="45.6623" lon="5.96809">
        <ele>1411</ele>
        <time>2012-04-22T11:22:36.000Z</time>
      </trkpt>
      <trkpt lat="45.66225" lon="5.96806">
        <ele>1411</ele>
        <time>2012-04-22T11:22:42.000Z</time>
      </trkpt>
      <trkpt lat="45.66219" lon="5.96806">
        <ele>1411</ele>
        <time>2012-04-22T11:22:47.000Z</time>
      </trkpt>
      <trkpt lat="45.66215" lon="5.96809">
        <ele>1411</ele>
        <time>2012-04-22T11:22:51.000Z</time>
      </trkpt>
      <trkpt lat="45.66211" lon="5.96811">
        <ele>1411</ele>
        <time>2012-04-22T11:22:56.000Z</time>
      </trkpt>
      <trkpt lat="45.66211" lon="5.96811">
        <ele>1411</ele>
        <time>2012-04-22T11:22:56.000Z</time>
      </trkpt>
      <trkpt lat="45.66211" lon="5.96811">
        <ele>1411</ele>
        <time>2012-04-22T11:22:59.000Z</time>
      </trkpt>
      <trkpt lat="45.66206" lon="5.96815">
        <ele>1412</ele>
        <time>2012-04-22T11:23:11.000Z</time>
      </trkpt>
      <trkpt lat="45.66201" lon="5.96817">
        <ele>1413</ele>
        <time>2012-04-22T11:23:15.000Z</time>
      </trkpt>
      <trkpt lat="45.66197" lon="5.96819">
        <ele>1413</ele>
        <time>2012-04-22T11:23:18.000Z</time>
      </trkpt>
      <trkpt lat="45.66193" lon="5.96824">
        <ele>1414</ele>
        <time>2012-04-22T11:23:22.000Z</time>
      </trkpt>
      <trkpt lat="45.66188" lon="5.96826">
        <ele>1415</ele>
        <time>2012-04-22T11:23:26.000Z</time>
      </trkpt>
      <trkpt lat="45.66184" lon="5.96828">
        <ele>1416</ele>
        <time>2012-04-22T11:23:30.000Z</time>
      </trkpt>
      <trkpt lat="45.66179" lon="5.96826">
        <ele>1417</ele>
        <time>2012-04-22T11:23:35.000Z</time>
      </trkpt>
      <trkpt lat="45.66173" lon="5.96824">
        <ele>1418</ele>
        <time>2012-04-22T11:23:40.000Z</time>
      </trkpt>
      <trkpt lat="45.66168" lon="5.96824">
        <ele>1419</ele>
        <time>2012-04-22T11:23:45.000Z</time>
      </trkpt>
      <trkpt lat="45.66164" lon="5.96826">
        <ele>1420</ele>
        <time>2012-04-22T11:23:49.000Z</time>
      </trkpt>
      <trkpt lat="45.66158" lon="5.96824">
        <ele>1419</ele>
        <time>2012-04-22T11:23:55.000Z</time>
      </trkpt>
      <trkpt lat="45.66156" lon="5.96817">
        <ele>1418</ele>
        <time>2012-04-22T11:23:58.000Z</time>
      </trkpt>
      <trkpt lat="45.66157" lon="5.96811">
        <ele>1417</ele>
        <time>2012-04-22T11:24:06.000Z</time>
      </trkpt>
      <trkpt lat="45.66154" lon="5.96804">
        <ele>1416</ele>
        <time>2012-04-22T11:24:14.000Z</time>
      </trkpt>
      <trkpt lat="45.66154" lon="5.96804">
        <ele>1416</ele>
        <time>2012-04-22T11:24:14.000Z</time>
      </trkpt>
      <trkpt lat="45.66154" lon="5.96804">
        <ele>1416</ele>
        <time>2012-04-22T11:24:18.000Z</time>
      </trkpt>
      <trkpt lat="45.66158" lon="5.96802">
        <ele>1415</ele>
        <time>2012-04-22T11:24:24.000Z</time>
      </trkpt>
      <trkpt lat="45.66164" lon="5.96802">
        <ele>1415</ele>
        <time>2012-04-22T11:24:38.000Z</time>
      </trkpt>
      <trkpt lat="45.66164" lon="5.96802">
        <ele>1415</ele>
        <time>2012-04-22T11:24:38.000Z</time>
      </trkpt>
      <trkpt lat="45.66164" lon="5.96802">
        <ele>1415</ele>
        <time>2012-04-22T11:24:41.000Z</time>
      </trkpt>
      <trkpt lat="45.66169" lon="5.96802">
        <ele>1412</ele>
        <time>2012-04-22T11:24:49.000Z</time>
      </trkpt>
      <trkpt lat="45.66173" lon="5.96804">
        <ele>1413</ele>
        <time>2012-04-22T11:24:53.000Z</time>
      </trkpt>
      <trkpt lat="45.66174" lon="5.96798">
        <ele>1411</ele>
        <time>2012-04-22T11:25:00.000Z</time>
      </trkpt>
      <trkpt lat="45.66172" lon="5.96792">
        <ele>1410</ele>
        <time>2012-04-22T11:25:05.000Z</time>
      </trkpt>
      <trkpt lat="45.66171" lon="5.96785">
        <ele>1409</ele>
        <time>2012-04-22T11:25:10.000Z</time>
      </trkpt>
      <trkpt lat="45.66171" lon="5.96785">
        <ele>1409</ele>
        <time>2012-04-22T11:25:10.000Z</time>
      </trkpt>
      <trkpt lat="45.66171" lon="5.96785">
        <ele>1409</ele>
        <time>2012-04-22T11:25:11.000Z</time>
      </trkpt>
      <trkpt lat="45.66169" lon="5.96779">
        <ele>1408</ele>
        <time>2012-04-22T11:25:14.000Z</time>
      </trkpt>
      <trkpt lat="45.66168" lon="5.96772">
        <ele>1407</ele>
        <time>2012-04-22T11:25:19.000Z</time>
      </trkpt>
      <trkpt lat="45.66168" lon="5.96772">
        <ele>1407</ele>
        <time>2012-04-22T11:25:19.000Z</time>
      </trkpt>
      <trkpt lat="45.66168" lon="5.96772">
        <ele>1407</ele>
        <time>2012-04-22T11:25:21.000Z</time>
      </trkpt>
      <trkpt lat="45.66172" lon="5.96768">
        <ele>1406</ele>
        <time>2012-04-22T11:25:30.000Z</time>
      </trkpt>
      <trkpt lat="45.66179" lon="5.9677">
        <ele>1406</ele>
        <time>2012-04-22T11:25:34.000Z</time>
      </trkpt>
      <trkpt lat="45.66184" lon="5.9677">
        <ele>1406</ele>
        <time>2012-04-22T11:25:37.000Z</time>
      </trkpt>
      <trkpt lat="45.66189" lon="5.9677">
        <ele>1406</ele>
        <time>2012-04-22T11:25:43.000Z</time>
      </trkpt>
      <trkpt lat="45.66189" lon="5.9677">
        <ele>1406</ele>
        <time>2012-04-22T11:25:43.000Z</time>
      </trkpt>
      <trkpt lat="45.66189" lon="5.9677">
        <ele>1406</ele>
        <time>2012-04-22T11:25:44.000Z</time>
      </trkpt>
      <trkpt lat="45.66194" lon="5.96772">
        <ele>1407</ele>
        <time>2012-04-22T11:25:50.000Z</time>
      </trkpt>
      <trkpt lat="45.66194" lon="5.96772">
        <ele>1407</ele>
        <time>2012-04-22T11:25:50.000Z</time>
      </trkpt>
      <trkpt lat="45.66194" lon="5.96772">
        <ele>1407</ele>
        <time>2012-04-22T11:25:51.000Z</time>
      </trkpt>
      <trkpt lat="45.66198" lon="5.9677">
        <ele>1406</ele>
        <time>2012-04-22T11:25:58.000Z</time>
      </trkpt>
      <trkpt lat="45.66198" lon="5.9677">
        <ele>1406</ele>
        <time>2012-04-22T11:25:58.000Z</time>
      </trkpt>
      <trkpt lat="45.66198" lon="5.9677">
        <ele>1406</ele>
        <time>2012-04-22T11:25:59.000Z</time>
      </trkpt>
      <trkpt lat="45.66197" lon="5.96761">
        <ele>1405</ele>
        <time>2012-04-22T11:26:05.000Z</time>
      </trkpt>
      <trkpt lat="45.66197" lon="5.96761">
        <ele>1405</ele>
        <time>2012-04-22T11:26:05.000Z</time>
      </trkpt>
      <trkpt lat="45.66197" lon="5.96761">
        <ele>1405</ele>
        <time>2012-04-22T11:26:06.000Z</time>
      </trkpt>
      <trkpt lat="45.66194" lon="5.96755">
        <ele>1405</ele>
        <time>2012-04-22T11:26:11.000Z</time>
      </trkpt>
      <trkpt lat="45.66194" lon="5.96755">
        <ele>1405</ele>
        <time>2012-04-22T11:26:11.000Z</time>
      </trkpt>
      <trkpt lat="45.66194" lon="5.96755">
        <ele>1405</ele>
        <time>2012-04-22T11:26:12.000Z</time>
      </trkpt>
      <trkpt lat="45.66195" lon="5.96748">
        <ele>1366</ele>
        <time>2012-04-22T11:26:19.000Z</time>
      </trkpt>
      <trkpt lat="45.66195" lon="5.96748">
        <ele>1366</ele>
        <time>2012-04-22T11:26:19.000Z</time>
      </trkpt>
      <trkpt lat="45.66195" lon="5.96748">
        <ele>1366</ele>
        <time>2012-04-22T11:26:20.000Z</time>
      </trkpt>
      <trkpt lat="45.66197" lon="5.96742">
        <ele>1363</ele>
        <time>2012-04-22T11:26:27.000Z</time>
      </trkpt>
      <trkpt lat="45.66197" lon="5.96742">
        <ele>1363</ele>
        <time>2012-04-22T11:26:27.000Z</time>
      </trkpt>
      <trkpt lat="45.66197" lon="5.96742">
        <ele>1363</ele>
        <time>2012-04-22T11:26:28.000Z</time>
      </trkpt>
      <trkpt lat="45.66195" lon="5.96736">
        <ele>1361</ele>
        <time>2012-04-22T11:26:33.000Z</time>
      </trkpt>
      <trkpt lat="45.66195" lon="5.96736">
        <ele>1361</ele>
        <time>2012-04-22T11:26:33.000Z</time>
      </trkpt>
      <trkpt lat="45.66195" lon="5.96736">
        <ele>1361</ele>
        <time>2012-04-22T11:26:35.000Z</time>
      </trkpt>
      <trkpt lat="45.66193" lon="5.96729">
        <ele>1358</ele>
        <time>2012-04-22T11:26:46.000Z</time>
      </trkpt>
      <trkpt lat="45.66198" lon="5.96729">
        <ele>1356</ele>
        <time>2012-04-22T11:26:54.000Z</time>
      </trkpt>
      <trkpt lat="45.66202" lon="5.96727">
        <ele>1354</ele>
        <time>2012-04-22T11:26:57.000Z</time>
      </trkpt>
      <trkpt lat="45.66208" lon="5.96727">
        <ele>1353</ele>
        <time>2012-04-22T11:27:00.000Z</time>
      </trkpt>
      <trkpt lat="45.66213" lon="5.96725">
        <ele>1352</ele>
        <time>2012-04-22T11:27:03.000Z</time>
      </trkpt>
      <trkpt lat="45.66218" lon="5.96725">
        <ele>1352</ele>
        <time>2012-04-22T11:27:06.000Z</time>
      </trkpt>
      <trkpt lat="45.66223" lon="5.96723">
        <ele>1351</ele>
        <time>2012-04-22T11:27:09.000Z</time>
      </trkpt>
      <trkpt lat="45.66228" lon="5.96721">
        <ele>1349</ele>
        <time>2012-04-22T11:27:12.000Z</time>
      </trkpt>
      <trkpt lat="45.66232" lon="5.96718">
        <ele>1347</ele>
        <time>2012-04-22T11:27:15.000Z</time>
      </trkpt>
      <trkpt lat="45.66237" lon="5.96716">
        <ele>1346</ele>
        <time>2012-04-22T11:27:17.000Z</time>
      </trkpt>
      <trkpt lat="45.66241" lon="5.96712">
        <ele>1342</ele>
        <time>2012-04-22T11:27:20.000Z</time>
      </trkpt>
      <trkpt lat="45.66246" lon="5.9671">
        <ele>1340</ele>
        <time>2012-04-22T11:27:23.000Z</time>
      </trkpt>
      <trkpt lat="45.6625" lon="5.96708">
        <ele>1344</ele>
        <time>2012-04-22T11:27:26.000Z</time>
      </trkpt>
      <trkpt lat="45.66255" lon="5.96706">
        <ele>1342</ele>
        <time>2012-04-22T11:27:29.000Z</time>
      </trkpt>
      <trkpt lat="45.66259" lon="5.96704">
        <ele>1341</ele>
        <time>2012-04-22T11:27:33.000Z</time>
      </trkpt>
      <trkpt lat="45.66263" lon="5.96701">
        <ele>1339</ele>
        <time>2012-04-22T11:27:37.000Z</time>
      </trkpt>
      <trkpt lat="45.66268" lon="5.96699">
        <ele>1338</ele>
        <time>2012-04-22T11:27:40.000Z</time>
      </trkpt>
      <trkpt lat="45.66273" lon="5.96697">
        <ele>1338</ele>
        <time>2012-04-22T11:27:43.000Z</time>
      </trkpt>
      <trkpt lat="45.66277" lon="5.96695">
        <ele>1339</ele>
        <time>2012-04-22T11:27:46.000Z</time>
      </trkpt>
      <trkpt lat="45.66282" lon="5.96693">
        <ele>1339</ele>
        <time>2012-04-22T11:27:49.000Z</time>
      </trkpt>
      <trkpt lat="45.66286" lon="5.96691">
        <ele>1340</ele>
        <time>2012-04-22T11:27:53.000Z</time>
      </trkpt>
      <trkpt lat="45.6629" lon="5.96686">
        <ele>1339</ele>
        <time>2012-04-22T11:27:56.000Z</time>
      </trkpt>
      <trkpt lat="45.66296" lon="5.96682">
        <ele>1340</ele>
        <time>2012-04-22T11:28:00.000Z</time>
      </trkpt>
      <trkpt lat="45.663" lon="5.96678">
        <ele>1340</ele>
        <time>2012-04-22T11:28:04.000Z</time>
      </trkpt>
      <trkpt lat="45.66307" lon="5.96676">
        <ele>1340</ele>
        <time>2012-04-22T11:28:07.000Z</time>
      </trkpt>
      <trkpt lat="45.66313" lon="5.96673">
        <ele>1340</ele>
        <time>2012-04-22T11:28:08.000Z</time>
      </trkpt>
      <trkpt lat="45.66318" lon="5.96669">
        <ele>1339</ele>
        <time>2012-04-22T11:28:09.000Z</time>
      </trkpt>
      <trkpt lat="45.66324" lon="5.96669">
        <ele>1338</ele>
        <time>2012-04-22T11:28:10.000Z</time>
      </trkpt>
      <trkpt lat="45.66328" lon="5.96667">
        <ele>1336</ele>
        <time>2012-04-22T11:28:11.000Z</time>
      </trkpt>
      <trkpt lat="45.66333" lon="5.96669">
        <ele>1335</ele>
        <time>2012-04-22T11:28:13.000Z</time>
      </trkpt>
      <trkpt lat="45.66337" lon="5.96671">
        <ele>1345</ele>
        <time>2012-04-22T11:28:16.000Z</time>
      </trkpt>
      <trkpt lat="45.66337" lon="5.96671">
        <ele>1345</ele>
        <time>2012-04-22T11:28:16.000Z</time>
      </trkpt>
      <trkpt lat="45.66337" lon="5.96671">
        <ele>1345</ele>
        <time>2012-04-22T11:28:30.000Z</time>
      </trkpt>
      <trkpt lat="45.66332" lon="5.96669">
        <ele>1335</ele>
        <time>2012-04-22T11:28:43.000Z</time>
      </trkpt>
      <trkpt lat="45.66326" lon="5.96669">
        <ele>1337</ele>
        <time>2012-04-22T11:28:46.000Z</time>
      </trkpt>
      <trkpt lat="45.66321" lon="5.96671">
        <ele>1339</ele>
        <time>2012-04-22T11:28:48.000Z</time>
      </trkpt>
      <trkpt lat="45.66316" lon="5.96673">
        <ele>1340</ele>
        <time>2012-04-22T11:28:52.000Z</time>
      </trkpt>
      <trkpt lat="45.66311" lon="5.96673">
        <ele>1340</ele>
        <time>2012-04-22T11:28:58.000Z</time>
      </trkpt>
      <trkpt lat="45.66306" lon="5.96676">
        <ele>1340</ele>
        <time>2012-04-22T11:29:03.000Z</time>
      </trkpt>
      <trkpt lat="45.66302" lon="5.9668">
        <ele>1341</ele>
        <time>2012-04-22T11:29:08.000Z</time>
      </trkpt>
      <trkpt lat="45.66298" lon="5.96684">
        <ele>1341</ele>
        <time>2012-04-22T11:29:12.000Z</time>
      </trkpt>
      <trkpt lat="45.66298" lon="5.96684">
        <ele>1341</ele>
        <time>2012-04-22T11:29:12.000Z</time>
      </trkpt>
      <trkpt lat="45.66298" lon="5.96684">
        <ele>1341</ele>
        <time>2012-04-22T11:29:13.000Z</time>
      </trkpt>
      <trkpt lat="45.66296" lon="5.96691">
        <ele>1344</ele>
        <time>2012-04-22T11:29:19.000Z</time>
      </trkpt>
      <trkpt lat="45.66293" lon="5.96699">
        <ele>1347</ele>
        <time>2012-04-22T11:29:21.000Z</time>
      </trkpt>
      <trkpt lat="45.66292" lon="5.96706">
        <ele>1351</ele>
        <time>2012-04-22T11:29:23.000Z</time>
      </trkpt>
      <trkpt lat="45.66292" lon="5.96712">
        <ele>1354</ele>
        <time>2012-04-22T11:29:25.000Z</time>
      </trkpt>
      <trkpt lat="45.66292" lon="5.96718">
        <ele>1358</ele>
        <time>2012-04-22T11:29:29.000Z</time>
      </trkpt>
      <trkpt lat="45.66292" lon="5.96718">
        <ele>1358</ele>
        <time>2012-04-22T11:29:29.000Z</time>
      </trkpt>
      <trkpt lat="45.66292" lon="5.96718">
        <ele>1358</ele>
        <time>2012-04-22T11:29:33.000Z</time>
      </trkpt>
      <trkpt lat="45.66291" lon="5.96712">
        <ele>1354</ele>
        <time>2012-04-22T11:29:39.000Z</time>
      </trkpt>
      <trkpt lat="45.66291" lon="5.96712">
        <ele>1354</ele>
        <time>2012-04-22T11:29:39.000Z</time>
      </trkpt>
      <trkpt lat="45.66291" lon="5.96712">
        <ele>1354</ele>
        <time>2012-04-22T11:29:40.000Z</time>
      </trkpt>
      <trkpt lat="45.66291" lon="5.96706">
        <ele>1350</ele>
        <time>2012-04-22T11:29:44.000Z</time>
      </trkpt>
      <trkpt lat="45.66291" lon="5.96706">
        <ele>1350</ele>
        <time>2012-04-22T11:29:44.000Z</time>
      </trkpt>
      <trkpt lat="45.66291" lon="5.96706">
        <ele>1350</ele>
        <time>2012-04-22T11:29:45.000Z</time>
      </trkpt>
      <trkpt lat="45.66292" lon="5.96699">
        <ele>1347</ele>
        <time>2012-04-22T11:29:48.000Z</time>
      </trkpt>
      <trkpt lat="45.66292" lon="5.96699">
        <ele>1347</ele>
        <time>2012-04-22T11:29:48.000Z</time>
      </trkpt>
      <trkpt lat="45.66292" lon="5.96699">
        <ele>1347</ele>
        <time>2012-04-22T11:29:49.000Z</time>
      </trkpt>
      <trkpt lat="45.66292" lon="5.96691">
        <ele>1342</ele>
        <time>2012-04-22T11:29:52.000Z</time>
      </trkpt>
      <trkpt lat="45.66292" lon="5.96682">
        <ele>1338</ele>
        <time>2012-04-22T11:29:55.000Z</time>
      </trkpt>
      <trkpt lat="45.66293" lon="5.96676">
        <ele>1336</ele>
        <time>2012-04-22T11:29:59.000Z</time>
      </trkpt>
      <trkpt lat="45.66294" lon="5.96669">
        <ele>1335</ele>
        <time>2012-04-22T11:30:02.000Z</time>
      </trkpt>
      <trkpt lat="45.66298" lon="5.96663">
        <ele>1283</ele>
        <time>2012-04-22T11:30:08.000Z</time>
      </trkpt>
      <trkpt lat="45.66299" lon="5.96656">
        <ele>1282</ele>
        <time>2012-04-22T11:30:13.000Z</time>
      </trkpt>
      <trkpt lat="45.66303" lon="5.96652">
        <ele>1283</ele>
        <time>2012-04-22T11:30:16.000Z</time>
      </trkpt>
      <trkpt lat="45.66307" lon="5.96648">
        <ele>1284</ele>
        <time>2012-04-22T11:30:20.000Z</time>
      </trkpt>
      <trkpt lat="45.66313" lon="5.96646">
        <ele>1286</ele>
        <time>2012-04-22T11:30:24.000Z</time>
      </trkpt>
      <trkpt lat="45.66317" lon="5.96643">
        <ele>1286</ele>
        <time>2012-04-22T11:30:28.000Z</time>
      </trkpt>
      <trkpt lat="45.66321" lon="5.96641">
        <ele>1286</ele>
        <time>2012-04-22T11:30:31.000Z</time>
      </trkpt>
      <trkpt lat="45.66327" lon="5.96641">
        <ele>1288</ele>
        <time>2012-04-22T11:30:37.000Z</time>
      </trkpt>
      <trkpt lat="45.66327" lon="5.96641">
        <ele>1288</ele>
        <time>2012-04-22T11:30:37.000Z</time>
      </trkpt>
      <trkpt lat="45.66327" lon="5.96641">
        <ele>1288</ele>
        <time>2012-04-22T11:30:39.000Z</time>
      </trkpt>
      <trkpt lat="45.66331" lon="5.96639">
        <ele>1287</ele>
        <time>2012-04-22T11:30:45.000Z</time>
      </trkpt>
      <trkpt lat="45.66331" lon="5.96639">
        <ele>1287</ele>
        <time>2012-04-22T11:30:45.000Z</time>
      </trkpt>
      <trkpt lat="45.66331" lon="5.96639">
        <ele>1287</ele>
        <time>2012-04-22T11:30:46.000Z</time>
      </trkpt>
      <trkpt lat="45.66335" lon="5.96635">
        <ele>1312</ele>
        <time>2012-04-22T11:30:51.000Z</time>
      </trkpt>
      <trkpt lat="45.66335" lon="5.96635">
        <ele>1312</ele>
        <time>2012-04-22T11:30:51.000Z</time>
      </trkpt>
      <trkpt lat="45.66335" lon="5.96635">
        <ele>1312</ele>
        <time>2012-04-22T11:30:52.000Z</time>
      </trkpt>
      <trkpt lat="45.6634" lon="5.9663">
        <ele>1309</ele>
        <time>2012-04-22T11:30:56.000Z</time>
      </trkpt>
      <trkpt lat="45.66344" lon="5.96626">
        <ele>1307</ele>
        <time>2012-04-22T11:31:01.000Z</time>
      </trkpt>
      <trkpt lat="45.66348" lon="5.96624">
        <ele>1306</ele>
        <time>2012-04-22T11:31:06.000Z</time>
      </trkpt>
      <trkpt lat="45.66352" lon="5.96622">
        <ele>1305</ele>
        <time>2012-04-22T11:31:11.000Z</time>
      </trkpt>
      <trkpt lat="45.66357" lon="5.96618">
        <ele>1304</ele>
        <time>2012-04-22T11:31:15.000Z</time>
      </trkpt>
      <trkpt lat="45.66359" lon="5.96611">
        <ele>1300</ele>
        <time>2012-04-22T11:31:18.000Z</time>
      </trkpt>
      <trkpt lat="45.6636" lon="5.96605">
        <ele>1297</ele>
        <time>2012-04-22T11:31:21.000Z</time>
      </trkpt>
      <trkpt lat="45.66361" lon="5.96598">
        <ele>1293</ele>
        <time>2012-04-22T11:31:24.000Z</time>
      </trkpt>
      <trkpt lat="45.66363" lon="5.96592">
        <ele>1291</ele>
        <time>2012-04-22T11:31:28.000Z</time>
      </trkpt>
      <trkpt lat="45.66368" lon="5.96588">
        <ele>1294</ele>
        <time>2012-04-22T11:31:31.000Z</time>
      </trkpt>
      <trkpt lat="45.66372" lon="5.96583">
        <ele>1246</ele>
        <time>2012-04-22T11:31:33.000Z</time>
      </trkpt>
      <trkpt lat="45.66377" lon="5.96577">
        <ele>1247</ele>
        <time>2012-04-22T11:31:36.000Z</time>
      </trkpt>
      <trkpt lat="45.66377" lon="5.96577">
        <ele>1247</ele>
        <time>2012-04-22T11:31:36.000Z</time>
      </trkpt>
      <trkpt lat="45.66377" lon="5.96577">
        <ele>1247</ele>
        <time>2012-04-22T11:31:37.000Z</time>
      </trkpt>
      <trkpt lat="45.6638" lon="5.9657">
        <ele>1247</ele>
        <time>2012-04-22T11:31:41.000Z</time>
      </trkpt>
      <trkpt lat="45.66385" lon="5.96568">
        <ele>1249</ele>
        <time>2012-04-22T11:31:45.000Z</time>
      </trkpt>
      <trkpt lat="45.66389" lon="5.96562">
        <ele>1248</ele>
        <time>2012-04-22T11:31:49.000Z</time>
      </trkpt>
      <trkpt lat="45.66393" lon="5.96558">
        <ele>1248</ele>
        <time>2012-04-22T11:31:52.000Z</time>
      </trkpt>
      <trkpt lat="45.66396" lon="5.96551">
        <ele>1245</ele>
        <time>2012-04-22T11:31:55.000Z</time>
      </trkpt>
      <trkpt lat="45.664" lon="5.96545">
        <ele>1243</ele>
        <time>2012-04-22T11:31:58.000Z</time>
      </trkpt>
      <trkpt lat="45.66404" lon="5.96538">
        <ele>1240</ele>
        <time>2012-04-22T11:32:01.000Z</time>
      </trkpt>
      <trkpt lat="45.66408" lon="5.96534">
        <ele>1238</ele>
        <time>2012-04-22T11:32:03.000Z</time>
      </trkpt>
      <trkpt lat="45.66411" lon="5.96528">
        <ele>1235</ele>
        <time>2012-04-22T11:32:05.000Z</time>
      </trkpt>
      <trkpt lat="45.66417" lon="5.96519">
        <ele>1255</ele>
        <time>2012-04-22T11:32:08.000Z</time>
      </trkpt>
      <trkpt lat="45.66421" lon="5.96512">
        <ele>1247</ele>
        <time>2012-04-22T11:32:10.000Z</time>
      </trkpt>
      <trkpt lat="45.66425" lon="5.96508">
        <ele>1245</ele>
        <time>2012-04-22T11:32:12.000Z</time>
      </trkpt>
      <trkpt lat="45.66429" lon="5.96502">
        <ele>1246</ele>
        <time>2012-04-22T11:32:14.000Z</time>
      </trkpt>
      <trkpt lat="45.66434" lon="5.96495">
        <ele>1222</ele>
        <time>2012-04-22T11:32:17.000Z</time>
      </trkpt>
      <trkpt lat="45.66435" lon="5.96489">
        <ele>1221</ele>
        <time>2012-04-22T11:32:19.000Z</time>
      </trkpt>
      <trkpt lat="45.66436" lon="5.96482">
        <ele>1220</ele>
        <time>2012-04-22T11:32:21.000Z</time>
      </trkpt>
      <trkpt lat="45.66437" lon="5.96474">
        <ele>1219</ele>
        <time>2012-04-22T11:32:23.000Z</time>
      </trkpt>
      <trkpt lat="45.66438" lon="5.96465">
        <ele>1216</ele>
        <time>2012-04-22T11:32:25.000Z</time>
      </trkpt>
      <trkpt lat="45.6644" lon="5.96457">
        <ele>1214</ele>
        <time>2012-04-22T11:32:27.000Z</time>
      </trkpt>
      <trkpt lat="45.66444" lon="5.96448">
        <ele>1212</ele>
        <time>2012-04-22T11:32:29.000Z</time>
      </trkpt>
      <trkpt lat="45.66447" lon="5.96442">
        <ele>1211</ele>
        <time>2012-04-22T11:32:31.000Z</time>
      </trkpt>
      <trkpt lat="45.66449" lon="5.96435">
        <ele>1209</ele>
        <time>2012-04-22T11:32:33.000Z</time>
      </trkpt>
      <trkpt lat="45.66452" lon="5.96429">
        <ele>1209</ele>
        <time>2012-04-22T11:32:35.000Z</time>
      </trkpt>
      <trkpt lat="45.66455" lon="5.96422">
        <ele>1209</ele>
        <time>2012-04-22T11:32:37.000Z</time>
      </trkpt>
      <trkpt lat="45.6646" lon="5.96414">
        <ele>1182</ele>
        <time>2012-04-22T11:32:40.000Z</time>
      </trkpt>
      <trkpt lat="45.66464" lon="5.96407">
        <ele>1183</ele>
        <time>2012-04-22T11:32:43.000Z</time>
      </trkpt>
      <trkpt lat="45.66468" lon="5.96405">
        <ele>1184</ele>
        <time>2012-04-22T11:32:45.000Z</time>
      </trkpt>
      <trkpt lat="45.66474" lon="5.96401">
        <ele>1186</ele>
        <time>2012-04-22T11:32:47.000Z</time>
      </trkpt>
      <trkpt lat="45.6648" lon="5.96394">
        <ele>1186</ele>
        <time>2012-04-22T11:32:49.000Z</time>
      </trkpt>
      <trkpt lat="45.66486" lon="5.96386">
        <ele>1185</ele>
        <time>2012-04-22T11:32:51.000Z</time>
      </trkpt>
      <trkpt lat="45.66493" lon="5.96382">
        <ele>1184</ele>
        <time>2012-04-22T11:32:53.000Z</time>
      </trkpt>
      <trkpt lat="45.66499" lon="5.96377">
        <ele>1183</ele>
        <time>2012-04-22T11:32:55.000Z</time>
      </trkpt>
      <trkpt lat="45.66504" lon="5.96375">
        <ele>1205</ele>
        <time>2012-04-22T11:32:57.000Z</time>
      </trkpt>
      <trkpt lat="45.66509" lon="5.96373">
        <ele>1204</ele>
        <time>2012-04-22T11:32:59.000Z</time>
      </trkpt>
      <trkpt lat="45.66514" lon="5.96367">
        <ele>1203</ele>
        <time>2012-04-22T11:33:01.000Z</time>
      </trkpt>
      <trkpt lat="45.66519" lon="5.96362">
        <ele>1202</ele>
        <time>2012-04-22T11:33:02.000Z</time>
      </trkpt>
      <trkpt lat="45.66523" lon="5.96356">
        <ele>1201</ele>
        <time>2012-04-22T11:33:04.000Z</time>
      </trkpt>
      <trkpt lat="45.66528" lon="5.96345">
        <ele>1199</ele>
        <time>2012-04-22T11:33:06.000Z</time>
      </trkpt>
      <trkpt lat="45.66533" lon="5.96334">
        <ele>1199</ele>
        <time>2012-04-22T11:33:08.000Z</time>
      </trkpt>
      <trkpt lat="45.66536" lon="5.96324">
        <ele>1177</ele>
        <time>2012-04-22T11:33:10.000Z</time>
      </trkpt>
      <trkpt lat="45.66537" lon="5.96315">
        <ele>1176</ele>
        <time>2012-04-22T11:33:12.000Z</time>
      </trkpt>
      <trkpt lat="45.66538" lon="5.96309">
        <ele>1176</ele>
        <time>2012-04-22T11:33:14.000Z</time>
      </trkpt>
      <trkpt lat="45.66536" lon="5.96302">
        <ele>1174</ele>
        <time>2012-04-22T11:33:18.000Z</time>
      </trkpt>
      <trkpt lat="45.66536" lon="5.96302">
        <ele>1174</ele>
        <time>2012-04-22T11:33:18.000Z</time>
      </trkpt>
      <trkpt lat="45.66536" lon="5.96302">
        <ele>1174</ele>
        <time>2012-04-22T11:33:19.000Z</time>
      </trkpt>
      <trkpt lat="45.6653" lon="5.963">
        <ele>1173</ele>
        <time>2012-04-22T11:33:23.000Z</time>
      </trkpt>
      <trkpt lat="45.66524" lon="5.963">
        <ele>1172</ele>
        <time>2012-04-22T11:33:28.000Z</time>
      </trkpt>
      <trkpt lat="45.6652" lon="5.96304">
        <ele>1173</ele>
        <time>2012-04-22T11:33:31.000Z</time>
      </trkpt>
      <trkpt lat="45.66512" lon="5.96309">
        <ele>1173</ele>
        <time>2012-04-22T11:33:34.000Z</time>
      </trkpt>
      <trkpt lat="45.66508" lon="5.96313">
        <ele>1174</ele>
        <time>2012-04-22T11:33:36.000Z</time>
      </trkpt>
      <trkpt lat="45.66503" lon="5.96317">
        <ele>1174</ele>
        <time>2012-04-22T11:33:38.000Z</time>
      </trkpt>
      <trkpt lat="45.66497" lon="5.96319">
        <ele>1160</ele>
        <time>2012-04-22T11:33:41.000Z</time>
      </trkpt>
      <trkpt lat="45.66493" lon="5.96324">
        <ele>1162</ele>
        <time>2012-04-22T11:33:44.000Z</time>
      </trkpt>
      <trkpt lat="45.66489" lon="5.96328">
        <ele>1162</ele>
        <time>2012-04-22T11:33:47.000Z</time>
      </trkpt>
      <trkpt lat="45.66484" lon="5.96332">
        <ele>1159</ele>
        <time>2012-04-22T11:33:49.000Z</time>
      </trkpt>
      <trkpt lat="45.66479" lon="5.96337">
        <ele>1173</ele>
        <time>2012-04-22T11:33:52.000Z</time>
      </trkpt>
      <trkpt lat="45.66474" lon="5.96339">
        <ele>1172</ele>
        <time>2012-04-22T11:33:56.000Z</time>
      </trkpt>
      <trkpt lat="45.66468" lon="5.96339">
        <ele>1171</ele>
        <time>2012-04-22T11:34:01.000Z</time>
      </trkpt>
      <trkpt lat="45.66472" lon="5.96332">
        <ele>1151</ele>
        <time>2012-04-22T11:34:20.000Z</time>
      </trkpt>
      <trkpt lat="45.66477" lon="5.96326">
        <ele>1153</ele>
        <time>2012-04-22T11:34:24.000Z</time>
      </trkpt>
      <trkpt lat="45.6648" lon="5.96319">
        <ele>1153</ele>
        <time>2012-04-22T11:34:26.000Z</time>
      </trkpt>
      <trkpt lat="45.66484" lon="5.96315">
        <ele>1153</ele>
        <time>2012-04-22T11:34:28.000Z</time>
      </trkpt>
      <trkpt lat="45.66488" lon="5.96309">
        <ele>1152</ele>
        <time>2012-04-22T11:34:31.000Z</time>
      </trkpt>
      <trkpt lat="45.66491" lon="5.96302">
        <ele>1150</ele>
        <time>2012-04-22T11:34:34.000Z</time>
      </trkpt>
      <trkpt lat="45.66492" lon="5.96296">
        <ele>1148</ele>
        <time>2012-04-22T11:34:36.000Z</time>
      </trkpt>
      <trkpt lat="45.66493" lon="5.96289">
        <ele>1146</ele>
        <time>2012-04-22T11:34:39.000Z</time>
      </trkpt>
      <trkpt lat="45.66494" lon="5.96283">
        <ele>1145</ele>
        <time>2012-04-22T11:34:42.000Z</time>
      </trkpt>
      <trkpt lat="45.66495" lon="5.96276">
        <ele>1145</ele>
        <time>2012-04-22T11:34:44.000Z</time>
      </trkpt>
      <trkpt lat="45.66497" lon="5.96268">
        <ele>1145</ele>
        <time>2012-04-22T11:34:47.000Z</time>
      </trkpt>
      <trkpt lat="45.66499" lon="5.96262">
        <ele>1146</ele>
        <time>2012-04-22T11:34:50.000Z</time>
      </trkpt>
      <trkpt lat="45.665" lon="5.96253">
        <ele>1148</ele>
        <time>2012-04-22T11:34:52.000Z</time>
      </trkpt>
      <trkpt lat="45.66503" lon="5.96246">
        <ele>1148</ele>
        <time>2012-04-22T11:34:54.000Z</time>
      </trkpt>
      <trkpt lat="45.66505" lon="5.9624">
        <ele>1146</ele>
        <time>2012-04-22T11:34:56.000Z</time>
      </trkpt>
      <trkpt lat="45.66507" lon="5.96231">
        <ele>1144</ele>
        <time>2012-04-22T11:34:58.000Z</time>
      </trkpt>
      <trkpt lat="45.6651" lon="5.96225">
        <ele>1143</ele>
        <time>2012-04-22T11:35:00.000Z</time>
      </trkpt>
      <trkpt lat="45.66513" lon="5.96216">
        <ele>1141</ele>
        <time>2012-04-22T11:35:02.000Z</time>
      </trkpt>
      <trkpt lat="45.66517" lon="5.9621">
        <ele>1140</ele>
        <time>2012-04-22T11:35:04.000Z</time>
      </trkpt>
      <trkpt lat="45.66521" lon="5.96204">
        <ele>1139</ele>
        <time>2012-04-22T11:35:07.000Z</time>
      </trkpt>
      <trkpt lat="45.66526" lon="5.96197">
        <ele>1138</ele>
        <time>2012-04-22T11:35:10.000Z</time>
      </trkpt>
      <trkpt lat="45.6653" lon="5.96193">
        <ele>1137</ele>
        <time>2012-04-22T11:35:13.000Z</time>
      </trkpt>
      <trkpt lat="45.66535" lon="5.96191">
        <ele>1137</ele>
        <time>2012-04-22T11:35:15.000Z</time>
      </trkpt>
      <trkpt lat="45.6654" lon="5.96186">
        <ele>1137</ele>
        <time>2012-04-22T11:35:18.000Z</time>
      </trkpt>
      <trkpt lat="45.66544" lon="5.96184">
        <ele>1137</ele>
        <time>2012-04-22T11:35:20.000Z</time>
      </trkpt>
      <trkpt lat="45.66549" lon="5.9618">
        <ele>1137</ele>
        <time>2012-04-22T11:35:22.000Z</time>
      </trkpt>
      <trkpt lat="45.66553" lon="5.96176">
        <ele>1136</ele>
        <time>2012-04-22T11:35:24.000Z</time>
      </trkpt>
      <trkpt lat="45.66557" lon="5.96171">
        <ele>1135</ele>
        <time>2012-04-22T11:35:26.000Z</time>
      </trkpt>
      <trkpt lat="45.66562" lon="5.96169">
        <ele>1135</ele>
        <time>2012-04-22T11:35:28.000Z</time>
      </trkpt>
      <trkpt lat="45.66566" lon="5.96167">
        <ele>1134</ele>
        <time>2012-04-22T11:35:30.000Z</time>
      </trkpt>
      <trkpt lat="45.66571" lon="5.96167">
        <ele>1133</ele>
        <time>2012-04-22T11:35:34.000Z</time>
      </trkpt>
      <trkpt lat="45.66577" lon="5.96167">
        <ele>1132</ele>
        <time>2012-04-22T11:35:37.000Z</time>
      </trkpt>
      <trkpt lat="45.66582" lon="5.96167">
        <ele>1130</ele>
        <time>2012-04-22T11:35:40.000Z</time>
      </trkpt>
      <trkpt lat="45.66586" lon="5.96165">
        <ele>1126</ele>
        <time>2012-04-22T11:35:42.000Z</time>
      </trkpt>
      <trkpt lat="45.66593" lon="5.96163">
        <ele>1120</ele>
        <time>2012-04-22T11:35:45.000Z</time>
      </trkpt>
      <trkpt lat="45.66598" lon="5.96161">
        <ele>1117</ele>
        <time>2012-04-22T11:35:47.000Z</time>
      </trkpt>
      <trkpt lat="45.66604" lon="5.96161">
        <ele>1115</ele>
        <time>2012-04-22T11:35:49.000Z</time>
      </trkpt>
      <trkpt lat="45.66609" lon="5.96158">
        <ele>1112</ele>
        <time>2012-04-22T11:35:51.000Z</time>
      </trkpt>
      <trkpt lat="45.66614" lon="5.96158">
        <ele>1111</ele>
        <time>2012-04-22T11:35:54.000Z</time>
      </trkpt>
      <trkpt lat="45.66621" lon="5.96158">
        <ele>1109</ele>
        <time>2012-04-22T11:35:57.000Z</time>
      </trkpt>
      <trkpt lat="45.66626" lon="5.96158">
        <ele>1108</ele>
        <time>2012-04-22T11:36:00.000Z</time>
      </trkpt>
      <trkpt lat="45.66631" lon="5.96158">
        <ele>1108</ele>
        <time>2012-04-22T11:36:03.000Z</time>
      </trkpt>
      <trkpt lat="45.66637" lon="5.96158">
        <ele>1107</ele>
        <time>2012-04-22T11:36:06.000Z</time>
      </trkpt>
      <trkpt lat="45.66642" lon="5.96161">
        <ele>1106</ele>
        <time>2012-04-22T11:36:08.000Z</time>
      </trkpt>
      <trkpt lat="45.6665" lon="5.96161">
        <ele>1106</ele>
        <time>2012-04-22T11:36:11.000Z</time>
      </trkpt>
      <trkpt lat="45.66655" lon="5.96163">
        <ele>1106</ele>
        <time>2012-04-22T11:36:13.000Z</time>
      </trkpt>
      <trkpt lat="45.66661" lon="5.96165">
        <ele>1106</ele>
        <time>2012-04-22T11:36:15.000Z</time>
      </trkpt>
      <trkpt lat="45.66668" lon="5.96167">
        <ele>1106</ele>
        <time>2012-04-22T11:36:17.000Z</time>
      </trkpt>
      <trkpt lat="45.66674" lon="5.96169">
        <ele>1106</ele>
        <time>2012-04-22T11:36:19.000Z</time>
      </trkpt>
      <trkpt lat="45.6668" lon="5.96171">
        <ele>1106</ele>
        <time>2012-04-22T11:36:21.000Z</time>
      </trkpt>
      <trkpt lat="45.66687" lon="5.96174">
        <ele>1105</ele>
        <time>2012-04-22T11:36:24.000Z</time>
      </trkpt>
      <trkpt lat="45.66692" lon="5.96176">
        <ele>1105</ele>
        <time>2012-04-22T11:36:26.000Z</time>
      </trkpt>
      <trkpt lat="45.66697" lon="5.96176">
        <ele>1104</ele>
        <time>2012-04-22T11:36:28.000Z</time>
      </trkpt>
      <trkpt lat="45.66703" lon="5.96176">
        <ele>1103</ele>
        <time>2012-04-22T11:36:31.000Z</time>
      </trkpt>
      <trkpt lat="45.66708" lon="5.96174">
        <ele>1102</ele>
        <time>2012-04-22T11:36:33.000Z</time>
      </trkpt>
      <trkpt lat="45.66713" lon="5.96169">
        <ele>1100</ele>
        <time>2012-04-22T11:36:35.000Z</time>
      </trkpt>
      <trkpt lat="45.66719" lon="5.96161">
        <ele>1089</ele>
        <time>2012-04-22T11:36:37.000Z</time>
      </trkpt>
      <trkpt lat="45.66725" lon="5.96156">
        <ele>1088</ele>
        <time>2012-04-22T11:36:39.000Z</time>
      </trkpt>
      <trkpt lat="45.6673" lon="5.96152">
        <ele>1087</ele>
        <time>2012-04-22T11:36:41.000Z</time>
      </trkpt>
      <trkpt lat="45.66734" lon="5.9615">
        <ele>1087</ele>
        <time>2012-04-22T11:36:43.000Z</time>
      </trkpt>
      <trkpt lat="45.66739" lon="5.96148">
        <ele>1086</ele>
        <time>2012-04-22T11:36:45.000Z</time>
      </trkpt>
      <trkpt lat="45.66743" lon="5.96146">
        <ele>1086</ele>
        <time>2012-04-22T11:36:47.000Z</time>
      </trkpt>
      <trkpt lat="45.66749" lon="5.96146">
        <ele>1086</ele>
        <time>2012-04-22T11:36:50.000Z</time>
      </trkpt>
      <trkpt lat="45.66755" lon="5.96143">
        <ele>1074</ele>
        <time>2012-04-22T11:36:53.000Z</time>
      </trkpt>
      <trkpt lat="45.6676" lon="5.96141">
        <ele>1073</ele>
        <time>2012-04-22T11:36:56.000Z</time>
      </trkpt>
      <trkpt lat="45.66766" lon="5.96141">
        <ele>1073</ele>
        <time>2012-04-22T11:37:00.000Z</time>
      </trkpt>
      <trkpt lat="45.66771" lon="5.96141">
        <ele>1072</ele>
        <time>2012-04-22T11:37:04.000Z</time>
      </trkpt>
      <trkpt lat="45.66776" lon="5.96137">
        <ele>1071</ele>
        <time>2012-04-22T11:37:09.000Z</time>
      </trkpt>
      <trkpt lat="45.66782" lon="5.96137">
        <ele>1070</ele>
        <time>2012-04-22T11:37:14.000Z</time>
      </trkpt>
      <trkpt lat="45.66786" lon="5.96141">
        <ele>1069</ele>
        <time>2012-04-22T11:37:18.000Z</time>
      </trkpt>
      <trkpt lat="45.6679" lon="5.96143">
        <ele>1069</ele>
        <time>2012-04-22T11:37:22.000Z</time>
      </trkpt>
      <trkpt lat="45.66794" lon="5.96146">
        <ele>1068</ele>
        <time>2012-04-22T11:37:26.000Z</time>
      </trkpt>
      <trkpt lat="45.66799" lon="5.96148">
        <ele>1067</ele>
        <time>2012-04-22T11:37:31.000Z</time>
      </trkpt>
      <trkpt lat="45.66799" lon="5.96148">
        <ele>1067</ele>
        <time>2012-04-22T11:37:31.000Z</time>
      </trkpt>
      <trkpt lat="45.66799" lon="5.96148">
        <ele>1067</ele>
        <time>2012-04-22T11:37:32.000Z</time>
      </trkpt>
      <trkpt lat="45.66803" lon="5.9615">
        <ele>1067</ele>
        <time>2012-04-22T11:37:38.000Z</time>
      </trkpt>
      <trkpt lat="45.66803" lon="5.9615">
        <ele>1067</ele>
        <time>2012-04-22T11:37:38.000Z</time>
      </trkpt>
      <trkpt lat="45.66803" lon="5.9615">
        <ele>1067</ele>
        <time>2012-04-22T11:37:39.000Z</time>
      </trkpt>
      <trkpt lat="45.66807" lon="5.96148">
        <ele>1066</ele>
        <time>2012-04-22T11:37:48.000Z</time>
      </trkpt>
      <trkpt lat="45.66813" lon="5.96148">
        <ele>1065</ele>
        <time>2012-04-22T11:37:55.000Z</time>
      </trkpt>
      <trkpt lat="45.66817" lon="5.9615">
        <ele>1065</ele>
        <time>2012-04-22T11:37:59.000Z</time>
      </trkpt>
      <trkpt lat="45.66821" lon="5.96154">
        <ele>1064</ele>
        <time>2012-04-22T11:38:04.000Z</time>
      </trkpt>
      <trkpt lat="45.66823" lon="5.96161">
        <ele>1063</ele>
        <time>2012-04-22T11:38:08.000Z</time>
      </trkpt>
      <trkpt lat="45.66823" lon="5.96161">
        <ele>1063</ele>
        <time>2012-04-22T11:38:08.000Z</time>
      </trkpt>
      <trkpt lat="45.66823" lon="5.96161">
        <ele>1063</ele>
        <time>2012-04-22T11:38:09.000Z</time>
      </trkpt>
      <trkpt lat="45.66824" lon="5.96169">
        <ele>1065</ele>
        <time>2012-04-22T11:38:13.000Z</time>
      </trkpt>
      <trkpt lat="45.66824" lon="5.96176">
        <ele>1066</ele>
        <time>2012-04-22T11:38:16.000Z</time>
      </trkpt>
      <trkpt lat="45.66824" lon="5.96182">
        <ele>1068</ele>
        <time>2012-04-22T11:38:23.000Z</time>
      </trkpt>
      <trkpt lat="45.66823" lon="5.96188">
        <ele>1069</ele>
        <time>2012-04-22T11:38:26.000Z</time>
      </trkpt>
      <trkpt lat="45.66821" lon="5.96195">
        <ele>1070</ele>
        <time>2012-04-22T11:38:30.000Z</time>
      </trkpt>
      <trkpt lat="45.6682" lon="5.96201">
        <ele>1071</ele>
        <time>2012-04-22T11:38:34.000Z</time>
      </trkpt>
      <trkpt lat="45.66821" lon="5.96208">
        <ele>1071</ele>
        <time>2012-04-22T11:38:37.000Z</time>
      </trkpt>
      <trkpt lat="45.66823" lon="5.96216">
        <ele>1071</ele>
        <time>2012-04-22T11:38:39.000Z</time>
      </trkpt>
      <trkpt lat="45.66827" lon="5.96225">
        <ele>1070</ele>
        <time>2012-04-22T11:38:42.000Z</time>
      </trkpt>
      <trkpt lat="45.66831" lon="5.96231">
        <ele>1069</ele>
        <time>2012-04-22T11:38:45.000Z</time>
      </trkpt>
      <trkpt lat="45.66834" lon="5.96236">
        <ele>1056</ele>
        <time>2012-04-22T11:38:48.000Z</time>
      </trkpt>
      <trkpt lat="45.66838" lon="5.9624">
        <ele>1057</ele>
        <time>2012-04-22T11:38:51.000Z</time>
      </trkpt>
      <trkpt lat="45.66844" lon="5.96244">
        <ele>1056</ele>
        <time>2012-04-22T11:38:55.000Z</time>
      </trkpt>
      <trkpt lat="45.66848" lon="5.96246">
        <ele>1055</ele>
        <time>2012-04-22T11:38:57.000Z</time>
      </trkpt>
      <trkpt lat="45.66854" lon="5.96251">
        <ele>1057</ele>
        <time>2012-04-22T11:39:00.000Z</time>
      </trkpt>
      <trkpt lat="45.66858" lon="5.96255">
        <ele>1056</ele>
        <time>2012-04-22T11:39:03.000Z</time>
      </trkpt>
      <trkpt lat="45.66863" lon="5.96262">
        <ele>1055</ele>
        <time>2012-04-22T11:39:06.000Z</time>
      </trkpt>
      <trkpt lat="45.66867" lon="5.96268">
        <ele>1054</ele>
        <time>2012-04-22T11:39:09.000Z</time>
      </trkpt>
      <trkpt lat="45.66874" lon="5.96274">
        <ele>1053</ele>
        <time>2012-04-22T11:39:12.000Z</time>
      </trkpt>
      <trkpt lat="45.66879" lon="5.96281">
        <ele>1053</ele>
        <time>2012-04-22T11:39:14.000Z</time>
      </trkpt>
      <trkpt lat="45.66884" lon="5.96285">
        <ele>1052</ele>
        <time>2012-04-22T11:39:16.000Z</time>
      </trkpt>
      <trkpt lat="45.66888" lon="5.96289">
        <ele>1052</ele>
        <time>2012-04-22T11:39:18.000Z</time>
      </trkpt>
      <trkpt lat="45.66893" lon="5.96294">
        <ele>1051</ele>
        <time>2012-04-22T11:39:21.000Z</time>
      </trkpt>
      <trkpt lat="45.66898" lon="5.96298">
        <ele>1050</ele>
        <time>2012-04-22T11:39:23.000Z</time>
      </trkpt>
      <trkpt lat="45.66903" lon="5.96302">
        <ele>1050</ele>
        <time>2012-04-22T11:39:26.000Z</time>
      </trkpt>
      <trkpt lat="45.66909" lon="5.96309">
        <ele>1049</ele>
        <time>2012-04-22T11:39:29.000Z</time>
      </trkpt>
      <trkpt lat="45.66916" lon="5.96315">
        <ele>1047</ele>
        <time>2012-04-22T11:39:31.000Z</time>
      </trkpt>
      <trkpt lat="45.6692" lon="5.96319">
        <ele>1036</ele>
        <time>2012-04-22T11:39:32.000Z</time>
      </trkpt>
      <trkpt lat="45.66924" lon="5.96322">
        <ele>1036</ele>
        <time>2012-04-22T11:39:33.000Z</time>
      </trkpt>
      <trkpt lat="45.66932" lon="5.96328">
        <ele>1035</ele>
        <time>2012-04-22T11:39:35.000Z</time>
      </trkpt>
      <trkpt lat="45.66938" lon="5.96332">
        <ele>1034</ele>
        <time>2012-04-22T11:39:37.000Z</time>
      </trkpt>
      <trkpt lat="45.66945" lon="5.96339">
        <ele>1044</ele>
        <time>2012-04-22T11:39:39.000Z</time>
      </trkpt>
      <trkpt lat="45.66951" lon="5.96341">
        <ele>1044</ele>
        <time>2012-04-22T11:39:41.000Z</time>
      </trkpt>
      <trkpt lat="45.66958" lon="5.96345">
        <ele>1044</ele>
        <time>2012-04-22T11:39:43.000Z</time>
      </trkpt>
      <trkpt lat="45.66964" lon="5.96345">
        <ele>1043</ele>
        <time>2012-04-22T11:39:45.000Z</time>
      </trkpt>
      <trkpt lat="45.6697" lon="5.96345">
        <ele>1042</ele>
        <time>2012-04-22T11:39:47.000Z</time>
      </trkpt>
      <trkpt lat="45.66977" lon="5.96347">
        <ele>1040</ele>
        <time>2012-04-22T11:39:49.000Z</time>
      </trkpt>
      <trkpt lat="45.66983" lon="5.96347">
        <ele>1039</ele>
        <time>2012-04-22T11:39:51.000Z</time>
      </trkpt>
      <trkpt lat="45.66989" lon="5.96347">
        <ele>1037</ele>
        <time>2012-04-22T11:39:53.000Z</time>
      </trkpt>
      <trkpt lat="45.66994" lon="5.96349">
        <ele>1037</ele>
        <time>2012-04-22T11:39:54.000Z</time>
      </trkpt>
      <trkpt lat="45.66999" lon="5.96349">
        <ele>1036</ele>
        <time>2012-04-22T11:39:56.000Z</time>
      </trkpt>
      <trkpt lat="45.67004" lon="5.96354">
        <ele>1031</ele>
        <time>2012-04-22T11:39:58.000Z</time>
      </trkpt>
      <trkpt lat="45.67008" lon="5.96358">
        <ele>1031</ele>
        <time>2012-04-22T11:40:01.000Z</time>
      </trkpt>
      <trkpt lat="45.67012" lon="5.96364">
        <ele>1033</ele>
        <time>2012-04-22T11:40:04.000Z</time>
      </trkpt>
      <trkpt lat="45.67016" lon="5.96371">
        <ele>1034</ele>
        <time>2012-04-22T11:40:07.000Z</time>
      </trkpt>
      <trkpt lat="45.6702" lon="5.96377">
        <ele>1035</ele>
        <time>2012-04-22T11:40:10.000Z</time>
      </trkpt>
      <trkpt lat="45.67024" lon="5.96384">
        <ele>1036</ele>
        <time>2012-04-22T11:40:12.000Z</time>
      </trkpt>
      <trkpt lat="45.67027" lon="5.9639">
        <ele>1036</ele>
        <time>2012-04-22T11:40:15.000Z</time>
      </trkpt>
      <trkpt lat="45.6703" lon="5.96397">
        <ele>1037</ele>
        <time>2012-04-22T11:40:18.000Z</time>
      </trkpt>
      <trkpt lat="45.67034" lon="5.96403">
        <ele>1037</ele>
        <time>2012-04-22T11:40:20.000Z</time>
      </trkpt>
      <trkpt lat="45.67038" lon="5.9641">
        <ele>1037</ele>
        <time>2012-04-22T11:40:23.000Z</time>
      </trkpt>
      <trkpt lat="45.67042" lon="5.96414">
        <ele>1036</ele>
        <time>2012-04-22T11:40:26.000Z</time>
      </trkpt>
      <trkpt lat="45.67047" lon="5.96418">
        <ele>1054</ele>
        <time>2012-04-22T11:40:30.000Z</time>
      </trkpt>
      <trkpt lat="45.6705" lon="5.96424">
        <ele>1054</ele>
        <time>2012-04-22T11:40:34.000Z</time>
      </trkpt>
      <trkpt lat="45.67054" lon="5.96431">
        <ele>1054</ele>
        <time>2012-04-22T11:40:37.000Z</time>
      </trkpt>
      <trkpt lat="45.67058" lon="5.96435">
        <ele>1053</ele>
        <time>2012-04-22T11:40:39.000Z</time>
      </trkpt>
      <trkpt lat="45.67065" lon="5.96437">
        <ele>1052</ele>
        <time>2012-04-22T11:40:41.000Z</time>
      </trkpt>
      <trkpt lat="45.67071" lon="5.9644">
        <ele>1052</ele>
        <time>2012-04-22T11:40:43.000Z</time>
      </trkpt>
      <trkpt lat="45.67078" lon="5.9644">
        <ele>1050</ele>
        <time>2012-04-22T11:40:45.000Z</time>
      </trkpt>
      <trkpt lat="45.67085" lon="5.9644">
        <ele>1035</ele>
        <time>2012-04-22T11:40:47.000Z</time>
      </trkpt>
      <trkpt lat="45.67092" lon="5.9644">
        <ele>1035</ele>
        <time>2012-04-22T11:40:49.000Z</time>
      </trkpt>
      <trkpt lat="45.67097" lon="5.9644">
        <ele>1035</ele>
        <time>2012-04-22T11:40:51.000Z</time>
      </trkpt>
      <trkpt lat="45.67101" lon="5.96442">
        <ele>1035</ele>
        <time>2012-04-22T11:40:53.000Z</time>
      </trkpt>
      <trkpt lat="45.67106" lon="5.96446">
        <ele>1035</ele>
        <time>2012-04-22T11:40:55.000Z</time>
      </trkpt>
      <trkpt lat="45.6711" lon="5.96448">
        <ele>1034</ele>
        <time>2012-04-22T11:40:57.000Z</time>
      </trkpt>
      <trkpt lat="45.67114" lon="5.96452">
        <ele>1034</ele>
        <time>2012-04-22T11:40:59.000Z</time>
      </trkpt>
      <trkpt lat="45.67118" lon="5.96455">
        <ele>1034</ele>
        <time>2012-04-22T11:41:01.000Z</time>
      </trkpt>
      <trkpt lat="45.67123" lon="5.96457">
        <ele>1034</ele>
        <time>2012-04-22T11:41:03.000Z</time>
      </trkpt>
      <trkpt lat="45.67127" lon="5.96459">
        <ele>1033</ele>
        <time>2012-04-22T11:41:05.000Z</time>
      </trkpt>
      <trkpt lat="45.67132" lon="5.96459">
        <ele>1032</ele>
        <time>2012-04-22T11:41:07.000Z</time>
      </trkpt>
      <trkpt lat="45.67139" lon="5.96459">
        <ele>1031</ele>
        <time>2012-04-22T11:41:09.000Z</time>
      </trkpt>
      <trkpt lat="45.67145" lon="5.96461">
        <ele>1031</ele>
        <time>2012-04-22T11:41:11.000Z</time>
      </trkpt>
      <trkpt lat="45.67151" lon="5.96465">
        <ele>1030</ele>
        <time>2012-04-22T11:41:12.000Z</time>
      </trkpt>
      <trkpt lat="45.67155" lon="5.96467">
        <ele>1030</ele>
        <time>2012-04-22T11:41:13.000Z</time>
      </trkpt>
      <trkpt lat="45.6716" lon="5.9647">
        <ele>1030</ele>
        <time>2012-04-22T11:41:15.000Z</time>
      </trkpt>
      <trkpt lat="45.67167" lon="5.9647">
        <ele>1019</ele>
        <time>2012-04-22T11:41:18.000Z</time>
      </trkpt>
      <trkpt lat="45.67172" lon="5.96467">
        <ele>1018</ele>
        <time>2012-04-22T11:41:21.000Z</time>
      </trkpt>
      <trkpt lat="45.67174" lon="5.96461">
        <ele>1018</ele>
        <time>2012-04-22T11:41:27.000Z</time>
      </trkpt>
      <trkpt lat="45.67175" lon="5.96455">
        <ele>1017</ele>
        <time>2012-04-22T11:41:30.000Z</time>
      </trkpt>
      <trkpt lat="45.67178" lon="5.96448">
        <ele>1017</ele>
        <time>2012-04-22T11:41:34.000Z</time>
      </trkpt>
      <trkpt lat="45.67182" lon="5.96442">
        <ele>1016</ele>
        <time>2012-04-22T11:41:38.000Z</time>
      </trkpt>
      <trkpt lat="45.67187" lon="5.96437">
        <ele>1016</ele>
        <time>2012-04-22T11:41:41.000Z</time>
      </trkpt>
      <trkpt lat="45.67191" lon="5.96433">
        <ele>1016</ele>
        <time>2012-04-22T11:41:43.000Z</time>
      </trkpt>
      <trkpt lat="45.67196" lon="5.96431">
        <ele>1015</ele>
        <time>2012-04-22T11:41:45.000Z</time>
      </trkpt>
      <trkpt lat="45.67201" lon="5.96424">
        <ele>1015</ele>
        <time>2012-04-22T11:41:47.000Z</time>
      </trkpt>
      <trkpt lat="45.67204" lon="5.96416">
        <ele>1006</ele>
        <time>2012-04-22T11:41:49.000Z</time>
      </trkpt>
      <trkpt lat="45.67208" lon="5.96407">
        <ele>1006</ele>
        <time>2012-04-22T11:41:51.000Z</time>
      </trkpt>
      <trkpt lat="45.67209" lon="5.96399">
        <ele>1005</ele>
        <time>2012-04-22T11:41:53.000Z</time>
      </trkpt>
      <trkpt lat="45.6721" lon="5.96392">
        <ele>1004</ele>
        <time>2012-04-22T11:41:56.000Z</time>
      </trkpt>
      <trkpt lat="45.67209" lon="5.96386">
        <ele>1004</ele>
        <time>2012-04-22T11:41:59.000Z</time>
      </trkpt>
      <trkpt lat="45.67204" lon="5.9638">
        <ele>1004</ele>
        <time>2012-04-22T11:42:03.000Z</time>
      </trkpt>
      <trkpt lat="45.67201" lon="5.96373">
        <ele>1003</ele>
        <time>2012-04-22T11:42:07.000Z</time>
      </trkpt>
      <trkpt lat="45.672" lon="5.96367">
        <ele>1003</ele>
        <time>2012-04-22T11:42:10.000Z</time>
      </trkpt>
      <trkpt lat="45.67199" lon="5.9636">
        <ele>1003</ele>
        <time>2012-04-22T11:42:12.000Z</time>
      </trkpt>
      <trkpt lat="45.67197" lon="5.96354">
        <ele>1002</ele>
        <time>2012-04-22T11:42:15.000Z</time>
      </trkpt>
      <trkpt lat="45.67196" lon="5.96347">
        <ele>1002</ele>
        <time>2012-04-22T11:42:18.000Z</time>
      </trkpt>
      <trkpt lat="45.67194" lon="5.96341">
        <ele>1002</ele>
        <time>2012-04-22T11:42:20.000Z</time>
      </trkpt>
      <trkpt lat="45.67192" lon="5.96334">
        <ele>1002</ele>
        <time>2012-04-22T11:42:22.000Z</time>
      </trkpt>
      <trkpt lat="45.67191" lon="5.96328">
        <ele>991</ele>
        <time>2012-04-22T11:42:24.000Z</time>
      </trkpt>
      <trkpt lat="45.6719" lon="5.96322">
        <ele>990</ele>
        <time>2012-04-22T11:42:27.000Z</time>
      </trkpt>
      <trkpt lat="45.67188" lon="5.96315">
        <ele>989</ele>
        <time>2012-04-22T11:42:30.000Z</time>
      </trkpt>
      <trkpt lat="45.67187" lon="5.96306">
        <ele>987</ele>
        <time>2012-04-22T11:42:34.000Z</time>
      </trkpt>
      <trkpt lat="45.67188" lon="5.963">
        <ele>986</ele>
        <time>2012-04-22T11:42:37.000Z</time>
      </trkpt>
      <trkpt lat="45.67188" lon="5.963">
        <ele>986</ele>
        <time>2012-04-22T11:42:37.000Z</time>
      </trkpt>
      <trkpt lat="45.67188" lon="5.963">
        <ele>986</ele>
        <time>2012-04-22T11:42:38.000Z</time>
      </trkpt>
      <trkpt lat="45.6719" lon="5.96294">
        <ele>985</ele>
        <time>2012-04-22T11:42:43.000Z</time>
      </trkpt>
      <trkpt lat="45.67195" lon="5.96287">
        <ele>983</ele>
        <time>2012-04-22T11:42:48.000Z</time>
      </trkpt>
      <trkpt lat="45.67199" lon="5.96285">
        <ele>982</ele>
        <time>2012-04-22T11:42:53.000Z</time>
      </trkpt>
      <trkpt lat="45.67199" lon="5.96285">
        <ele>982</ele>
        <time>2012-04-22T11:42:53.000Z</time>
      </trkpt>
      <trkpt lat="45.67199" lon="5.96285">
        <ele>982</ele>
        <time>2012-04-22T11:42:54.000Z</time>
      </trkpt>
      <trkpt lat="45.67203" lon="5.96283">
        <ele>981</ele>
        <time>2012-04-22T11:42:58.000Z</time>
      </trkpt>
      <trkpt lat="45.67208" lon="5.96281">
        <ele>980</ele>
        <time>2012-04-22T11:43:03.000Z</time>
      </trkpt>
      <trkpt lat="45.67212" lon="5.96279">
        <ele>980</ele>
        <time>2012-04-22T11:43:08.000Z</time>
      </trkpt>
      <trkpt lat="45.67217" lon="5.96279">
        <ele>979</ele>
        <time>2012-04-22T11:43:11.000Z</time>
      </trkpt>
      <trkpt lat="45.67224" lon="5.96276">
        <ele>977</ele>
        <time>2012-04-22T11:43:15.000Z</time>
      </trkpt>
      <trkpt lat="45.6723" lon="5.96276">
        <ele>976</ele>
        <time>2012-04-22T11:43:19.000Z</time>
      </trkpt>
      <trkpt lat="45.67235" lon="5.96276">
        <ele>975</ele>
        <time>2012-04-22T11:43:23.000Z</time>
      </trkpt>
      <trkpt lat="45.6724" lon="5.96283">
        <ele>976</ele>
        <time>2012-04-22T11:43:27.000Z</time>
      </trkpt>
      <trkpt lat="45.67245" lon="5.96285">
        <ele>976</ele>
        <time>2012-04-22T11:43:31.000Z</time>
      </trkpt>
      <trkpt lat="45.67249" lon="5.96287">
        <ele>977</ele>
        <time>2012-04-22T11:43:33.000Z</time>
      </trkpt>
      <trkpt lat="45.67256" lon="5.96289">
        <ele>958</ele>
        <time>2012-04-22T11:43:36.000Z</time>
      </trkpt>
      <trkpt lat="45.67263" lon="5.96289">
        <ele>957</ele>
        <time>2012-04-22T11:43:39.000Z</time>
      </trkpt>
      <trkpt lat="45.67269" lon="5.96289">
        <ele>956</ele>
        <time>2012-04-22T11:43:41.000Z</time>
      </trkpt>
      <trkpt lat="45.67274" lon="5.96289">
        <ele>955</ele>
        <time>2012-04-22T11:43:43.000Z</time>
      </trkpt>
      <trkpt lat="45.67278" lon="5.96292">
        <ele>955</ele>
        <time>2012-04-22T11:43:45.000Z</time>
      </trkpt>
      <trkpt lat="45.67284" lon="5.96298">
        <ele>955</ele>
        <time>2012-04-22T11:43:48.000Z</time>
      </trkpt>
      <trkpt lat="45.67288" lon="5.963">
        <ele>955</ele>
        <time>2012-04-22T11:43:50.000Z</time>
      </trkpt>
      <trkpt lat="45.67293" lon="5.96302">
        <ele>954</ele>
        <time>2012-04-22T11:43:53.000Z</time>
      </trkpt>
      <trkpt lat="45.67298" lon="5.96304">
        <ele>953</ele>
        <time>2012-04-22T11:43:55.000Z</time>
      </trkpt>
      <trkpt lat="45.67302" lon="5.96306">
        <ele>952</ele>
        <time>2012-04-22T11:43:57.000Z</time>
      </trkpt>
      <trkpt lat="45.67307" lon="5.96309">
        <ele>952</ele>
        <time>2012-04-22T11:44:00.000Z</time>
      </trkpt>
      <trkpt lat="45.67312" lon="5.96311">
        <ele>951</ele>
        <time>2012-04-22T11:44:02.000Z</time>
      </trkpt>
      <trkpt lat="45.67316" lon="5.96315">
        <ele>951</ele>
        <time>2012-04-22T11:44:04.000Z</time>
      </trkpt>
      <trkpt lat="45.6732" lon="5.96319">
        <ele>951</ele>
        <time>2012-04-22T11:44:06.000Z</time>
      </trkpt>
      <trkpt lat="45.67324" lon="5.96324">
        <ele>951</ele>
        <time>2012-04-22T11:44:08.000Z</time>
      </trkpt>
      <trkpt lat="45.67329" lon="5.96326">
        <ele>951</ele>
        <time>2012-04-22T11:44:10.000Z</time>
      </trkpt>
      <trkpt lat="45.67334" lon="5.96328">
        <ele>944</ele>
        <time>2012-04-22T11:44:12.000Z</time>
      </trkpt>
      <trkpt lat="45.67342" lon="5.96332">
        <ele>941</ele>
        <time>2012-04-22T11:44:14.000Z</time>
      </trkpt>
      <trkpt lat="45.67346" lon="5.9633">
        <ele>937</ele>
        <time>2012-04-22T11:44:16.000Z</time>
      </trkpt>
      <trkpt lat="45.67347" lon="5.96324">
        <ele>934</ele>
        <time>2012-04-22T11:44:21.000Z</time>
      </trkpt>
      <trkpt lat="45.67344" lon="5.96317">
        <ele>932</ele>
        <time>2012-04-22T11:44:24.000Z</time>
      </trkpt>
      <trkpt lat="45.6734" lon="5.96313">
        <ele>931</ele>
        <time>2012-04-22T11:44:27.000Z</time>
      </trkpt>
      <trkpt lat="45.67337" lon="5.96306">
        <ele>928</ele>
        <time>2012-04-22T11:44:30.000Z</time>
      </trkpt>
      <trkpt lat="45.67334" lon="5.963">
        <ele>925</ele>
        <time>2012-04-22T11:44:34.000Z</time>
      </trkpt>
      <trkpt lat="45.67331" lon="5.96294">
        <ele>945</ele>
        <time>2012-04-22T11:44:38.000Z</time>
      </trkpt>
      <trkpt lat="45.67329" lon="5.96287">
        <ele>943</ele>
        <time>2012-04-22T11:44:41.000Z</time>
      </trkpt>
      <trkpt lat="45.67324" lon="5.96281">
        <ele>942</ele>
        <time>2012-04-22T11:44:45.000Z</time>
      </trkpt>
      <trkpt lat="45.67322" lon="5.96274">
        <ele>939</ele>
        <time>2012-04-22T11:44:47.000Z</time>
      </trkpt>
      <trkpt lat="45.67318" lon="5.9627">
        <ele>938</ele>
        <time>2012-04-22T11:44:49.000Z</time>
      </trkpt>
      <trkpt lat="45.67314" lon="5.96266">
        <ele>938</ele>
        <time>2012-04-22T11:44:51.000Z</time>
      </trkpt>
      <trkpt lat="45.6731" lon="5.96259">
        <ele>938</ele>
        <time>2012-04-22T11:44:53.000Z</time>
      </trkpt>
      <trkpt lat="45.67306" lon="5.96255">
        <ele>940</ele>
        <time>2012-04-22T11:44:55.000Z</time>
      </trkpt>
      <trkpt lat="45.67302" lon="5.96249">
        <ele>923</ele>
        <time>2012-04-22T11:45:00.000Z</time>
      </trkpt>
      <trkpt lat="45.67302" lon="5.96249">
        <ele>923</ele>
        <time>2012-04-22T11:45:00.000Z</time>
      </trkpt>
      <trkpt lat="45.67302" lon="5.96249">
        <ele>923</ele>
        <time>2012-04-22T11:45:01.000Z</time>
      </trkpt>
      <trkpt lat="45.67307" lon="5.96246">
        <ele>921</ele>
        <time>2012-04-22T11:45:31.000Z</time>
      </trkpt>
      <trkpt lat="45.67314" lon="5.96246">
        <ele>919</ele>
        <time>2012-04-22T11:45:35.000Z</time>
      </trkpt>
      <trkpt lat="45.67319" lon="5.96251">
        <ele>930</ele>
        <time>2012-04-22T11:45:38.000Z</time>
      </trkpt>
      <trkpt lat="45.67324" lon="5.96253">
        <ele>926</ele>
        <time>2012-04-22T11:45:40.000Z</time>
      </trkpt>
      <trkpt lat="45.67331" lon="5.96255">
        <ele>922</ele>
        <time>2012-04-22T11:45:42.000Z</time>
      </trkpt>
      <trkpt lat="45.67335" lon="5.96257">
        <ele>915</ele>
        <time>2012-04-22T11:45:43.000Z</time>
      </trkpt>
      <trkpt lat="45.67342" lon="5.96257">
        <ele>915</ele>
        <time>2012-04-22T11:45:45.000Z</time>
      </trkpt>
      <trkpt lat="45.67348" lon="5.96257">
        <ele>914</ele>
        <time>2012-04-22T11:45:47.000Z</time>
      </trkpt>
      <trkpt lat="45.67357" lon="5.96257">
        <ele>914</ele>
        <time>2012-04-22T11:45:49.000Z</time>
      </trkpt>
      <trkpt lat="45.67364" lon="5.96257">
        <ele>912</ele>
        <time>2012-04-22T11:45:51.000Z</time>
      </trkpt>
      <trkpt lat="45.67371" lon="5.96257">
        <ele>911</ele>
        <time>2012-04-22T11:45:53.000Z</time>
      </trkpt>
      <trkpt lat="45.67375" lon="5.96255">
        <ele>910</ele>
        <time>2012-04-22T11:45:55.000Z</time>
      </trkpt>
      <trkpt lat="45.67377" lon="5.96249">
        <ele>892</ele>
        <time>2012-04-22T11:45:59.000Z</time>
      </trkpt>
      <trkpt lat="45.67377" lon="5.96249">
        <ele>892</ele>
        <time>2012-04-22T11:45:59.000Z</time>
      </trkpt>
      <trkpt lat="45.67377" lon="5.96249">
        <ele>892</ele>
        <time>2012-04-22T11:46:00.000Z</time>
      </trkpt>
      <trkpt lat="45.67375" lon="5.96242">
        <ele>892</ele>
        <time>2012-04-22T11:46:05.000Z</time>
      </trkpt>
      <trkpt lat="45.67375" lon="5.96242">
        <ele>892</ele>
        <time>2012-04-22T11:46:05.000Z</time>
      </trkpt>
      <trkpt lat="45.67375" lon="5.96242">
        <ele>892</ele>
        <time>2012-04-22T11:46:06.000Z</time>
      </trkpt>
      <trkpt lat="45.67373" lon="5.96236">
        <ele>892</ele>
        <time>2012-04-22T11:46:11.000Z</time>
      </trkpt>
      <trkpt lat="45.67373" lon="5.96236">
        <ele>892</ele>
        <time>2012-04-22T11:46:11.000Z</time>
      </trkpt>
      <trkpt lat="45.67373" lon="5.96236">
        <ele>892</ele>
        <time>2012-04-22T11:46:13.000Z</time>
      </trkpt>
      <trkpt lat="45.67368" lon="5.96231">
        <ele>893</ele>
        <time>2012-04-22T11:46:19.000Z</time>
      </trkpt>
      <trkpt lat="45.67368" lon="5.96231">
        <ele>893</ele>
        <time>2012-04-22T11:46:19.000Z</time>
      </trkpt>
      <trkpt lat="45.67368" lon="5.96231">
        <ele>893</ele>
        <time>2012-04-22T11:46:20.000Z</time>
      </trkpt>
      <trkpt lat="45.67367" lon="5.96225">
        <ele>892</ele>
        <time>2012-04-22T11:46:24.000Z</time>
      </trkpt>
      <trkpt lat="45.67367" lon="5.96216">
        <ele>891</ele>
        <time>2012-04-22T11:46:28.000Z</time>
      </trkpt>
      <trkpt lat="45.67366" lon="5.9621">
        <ele>890</ele>
        <time>2012-04-22T11:46:31.000Z</time>
      </trkpt>
      <trkpt lat="45.67365" lon="5.96204">
        <ele>890</ele>
        <time>2012-04-22T11:46:34.000Z</time>
      </trkpt>
      <trkpt lat="45.67368" lon="5.96195">
        <ele>888</ele>
        <time>2012-04-22T11:46:37.000Z</time>
      </trkpt>
      <trkpt lat="45.67371" lon="5.96186">
        <ele>887</ele>
        <time>2012-04-22T11:46:39.000Z</time>
      </trkpt>
      <trkpt lat="45.67373" lon="5.96178">
        <ele>886</ele>
        <time>2012-04-22T11:46:41.000Z</time>
      </trkpt>
      <trkpt lat="45.67374" lon="5.96169">
        <ele>885</ele>
        <time>2012-04-22T11:46:43.000Z</time>
      </trkpt>
      <trkpt lat="45.67375" lon="5.96161">
        <ele>872</ele>
        <time>2012-04-22T11:46:45.000Z</time>
      </trkpt>
      <trkpt lat="45.67376" lon="5.96154">
        <ele>872</ele>
        <time>2012-04-22T11:46:47.000Z</time>
      </trkpt>
      <trkpt lat="45.67376" lon="5.96146">
        <ele>871</ele>
        <time>2012-04-22T11:46:49.000Z</time>
      </trkpt>
      <trkpt lat="45.67377" lon="5.96137">
        <ele>870</ele>
        <time>2012-04-22T11:46:51.000Z</time>
      </trkpt>
      <trkpt lat="45.67379" lon="5.96131">
        <ele>869</ele>
        <time>2012-04-22T11:46:52.000Z</time>
      </trkpt>
      <trkpt lat="45.6738" lon="5.96124">
        <ele>868</ele>
        <time>2012-04-22T11:46:53.000Z</time>
      </trkpt>
      <trkpt lat="45.67381" lon="5.96113">
        <ele>866</ele>
        <time>2012-04-22T11:46:55.000Z</time>
      </trkpt>
      <trkpt lat="45.67382" lon="5.96107">
        <ele>866</ele>
        <time>2012-04-22T11:46:57.000Z</time>
      </trkpt>
      <trkpt lat="45.67382" lon="5.961">
        <ele>865</ele>
        <time>2012-04-22T11:46:59.000Z</time>
      </trkpt>
      <trkpt lat="45.67381" lon="5.96092">
        <ele>864</ele>
        <time>2012-04-22T11:47:01.000Z</time>
      </trkpt>
      <trkpt lat="45.67378" lon="5.96086">
        <ele>864</ele>
        <time>2012-04-22T11:47:03.000Z</time>
      </trkpt>
      <trkpt lat="45.67375" lon="5.96079">
        <ele>851</ele>
        <time>2012-04-22T11:47:05.000Z</time>
      </trkpt>
      <trkpt lat="45.67374" lon="5.96073">
        <ele>851</ele>
        <time>2012-04-22T11:47:07.000Z</time>
      </trkpt>
      <trkpt lat="45.67371" lon="5.96066">
        <ele>851</ele>
        <time>2012-04-22T11:47:11.000Z</time>
      </trkpt>
      <trkpt lat="45.67368" lon="5.9606">
        <ele>850</ele>
        <time>2012-04-22T11:47:15.000Z</time>
      </trkpt>
      <trkpt lat="45.67366" lon="5.96053">
        <ele>850</ele>
        <time>2012-04-22T11:47:17.000Z</time>
      </trkpt>
      <trkpt lat="45.67363" lon="5.96047">
        <ele>849</ele>
        <time>2012-04-22T11:47:19.000Z</time>
      </trkpt>
      <trkpt lat="45.6736" lon="5.96036">
        <ele>848</ele>
        <time>2012-04-22T11:47:21.000Z</time>
      </trkpt>
      <trkpt lat="45.67358" lon="5.9603">
        <ele>847</ele>
        <time>2012-04-22T11:47:22.000Z</time>
      </trkpt>
      <trkpt lat="45.67357" lon="5.96023">
        <ele>847</ele>
        <time>2012-04-22T11:47:23.000Z</time>
      </trkpt>
      <trkpt lat="45.67354" lon="5.96015">
        <ele>846</ele>
        <time>2012-04-22T11:47:25.000Z</time>
      </trkpt>
      <trkpt lat="45.67352" lon="5.96006">
        <ele>846</ele>
        <time>2012-04-22T11:47:27.000Z</time>
      </trkpt>
      <trkpt lat="45.67351" lon="5.96">
        <ele>834</ele>
        <time>2012-04-22T11:47:29.000Z</time>
      </trkpt>
      <trkpt lat="45.6735" lon="5.95993">
        <ele>834</ele>
        <time>2012-04-22T11:47:32.000Z</time>
      </trkpt>
      <trkpt lat="45.6735" lon="5.95993">
        <ele>834</ele>
        <time>2012-04-22T11:47:32.000Z</time>
      </trkpt>
      <trkpt lat="45.6735" lon="5.95993">
        <ele>834</ele>
        <time>2012-04-22T11:47:35.000Z</time>
      </trkpt>
      <trkpt lat="45.67349" lon="5.95987">
        <ele>832</ele>
        <time>2012-04-22T11:47:45.000Z</time>
      </trkpt>
      <trkpt lat="45.67349" lon="5.95987">
        <ele>832</ele>
        <time>2012-04-22T11:47:45.000Z</time>
      </trkpt>
      <trkpt lat="45.67349" lon="5.95987">
        <ele>832</ele>
        <time>2012-04-22T11:47:46.000Z</time>
      </trkpt>
      <trkpt lat="45.6735" lon="5.9598">
        <ele>830</ele>
        <time>2012-04-22T11:47:59.000Z</time>
      </trkpt>
      <trkpt lat="45.6735" lon="5.9598">
        <ele>830</ele>
        <time>2012-04-22T11:47:59.000Z</time>
      </trkpt>
      <trkpt lat="45.6735" lon="5.9598">
        <ele>830</ele>
        <time>2012-04-22T11:48:11.000Z</time>
      </trkpt>
      <trkpt lat="45.67345" lon="5.95976">
        <ele>830</ele>
        <time>2012-04-22T11:48:33.000Z</time>
      </trkpt>
      <trkpt lat="45.67345" lon="5.95976">
        <ele>830</ele>
        <time>2012-04-22T11:48:33.000Z</time>
      </trkpt>
      <trkpt lat="45.67345" lon="5.95976">
        <ele>830</ele>
        <time>2012-04-22T11:48:34.000Z</time>
      </trkpt>
      <trkpt lat="45.67343" lon="5.9597">
        <ele>828</ele>
        <time>2012-04-22T11:48:38.000Z</time>
      </trkpt>
      <trkpt lat="45.67342" lon="5.95963">
        <ele>826</ele>
        <time>2012-04-22T11:48:44.000Z</time>
      </trkpt>
      <trkpt lat="45.67342" lon="5.95963">
        <ele>826</ele>
        <time>2012-04-22T11:48:44.000Z</time>
      </trkpt>
      <trkpt lat="45.67342" lon="5.95963">
        <ele>826</ele>
        <time>2012-04-22T11:48:45.000Z</time>
      </trkpt>
      <trkpt lat="45.67343" lon="5.95957">
        <ele>825</ele>
        <time>2012-04-22T11:48:50.000Z</time>
      </trkpt>
      <trkpt lat="45.67343" lon="5.95957">
        <ele>825</ele>
        <time>2012-04-22T11:48:50.000Z</time>
      </trkpt>
      <trkpt lat="45.67343" lon="5.95957">
        <ele>825</ele>
        <time>2012-04-22T11:48:51.000Z</time>
      </trkpt>
      <trkpt lat="45.67343" lon="5.9595">
        <ele>823</ele>
        <time>2012-04-22T11:48:55.000Z</time>
      </trkpt>
      <trkpt lat="45.67343" lon="5.9595">
        <ele>823</ele>
        <time>2012-04-22T11:48:55.000Z</time>
      </trkpt>
      <trkpt lat="45.67343" lon="5.9595">
        <ele>823</ele>
        <time>2012-04-22T11:48:56.000Z</time>
      </trkpt>
      <trkpt lat="45.67348" lon="5.95946">
        <ele>822</ele>
        <time>2012-04-22T11:49:01.000Z</time>
      </trkpt>
      <trkpt lat="45.67353" lon="5.95946">
        <ele>822</ele>
        <time>2012-04-22T11:49:05.000Z</time>
      </trkpt>
      <trkpt lat="45.67358" lon="5.95948">
        <ele>821</ele>
        <time>2012-04-22T11:49:09.000Z</time>
      </trkpt>
      <trkpt lat="45.67363" lon="5.9595">
        <ele>821</ele>
        <time>2012-04-22T11:49:15.000Z</time>
      </trkpt>
      <trkpt lat="45.67367" lon="5.95952">
        <ele>821</ele>
        <time>2012-04-22T11:49:19.000Z</time>
      </trkpt>
      <trkpt lat="45.67371" lon="5.95959">
        <ele>821</ele>
        <time>2012-04-22T11:49:24.000Z</time>
      </trkpt>
      <trkpt lat="45.67375" lon="5.95963">
        <ele>821</ele>
        <time>2012-04-22T11:49:30.000Z</time>
      </trkpt>
      <trkpt lat="45.67379" lon="5.95965">
        <ele>821</ele>
        <time>2012-04-22T11:49:34.000Z</time>
      </trkpt>
      <trkpt lat="45.67384" lon="5.95968">
        <ele>821</ele>
        <time>2012-04-22T11:49:38.000Z</time>
      </trkpt>
      <trkpt lat="45.67389" lon="5.95968">
        <ele>820</ele>
        <time>2012-04-22T11:49:41.000Z</time>
      </trkpt>
      <trkpt lat="45.67395" lon="5.95968">
        <ele>819</ele>
        <time>2012-04-22T11:49:43.000Z</time>
      </trkpt>
      <trkpt lat="45.67402" lon="5.95972">
        <ele>820</ele>
        <time>2012-04-22T11:49:45.000Z</time>
      </trkpt>
      <trkpt lat="45.67408" lon="5.95976">
        <ele>820</ele>
        <time>2012-04-22T11:49:47.000Z</time>
      </trkpt>
      <trkpt lat="45.67412" lon="5.95978">
        <ele>820</ele>
        <time>2012-04-22T11:49:48.000Z</time>
      </trkpt>
      <trkpt lat="45.67419" lon="5.95982">
        <ele>808</ele>
        <time>2012-04-22T11:49:50.000Z</time>
      </trkpt>
      <trkpt lat="45.67424" lon="5.95987">
        <ele>810</ele>
        <time>2012-04-22T11:49:52.000Z</time>
      </trkpt>
      <trkpt lat="45.67428" lon="5.95989">
        <ele>810</ele>
        <time>2012-04-22T11:49:54.000Z</time>
      </trkpt>
      <trkpt lat="45.67434" lon="5.95989">
        <ele>807</ele>
        <time>2012-04-22T11:49:58.000Z</time>
      </trkpt>
      <trkpt lat="45.67437" lon="5.95982">
        <ele>804</ele>
        <time>2012-04-22T11:50:01.000Z</time>
      </trkpt>
      <trkpt lat="45.67438" lon="5.95976">
        <ele>802</ele>
        <time>2012-04-22T11:50:07.000Z</time>
      </trkpt>
      <trkpt lat="45.67438" lon="5.95976">
        <ele>802</ele>
        <time>2012-04-22T11:50:07.000Z</time>
      </trkpt>
      <trkpt lat="45.67438" lon="5.95976">
        <ele>802</ele>
        <time>2012-04-22T11:50:08.000Z</time>
      </trkpt>
      <trkpt lat="45.67435" lon="5.9597">
        <ele>801</ele>
        <time>2012-04-22T11:50:12.000Z</time>
      </trkpt>
      <trkpt lat="45.67436" lon="5.95963">
        <ele>799</ele>
        <time>2012-04-22T11:50:15.000Z</time>
      </trkpt>
      <trkpt lat="45.67441" lon="5.95959">
        <ele>797</ele>
        <time>2012-04-22T11:50:20.000Z</time>
      </trkpt>
      <trkpt lat="45.67446" lon="5.95957">
        <ele>796</ele>
        <time>2012-04-22T11:50:23.000Z</time>
      </trkpt>
      <trkpt lat="45.6745" lon="5.95959">
        <ele>796</ele>
        <time>2012-04-22T11:50:26.000Z</time>
      </trkpt>
      <trkpt lat="45.67455" lon="5.95959">
        <ele>795</ele>
        <time>2012-04-22T11:50:30.000Z</time>
      </trkpt>
      <trkpt lat="45.6746" lon="5.95961">
        <ele>794</ele>
        <time>2012-04-22T11:50:35.000Z</time>
      </trkpt>
      <trkpt lat="45.67464" lon="5.95959">
        <ele>794</ele>
        <time>2012-04-22T11:50:38.000Z</time>
      </trkpt>
      <trkpt lat="45.67468" lon="5.95961">
        <ele>793</ele>
        <time>2012-04-22T11:50:42.000Z</time>
      </trkpt>
      <trkpt lat="45.67472" lon="5.95963">
        <ele>793</ele>
        <time>2012-04-22T11:50:45.000Z</time>
      </trkpt>
      <trkpt lat="45.67477" lon="5.95965">
        <ele>793</ele>
        <time>2012-04-22T11:50:48.000Z</time>
      </trkpt>
      <trkpt lat="45.6748" lon="5.95959">
        <ele>791</ele>
        <time>2012-04-22T11:50:54.000Z</time>
      </trkpt>
      <trkpt lat="45.67481" lon="5.95952">
        <ele>790</ele>
        <time>2012-04-22T11:50:58.000Z</time>
      </trkpt>
      <trkpt lat="45.67481" lon="5.95944">
        <ele>787</ele>
        <time>2012-04-22T11:51:00.000Z</time>
      </trkpt>
      <trkpt lat="45.6748" lon="5.95937">
        <ele>786</ele>
        <time>2012-04-22T11:51:03.000Z</time>
      </trkpt>
      <trkpt lat="45.67481" lon="5.95931">
        <ele>784</ele>
        <time>2012-04-22T11:51:05.000Z</time>
      </trkpt>
      <trkpt lat="45.67482" lon="5.95922">
        <ele>781</ele>
        <time>2012-04-22T11:51:08.000Z</time>
      </trkpt>
      <trkpt lat="45.6748" lon="5.95916">
        <ele>765</ele>
        <time>2012-04-22T11:51:10.000Z</time>
      </trkpt>
      <trkpt lat="45.67478" lon="5.9591">
        <ele>765</ele>
        <time>2012-04-22T11:51:12.000Z</time>
      </trkpt>
      <trkpt lat="45.67476" lon="5.95901">
        <ele>764</ele>
        <time>2012-04-22T11:51:15.000Z</time>
      </trkpt>
      <trkpt lat="45.67472" lon="5.95894">
        <ele>763</ele>
        <time>2012-04-22T11:51:18.000Z</time>
      </trkpt>
      <trkpt lat="45.67469" lon="5.95888">
        <ele>762</ele>
        <time>2012-04-22T11:51:20.000Z</time>
      </trkpt>
      <trkpt lat="45.67465" lon="5.95882">
        <ele>761</ele>
        <time>2012-04-22T11:51:23.000Z</time>
      </trkpt>
      <trkpt lat="45.67463" lon="5.95875">
        <ele>760</ele>
        <time>2012-04-22T11:51:25.000Z</time>
      </trkpt>
      <trkpt lat="45.67459" lon="5.95873">
        <ele>760</ele>
        <time>2012-04-22T11:51:28.000Z</time>
      </trkpt>
      <trkpt lat="45.67454" lon="5.95869">
        <ele>760</ele>
        <time>2012-04-22T11:51:31.000Z</time>
      </trkpt>
      <trkpt lat="45.67448" lon="5.95869">
        <ele>761</ele>
        <time>2012-04-22T11:51:36.000Z</time>
      </trkpt>
      <trkpt lat="45.67444" lon="5.95864">
        <ele>760</ele>
        <time>2012-04-22T11:51:39.000Z</time>
      </trkpt>
      <trkpt lat="45.67439" lon="5.95862">
        <ele>760</ele>
        <time>2012-04-22T11:51:42.000Z</time>
      </trkpt>
      <trkpt lat="45.67435" lon="5.9586">
        <ele>760</ele>
        <time>2012-04-22T11:51:44.000Z</time>
      </trkpt>
      <trkpt lat="45.67431" lon="5.95856">
        <ele>759</ele>
        <time>2012-04-22T11:51:46.000Z</time>
      </trkpt>
      <trkpt lat="45.67425" lon="5.95852">
        <ele>758</ele>
        <time>2012-04-22T11:51:48.000Z</time>
      </trkpt>
      <trkpt lat="45.6742" lon="5.9585">
        <ele>758</ele>
        <time>2012-04-22T11:51:50.000Z</time>
      </trkpt>
      <trkpt lat="45.67415" lon="5.95845">
        <ele>765</ele>
        <time>2012-04-22T11:51:53.000Z</time>
      </trkpt>
      <trkpt lat="45.6741" lon="5.95839">
        <ele>763</ele>
        <time>2012-04-22T11:51:56.000Z</time>
      </trkpt>
      <trkpt lat="45.67408" lon="5.95832">
        <ele>752</ele>
        <time>2012-04-22T11:51:58.000Z</time>
      </trkpt>
      <trkpt lat="45.67406" lon="5.95826">
        <ele>752</ele>
        <time>2012-04-22T11:52:00.000Z</time>
      </trkpt>
      <trkpt lat="45.67403" lon="5.95819">
        <ele>751</ele>
        <time>2012-04-22T11:52:03.000Z</time>
      </trkpt>
      <trkpt lat="45.67402" lon="5.95813">
        <ele>751</ele>
        <time>2012-04-22T11:52:08.000Z</time>
      </trkpt>
      <trkpt lat="45.67402" lon="5.95813">
        <ele>751</ele>
        <time>2012-04-22T11:52:08.000Z</time>
      </trkpt>
      <trkpt lat="45.67402" lon="5.95813">
        <ele>751</ele>
        <time>2012-04-22T11:52:16.000Z</time>
      </trkpt>
      <trkpt lat="45.67406" lon="5.95815">
        <ele>751</ele>
        <time>2012-04-22T11:52:20.000Z</time>
      </trkpt>
      <trkpt lat="45.67411" lon="5.95815">
        <ele>751</ele>
        <time>2012-04-22T11:52:25.000Z</time>
      </trkpt>
      <trkpt lat="45.67416" lon="5.95819">
        <ele>751</ele>
        <time>2012-04-22T11:52:32.000Z</time>
      </trkpt>
      <trkpt lat="45.67416" lon="5.95819">
        <ele>751</ele>
        <time>2012-04-22T11:52:32.000Z</time>
      </trkpt>
      <trkpt lat="45.67416" lon="5.95819">
        <ele>751</ele>
        <time>2012-04-22T11:52:33.000Z</time>
      </trkpt>
      <trkpt lat="45.67419" lon="5.95813">
        <ele>740</ele>
        <time>2012-04-22T11:52:38.000Z</time>
      </trkpt>
      <trkpt lat="45.67423" lon="5.95806">
        <ele>738</ele>
        <time>2012-04-22T11:52:42.000Z</time>
      </trkpt>
      <trkpt lat="45.67425" lon="5.958">
        <ele>736</ele>
        <time>2012-04-22T11:52:46.000Z</time>
      </trkpt>
      <trkpt lat="45.67425" lon="5.95789">
        <ele>733</ele>
        <time>2012-04-22T11:52:50.000Z</time>
      </trkpt>
      <trkpt lat="45.67426" lon="5.95783">
        <ele>731</ele>
        <time>2012-04-22T11:52:53.000Z</time>
      </trkpt>
      <trkpt lat="45.67428" lon="5.95776">
        <ele>730</ele>
        <time>2012-04-22T11:52:55.000Z</time>
      </trkpt>
      <trkpt lat="45.67428" lon="5.95768">
        <ele>728</ele>
        <time>2012-04-22T11:52:59.000Z</time>
      </trkpt>
      <trkpt lat="45.67426" lon="5.95759">
        <ele>726</ele>
        <time>2012-04-22T11:53:02.000Z</time>
      </trkpt>
      <trkpt lat="45.67424" lon="5.95753">
        <ele>725</ele>
        <time>2012-04-22T11:53:05.000Z</time>
      </trkpt>
      <trkpt lat="45.67423" lon="5.95746">
        <ele>719</ele>
        <time>2012-04-22T11:53:07.000Z</time>
      </trkpt>
      <trkpt lat="45.6742" lon="5.9574">
        <ele>718</ele>
        <time>2012-04-22T11:53:10.000Z</time>
      </trkpt>
      <trkpt lat="45.67418" lon="5.95734">
        <ele>716</ele>
        <time>2012-04-22T11:53:12.000Z</time>
      </trkpt>
      <trkpt lat="45.67414" lon="5.95729">
        <ele>720</ele>
        <time>2012-04-22T11:53:14.000Z</time>
      </trkpt>
      <trkpt lat="45.67409" lon="5.95723">
        <ele>719</ele>
        <time>2012-04-22T11:53:16.000Z</time>
      </trkpt>
      <trkpt lat="45.67404" lon="5.95714">
        <ele>718</ele>
        <time>2012-04-22T11:53:19.000Z</time>
      </trkpt>
      <trkpt lat="45.674" lon="5.95708">
        <ele>717</ele>
        <time>2012-04-22T11:53:22.000Z</time>
      </trkpt>
      <trkpt lat="45.67397" lon="5.95701">
        <ele>716</ele>
        <time>2012-04-22T11:53:25.000Z</time>
      </trkpt>
      <trkpt lat="45.67392" lon="5.95699">
        <ele>716</ele>
        <time>2012-04-22T11:53:30.000Z</time>
      </trkpt>
      <trkpt lat="45.67388" lon="5.95697">
        <ele>716</ele>
        <time>2012-04-22T11:53:32.000Z</time>
      </trkpt>
      <trkpt lat="45.67384" lon="5.95695">
        <ele>716</ele>
        <time>2012-04-22T11:53:35.000Z</time>
      </trkpt>
      <trkpt lat="45.67379" lon="5.95693">
        <ele>716</ele>
        <time>2012-04-22T11:53:40.000Z</time>
      </trkpt>
      <trkpt lat="45.67377" lon="5.95686">
        <ele>715</ele>
        <time>2012-04-22T11:53:45.000Z</time>
      </trkpt>
      <trkpt lat="45.67373" lon="5.95682">
        <ele>715</ele>
        <time>2012-04-22T11:53:56.000Z</time>
      </trkpt>
      <trkpt lat="45.67373" lon="5.95682">
        <ele>715</ele>
        <time>2012-04-22T11:53:56.000Z</time>
      </trkpt>
      <trkpt lat="45.67373" lon="5.95682">
        <ele>715</ele>
        <time>2012-04-22T11:53:58.000Z</time>
      </trkpt>
      <trkpt lat="45.67371" lon="5.95676">
        <ele>715</ele>
        <time>2012-04-22T11:54:05.000Z</time>
      </trkpt>
      <trkpt lat="45.67368" lon="5.95669">
        <ele>714</ele>
        <time>2012-04-22T11:54:12.000Z</time>
      </trkpt>
      <trkpt lat="45.67365" lon="5.95663">
        <ele>701</ele>
        <time>2012-04-22T11:54:18.000Z</time>
      </trkpt>
      <trkpt lat="45.67366" lon="5.95656">
        <ele>700</ele>
        <time>2012-04-22T11:54:44.000Z</time>
      </trkpt>
      <trkpt lat="45.6737" lon="5.9565">
        <ele>699</ele>
        <time>2012-04-22T11:54:48.000Z</time>
      </trkpt>
      <trkpt lat="45.67374" lon="5.95644">
        <ele>698</ele>
        <time>2012-04-22T11:54:53.000Z</time>
      </trkpt>
      <trkpt lat="45.67378" lon="5.95637">
        <ele>697</ele>
        <time>2012-04-22T11:54:57.000Z</time>
      </trkpt>
      <trkpt lat="45.67384" lon="5.95633">
        <ele>697</ele>
        <time>2012-04-22T11:55:00.000Z</time>
      </trkpt>
      <trkpt lat="45.67389" lon="5.95628">
        <ele>696</ele>
        <time>2012-04-22T11:55:03.000Z</time>
      </trkpt>
      <trkpt lat="45.67393" lon="5.95624">
        <ele>695</ele>
        <time>2012-04-22T11:55:07.000Z</time>
      </trkpt>
      <trkpt lat="45.67397" lon="5.9562">
        <ele>694</ele>
        <time>2012-04-22T11:55:09.000Z</time>
      </trkpt>
      <trkpt lat="45.67402" lon="5.95618">
        <ele>694</ele>
        <time>2012-04-22T11:55:11.000Z</time>
      </trkpt>
      <trkpt lat="45.67407" lon="5.95613">
        <ele>692</ele>
        <time>2012-04-22T11:55:14.000Z</time>
      </trkpt>
      <trkpt lat="45.67412" lon="5.95611">
        <ele>692</ele>
        <time>2012-04-22T11:55:17.000Z</time>
      </trkpt>
      <trkpt lat="45.67418" lon="5.95607">
        <ele>686</ele>
        <time>2012-04-22T11:55:19.000Z</time>
      </trkpt>
      <trkpt lat="45.67422" lon="5.95603">
        <ele>685</ele>
        <time>2012-04-22T11:55:21.000Z</time>
      </trkpt>
      <trkpt lat="45.67426" lon="5.95601">
        <ele>685</ele>
        <time>2012-04-22T11:55:23.000Z</time>
      </trkpt>
      <trkpt lat="45.67432" lon="5.95598">
        <ele>685</ele>
        <time>2012-04-22T11:55:25.000Z</time>
      </trkpt>
      <trkpt lat="45.67437" lon="5.95596">
        <ele>685</ele>
        <time>2012-04-22T11:55:27.000Z</time>
      </trkpt>
      <trkpt lat="45.67441" lon="5.95594">
        <ele>685</ele>
        <time>2012-04-22T11:55:29.000Z</time>
      </trkpt>
      <trkpt lat="45.67446" lon="5.95592">
        <ele>685</ele>
        <time>2012-04-22T11:55:31.000Z</time>
      </trkpt>
      <trkpt lat="45.67452" lon="5.9559">
        <ele>684</ele>
        <time>2012-04-22T11:55:34.000Z</time>
      </trkpt>
      <trkpt lat="45.67458" lon="5.95588">
        <ele>684</ele>
        <time>2012-04-22T11:55:37.000Z</time>
      </trkpt>
      <trkpt lat="45.67464" lon="5.95586">
        <ele>683</ele>
        <time>2012-04-22T11:55:40.000Z</time>
      </trkpt>
      <trkpt lat="45.67468" lon="5.95583">
        <ele>670</ele>
        <time>2012-04-22T11:55:42.000Z</time>
      </trkpt>
      <trkpt lat="45.67472" lon="5.95581">
        <ele>670</ele>
        <time>2012-04-22T11:55:44.000Z</time>
      </trkpt>
      <trkpt lat="45.67479" lon="5.95581">
        <ele>670</ele>
        <time>2012-04-22T11:55:46.000Z</time>
      </trkpt>
      <trkpt lat="45.67485" lon="5.95579">
        <ele>670</ele>
        <time>2012-04-22T11:55:48.000Z</time>
      </trkpt>
      <trkpt lat="45.67492" lon="5.95577">
        <ele>670</ele>
        <time>2012-04-22T11:55:50.000Z</time>
      </trkpt>
      <trkpt lat="45.67499" lon="5.95575">
        <ele>671</ele>
        <time>2012-04-22T11:55:52.000Z</time>
      </trkpt>
      <trkpt lat="45.67504" lon="5.95577">
        <ele>668</ele>
        <time>2012-04-22T11:55:53.000Z</time>
      </trkpt>
      <trkpt lat="45.67511" lon="5.95577">
        <ele>666</ele>
        <time>2012-04-22T11:55:55.000Z</time>
      </trkpt>
      <trkpt lat="45.67518" lon="5.95577">
        <ele>665</ele>
        <time>2012-04-22T11:55:57.000Z</time>
      </trkpt>
      <trkpt lat="45.67523" lon="5.95575">
        <ele>663</ele>
        <time>2012-04-22T11:55:59.000Z</time>
      </trkpt>
      <trkpt lat="45.67527" lon="5.9557">
        <ele>662</ele>
        <time>2012-04-22T11:56:01.000Z</time>
      </trkpt>
      <trkpt lat="45.67532" lon="5.95568">
        <ele>661</ele>
        <time>2012-04-22T11:56:03.000Z</time>
      </trkpt>
      <trkpt lat="45.67536" lon="5.95564">
        <ele>661</ele>
        <time>2012-04-22T11:56:06.000Z</time>
      </trkpt>
      <trkpt lat="45.6754" lon="5.9556">
        <ele>660</ele>
        <time>2012-04-22T11:56:09.000Z</time>
      </trkpt>
      <trkpt lat="45.67543" lon="5.95551">
        <ele>659</ele>
        <time>2012-04-22T11:56:12.000Z</time>
      </trkpt>
      <trkpt lat="45.67549" lon="5.95545">
        <ele>658</ele>
        <time>2012-04-22T11:56:15.000Z</time>
      </trkpt>
      <trkpt lat="45.67553" lon="5.95536">
        <ele>657</ele>
        <time>2012-04-22T11:56:18.000Z</time>
      </trkpt>
      <trkpt lat="45.67557" lon="5.9553">
        <ele>656</ele>
        <time>2012-04-22T11:56:21.000Z</time>
      </trkpt>
      <trkpt lat="45.67562" lon="5.95523">
        <ele>655</ele>
        <time>2012-04-22T11:56:24.000Z</time>
      </trkpt>
      <trkpt lat="45.67566" lon="5.95519">
        <ele>654</ele>
        <time>2012-04-22T11:56:29.000Z</time>
      </trkpt>
      <trkpt lat="45.67569" lon="5.95513">
        <ele>653</ele>
        <time>2012-04-22T11:56:33.000Z</time>
      </trkpt>
      <trkpt lat="45.67571" lon="5.95506">
        <ele>651</ele>
        <time>2012-04-22T11:56:37.000Z</time>
      </trkpt>
      <trkpt lat="45.67573" lon="5.955">
        <ele>648</ele>
        <time>2012-04-22T11:56:41.000Z</time>
      </trkpt>
      <trkpt lat="45.67577" lon="5.95493">
        <ele>646</ele>
        <time>2012-04-22T11:56:47.000Z</time>
      </trkpt>
      <trkpt lat="45.67577" lon="5.95487">
        <ele>645</ele>
        <time>2012-04-22T11:56:51.000Z</time>
      </trkpt>
      <trkpt lat="45.67577" lon="5.95487">
        <ele>645</ele>
        <time>2012-04-22T11:56:51.000Z</time>
      </trkpt>
      <trkpt lat="45.67577" lon="5.95487">
        <ele>645</ele>
        <time>2012-04-22T11:56:52.000Z</time>
      </trkpt>
      <trkpt lat="45.67577" lon="5.95478">
        <ele>644</ele>
        <time>2012-04-22T11:56:56.000Z</time>
      </trkpt>
      <trkpt lat="45.67576" lon="5.95472">
        <ele>644</ele>
        <time>2012-04-22T11:57:00.000Z</time>
      </trkpt>
      <trkpt lat="45.67571" lon="5.95468">
        <ele>643</ele>
        <time>2012-04-22T11:57:07.000Z</time>
      </trkpt>
      <trkpt lat="45.67571" lon="5.95468">
        <ele>643</ele>
        <time>2012-04-22T11:57:07.000Z</time>
      </trkpt>
      <trkpt lat="45.67571" lon="5.95468">
        <ele>643</ele>
        <time>2012-04-22T11:57:08.000Z</time>
      </trkpt>
      <trkpt lat="45.67567" lon="5.95463">
        <ele>643</ele>
        <time>2012-04-22T11:57:12.000Z</time>
      </trkpt>
      <trkpt lat="45.67563" lon="5.95459">
        <ele>643</ele>
        <time>2012-04-22T11:57:15.000Z</time>
      </trkpt>
      <trkpt lat="45.67558" lon="5.95452">
        <ele>642</ele>
        <time>2012-04-22T11:57:18.000Z</time>
      </trkpt>
      <trkpt lat="45.67553" lon="5.95448">
        <ele>642</ele>
        <time>2012-04-22T11:57:21.000Z</time>
      </trkpt>
      <trkpt lat="45.67549" lon="5.95444">
        <ele>642</ele>
        <time>2012-04-22T11:57:23.000Z</time>
      </trkpt>
      <trkpt lat="45.67542" lon="5.95442">
        <ele>642</ele>
        <time>2012-04-22T11:57:25.000Z</time>
      </trkpt>
      <trkpt lat="45.67538" lon="5.95438">
        <ele>642</ele>
        <time>2012-04-22T11:57:27.000Z</time>
      </trkpt>
      <trkpt lat="45.67534" lon="5.95435">
        <ele>642</ele>
        <time>2012-04-22T11:57:29.000Z</time>
      </trkpt>
      <trkpt lat="45.67528" lon="5.95431">
        <ele>642</ele>
        <time>2012-04-22T11:57:32.000Z</time>
      </trkpt>
      <trkpt lat="45.67523" lon="5.95431">
        <ele>642</ele>
        <time>2012-04-22T11:57:34.000Z</time>
      </trkpt>
      <trkpt lat="45.67519" lon="5.95427">
        <ele>642</ele>
        <time>2012-04-22T11:57:37.000Z</time>
      </trkpt>
      <trkpt lat="45.67513" lon="5.95425">
        <ele>642</ele>
        <time>2012-04-22T11:57:39.000Z</time>
      </trkpt>
      <trkpt lat="45.67507" lon="5.9542">
        <ele>642</ele>
        <time>2012-04-22T11:57:41.000Z</time>
      </trkpt>
      <trkpt lat="45.67503" lon="5.95418">
        <ele>641</ele>
        <time>2012-04-22T11:57:43.000Z</time>
      </trkpt>
      <trkpt lat="45.67498" lon="5.95414">
        <ele>641</ele>
        <time>2012-04-22T11:57:46.000Z</time>
      </trkpt>
      <trkpt lat="45.67495" lon="5.95407">
        <ele>641</ele>
        <time>2012-04-22T11:57:51.000Z</time>
      </trkpt>
      <trkpt lat="45.67492" lon="5.95401">
        <ele>641</ele>
        <time>2012-04-22T11:57:55.000Z</time>
      </trkpt>
      <trkpt lat="45.67488" lon="5.95395">
        <ele>641</ele>
        <time>2012-04-22T11:57:58.000Z</time>
      </trkpt>
      <trkpt lat="45.67484" lon="5.95388">
        <ele>641</ele>
        <time>2012-04-22T11:58:00.000Z</time>
      </trkpt>
      <trkpt lat="45.67482" lon="5.95382">
        <ele>641</ele>
        <time>2012-04-22T11:58:02.000Z</time>
      </trkpt>
      <trkpt lat="45.67479" lon="5.95373">
        <ele>641</ele>
        <time>2012-04-22T11:58:04.000Z</time>
      </trkpt>
      <trkpt lat="45.67477" lon="5.95367">
        <ele>640</ele>
        <time>2012-04-22T11:58:06.000Z</time>
      </trkpt>
      <trkpt lat="45.67475" lon="5.9536">
        <ele>640</ele>
        <time>2012-04-22T11:58:08.000Z</time>
      </trkpt>
      <trkpt lat="45.67472" lon="5.95352">
        <ele>640</ele>
        <time>2012-04-22T11:58:11.000Z</time>
      </trkpt>
      <trkpt lat="45.67469" lon="5.95345">
        <ele>640</ele>
        <time>2012-04-22T11:58:14.000Z</time>
      </trkpt>
      <trkpt lat="45.67468" lon="5.95339">
        <ele>639</ele>
        <time>2012-04-22T11:58:17.000Z</time>
      </trkpt>
      <trkpt lat="45.67464" lon="5.95332">
        <ele>634</ele>
        <time>2012-04-22T11:58:21.000Z</time>
      </trkpt>
      <trkpt lat="45.6746" lon="5.95328">
        <ele>634</ele>
        <time>2012-04-22T11:58:25.000Z</time>
      </trkpt>
      <trkpt lat="45.67455" lon="5.95324">
        <ele>635</ele>
        <time>2012-04-22T11:58:28.000Z</time>
      </trkpt>
      <trkpt lat="45.67451" lon="5.95322">
        <ele>635</ele>
        <time>2012-04-22T11:58:31.000Z</time>
      </trkpt>
      <trkpt lat="45.67447" lon="5.95317">
        <ele>635</ele>
        <time>2012-04-22T11:58:34.000Z</time>
      </trkpt>
      <trkpt lat="45.67441" lon="5.95311">
        <ele>635</ele>
        <time>2012-04-22T11:58:38.000Z</time>
      </trkpt>
      <trkpt lat="45.67436" lon="5.95309">
        <ele>636</ele>
        <time>2012-04-22T11:58:41.000Z</time>
      </trkpt>
      <trkpt lat="45.6743" lon="5.95307">
        <ele>636</ele>
        <time>2012-04-22T11:58:44.000Z</time>
      </trkpt>
      <trkpt lat="45.67424" lon="5.95304">
        <ele>636</ele>
        <time>2012-04-22T11:58:47.000Z</time>
      </trkpt>
      <trkpt lat="45.67419" lon="5.95302">
        <ele>636</ele>
        <time>2012-04-22T11:58:52.000Z</time>
      </trkpt>
      <trkpt lat="45.67419" lon="5.95302">
        <ele>636</ele>
        <time>2012-04-22T11:58:52.000Z</time>
      </trkpt>
      <trkpt lat="45.67419" lon="5.95302">
        <ele>636</ele>
        <time>2012-04-22T11:58:53.000Z</time>
      </trkpt>
      <trkpt lat="45.67414" lon="5.95302">
        <ele>641</ele>
        <time>2012-04-22T11:58:59.000Z</time>
      </trkpt>
      <trkpt lat="45.67408" lon="5.953">
        <ele>641</ele>
        <time>2012-04-22T11:59:06.000Z</time>
      </trkpt>
      <trkpt lat="45.67408" lon="5.953">
        <ele>641</ele>
        <time>2012-04-22T11:59:06.000Z</time>
      </trkpt>
      <trkpt lat="45.67408" lon="5.953">
        <ele>641</ele>
        <time>2012-04-22T11:59:07.000Z</time>
      </trkpt>
      <trkpt lat="45.67404" lon="5.95298">
        <ele>641</ele>
        <time>2012-04-22T11:59:17.000Z</time>
      </trkpt>
      <trkpt lat="45.67404" lon="5.95298">
        <ele>641</ele>
        <time>2012-04-22T11:59:17.000Z</time>
      </trkpt>
      <trkpt lat="45.67404" lon="5.95298">
        <ele>641</ele>
        <time>2012-04-22T11:59:18.000Z</time>
      </trkpt>
      <trkpt lat="45.674" lon="5.953">
        <ele>641</ele>
        <time>2012-04-22T11:59:28.000Z</time>
      </trkpt>
      <trkpt lat="45.674" lon="5.953">
        <ele>641</ele>
        <time>2012-04-22T11:59:28.000Z</time>
      </trkpt>
      <trkpt lat="45.674" lon="5.953">
        <ele>641</ele>
        <time>2012-04-22T11:59:30.000Z</time>
      </trkpt>
      <trkpt lat="45.67395" lon="5.95298">
        <ele>641</ele>
        <time>2012-04-22T11:59:41.000Z</time>
      </trkpt>
      <trkpt lat="45.67395" lon="5.95298">
        <ele>641</ele>
        <time>2012-04-22T11:59:41.000Z</time>
      </trkpt>
      <trkpt lat="45.67395" lon="5.95298">
        <ele>641</ele>
        <time>2012-04-22T11:59:44.000Z</time>
      </trkpt>
      <trkpt lat="45.6739" lon="5.95298">
        <ele>641</ele>
        <time>2012-04-22T12:00:08.000Z</time>
      </trkpt>
      <trkpt lat="45.6739" lon="5.95298">
        <ele>641</ele>
        <time>2012-04-22T12:00:08.000Z</time>
      </trkpt>
      <trkpt lat="45.6739" lon="5.95298">
        <ele>641</ele>
        <time>2012-04-22T12:00:16.000Z</time>
      </trkpt>
      <trkpt lat="45.67385" lon="5.953">
        <ele>641</ele>
        <time>2012-04-22T12:01:22.000Z</time>
      </trkpt>
      <trkpt lat="45.67385" lon="5.953">
        <ele>641</ele>
        <time>2012-04-22T12:01:22.000Z</time>
      </trkpt>
      <trkpt lat="45.67385" lon="5.953">
        <ele>641</ele>
        <time>2012-04-22T12:01:23.000Z</time>
      </trkpt>
      <trkpt lat="45.6738" lon="5.95302">
        <ele>641</ele>
        <time>2012-04-22T12:01:27.000Z</time>
      </trkpt>
      <trkpt lat="45.67376" lon="5.95304">
        <ele>642</ele>
        <time>2012-04-22T12:01:30.000Z</time>
      </trkpt>
      <trkpt lat="45.67376" lon="5.95304">
        <ele>642</ele>
        <time>2012-04-22T12:01:30.000Z</time>
      </trkpt>
      <trkpt lat="45.67376" lon="5.95304">
        <ele>642</ele>
        <time>2012-04-22T12:01:39.000Z</time>
      </trkpt>
      <trkpt lat="45.6738" lon="5.95307">
        <ele>642</ele>
        <time>2012-04-22T12:01:43.000Z</time>
      </trkpt>
      <trkpt lat="45.6738" lon="5.95307">
        <ele>642</ele>
        <time>2012-04-22T12:01:43.000Z</time>
      </trkpt>
      <trkpt lat="45.6738" lon="5.95307">
        <ele>642</ele>
        <time>2012-04-22T12:01:44.000Z</time>
      </trkpt>
      <trkpt lat="45.67376" lon="5.95302">
        <ele>642</ele>
        <time>2012-04-22T12:02:00.000Z</time>
      </trkpt>
      <trkpt lat="45.67371" lon="5.95302">
        <ele>642</ele>
        <time>2012-04-22T12:02:04.000Z</time>
      </trkpt>
      <trkpt lat="45.67365" lon="5.95302">
        <ele>642</ele>
        <time>2012-04-22T12:02:07.000Z</time>
      </trkpt>
      <trkpt lat="45.6736" lon="5.953">
        <ele>642</ele>
        <time>2012-04-22T12:02:14.000Z</time>
      </trkpt>
      <trkpt lat="45.67353" lon="5.953">
        <ele>642</ele>
        <time>2012-04-22T12:02:18.000Z</time>
      </trkpt>
      <trkpt lat="45.67348" lon="5.953">
        <ele>642</ele>
        <time>2012-04-22T12:02:24.000Z</time>
      </trkpt>
      <trkpt lat="45.67348" lon="5.953">
        <ele>642</ele>
        <time>2012-04-22T12:02:24.000Z</time>
      </trkpt>
      <trkpt lat="45.67348" lon="5.953">
        <ele>642</ele>
        <time>2012-04-22T12:02:25.000Z</time>
      </trkpt>
      <trkpt lat="45.67344" lon="5.95302">
        <ele>643</ele>
        <time>2012-04-22T12:02:33.000Z</time>
      </trkpt>
      <trkpt lat="45.6734" lon="5.95304">
        <ele>643</ele>
        <time>2012-04-22T12:02:37.000Z</time>
      </trkpt>
      <trkpt lat="45.6734" lon="5.95304">
        <ele>643</ele>
        <time>2012-04-22T12:02:37.000Z</time>
      </trkpt>
      <trkpt lat="45.6734" lon="5.95304">
        <ele>643</ele>
        <time>2012-04-22T12:02:38.000Z</time>
      </trkpt>
      <trkpt lat="45.67334" lon="5.95304">
        <ele>643</ele>
        <time>2012-04-22T12:02:44.000Z</time>
      </trkpt>
      <trkpt lat="45.67329" lon="5.953">
        <ele>646</ele>
        <time>2012-04-22T12:02:50.000Z</time>
      </trkpt>
      <trkpt lat="45.67323" lon="5.953">
        <ele>646</ele>
        <time>2012-04-22T12:02:58.000Z</time>
      </trkpt>
      <trkpt lat="45.67319" lon="5.95304">
        <ele>647</ele>
        <time>2012-04-22T12:03:04.000Z</time>
      </trkpt>
      <trkpt lat="45.67314" lon="5.95307">
        <ele>647</ele>
        <time>2012-04-22T12:03:08.000Z</time>
      </trkpt>
      <trkpt lat="45.67308" lon="5.95307">
        <ele>647</ele>
        <time>2012-04-22T12:03:13.000Z</time>
      </trkpt>
      <trkpt lat="45.67302" lon="5.95307">
        <ele>647</ele>
        <time>2012-04-22T12:03:17.000Z</time>
      </trkpt>
      <trkpt lat="45.67297" lon="5.95309">
        <ele>647</ele>
        <time>2012-04-22T12:03:19.000Z</time>
      </trkpt>
      <trkpt lat="45.67289" lon="5.95309">
        <ele>648</ele>
        <time>2012-04-22T12:03:22.000Z</time>
      </trkpt>
      <trkpt lat="45.67284" lon="5.95309">
        <ele>648</ele>
        <time>2012-04-22T12:03:26.000Z</time>
      </trkpt>
      <trkpt lat="45.67277" lon="5.95309">
        <ele>648</ele>
        <time>2012-04-22T12:03:30.000Z</time>
      </trkpt>
      <trkpt lat="45.67272" lon="5.95309">
        <ele>649</ele>
        <time>2012-04-22T12:03:32.000Z</time>
      </trkpt>
      <trkpt lat="45.67266" lon="5.95311">
        <ele>649</ele>
        <time>2012-04-22T12:03:35.000Z</time>
      </trkpt>
      <trkpt lat="45.6726" lon="5.95313">
        <ele>650</ele>
        <time>2012-04-22T12:03:38.000Z</time>
      </trkpt>
      <trkpt lat="45.67255" lon="5.95315">
        <ele>650</ele>
        <time>2012-04-22T12:03:40.000Z</time>
      </trkpt>
      <trkpt lat="45.67249" lon="5.95317">
        <ele>652</ele>
        <time>2012-04-22T12:03:42.000Z</time>
      </trkpt>
      <trkpt lat="45.67244" lon="5.9532">
        <ele>652</ele>
        <time>2012-04-22T12:03:44.000Z</time>
      </trkpt>
      <trkpt lat="45.67239" lon="5.9532">
        <ele>652</ele>
        <time>2012-04-22T12:03:46.000Z</time>
      </trkpt>
      <trkpt lat="45.67232" lon="5.9532">
        <ele>651</ele>
        <time>2012-04-22T12:03:48.000Z</time>
      </trkpt>
      <trkpt lat="45.67228" lon="5.95322">
        <ele>651</ele>
        <time>2012-04-22T12:03:50.000Z</time>
      </trkpt>
      <trkpt lat="45.67222" lon="5.95322">
        <ele>651</ele>
        <time>2012-04-22T12:03:52.000Z</time>
      </trkpt>
      <trkpt lat="45.67216" lon="5.95322">
        <ele>650</ele>
        <time>2012-04-22T12:03:54.000Z</time>
      </trkpt>
      <trkpt lat="45.6721" lon="5.95322">
        <ele>650</ele>
        <time>2012-04-22T12:03:56.000Z</time>
      </trkpt>
      <trkpt lat="45.67204" lon="5.9532">
        <ele>650</ele>
        <time>2012-04-22T12:03:58.000Z</time>
      </trkpt>
      <trkpt lat="45.67197" lon="5.9532">
        <ele>650</ele>
        <time>2012-04-22T12:04:00.000Z</time>
      </trkpt>
      <trkpt lat="45.6719" lon="5.95317">
        <ele>650</ele>
        <time>2012-04-22T12:04:02.000Z</time>
      </trkpt>
      <trkpt lat="45.67186" lon="5.95315">
        <ele>650</ele>
        <time>2012-04-22T12:04:04.000Z</time>
      </trkpt>
      <trkpt lat="45.6718" lon="5.95313">
        <ele>649</ele>
        <time>2012-04-22T12:04:06.000Z</time>
      </trkpt>
      <trkpt lat="45.67172" lon="5.95309">
        <ele>649</ele>
        <time>2012-04-22T12:04:08.000Z</time>
      </trkpt>
      <trkpt lat="45.67166" lon="5.95307">
        <ele>647</ele>
        <time>2012-04-22T12:04:10.000Z</time>
      </trkpt>
      <trkpt lat="45.6716" lon="5.95302">
        <ele>646</ele>
        <time>2012-04-22T12:04:12.000Z</time>
      </trkpt>
      <trkpt lat="45.67155" lon="5.953">
        <ele>646</ele>
        <time>2012-04-22T12:04:14.000Z</time>
      </trkpt>
      <trkpt lat="45.67151" lon="5.95298">
        <ele>646</ele>
        <time>2012-04-22T12:04:16.000Z</time>
      </trkpt>
      <trkpt lat="45.67146" lon="5.95296">
        <ele>645</ele>
        <time>2012-04-22T12:04:18.000Z</time>
      </trkpt>
      <trkpt lat="45.67141" lon="5.95296">
        <ele>645</ele>
        <time>2012-04-22T12:04:22.000Z</time>
      </trkpt>
      <trkpt lat="45.67135" lon="5.95298">
        <ele>645</ele>
        <time>2012-04-22T12:04:26.000Z</time>
      </trkpt>
      <trkpt lat="45.67129" lon="5.953">
        <ele>645</ele>
        <time>2012-04-22T12:04:29.000Z</time>
      </trkpt>
      <trkpt lat="45.67124" lon="5.95304">
        <ele>644</ele>
        <time>2012-04-22T12:04:31.000Z</time>
      </trkpt>
      <trkpt lat="45.67116" lon="5.95307">
        <ele>644</ele>
        <time>2012-04-22T12:04:33.000Z</time>
      </trkpt>
      <trkpt lat="45.67109" lon="5.95309">
        <ele>644</ele>
        <time>2012-04-22T12:04:35.000Z</time>
      </trkpt>
      <trkpt lat="45.67102" lon="5.95311">
        <ele>643</ele>
        <time>2012-04-22T12:04:37.000Z</time>
      </trkpt>
      <trkpt lat="45.67098" lon="5.95315">
        <ele>643</ele>
        <time>2012-04-22T12:04:39.000Z</time>
      </trkpt>
      <trkpt lat="45.67094" lon="5.95317">
        <ele>643</ele>
        <time>2012-04-22T12:04:41.000Z</time>
      </trkpt>
      <trkpt lat="45.6709" lon="5.9532">
        <ele>643</ele>
        <time>2012-04-22T12:04:43.000Z</time>
      </trkpt>
      <trkpt lat="45.67084" lon="5.95324">
        <ele>643</ele>
        <time>2012-04-22T12:04:46.000Z</time>
      </trkpt>
      <trkpt lat="45.67079" lon="5.95328">
        <ele>640</ele>
        <time>2012-04-22T12:04:49.000Z</time>
      </trkpt>
      <trkpt lat="45.67073" lon="5.9533">
        <ele>639</ele>
        <time>2012-04-22T12:04:51.000Z</time>
      </trkpt>
      <trkpt lat="45.67073" lon="5.9533">
        <ele>639</ele>
        <time>2012-04-22T12:04:51.000Z</time>
      </trkpt>
      <trkpt lat="45.67073" lon="5.9533">
        <ele>639</ele>
        <time>2012-04-22T12:04:52.000Z</time>
      </trkpt>
      <trkpt lat="45.67068" lon="5.9533">
        <ele>637</ele>
        <time>2012-04-22T12:04:56.000Z</time>
      </trkpt>
      <trkpt lat="45.67063" lon="5.9533">
        <ele>636</ele>
        <time>2012-04-22T12:04:58.000Z</time>
      </trkpt>
      <trkpt lat="45.67056" lon="5.9533">
        <ele>635</ele>
        <time>2012-04-22T12:05:00.000Z</time>
      </trkpt>
      <trkpt lat="45.67051" lon="5.95328">
        <ele>634</ele>
        <time>2012-04-22T12:05:02.000Z</time>
      </trkpt>
      <trkpt lat="45.67044" lon="5.95326">
        <ele>633</ele>
        <time>2012-04-22T12:05:05.000Z</time>
      </trkpt>
      <trkpt lat="45.67039" lon="5.95324">
        <ele>633</ele>
        <time>2012-04-22T12:05:07.000Z</time>
      </trkpt>
      <trkpt lat="45.67035" lon="5.95322">
        <ele>632</ele>
        <time>2012-04-22T12:05:09.000Z</time>
      </trkpt>
      <trkpt lat="45.67029" lon="5.9532">
        <ele>631</ele>
        <time>2012-04-22T12:05:12.000Z</time>
      </trkpt>
      <trkpt lat="45.67024" lon="5.9532">
        <ele>631</ele>
        <time>2012-04-22T12:05:15.000Z</time>
      </trkpt>
      <trkpt lat="45.6702" lon="5.95322">
        <ele>630</ele>
        <time>2012-04-22T12:05:17.000Z</time>
      </trkpt>
      <trkpt lat="45.67014" lon="5.95324">
        <ele>630</ele>
        <time>2012-04-22T12:05:19.000Z</time>
      </trkpt>
      <trkpt lat="45.67007" lon="5.95326">
        <ele>629</ele>
        <time>2012-04-22T12:05:21.000Z</time>
      </trkpt>
      <trkpt lat="45.67003" lon="5.95328">
        <ele>628</ele>
        <time>2012-04-22T12:05:22.000Z</time>
      </trkpt>
      <trkpt lat="45.66994" lon="5.95328">
        <ele>626</ele>
        <time>2012-04-22T12:05:24.000Z</time>
      </trkpt>
      <trkpt lat="45.66985" lon="5.9533">
        <ele>625</ele>
        <time>2012-04-22T12:05:26.000Z</time>
      </trkpt>
      <trkpt lat="45.66978" lon="5.95328">
        <ele>624</ele>
        <time>2012-04-22T12:05:28.000Z</time>
      </trkpt>
      <trkpt lat="45.6697" lon="5.95326">
        <ele>624</ele>
        <time>2012-04-22T12:05:30.000Z</time>
      </trkpt>
      <trkpt lat="45.66965" lon="5.95322">
        <ele>624</ele>
        <time>2012-04-22T12:05:32.000Z</time>
      </trkpt>
      <trkpt lat="45.6696" lon="5.95317">
        <ele>623</ele>
        <time>2012-04-22T12:05:35.000Z</time>
      </trkpt>
      <trkpt lat="45.66954" lon="5.95313">
        <ele>623</ele>
        <time>2012-04-22T12:05:37.000Z</time>
      </trkpt>
      <trkpt lat="45.66949" lon="5.95309">
        <ele>623</ele>
        <time>2012-04-22T12:05:39.000Z</time>
      </trkpt>
      <trkpt lat="45.66944" lon="5.95304">
        <ele>623</ele>
        <time>2012-04-22T12:05:41.000Z</time>
      </trkpt>
      <trkpt lat="45.66939" lon="5.953">
        <ele>623</ele>
        <time>2012-04-22T12:05:43.000Z</time>
      </trkpt>
      <trkpt lat="45.66933" lon="5.95298">
        <ele>622</ele>
        <time>2012-04-22T12:05:46.000Z</time>
      </trkpt>
      <trkpt lat="45.66926" lon="5.95296">
        <ele>622</ele>
        <time>2012-04-22T12:05:48.000Z</time>
      </trkpt>
      <trkpt lat="45.6692" lon="5.95296">
        <ele>622</ele>
        <time>2012-04-22T12:05:50.000Z</time>
      </trkpt>
      <trkpt lat="45.66915" lon="5.95296">
        <ele>621</ele>
        <time>2012-04-22T12:05:52.000Z</time>
      </trkpt>
      <trkpt lat="45.66909" lon="5.95296">
        <ele>621</ele>
        <time>2012-04-22T12:05:54.000Z</time>
      </trkpt>
      <trkpt lat="45.66904" lon="5.95296">
        <ele>621</ele>
        <time>2012-04-22T12:05:59.000Z</time>
      </trkpt>
      <trkpt lat="45.669" lon="5.95298">
        <ele>621</ele>
        <time>2012-04-22T12:06:03.000Z</time>
      </trkpt>
      <trkpt lat="45.66894" lon="5.95296">
        <ele>621</ele>
        <time>2012-04-22T12:06:08.000Z</time>
      </trkpt>
      <trkpt lat="45.66889" lon="5.95294">
        <ele>620</ele>
        <time>2012-04-22T12:06:13.000Z</time>
      </trkpt>
      <trkpt lat="45.66885" lon="5.95289">
        <ele>620</ele>
        <time>2012-04-22T12:06:18.000Z</time>
      </trkpt>
      <trkpt lat="45.66879" lon="5.95289">
        <ele>620</ele>
        <time>2012-04-22T12:06:29.000Z</time>
      </trkpt>
      <trkpt lat="45.66874" lon="5.95289">
        <ele>620</ele>
        <time>2012-04-22T12:06:34.000Z</time>
      </trkpt>
      <trkpt lat="45.6687" lon="5.95292">
        <ele>620</ele>
        <time>2012-04-22T12:06:40.000Z</time>
      </trkpt>
      <trkpt lat="45.6687" lon="5.95292">
        <ele>620</ele>
        <time>2012-04-22T12:06:40.000Z</time>
      </trkpt>
      <trkpt lat="45.6687" lon="5.95292">
        <ele>620</ele>
        <time>2012-04-22T12:06:43.000Z</time>
      </trkpt>
      <trkpt lat="45.66865" lon="5.95294">
        <ele>620</ele>
        <time>2012-04-22T12:07:09.000Z</time>
      </trkpt>
      <trkpt lat="45.66865" lon="5.95294">
        <ele>620</ele>
        <time>2012-04-22T12:07:09.000Z</time>
      </trkpt>
      <trkpt lat="45.66865" lon="5.95294">
        <ele>620</ele>
        <time>2012-04-22T12:07:33.000Z</time>
      </trkpt>
      <trkpt lat="45.66861" lon="5.95292">
        <ele>620</ele>
        <time>2012-04-22T12:07:46.000Z</time>
      </trkpt>
      <trkpt lat="45.66856" lon="5.95292">
        <ele>620</ele>
        <time>2012-04-22T12:07:50.000Z</time>
      </trkpt>
      <trkpt lat="45.66849" lon="5.95292">
        <ele>620</ele>
        <time>2012-04-22T12:07:54.000Z</time>
      </trkpt>
      <trkpt lat="45.66843" lon="5.95292">
        <ele>620</ele>
        <time>2012-04-22T12:07:58.000Z</time>
      </trkpt>
      <trkpt lat="45.66836" lon="5.95294">
        <ele>620</ele>
        <time>2012-04-22T12:08:01.000Z</time>
      </trkpt>
      <trkpt lat="45.66831" lon="5.95294">
        <ele>619</ele>
        <time>2012-04-22T12:08:04.000Z</time>
      </trkpt>
      <trkpt lat="45.66826" lon="5.95294">
        <ele>618</ele>
        <time>2012-04-22T12:08:07.000Z</time>
      </trkpt>
      <trkpt lat="45.66819" lon="5.95294">
        <ele>618</ele>
        <time>2012-04-22T12:08:10.000Z</time>
      </trkpt>
      <trkpt lat="45.66813" lon="5.95294">
        <ele>618</ele>
        <time>2012-04-22T12:08:12.000Z</time>
      </trkpt>
      <trkpt lat="45.66807" lon="5.95296">
        <ele>618</ele>
        <time>2012-04-22T12:08:14.000Z</time>
      </trkpt>
      <trkpt lat="45.668" lon="5.953">
        <ele>618</ele>
        <time>2012-04-22T12:08:17.000Z</time>
      </trkpt>
      <trkpt lat="45.66793" lon="5.95304">
        <ele>618</ele>
        <time>2012-04-22T12:08:19.000Z</time>
      </trkpt>
      <trkpt lat="45.66786" lon="5.95307">
        <ele>618</ele>
        <time>2012-04-22T12:08:21.000Z</time>
      </trkpt>
      <trkpt lat="45.66778" lon="5.95309">
        <ele>618</ele>
        <time>2012-04-22T12:08:23.000Z</time>
      </trkpt>
      <trkpt lat="45.66772" lon="5.95309">
        <ele>618</ele>
        <time>2012-04-22T12:08:25.000Z</time>
      </trkpt>
      <trkpt lat="45.66766" lon="5.95304">
        <ele>618</ele>
        <time>2012-04-22T12:08:27.000Z</time>
      </trkpt>
      <trkpt lat="45.66761" lon="5.953">
        <ele>618</ele>
        <time>2012-04-22T12:08:29.000Z</time>
      </trkpt>
      <trkpt lat="45.66756" lon="5.95296">
        <ele>617</ele>
        <time>2012-04-22T12:08:32.000Z</time>
      </trkpt>
      <trkpt lat="45.66752" lon="5.95292">
        <ele>617</ele>
        <time>2012-04-22T12:08:34.000Z</time>
      </trkpt>
      <trkpt lat="45.66746" lon="5.95287">
        <ele>616</ele>
        <time>2012-04-22T12:08:39.000Z</time>
      </trkpt>
      <trkpt lat="45.66741" lon="5.95283">
        <ele>616</ele>
        <time>2012-04-22T12:08:42.000Z</time>
      </trkpt>
      <trkpt lat="45.66733" lon="5.95279">
        <ele>616</ele>
        <time>2012-04-22T12:08:45.000Z</time>
      </trkpt>
      <trkpt lat="45.66727" lon="5.95274">
        <ele>616</ele>
        <time>2012-04-22T12:08:47.000Z</time>
      </trkpt>
      <trkpt lat="45.6672" lon="5.95274">
        <ele>616</ele>
        <time>2012-04-22T12:08:49.000Z</time>
      </trkpt>
      <trkpt lat="45.66714" lon="5.9527">
        <ele>616</ele>
        <time>2012-04-22T12:08:51.000Z</time>
      </trkpt>
      <trkpt lat="45.66709" lon="5.95266">
        <ele>615</ele>
        <time>2012-04-22T12:08:53.000Z</time>
      </trkpt>
      <trkpt lat="45.66703" lon="5.95259">
        <ele>615</ele>
        <time>2012-04-22T12:08:55.000Z</time>
      </trkpt>
      <trkpt lat="45.66697" lon="5.95251">
        <ele>615</ele>
        <time>2012-04-22T12:08:57.000Z</time>
      </trkpt>
      <trkpt lat="45.66689" lon="5.95244">
        <ele>609</ele>
        <time>2012-04-22T12:08:59.000Z</time>
      </trkpt>
      <trkpt lat="45.66682" lon="5.95236">
        <ele>609</ele>
        <time>2012-04-22T12:09:01.000Z</time>
      </trkpt>
      <trkpt lat="45.66678" lon="5.95232">
        <ele>608</ele>
        <time>2012-04-22T12:09:02.000Z</time>
      </trkpt>
      <trkpt lat="45.66672" lon="5.95225">
        <ele>608</ele>
        <time>2012-04-22T12:09:04.000Z</time>
      </trkpt>
      <trkpt lat="45.66667" lon="5.95219">
        <ele>607</ele>
        <time>2012-04-22T12:09:07.000Z</time>
      </trkpt>
      <trkpt lat="45.66661" lon="5.95216">
        <ele>605</ele>
        <time>2012-04-22T12:09:11.000Z</time>
      </trkpt>
      <trkpt lat="45.66657" lon="5.95223">
        <ele>606</ele>
        <time>2012-04-22T12:09:15.000Z</time>
      </trkpt>
      <trkpt lat="45.66653" lon="5.95229">
        <ele>606</ele>
        <time>2012-04-22T12:09:18.000Z</time>
      </trkpt>
      <trkpt lat="45.66651" lon="5.95236">
        <ele>607</ele>
        <time>2012-04-22T12:09:21.000Z</time>
      </trkpt>
      <trkpt lat="45.6665" lon="5.95242">
        <ele>607</ele>
        <time>2012-04-22T12:09:23.000Z</time>
      </trkpt>
      <trkpt lat="45.66648" lon="5.95249">
        <ele>608</ele>
        <time>2012-04-22T12:09:26.000Z</time>
      </trkpt>
      <trkpt lat="45.66645" lon="5.95255">
        <ele>615</ele>
        <time>2012-04-22T12:09:29.000Z</time>
      </trkpt>
      <trkpt lat="45.66642" lon="5.95262">
        <ele>616</ele>
        <time>2012-04-22T12:09:33.000Z</time>
      </trkpt>
      <trkpt lat="45.66639" lon="5.95268">
        <ele>617</ele>
        <time>2012-04-22T12:09:36.000Z</time>
      </trkpt>
      <trkpt lat="45.66635" lon="5.95272">
        <ele>617</ele>
        <time>2012-04-22T12:09:39.000Z</time>
      </trkpt>
      <trkpt lat="45.66631" lon="5.95279">
        <ele>618</ele>
        <time>2012-04-22T12:09:42.000Z</time>
      </trkpt>
      <trkpt lat="45.66627" lon="5.95283">
        <ele>619</ele>
        <time>2012-04-22T12:09:45.000Z</time>
      </trkpt>
      <trkpt lat="45.66623" lon="5.95289">
        <ele>619</ele>
        <time>2012-04-22T12:09:49.000Z</time>
      </trkpt>
      <trkpt lat="45.66618" lon="5.95294">
        <ele>620</ele>
        <time>2012-04-22T12:09:52.000Z</time>
      </trkpt>
      <trkpt lat="45.66614" lon="5.95298">
        <ele>620</ele>
        <time>2012-04-22T12:09:56.000Z</time>
      </trkpt>
      <trkpt lat="45.66609" lon="5.95302">
        <ele>621</ele>
        <time>2012-04-22T12:10:01.000Z</time>
      </trkpt>
      <trkpt lat="45.66605" lon="5.95307">
        <ele>622</ele>
        <time>2012-04-22T12:10:05.000Z</time>
      </trkpt>
      <trkpt lat="45.666" lon="5.95313">
        <ele>623</ele>
        <time>2012-04-22T12:10:09.000Z</time>
      </trkpt>
      <trkpt lat="45.66596" lon="5.95317">
        <ele>624</ele>
        <time>2012-04-22T12:10:12.000Z</time>
      </trkpt>
      <trkpt lat="45.66591" lon="5.95322">
        <ele>625</ele>
        <time>2012-04-22T12:10:16.000Z</time>
      </trkpt>
      <trkpt lat="45.66585" lon="5.95326">
        <ele>627</ele>
        <time>2012-04-22T12:10:20.000Z</time>
      </trkpt>
      <trkpt lat="45.66581" lon="5.95328">
        <ele>627</ele>
        <time>2012-04-22T12:10:23.000Z</time>
      </trkpt>
      <trkpt lat="45.66577" lon="5.9533">
        <ele>627</ele>
        <time>2012-04-22T12:10:25.000Z</time>
      </trkpt>
      <trkpt lat="45.66572" lon="5.95334">
        <ele>632</ele>
        <time>2012-04-22T12:10:28.000Z</time>
      </trkpt>
      <trkpt lat="45.66568" lon="5.95337">
        <ele>632</ele>
        <time>2012-04-22T12:10:31.000Z</time>
      </trkpt>
      <trkpt lat="45.66564" lon="5.95339">
        <ele>633</ele>
        <time>2012-04-22T12:10:34.000Z</time>
      </trkpt>
      <trkpt lat="45.6656" lon="5.95341">
        <ele>634</ele>
        <time>2012-04-22T12:10:37.000Z</time>
      </trkpt>
      <trkpt lat="45.66554" lon="5.95341">
        <ele>634</ele>
        <time>2012-04-22T12:10:41.000Z</time>
      </trkpt>
      <trkpt lat="45.66548" lon="5.95339">
        <ele>634</ele>
        <time>2012-04-22T12:10:45.000Z</time>
      </trkpt>
      <trkpt lat="45.66541" lon="5.95337">
        <ele>634</ele>
        <time>2012-04-22T12:10:49.000Z</time>
      </trkpt>
      <trkpt lat="45.66536" lon="5.95334">
        <ele>634</ele>
        <time>2012-04-22T12:10:52.000Z</time>
      </trkpt>
      <trkpt lat="45.6653" lon="5.95334">
        <ele>633</ele>
        <time>2012-04-22T12:10:55.000Z</time>
      </trkpt>
      <trkpt lat="45.66525" lon="5.95334">
        <ele>633</ele>
        <time>2012-04-22T12:10:58.000Z</time>
      </trkpt>
      <trkpt lat="45.66518" lon="5.95334">
        <ele>632</ele>
        <time>2012-04-22T12:11:01.000Z</time>
      </trkpt>
      <trkpt lat="45.66511" lon="5.95337">
        <ele>631</ele>
        <time>2012-04-22T12:11:03.000Z</time>
      </trkpt>
      <trkpt lat="45.66505" lon="5.95337">
        <ele>630</ele>
        <time>2012-04-22T12:11:05.000Z</time>
      </trkpt>
      <trkpt lat="45.66499" lon="5.95337">
        <ele>629</ele>
        <time>2012-04-22T12:11:07.000Z</time>
      </trkpt>
      <trkpt lat="45.66494" lon="5.95339">
        <ele>630</ele>
        <time>2012-04-22T12:11:09.000Z</time>
      </trkpt>
      <trkpt lat="45.66489" lon="5.95339">
        <ele>631</ele>
        <time>2012-04-22T12:11:12.000Z</time>
      </trkpt>
      <trkpt lat="45.66483" lon="5.95339">
        <ele>632</ele>
        <time>2012-04-22T12:11:15.000Z</time>
      </trkpt>
      <trkpt lat="45.66478" lon="5.95341">
        <ele>633</ele>
        <time>2012-04-22T12:11:18.000Z</time>
      </trkpt>
      <trkpt lat="45.66473" lon="5.95341">
        <ele>633</ele>
        <time>2012-04-22T12:11:21.000Z</time>
      </trkpt>
      <trkpt lat="45.66468" lon="5.95343">
        <ele>633</ele>
        <time>2012-04-22T12:11:23.000Z</time>
      </trkpt>
      <trkpt lat="45.66463" lon="5.95343">
        <ele>634</ele>
        <time>2012-04-22T12:11:26.000Z</time>
      </trkpt>
      <trkpt lat="45.66456" lon="5.95343">
        <ele>634</ele>
        <time>2012-04-22T12:11:31.000Z</time>
      </trkpt>
      <trkpt lat="45.6645" lon="5.95341">
        <ele>634</ele>
        <time>2012-04-22T12:11:36.000Z</time>
      </trkpt>
      <trkpt lat="45.66445" lon="5.95341">
        <ele>633</ele>
        <time>2012-04-22T12:11:40.000Z</time>
      </trkpt>
      <trkpt lat="45.6644" lon="5.95337">
        <ele>633</ele>
        <time>2012-04-22T12:11:44.000Z</time>
      </trkpt>
      <trkpt lat="45.66435" lon="5.95334">
        <ele>632</ele>
        <time>2012-04-22T12:11:47.000Z</time>
      </trkpt>
      <trkpt lat="45.6643" lon="5.95334">
        <ele>632</ele>
        <time>2012-04-22T12:11:50.000Z</time>
      </trkpt>
      <trkpt lat="45.66425" lon="5.95332">
        <ele>627</ele>
        <time>2012-04-22T12:11:52.000Z</time>
      </trkpt>
      <trkpt lat="45.6642" lon="5.9533">
        <ele>628</ele>
        <time>2012-04-22T12:11:55.000Z</time>
      </trkpt>
      <trkpt lat="45.66415" lon="5.95326">
        <ele>627</ele>
        <time>2012-04-22T12:11:58.000Z</time>
      </trkpt>
      <trkpt lat="45.6641" lon="5.95324">
        <ele>627</ele>
        <time>2012-04-22T12:12:00.000Z</time>
      </trkpt>
      <trkpt lat="45.66405" lon="5.9532">
        <ele>626</ele>
        <time>2012-04-22T12:12:03.000Z</time>
      </trkpt>
      <trkpt lat="45.66399" lon="5.95317">
        <ele>626</ele>
        <time>2012-04-22T12:12:06.000Z</time>
      </trkpt>
      <trkpt lat="45.66393" lon="5.95313">
        <ele>625</ele>
        <time>2012-04-22T12:12:09.000Z</time>
      </trkpt>
      <trkpt lat="45.66388" lon="5.95311">
        <ele>625</ele>
        <time>2012-04-22T12:12:12.000Z</time>
      </trkpt>
      <trkpt lat="45.66382" lon="5.95309">
        <ele>625</ele>
        <time>2012-04-22T12:12:14.000Z</time>
      </trkpt>
      <trkpt lat="45.66377" lon="5.95307">
        <ele>625</ele>
        <time>2012-04-22T12:12:16.000Z</time>
      </trkpt>
      <trkpt lat="45.66372" lon="5.95307">
        <ele>625</ele>
        <time>2012-04-22T12:12:18.000Z</time>
      </trkpt>
      <trkpt lat="45.66363" lon="5.95307">
        <ele>625</ele>
        <time>2012-04-22T12:12:20.000Z</time>
      </trkpt>
      <trkpt lat="45.66356" lon="5.95307">
        <ele>626</ele>
        <time>2012-04-22T12:12:22.000Z</time>
      </trkpt>
      <trkpt lat="45.6635" lon="5.95307">
        <ele>626</ele>
        <time>2012-04-22T12:12:23.000Z</time>
      </trkpt>
      <trkpt lat="45.66342" lon="5.95307">
        <ele>626</ele>
        <time>2012-04-22T12:12:25.000Z</time>
      </trkpt>
      <trkpt lat="45.66334" lon="5.95307">
        <ele>627</ele>
        <time>2012-04-22T12:12:27.000Z</time>
      </trkpt>
      <trkpt lat="45.66328" lon="5.95309">
        <ele>626</ele>
        <time>2012-04-22T12:12:29.000Z</time>
      </trkpt>
      <trkpt lat="45.66322" lon="5.95309">
        <ele>626</ele>
        <time>2012-04-22T12:12:31.000Z</time>
      </trkpt>
      <trkpt lat="45.66316" lon="5.95311">
        <ele>626</ele>
        <time>2012-04-22T12:12:33.000Z</time>
      </trkpt>
      <trkpt lat="45.66311" lon="5.95313">
        <ele>626</ele>
        <time>2012-04-22T12:12:35.000Z</time>
      </trkpt>
      <trkpt lat="45.66306" lon="5.95315">
        <ele>625</ele>
        <time>2012-04-22T12:12:37.000Z</time>
      </trkpt>
      <trkpt lat="45.66302" lon="5.95317">
        <ele>625</ele>
        <time>2012-04-22T12:12:39.000Z</time>
      </trkpt>
      <trkpt lat="45.66298" lon="5.95322">
        <ele>625</ele>
        <time>2012-04-22T12:12:42.000Z</time>
      </trkpt>
      <trkpt lat="45.66293" lon="5.95326">
        <ele>625</ele>
        <time>2012-04-22T12:12:45.000Z</time>
      </trkpt>
      <trkpt lat="45.66289" lon="5.95332">
        <ele>626</ele>
        <time>2012-04-22T12:12:48.000Z</time>
      </trkpt>
      <trkpt lat="45.66284" lon="5.95337">
        <ele>636</ele>
        <time>2012-04-22T12:12:51.000Z</time>
      </trkpt>
      <trkpt lat="45.6628" lon="5.95339">
        <ele>636</ele>
        <time>2012-04-22T12:12:53.000Z</time>
      </trkpt>
      <trkpt lat="45.66275" lon="5.95341">
        <ele>636</ele>
        <time>2012-04-22T12:12:55.000Z</time>
      </trkpt>
      <trkpt lat="45.66271" lon="5.95343">
        <ele>636</ele>
        <time>2012-04-22T12:12:57.000Z</time>
      </trkpt>
      <trkpt lat="45.66267" lon="5.95345">
        <ele>635</ele>
        <time>2012-04-22T12:12:59.000Z</time>
      </trkpt>
      <trkpt lat="45.66262" lon="5.95347">
        <ele>635</ele>
        <time>2012-04-22T12:13:01.000Z</time>
      </trkpt>
      <trkpt lat="45.66256" lon="5.95347">
        <ele>634</ele>
        <time>2012-04-22T12:13:03.000Z</time>
      </trkpt>
      <trkpt lat="45.66249" lon="5.95347">
        <ele>632</ele>
        <time>2012-04-22T12:13:05.000Z</time>
      </trkpt>
      <trkpt lat="45.66242" lon="5.9535">
        <ele>633</ele>
        <time>2012-04-22T12:13:07.000Z</time>
      </trkpt>
      <trkpt lat="45.66236" lon="5.9535">
        <ele>633</ele>
        <time>2012-04-22T12:13:09.000Z</time>
      </trkpt>
      <trkpt lat="45.6623" lon="5.95352">
        <ele>634</ele>
        <time>2012-04-22T12:13:11.000Z</time>
      </trkpt>
      <trkpt lat="45.66224" lon="5.95352">
        <ele>634</ele>
        <time>2012-04-22T12:13:13.000Z</time>
      </trkpt>
      <trkpt lat="45.66217" lon="5.95352">
        <ele>634</ele>
        <time>2012-04-22T12:13:16.000Z</time>
      </trkpt>
      <trkpt lat="45.66212" lon="5.95354">
        <ele>634</ele>
        <time>2012-04-22T12:13:18.000Z</time>
      </trkpt>
      <trkpt lat="45.66206" lon="5.95356">
        <ele>634</ele>
        <time>2012-04-22T12:13:20.000Z</time>
      </trkpt>
      <trkpt lat="45.662" lon="5.95356">
        <ele>633</ele>
        <time>2012-04-22T12:13:22.000Z</time>
      </trkpt>
      <trkpt lat="45.66195" lon="5.95358">
        <ele>633</ele>
        <time>2012-04-22T12:13:25.000Z</time>
      </trkpt>
      <trkpt lat="45.66189" lon="5.95364">
        <ele>634</ele>
        <time>2012-04-22T12:13:28.000Z</time>
      </trkpt>
      <trkpt lat="45.66185" lon="5.95371">
        <ele>635</ele>
        <time>2012-04-22T12:13:30.000Z</time>
      </trkpt>
      <trkpt lat="45.6618" lon="5.9538">
        <ele>636</ele>
        <time>2012-04-22T12:13:33.000Z</time>
      </trkpt>
      <trkpt lat="45.66175" lon="5.95384">
        <ele>637</ele>
        <time>2012-04-22T12:13:35.000Z</time>
      </trkpt>
      <trkpt lat="45.6617" lon="5.95388">
        <ele>638</ele>
        <time>2012-04-22T12:13:38.000Z</time>
      </trkpt>
      <trkpt lat="45.66166" lon="5.95392">
        <ele>637</ele>
        <time>2012-04-22T12:13:42.000Z</time>
      </trkpt>
      <trkpt lat="45.6616" lon="5.95392">
        <ele>637</ele>
        <time>2012-04-22T12:13:47.000Z</time>
      </trkpt>
      <trkpt lat="45.66155" lon="5.95392">
        <ele>637</ele>
        <time>2012-04-22T12:13:52.000Z</time>
      </trkpt>
      <trkpt lat="45.66149" lon="5.95395">
        <ele>637</ele>
        <time>2012-04-22T12:13:56.000Z</time>
      </trkpt>
      <trkpt lat="45.66143" lon="5.95395">
        <ele>637</ele>
        <time>2012-04-22T12:14:01.000Z</time>
      </trkpt>
      <trkpt lat="45.66138" lon="5.95395">
        <ele>637</ele>
        <time>2012-04-22T12:14:04.000Z</time>
      </trkpt>
      <trkpt lat="45.66131" lon="5.95395">
        <ele>636</ele>
        <time>2012-04-22T12:14:06.000Z</time>
      </trkpt>
      <trkpt lat="45.66125" lon="5.95395">
        <ele>636</ele>
        <time>2012-04-22T12:14:09.000Z</time>
      </trkpt>
      <trkpt lat="45.66121" lon="5.95392">
        <ele>636</ele>
        <time>2012-04-22T12:14:11.000Z</time>
      </trkpt>
      <trkpt lat="45.66116" lon="5.95388">
        <ele>635</ele>
        <time>2012-04-22T12:14:13.000Z</time>
      </trkpt>
      <trkpt lat="45.66109" lon="5.95384">
        <ele>635</ele>
        <time>2012-04-22T12:14:16.000Z</time>
      </trkpt>
      <trkpt lat="45.66104" lon="5.95382">
        <ele>635</ele>
        <time>2012-04-22T12:14:19.000Z</time>
      </trkpt>
      <trkpt lat="45.66097" lon="5.9538">
        <ele>635</ele>
        <time>2012-04-22T12:14:22.000Z</time>
      </trkpt>
      <trkpt lat="45.66092" lon="5.95377">
        <ele>634</ele>
        <time>2012-04-22T12:14:25.000Z</time>
      </trkpt>
      <trkpt lat="45.66086" lon="5.95375">
        <ele>634</ele>
        <time>2012-04-22T12:14:29.000Z</time>
      </trkpt>
      <trkpt lat="45.6608" lon="5.95375">
        <ele>635</ele>
        <time>2012-04-22T12:14:33.000Z</time>
      </trkpt>
      <trkpt lat="45.66074" lon="5.95375">
        <ele>635</ele>
        <time>2012-04-22T12:14:36.000Z</time>
      </trkpt>
      <trkpt lat="45.66068" lon="5.95375">
        <ele>635</ele>
        <time>2012-04-22T12:14:39.000Z</time>
      </trkpt>
      <trkpt lat="45.66062" lon="5.95375">
        <ele>636</ele>
        <time>2012-04-22T12:14:42.000Z</time>
      </trkpt>
      <trkpt lat="45.66056" lon="5.95375">
        <ele>636</ele>
        <time>2012-04-22T12:14:44.000Z</time>
      </trkpt>
      <trkpt lat="45.66051" lon="5.95375">
        <ele>636</ele>
        <time>2012-04-22T12:14:46.000Z</time>
      </trkpt>
      <trkpt lat="45.66047" lon="5.95373">
        <ele>636</ele>
        <time>2012-04-22T12:14:48.000Z</time>
      </trkpt>
      <trkpt lat="45.66042" lon="5.95371">
        <ele>636</ele>
        <time>2012-04-22T12:14:50.000Z</time>
      </trkpt>
      <trkpt lat="45.66037" lon="5.95371">
        <ele>636</ele>
        <time>2012-04-22T12:14:53.000Z</time>
      </trkpt>
      <trkpt lat="45.66031" lon="5.95371">
        <ele>636</ele>
        <time>2012-04-22T12:14:55.000Z</time>
      </trkpt>
      <trkpt lat="45.66025" lon="5.95371">
        <ele>636</ele>
        <time>2012-04-22T12:14:57.000Z</time>
      </trkpt>
      <trkpt lat="45.6602" lon="5.95369">
        <ele>636</ele>
        <time>2012-04-22T12:15:00.000Z</time>
      </trkpt>
      <trkpt lat="45.66014" lon="5.95367">
        <ele>635</ele>
        <time>2012-04-22T12:15:03.000Z</time>
      </trkpt>
      <trkpt lat="45.66009" lon="5.95369">
        <ele>636</ele>
        <time>2012-04-22T12:15:05.000Z</time>
      </trkpt>
      <trkpt lat="45.66003" lon="5.95364">
        <ele>635</ele>
        <time>2012-04-22T12:15:07.000Z</time>
      </trkpt>
      <trkpt lat="45.65996" lon="5.95362">
        <ele>635</ele>
        <time>2012-04-22T12:15:09.000Z</time>
      </trkpt>
      <trkpt lat="45.65991" lon="5.95362">
        <ele>635</ele>
        <time>2012-04-22T12:15:11.000Z</time>
      </trkpt>
      <trkpt lat="45.65986" lon="5.9536">
        <ele>635</ele>
        <time>2012-04-22T12:15:13.000Z</time>
      </trkpt>
      <trkpt lat="45.6598" lon="5.9536">
        <ele>635</ele>
        <time>2012-04-22T12:15:15.000Z</time>
      </trkpt>
      <trkpt lat="45.65974" lon="5.9536">
        <ele>635</ele>
        <time>2012-04-22T12:15:17.000Z</time>
      </trkpt>
      <trkpt lat="45.65967" lon="5.95358">
        <ele>635</ele>
        <time>2012-04-22T12:15:20.000Z</time>
      </trkpt>
      <trkpt lat="45.65963" lon="5.95356">
        <ele>635</ele>
        <time>2012-04-22T12:15:23.000Z</time>
      </trkpt>
      <trkpt lat="45.65959" lon="5.95354">
        <ele>635</ele>
        <time>2012-04-22T12:15:26.000Z</time>
      </trkpt>
      <trkpt lat="45.65954" lon="5.95347">
        <ele>634</ele>
        <time>2012-04-22T12:15:30.000Z</time>
      </trkpt>
      <trkpt lat="45.6595" lon="5.95343">
        <ele>633</ele>
        <time>2012-04-22T12:15:33.000Z</time>
      </trkpt>
      <trkpt lat="45.65946" lon="5.95339">
        <ele>633</ele>
        <time>2012-04-22T12:15:36.000Z</time>
      </trkpt>
      <trkpt lat="45.6594" lon="5.95334">
        <ele>632</ele>
        <time>2012-04-22T12:15:39.000Z</time>
      </trkpt>
      <trkpt lat="45.65936" lon="5.9533">
        <ele>621</ele>
        <time>2012-04-22T12:15:42.000Z</time>
      </trkpt>
      <trkpt lat="45.65931" lon="5.95326">
        <ele>621</ele>
        <time>2012-04-22T12:15:45.000Z</time>
      </trkpt>
      <trkpt lat="45.65925" lon="5.95322">
        <ele>622</ele>
        <time>2012-04-22T12:15:48.000Z</time>
      </trkpt>
      <trkpt lat="45.6592" lon="5.95317">
        <ele>621</ele>
        <time>2012-04-22T12:15:50.000Z</time>
      </trkpt>
      <trkpt lat="45.65914" lon="5.95315">
        <ele>620</ele>
        <time>2012-04-22T12:15:52.000Z</time>
      </trkpt>
      <trkpt lat="45.65906" lon="5.95315">
        <ele>619</ele>
        <time>2012-04-22T12:15:54.000Z</time>
      </trkpt>
      <trkpt lat="45.65898" lon="5.95315">
        <ele>619</ele>
        <time>2012-04-22T12:15:56.000Z</time>
      </trkpt>
      <trkpt lat="45.65891" lon="5.95315">
        <ele>619</ele>
        <time>2012-04-22T12:15:58.000Z</time>
      </trkpt>
      <trkpt lat="45.65886" lon="5.95313">
        <ele>618</ele>
        <time>2012-04-22T12:16:00.000Z</time>
      </trkpt>
      <trkpt lat="45.65879" lon="5.95313">
        <ele>618</ele>
        <time>2012-04-22T12:16:03.000Z</time>
      </trkpt>
      <trkpt lat="45.65874" lon="5.95313">
        <ele>618</ele>
        <time>2012-04-22T12:16:05.000Z</time>
      </trkpt>
      <trkpt lat="45.65869" lon="5.95313">
        <ele>618</ele>
        <time>2012-04-22T12:16:08.000Z</time>
      </trkpt>
      <trkpt lat="45.65864" lon="5.95311">
        <ele>618</ele>
        <time>2012-04-22T12:16:11.000Z</time>
      </trkpt>
      <trkpt lat="45.6586" lon="5.95309">
        <ele>618</ele>
        <time>2012-04-22T12:16:14.000Z</time>
      </trkpt>
      <trkpt lat="45.65855" lon="5.95302">
        <ele>618</ele>
        <time>2012-04-22T12:16:17.000Z</time>
      </trkpt>
      <trkpt lat="45.65849" lon="5.953">
        <ele>617</ele>
        <time>2012-04-22T12:16:20.000Z</time>
      </trkpt>
      <trkpt lat="45.65844" lon="5.95296">
        <ele>617</ele>
        <time>2012-04-22T12:16:23.000Z</time>
      </trkpt>
      <trkpt lat="45.65838" lon="5.95296">
        <ele>617</ele>
        <time>2012-04-22T12:16:25.000Z</time>
      </trkpt>
      <trkpt lat="45.65831" lon="5.95296">
        <ele>617</ele>
        <time>2012-04-22T12:16:27.000Z</time>
      </trkpt>
      <trkpt lat="45.65825" lon="5.95294">
        <ele>616</ele>
        <time>2012-04-22T12:16:29.000Z</time>
      </trkpt>
      <trkpt lat="45.65818" lon="5.95294">
        <ele>616</ele>
        <time>2012-04-22T12:16:31.000Z</time>
      </trkpt>
      <trkpt lat="45.65811" lon="5.95292">
        <ele>615</ele>
        <time>2012-04-22T12:16:33.000Z</time>
      </trkpt>
      <trkpt lat="45.65804" lon="5.95292">
        <ele>615</ele>
        <time>2012-04-22T12:16:35.000Z</time>
      </trkpt>
      <trkpt lat="45.65798" lon="5.95292">
        <ele>615</ele>
        <time>2012-04-22T12:16:38.000Z</time>
      </trkpt>
      <trkpt lat="45.6579" lon="5.95292">
        <ele>615</ele>
        <time>2012-04-22T12:16:41.000Z</time>
      </trkpt>
      <trkpt lat="45.65785" lon="5.95289">
        <ele>615</ele>
        <time>2012-04-22T12:16:44.000Z</time>
      </trkpt>
      <trkpt lat="45.6578" lon="5.95289">
        <ele>614</ele>
        <time>2012-04-22T12:16:47.000Z</time>
      </trkpt>
      <trkpt lat="45.65773" lon="5.95287">
        <ele>614</ele>
        <time>2012-04-22T12:16:50.000Z</time>
      </trkpt>
      <trkpt lat="45.65768" lon="5.95285">
        <ele>614</ele>
        <time>2012-04-22T12:16:52.000Z</time>
      </trkpt>
      <trkpt lat="45.65761" lon="5.95283">
        <ele>613</ele>
        <time>2012-04-22T12:16:55.000Z</time>
      </trkpt>
      <trkpt lat="45.65756" lon="5.95281">
        <ele>613</ele>
        <time>2012-04-22T12:16:58.000Z</time>
      </trkpt>
      <trkpt lat="45.6575" lon="5.95279">
        <ele>613</ele>
        <time>2012-04-22T12:17:00.000Z</time>
      </trkpt>
      <trkpt lat="45.65745" lon="5.95274">
        <ele>612</ele>
        <time>2012-04-22T12:17:03.000Z</time>
      </trkpt>
      <trkpt lat="45.65741" lon="5.95272">
        <ele>611</ele>
        <time>2012-04-22T12:17:05.000Z</time>
      </trkpt>
      <trkpt lat="45.65737" lon="5.9527">
        <ele>611</ele>
        <time>2012-04-22T12:17:08.000Z</time>
      </trkpt>
      <trkpt lat="45.6573" lon="5.95268">
        <ele>612</ele>
        <time>2012-04-22T12:17:11.000Z</time>
      </trkpt>
      <trkpt lat="45.65725" lon="5.95266">
        <ele>612</ele>
        <time>2012-04-22T12:17:13.000Z</time>
      </trkpt>
      <trkpt lat="45.65718" lon="5.95266">
        <ele>612</ele>
        <time>2012-04-22T12:17:15.000Z</time>
      </trkpt>
      <trkpt lat="45.65711" lon="5.95266">
        <ele>613</ele>
        <time>2012-04-22T12:17:17.000Z</time>
      </trkpt>
      <trkpt lat="45.65704" lon="5.95266">
        <ele>613</ele>
        <time>2012-04-22T12:17:19.000Z</time>
      </trkpt>
      <trkpt lat="45.65698" lon="5.95266">
        <ele>613</ele>
        <time>2012-04-22T12:17:21.000Z</time>
      </trkpt>
      <trkpt lat="45.65693" lon="5.95266">
        <ele>613</ele>
        <time>2012-04-22T12:17:23.000Z</time>
      </trkpt>
      <trkpt lat="45.65688" lon="5.95268">
        <ele>613</ele>
        <time>2012-04-22T12:17:25.000Z</time>
      </trkpt>
      <trkpt lat="45.65683" lon="5.95268">
        <ele>613</ele>
        <time>2012-04-22T12:17:27.000Z</time>
      </trkpt>
      <trkpt lat="45.65679" lon="5.9527">
        <ele>613</ele>
        <time>2012-04-22T12:17:29.000Z</time>
      </trkpt>
      <trkpt lat="45.65672" lon="5.95272">
        <ele>613</ele>
        <time>2012-04-22T12:17:31.000Z</time>
      </trkpt>
      <trkpt lat="45.65665" lon="5.95276">
        <ele>615</ele>
        <time>2012-04-22T12:17:34.000Z</time>
      </trkpt>
      <trkpt lat="45.65659" lon="5.95279">
        <ele>616</ele>
        <time>2012-04-22T12:17:37.000Z</time>
      </trkpt>
      <trkpt lat="45.65654" lon="5.95279">
        <ele>616</ele>
        <time>2012-04-22T12:17:40.000Z</time>
      </trkpt>
      <trkpt lat="45.6565" lon="5.95281">
        <ele>617</ele>
        <time>2012-04-22T12:17:43.000Z</time>
      </trkpt>
      <trkpt lat="45.65644" lon="5.95285">
        <ele>618</ele>
        <time>2012-04-22T12:17:46.000Z</time>
      </trkpt>
      <trkpt lat="45.65639" lon="5.95287">
        <ele>618</ele>
        <time>2012-04-22T12:17:50.000Z</time>
      </trkpt>
      <trkpt lat="45.65634" lon="5.95287">
        <ele>618</ele>
        <time>2012-04-22T12:17:54.000Z</time>
      </trkpt>
      <trkpt lat="45.65628" lon="5.95285">
        <ele>618</ele>
        <time>2012-04-22T12:17:58.000Z</time>
      </trkpt>
      <trkpt lat="45.65624" lon="5.95281">
        <ele>618</ele>
        <time>2012-04-22T12:18:01.000Z</time>
      </trkpt>
      <trkpt lat="45.6562" lon="5.95276">
        <ele>617</ele>
        <time>2012-04-22T12:18:04.000Z</time>
      </trkpt>
      <trkpt lat="45.65615" lon="5.95274">
        <ele>617</ele>
        <time>2012-04-22T12:18:06.000Z</time>
      </trkpt>
      <trkpt lat="45.65611" lon="5.9527">
        <ele>616</ele>
        <time>2012-04-22T12:18:09.000Z</time>
      </trkpt>
      <trkpt lat="45.65607" lon="5.95268">
        <ele>616</ele>
        <time>2012-04-22T12:18:11.000Z</time>
      </trkpt>
      <trkpt lat="45.65601" lon="5.95264">
        <ele>614</ele>
        <time>2012-04-22T12:18:14.000Z</time>
      </trkpt>
      <trkpt lat="45.65595" lon="5.95264">
        <ele>614</ele>
        <time>2012-04-22T12:18:17.000Z</time>
      </trkpt>
      <trkpt lat="45.65591" lon="5.95262">
        <ele>613</ele>
        <time>2012-04-22T12:18:20.000Z</time>
      </trkpt>
      <trkpt lat="45.65584" lon="5.95262">
        <ele>612</ele>
        <time>2012-04-22T12:18:23.000Z</time>
      </trkpt>
      <trkpt lat="45.65578" lon="5.95264">
        <ele>614</ele>
        <time>2012-04-22T12:18:25.000Z</time>
      </trkpt>
      <trkpt lat="45.65571" lon="5.95266">
        <ele>615</ele>
        <time>2012-04-22T12:18:27.000Z</time>
      </trkpt>
      <trkpt lat="45.65565" lon="5.95268">
        <ele>616</ele>
        <time>2012-04-22T12:18:29.000Z</time>
      </trkpt>
      <trkpt lat="45.65557" lon="5.95268">
        <ele>617</ele>
        <time>2012-04-22T12:18:32.000Z</time>
      </trkpt>
      <trkpt lat="45.65552" lon="5.95268">
        <ele>617</ele>
        <time>2012-04-22T12:18:35.000Z</time>
      </trkpt>
      <trkpt lat="45.65548" lon="5.9527">
        <ele>617</ele>
        <time>2012-04-22T12:18:39.000Z</time>
      </trkpt>
      <trkpt lat="45.65544" lon="5.95272">
        <ele>618</ele>
        <time>2012-04-22T12:18:44.000Z</time>
      </trkpt>
      <trkpt lat="45.65539" lon="5.95279">
        <ele>619</ele>
        <time>2012-04-22T12:18:50.000Z</time>
      </trkpt>
      <trkpt lat="45.65539" lon="5.95279">
        <ele>619</ele>
        <time>2012-04-22T12:18:50.000Z</time>
      </trkpt>
      <trkpt lat="45.65539" lon="5.95279">
        <ele>619</ele>
        <time>2012-04-22T12:18:51.000Z</time>
      </trkpt>
      <trkpt lat="45.65536" lon="5.95285">
        <ele>620</ele>
        <time>2012-04-22T12:18:58.000Z</time>
      </trkpt>
      <trkpt lat="45.65536" lon="5.95285">
        <ele>620</ele>
        <time>2012-04-22T12:18:58.000Z</time>
      </trkpt>
      <trkpt lat="45.65536" lon="5.95285">
        <ele>620</ele>
        <time>2012-04-22T12:18:59.000Z</time>
      </trkpt>
      <trkpt lat="45.65533" lon="5.95292">
        <ele>621</ele>
        <time>2012-04-22T12:19:06.000Z</time>
      </trkpt>
      <trkpt lat="45.65532" lon="5.95298">
        <ele>622</ele>
        <time>2012-04-22T12:19:20.000Z</time>
      </trkpt>
      <trkpt lat="45.65527" lon="5.953">
        <ele>622</ele>
        <time>2012-04-22T12:19:25.000Z</time>
      </trkpt>
      <trkpt lat="45.65522" lon="5.953">
        <ele>622</ele>
        <time>2012-04-22T12:19:30.000Z</time>
      </trkpt>
      <trkpt lat="45.65518" lon="5.95302">
        <ele>623</ele>
        <time>2012-04-22T12:19:34.000Z</time>
      </trkpt>
      <trkpt lat="45.65518" lon="5.95302">
        <ele>623</ele>
        <time>2012-04-22T12:19:34.000Z</time>
      </trkpt>
      <trkpt lat="45.65518" lon="5.95302">
        <ele>623</ele>
        <time>2012-04-22T12:19:35.000Z</time>
      </trkpt>
      <trkpt lat="45.65513" lon="5.95298">
        <ele>622</ele>
        <time>2012-04-22T12:19:40.000Z</time>
      </trkpt>
      <trkpt lat="45.65509" lon="5.95292">
        <ele>621</ele>
        <time>2012-04-22T12:19:45.000Z</time>
      </trkpt>
      <trkpt lat="45.65503" lon="5.95292">
        <ele>621</ele>
        <time>2012-04-22T12:19:49.000Z</time>
      </trkpt>
      <trkpt lat="45.65495" lon="5.95289">
        <ele>621</ele>
        <time>2012-04-22T12:19:52.000Z</time>
      </trkpt>
      <trkpt lat="45.6549" lon="5.95292">
        <ele>622</ele>
        <time>2012-04-22T12:19:54.000Z</time>
      </trkpt>
      <trkpt lat="45.65484" lon="5.95292">
        <ele>622</ele>
        <time>2012-04-22T12:19:56.000Z</time>
      </trkpt>
      <trkpt lat="45.65479" lon="5.95292">
        <ele>622</ele>
        <time>2012-04-22T12:19:58.000Z</time>
      </trkpt>
      <trkpt lat="45.65474" lon="5.95292">
        <ele>622</ele>
        <time>2012-04-22T12:20:00.000Z</time>
      </trkpt>
      <trkpt lat="45.65467" lon="5.95289">
        <ele>621</ele>
        <time>2012-04-22T12:20:03.000Z</time>
      </trkpt>
      <trkpt lat="45.65462" lon="5.95287">
        <ele>621</ele>
        <time>2012-04-22T12:20:07.000Z</time>
      </trkpt>
      <trkpt lat="45.65457" lon="5.95285">
        <ele>621</ele>
        <time>2012-04-22T12:20:10.000Z</time>
      </trkpt>
      <trkpt lat="45.65451" lon="5.95285">
        <ele>621</ele>
        <time>2012-04-22T12:20:13.000Z</time>
      </trkpt>
      <trkpt lat="45.65445" lon="5.95285">
        <ele>621</ele>
        <time>2012-04-22T12:20:16.000Z</time>
      </trkpt>
      <trkpt lat="45.65438" lon="5.95285">
        <ele>621</ele>
        <time>2012-04-22T12:20:19.000Z</time>
      </trkpt>
      <trkpt lat="45.65432" lon="5.95285">
        <ele>621</ele>
        <time>2012-04-22T12:20:22.000Z</time>
      </trkpt>
      <trkpt lat="45.65426" lon="5.95283">
        <ele>620</ele>
        <time>2012-04-22T12:20:25.000Z</time>
      </trkpt>
      <trkpt lat="45.6542" lon="5.95283">
        <ele>620</ele>
        <time>2012-04-22T12:20:28.000Z</time>
      </trkpt>
      <trkpt lat="45.65415" lon="5.95283">
        <ele>622</ele>
        <time>2012-04-22T12:20:31.000Z</time>
      </trkpt>
      <trkpt lat="45.65408" lon="5.95281">
        <ele>622</ele>
        <time>2012-04-22T12:20:34.000Z</time>
      </trkpt>
      <trkpt lat="45.65402" lon="5.95281">
        <ele>622</ele>
        <time>2012-04-22T12:20:37.000Z</time>
      </trkpt>
      <trkpt lat="45.65395" lon="5.95281">
        <ele>623</ele>
        <time>2012-04-22T12:20:40.000Z</time>
      </trkpt>
      <trkpt lat="45.6539" lon="5.95279">
        <ele>623</ele>
        <time>2012-04-22T12:20:43.000Z</time>
      </trkpt>
      <trkpt lat="45.65386" lon="5.95274">
        <ele>622</ele>
        <time>2012-04-22T12:20:45.000Z</time>
      </trkpt>
      <trkpt lat="45.65379" lon="5.95274">
        <ele>622</ele>
        <time>2012-04-22T12:20:47.000Z</time>
      </trkpt>
      <trkpt lat="45.65373" lon="5.9527">
        <ele>622</ele>
        <time>2012-04-22T12:20:50.000Z</time>
      </trkpt>
      <trkpt lat="45.65366" lon="5.95266">
        <ele>622</ele>
        <time>2012-04-22T12:20:53.000Z</time>
      </trkpt>
      <trkpt lat="45.65362" lon="5.95264">
        <ele>621</ele>
        <time>2012-04-22T12:20:55.000Z</time>
      </trkpt>
      <trkpt lat="45.65358" lon="5.95259">
        <ele>620</ele>
        <time>2012-04-22T12:20:58.000Z</time>
      </trkpt>
      <trkpt lat="45.65355" lon="5.95253">
        <ele>619</ele>
        <time>2012-04-22T12:21:00.000Z</time>
      </trkpt>
      <trkpt lat="45.6535" lon="5.95249">
        <ele>607</ele>
        <time>2012-04-22T12:21:03.000Z</time>
      </trkpt>
      <trkpt lat="45.65345" lon="5.95242">
        <ele>607</ele>
        <time>2012-04-22T12:21:06.000Z</time>
      </trkpt>
      <trkpt lat="45.65341" lon="5.95238">
        <ele>607</ele>
        <time>2012-04-22T12:21:09.000Z</time>
      </trkpt>
      <trkpt lat="45.65335" lon="5.95236">
        <ele>607</ele>
        <time>2012-04-22T12:21:13.000Z</time>
      </trkpt>
      <trkpt lat="45.6533" lon="5.95234">
        <ele>609</ele>
        <time>2012-04-22T12:21:16.000Z</time>
      </trkpt>
      <trkpt lat="45.65325" lon="5.95232">
        <ele>608</ele>
        <time>2012-04-22T12:21:20.000Z</time>
      </trkpt>
      <trkpt lat="45.65319" lon="5.95229">
        <ele>608</ele>
        <time>2012-04-22T12:21:24.000Z</time>
      </trkpt>
      <trkpt lat="45.65313" lon="5.95229">
        <ele>607</ele>
        <time>2012-04-22T12:21:28.000Z</time>
      </trkpt>
      <trkpt lat="45.65305" lon="5.95229">
        <ele>607</ele>
        <time>2012-04-22T12:21:31.000Z</time>
      </trkpt>
      <trkpt lat="45.653" lon="5.95229">
        <ele>607</ele>
        <time>2012-04-22T12:21:36.000Z</time>
      </trkpt>
      <trkpt lat="45.65294" lon="5.95225">
        <ele>607</ele>
        <time>2012-04-22T12:21:40.000Z</time>
      </trkpt>
      <trkpt lat="45.65288" lon="5.95223">
        <ele>607</ele>
        <time>2012-04-22T12:21:42.000Z</time>
      </trkpt>
      <trkpt lat="45.65283" lon="5.95221">
        <ele>607</ele>
        <time>2012-04-22T12:21:44.000Z</time>
      </trkpt>
      <trkpt lat="45.65276" lon="5.95219">
        <ele>607</ele>
        <time>2012-04-22T12:21:46.000Z</time>
      </trkpt>
      <trkpt lat="45.6527" lon="5.95216">
        <ele>607</ele>
        <time>2012-04-22T12:21:48.000Z</time>
      </trkpt>
      <trkpt lat="45.65266" lon="5.95214">
        <ele>607</ele>
        <time>2012-04-22T12:21:50.000Z</time>
      </trkpt>
      <trkpt lat="45.65258" lon="5.95212">
        <ele>607</ele>
        <time>2012-04-22T12:21:53.000Z</time>
      </trkpt>
      <trkpt lat="45.65252" lon="5.9521">
        <ele>607</ele>
        <time>2012-04-22T12:21:55.000Z</time>
      </trkpt>
      <trkpt lat="45.65245" lon="5.95208">
        <ele>608</ele>
        <time>2012-04-22T12:21:57.000Z</time>
      </trkpt>
      <trkpt lat="45.65239" lon="5.95206">
        <ele>608</ele>
        <time>2012-04-22T12:21:59.000Z</time>
      </trkpt>
      <trkpt lat="45.65232" lon="5.95204">
        <ele>608</ele>
        <time>2012-04-22T12:22:01.000Z</time>
      </trkpt>
      <trkpt lat="45.65226" lon="5.95201">
        <ele>607</ele>
        <time>2012-04-22T12:22:04.000Z</time>
      </trkpt>
      <trkpt lat="45.6522" lon="5.95199">
        <ele>607</ele>
        <time>2012-04-22T12:22:07.000Z</time>
      </trkpt>
      <trkpt lat="45.65214" lon="5.95199">
        <ele>607</ele>
        <time>2012-04-22T12:22:10.000Z</time>
      </trkpt>
      <trkpt lat="45.65208" lon="5.95197">
        <ele>607</ele>
        <time>2012-04-22T12:22:13.000Z</time>
      </trkpt>
      <trkpt lat="45.65201" lon="5.95195">
        <ele>607</ele>
        <time>2012-04-22T12:22:16.000Z</time>
      </trkpt>
      <trkpt lat="45.65195" lon="5.95195">
        <ele>607</ele>
        <time>2012-04-22T12:22:20.000Z</time>
      </trkpt>
      <trkpt lat="45.65187" lon="5.95193">
        <ele>606</ele>
        <time>2012-04-22T12:22:23.000Z</time>
      </trkpt>
      <trkpt lat="45.65182" lon="5.95191">
        <ele>606</ele>
        <time>2012-04-22T12:22:25.000Z</time>
      </trkpt>
      <trkpt lat="45.65177" lon="5.95191">
        <ele>606</ele>
        <time>2012-04-22T12:22:27.000Z</time>
      </trkpt>
      <trkpt lat="45.65171" lon="5.95189">
        <ele>605</ele>
        <time>2012-04-22T12:22:29.000Z</time>
      </trkpt>
      <trkpt lat="45.65166" lon="5.95186">
        <ele>604</ele>
        <time>2012-04-22T12:22:31.000Z</time>
      </trkpt>
      <trkpt lat="45.6516" lon="5.95186">
        <ele>604</ele>
        <time>2012-04-22T12:22:33.000Z</time>
      </trkpt>
      <trkpt lat="45.65152" lon="5.95184">
        <ele>604</ele>
        <time>2012-04-22T12:22:35.000Z</time>
      </trkpt>
      <trkpt lat="45.65145" lon="5.95184">
        <ele>605</ele>
        <time>2012-04-22T12:22:37.000Z</time>
      </trkpt>
      <trkpt lat="45.65138" lon="5.95182">
        <ele>605</ele>
        <time>2012-04-22T12:22:39.000Z</time>
      </trkpt>
      <trkpt lat="45.6513" lon="5.95182">
        <ele>605</ele>
        <time>2012-04-22T12:22:41.000Z</time>
      </trkpt>
      <trkpt lat="45.65124" lon="5.95182">
        <ele>604</ele>
        <time>2012-04-22T12:22:43.000Z</time>
      </trkpt>
      <trkpt lat="45.65116" lon="5.95182">
        <ele>604</ele>
        <time>2012-04-22T12:22:45.000Z</time>
      </trkpt>
      <trkpt lat="45.65109" lon="5.95182">
        <ele>603</ele>
        <time>2012-04-22T12:22:47.000Z</time>
      </trkpt>
      <trkpt lat="45.65102" lon="5.95182">
        <ele>603</ele>
        <time>2012-04-22T12:22:49.000Z</time>
      </trkpt>
      <trkpt lat="45.65095" lon="5.95182">
        <ele>602</ele>
        <time>2012-04-22T12:22:51.000Z</time>
      </trkpt>
      <trkpt lat="45.65091" lon="5.95184">
        <ele>602</ele>
        <time>2012-04-22T12:22:53.000Z</time>
      </trkpt>
      <trkpt lat="45.65084" lon="5.95186">
        <ele>602</ele>
        <time>2012-04-22T12:22:56.000Z</time>
      </trkpt>
      <trkpt lat="45.65079" lon="5.95186">
        <ele>601</ele>
        <time>2012-04-22T12:22:59.000Z</time>
      </trkpt>
      <trkpt lat="45.65071" lon="5.95189">
        <ele>601</ele>
        <time>2012-04-22T12:23:02.000Z</time>
      </trkpt>
      <trkpt lat="45.65066" lon="5.95191">
        <ele>602</ele>
        <time>2012-04-22T12:23:04.000Z</time>
      </trkpt>
      <trkpt lat="45.65061" lon="5.95193">
        <ele>602</ele>
        <time>2012-04-22T12:23:06.000Z</time>
      </trkpt>
      <trkpt lat="45.65056" lon="5.95195">
        <ele>603</ele>
        <time>2012-04-22T12:23:08.000Z</time>
      </trkpt>
      <trkpt lat="45.65052" lon="5.95197">
        <ele>603</ele>
        <time>2012-04-22T12:23:10.000Z</time>
      </trkpt>
      <trkpt lat="45.65048" lon="5.95199">
        <ele>603</ele>
        <time>2012-04-22T12:23:12.000Z</time>
      </trkpt>
      <trkpt lat="45.65042" lon="5.95199">
        <ele>603</ele>
        <time>2012-04-22T12:23:18.000Z</time>
      </trkpt>
      <trkpt lat="45.65037" lon="5.95199">
        <ele>603</ele>
        <time>2012-04-22T12:23:22.000Z</time>
      </trkpt>
      <trkpt lat="45.65033" lon="5.95201">
        <ele>603</ele>
        <time>2012-04-22T12:23:26.000Z</time>
      </trkpt>
      <trkpt lat="45.65027" lon="5.95204">
        <ele>604</ele>
        <time>2012-04-22T12:23:29.000Z</time>
      </trkpt>
      <trkpt lat="45.65021" lon="5.95206">
        <ele>604</ele>
        <time>2012-04-22T12:23:33.000Z</time>
      </trkpt>
      <trkpt lat="45.65015" lon="5.95206">
        <ele>604</ele>
        <time>2012-04-22T12:23:36.000Z</time>
      </trkpt>
      <trkpt lat="45.65008" lon="5.95208">
        <ele>604</ele>
        <time>2012-04-22T12:23:39.000Z</time>
      </trkpt>
      <trkpt lat="45.65003" lon="5.95208">
        <ele>604</ele>
        <time>2012-04-22T12:23:42.000Z</time>
      </trkpt>
      <trkpt lat="45.64997" lon="5.95208">
        <ele>606</ele>
        <time>2012-04-22T12:23:56.000Z</time>
      </trkpt>
      <trkpt lat="45.64997" lon="5.95208">
        <ele>606</ele>
        <time>2012-04-22T12:23:56.000Z</time>
      </trkpt>
      <trkpt lat="45.64997" lon="5.95208">
        <ele>606</ele>
        <time>2012-04-22T12:23:57.000Z</time>
      </trkpt>
      <trkpt lat="45.64993" lon="5.9521">
        <ele>607</ele>
        <time>2012-04-22T12:24:02.000Z</time>
      </trkpt>
      <trkpt lat="45.64988" lon="5.9521">
        <ele>607</ele>
        <time>2012-04-22T12:24:06.000Z</time>
      </trkpt>
      <trkpt lat="45.64982" lon="5.95208">
        <ele>607</ele>
        <time>2012-04-22T12:24:12.000Z</time>
      </trkpt>
      <trkpt lat="45.64979" lon="5.95201">
        <ele>606</ele>
        <time>2012-04-22T12:24:18.000Z</time>
      </trkpt>
      <trkpt lat="45.64979" lon="5.95201">
        <ele>606</ele>
        <time>2012-04-22T12:24:18.000Z</time>
      </trkpt>
      <trkpt lat="45.64979" lon="5.95201">
        <ele>606</ele>
        <time>2012-04-22T12:24:19.000Z</time>
      </trkpt>
      <trkpt lat="45.64977" lon="5.95195">
        <ele>605</ele>
        <time>2012-04-22T12:24:23.000Z</time>
      </trkpt>
      <trkpt lat="45.64977" lon="5.95195">
        <ele>605</ele>
        <time>2012-04-22T12:24:23.000Z</time>
      </trkpt>
      <trkpt lat="45.64977" lon="5.95195">
        <ele>605</ele>
        <time>2012-04-22T12:24:24.000Z</time>
      </trkpt>
      <trkpt lat="45.64977" lon="5.95186">
        <ele>603</ele>
        <time>2012-04-22T12:24:31.000Z</time>
      </trkpt>
      <trkpt lat="45.64977" lon="5.95186">
        <ele>603</ele>
        <time>2012-04-22T12:24:31.000Z</time>
      </trkpt>
      <trkpt lat="45.64977" lon="5.95186">
        <ele>603</ele>
        <time>2012-04-22T12:24:32.000Z</time>
      </trkpt>
      <trkpt lat="45.64976" lon="5.9518">
        <ele>602</ele>
        <time>2012-04-22T12:24:35.000Z</time>
      </trkpt>
      <trkpt lat="45.64976" lon="5.95171">
        <ele>601</ele>
        <time>2012-04-22T12:24:40.000Z</time>
      </trkpt>
      <trkpt lat="45.64975" lon="5.95165">
        <ele>588</ele>
        <time>2012-04-22T12:24:44.000Z</time>
      </trkpt>
      <trkpt lat="45.64975" lon="5.95158">
        <ele>588</ele>
        <time>2012-04-22T12:24:48.000Z</time>
      </trkpt>
      <trkpt lat="45.64974" lon="5.95152">
        <ele>587</ele>
        <time>2012-04-22T12:24:52.000Z</time>
      </trkpt>
      <trkpt lat="45.64973" lon="5.95144">
        <ele>586</ele>
        <time>2012-04-22T12:24:55.000Z</time>
      </trkpt>
      <trkpt lat="45.64973" lon="5.95133">
        <ele>585</ele>
        <time>2012-04-22T12:24:59.000Z</time>
      </trkpt>
      <trkpt lat="45.64973" lon="5.95124">
        <ele>584</ele>
        <time>2012-04-22T12:25:02.000Z</time>
      </trkpt>
      <trkpt lat="45.64973" lon="5.95114">
        <ele>583</ele>
        <time>2012-04-22T12:25:05.000Z</time>
      </trkpt>
      <trkpt lat="45.64972" lon="5.95107">
        <ele>582</ele>
        <time>2012-04-22T12:25:07.000Z</time>
      </trkpt>
      <trkpt lat="45.64972" lon="5.95096">
        <ele>581</ele>
        <time>2012-04-22T12:25:10.000Z</time>
      </trkpt>
      <trkpt lat="45.64971" lon="5.95088">
        <ele>580</ele>
        <time>2012-04-22T12:25:13.000Z</time>
      </trkpt>
      <trkpt lat="45.64972" lon="5.95081">
        <ele>570</ele>
        <time>2012-04-22T12:25:16.000Z</time>
      </trkpt>
      <trkpt lat="45.64972" lon="5.95073">
        <ele>569</ele>
        <time>2012-04-22T12:25:20.000Z</time>
      </trkpt>
      <trkpt lat="45.64972" lon="5.95064">
        <ele>569</ele>
        <time>2012-04-22T12:25:25.000Z</time>
      </trkpt>
      <trkpt lat="45.6497" lon="5.95058">
        <ele>568</ele>
        <time>2012-04-22T12:25:29.000Z</time>
      </trkpt>
      <trkpt lat="45.64968" lon="5.95051">
        <ele>568</ele>
        <time>2012-04-22T12:25:33.000Z</time>
      </trkpt>
      <trkpt lat="45.64965" lon="5.95045">
        <ele>567</ele>
        <time>2012-04-22T12:25:38.000Z</time>
      </trkpt>
      <trkpt lat="45.64961" lon="5.9504">
        <ele>567</ele>
        <time>2012-04-22T12:25:44.000Z</time>
      </trkpt>
      <trkpt lat="45.64957" lon="5.95036">
        <ele>567</ele>
        <time>2012-04-22T12:25:48.000Z</time>
      </trkpt>
      <trkpt lat="45.64951" lon="5.95034">
        <ele>567</ele>
        <time>2012-04-22T12:25:52.000Z</time>
      </trkpt>
      <trkpt lat="45.64947" lon="5.95032">
        <ele>567</ele>
        <time>2012-04-22T12:25:58.000Z</time>
      </trkpt>
      <trkpt lat="45.64943" lon="5.9503">
        <ele>567</ele>
        <time>2012-04-22T12:26:02.000Z</time>
      </trkpt>
      <trkpt lat="45.64938" lon="5.95028">
        <ele>567</ele>
        <time>2012-04-22T12:26:05.000Z</time>
      </trkpt>
      <trkpt lat="45.64934" lon="5.95026">
        <ele>567</ele>
        <time>2012-04-22T12:26:09.000Z</time>
      </trkpt>
      <trkpt lat="45.6493" lon="5.95023">
        <ele>567</ele>
        <time>2012-04-22T12:26:14.000Z</time>
      </trkpt>
      <trkpt lat="45.64924" lon="5.95023">
        <ele>567</ele>
        <time>2012-04-22T12:26:21.000Z</time>
      </trkpt>
      <trkpt lat="45.64919" lon="5.95021">
        <ele>567</ele>
        <time>2012-04-22T12:26:31.000Z</time>
      </trkpt>
      <trkpt lat="45.64915" lon="5.95019">
        <ele>574</ele>
        <time>2012-04-22T12:26:36.000Z</time>
      </trkpt>
      <trkpt lat="45.64909" lon="5.95019">
        <ele>575</ele>
        <time>2012-04-22T12:26:42.000Z</time>
      </trkpt>
      <trkpt lat="45.64904" lon="5.95017">
        <ele>575</ele>
        <time>2012-04-22T12:26:48.000Z</time>
      </trkpt>
      <trkpt lat="45.64899" lon="5.95017">
        <ele>576</ele>
        <time>2012-04-22T12:26:56.000Z</time>
      </trkpt>
      <trkpt lat="45.64894" lon="5.95015">
        <ele>577</ele>
        <time>2012-04-22T12:27:01.000Z</time>
      </trkpt>
      <trkpt lat="45.64888" lon="5.95015">
        <ele>578</ele>
        <time>2012-04-22T12:27:05.000Z</time>
      </trkpt>
      <trkpt lat="45.64884" lon="5.95017">
        <ele>579</ele>
        <time>2012-04-22T12:27:08.000Z</time>
      </trkpt>
      <trkpt lat="45.64879" lon="5.95015">
        <ele>579</ele>
        <time>2012-04-22T12:27:13.000Z</time>
      </trkpt>
      <trkpt lat="45.64874" lon="5.95015">
        <ele>580</ele>
        <time>2012-04-22T12:27:18.000Z</time>
      </trkpt>
      <trkpt lat="45.64869" lon="5.95013">
        <ele>580</ele>
        <time>2012-04-22T12:27:27.000Z</time>
      </trkpt>
      <trkpt lat="45.64869" lon="5.95013">
        <ele>580</ele>
        <time>2012-04-22T12:27:27.000Z</time>
      </trkpt>
      <trkpt lat="45.64869" lon="5.95013">
        <ele>580</ele>
        <time>2012-04-22T12:27:28.000Z</time>
      </trkpt>
      <trkpt lat="45.64863" lon="5.9501">
        <ele>581</ele>
        <time>2012-04-22T12:27:35.000Z</time>
      </trkpt>
      <trkpt lat="45.64863" lon="5.9501">
        <ele>581</ele>
        <time>2012-04-22T12:27:35.000Z</time>
      </trkpt>
      <trkpt lat="45.64863" lon="5.9501">
        <ele>581</ele>
        <time>2012-04-22T12:27:36.000Z</time>
      </trkpt>
      <trkpt lat="45.64859" lon="5.95013">
        <ele>581</ele>
        <time>2012-04-22T12:27:42.000Z</time>
      </trkpt>
      <trkpt lat="45.64859" lon="5.95013">
        <ele>581</ele>
        <time>2012-04-22T12:27:42.000Z</time>
      </trkpt>
      <trkpt lat="45.64859" lon="5.95013">
        <ele>581</ele>
        <time>2012-04-22T12:27:43.000Z</time>
      </trkpt>
      <trkpt lat="45.64855" lon="5.95017">
        <ele>582</ele>
        <time>2012-04-22T12:27:51.000Z</time>
      </trkpt>
      <trkpt lat="45.64855" lon="5.95017">
        <ele>582</ele>
        <time>2012-04-22T12:27:51.000Z</time>
      </trkpt>
      <trkpt lat="45.64855" lon="5.95017">
        <ele>582</ele>
        <time>2012-04-22T12:27:52.000Z</time>
      </trkpt>
      <trkpt lat="45.64852" lon="5.95023">
        <ele>582</ele>
        <time>2012-04-22T12:28:08.000Z</time>
      </trkpt>
      <trkpt lat="45.64852" lon="5.95023">
        <ele>582</ele>
        <time>2012-04-22T12:28:08.000Z</time>
      </trkpt>
      <trkpt lat="45.64852" lon="5.95023">
        <ele>582</ele>
        <time>2012-04-22T12:28:10.000Z</time>
      </trkpt>
      <trkpt lat="45.64849" lon="5.9503">
        <ele>583</ele>
        <time>2012-04-22T12:28:52.000Z</time>
      </trkpt>
      <trkpt lat="45.64849" lon="5.9503">
        <ele>583</ele>
        <time>2012-04-22T12:28:52.000Z</time>
      </trkpt>
      <trkpt lat="45.64849" lon="5.9503">
        <ele>583</ele>
        <time>2012-04-22T12:29:09.000Z</time>
      </trkpt>
      <trkpt lat="45.6485" lon="5.95023">
        <ele>583</ele>
        <time>2012-04-22T12:30:07.000Z</time>
      </trkpt>
      <trkpt lat="45.6485" lon="5.95023">
        <ele>583</ele>
        <time>2012-04-22T12:30:07.000Z</time>
      </trkpt>
      <trkpt lat="45.6485" lon="5.95023">
        <ele>583</ele>
        <time>2012-04-22T12:30:42.000Z</time>
      </trkpt>
      <trkpt lat="45.64856" lon="5.95023">
        <ele>582</ele>
        <time>2012-04-22T12:30:51.000Z</time>
      </trkpt>
      <trkpt lat="45.64861" lon="5.95023">
        <ele>582</ele>
        <time>2012-04-22T12:30:55.000Z</time>
      </trkpt>
      <trkpt lat="45.64865" lon="5.95026">
        <ele>582</ele>
        <time>2012-04-22T12:30:59.000Z</time>
      </trkpt>
      <trkpt lat="45.64871" lon="5.95026">
        <ele>581</ele>
        <time>2012-04-22T12:31:03.000Z</time>
      </trkpt>
      <trkpt lat="45.64875" lon="5.95028">
        <ele>581</ele>
        <time>2012-04-22T12:31:06.000Z</time>
      </trkpt>
      <trkpt lat="45.64879" lon="5.95032">
        <ele>581</ele>
        <time>2012-04-22T12:31:10.000Z</time>
      </trkpt>
      <trkpt lat="45.64885" lon="5.95032">
        <ele>580</ele>
        <time>2012-04-22T12:31:14.000Z</time>
      </trkpt>
      <trkpt lat="45.6489" lon="5.95032">
        <ele>579</ele>
        <time>2012-04-22T12:31:17.000Z</time>
      </trkpt>
      <trkpt lat="45.64896" lon="5.95032">
        <ele>579</ele>
        <time>2012-04-22T12:31:20.000Z</time>
      </trkpt>
      <trkpt lat="45.64902" lon="5.95032">
        <ele>578</ele>
        <time>2012-04-22T12:31:23.000Z</time>
      </trkpt>
      <trkpt lat="45.64908" lon="5.95032">
        <ele>578</ele>
        <time>2012-04-22T12:31:25.000Z</time>
      </trkpt>
      <trkpt lat="45.64917" lon="5.9503">
        <ele>568</ele>
        <time>2012-04-22T12:31:27.000Z</time>
      </trkpt>
      <trkpt lat="45.64924" lon="5.9503">
        <ele>568</ele>
        <time>2012-04-22T12:31:29.000Z</time>
      </trkpt>
      <trkpt lat="45.64931" lon="5.95032">
        <ele>568</ele>
        <time>2012-04-22T12:31:31.000Z</time>
      </trkpt>
      <trkpt lat="45.64936" lon="5.9503">
        <ele>568</ele>
        <time>2012-04-22T12:31:33.000Z</time>
      </trkpt>
      <trkpt lat="45.64942" lon="5.9503">
        <ele>567</ele>
        <time>2012-04-22T12:31:35.000Z</time>
      </trkpt>
      <trkpt lat="45.64946" lon="5.95032">
        <ele>567</ele>
        <time>2012-04-22T12:31:37.000Z</time>
      </trkpt>
      <trkpt lat="45.64951" lon="5.95034">
        <ele>567</ele>
        <time>2012-04-22T12:31:40.000Z</time>
      </trkpt>
      <trkpt lat="45.64956" lon="5.95036">
        <ele>567</ele>
        <time>2012-04-22T12:31:43.000Z</time>
      </trkpt>
      <trkpt lat="45.6496" lon="5.95038">
        <ele>567</ele>
        <time>2012-04-22T12:31:49.000Z</time>
      </trkpt>
      <trkpt lat="45.6496" lon="5.95038">
        <ele>567</ele>
        <time>2012-04-22T12:31:49.000Z</time>
      </trkpt>
      <trkpt lat="45.6496" lon="5.95038">
        <ele>567</ele>
        <time>2012-04-22T12:31:50.000Z</time>
      </trkpt>
      <trkpt lat="45.64963" lon="5.95045">
        <ele>568</ele>
        <time>2012-04-22T12:31:56.000Z</time>
      </trkpt>
      <trkpt lat="45.64963" lon="5.95045">
        <ele>568</ele>
        <time>2012-04-22T12:31:56.000Z</time>
      </trkpt>
      <trkpt lat="45.64963" lon="5.95045">
        <ele>568</ele>
        <time>2012-04-22T12:31:57.000Z</time>
      </trkpt>
      <trkpt lat="45.64967" lon="5.95049">
        <ele>568</ele>
        <time>2012-04-22T12:32:00.000Z</time>
      </trkpt>
      <trkpt lat="45.64973" lon="5.95049">
        <ele>567</ele>
        <time>2012-04-22T12:32:03.000Z</time>
      </trkpt>
      <trkpt lat="45.64977" lon="5.95051">
        <ele>567</ele>
        <time>2012-04-22T12:32:06.000Z</time>
      </trkpt>
      <trkpt lat="45.64981" lon="5.95049">
        <ele>567</ele>
        <time>2012-04-22T12:32:09.000Z</time>
      </trkpt>
      <trkpt lat="45.64986" lon="5.95045">
        <ele>566</ele>
        <time>2012-04-22T12:32:15.000Z</time>
      </trkpt>
      <trkpt lat="45.64986" lon="5.95045">
        <ele>566</ele>
        <time>2012-04-22T12:32:15.000Z</time>
      </trkpt>
      <trkpt lat="45.64986" lon="5.95045">
        <ele>566</ele>
        <time>2012-04-22T12:32:16.000Z</time>
      </trkpt>
      <trkpt lat="45.6499" lon="5.9504">
        <ele>565</ele>
        <time>2012-04-22T12:32:21.000Z</time>
      </trkpt>
      <trkpt lat="45.64993" lon="5.95034">
        <ele>564</ele>
        <time>2012-04-22T12:32:25.000Z</time>
      </trkpt>
      <trkpt lat="45.64997" lon="5.9503">
        <ele>563</ele>
        <time>2012-04-22T12:32:28.000Z</time>
      </trkpt>
      <trkpt lat="45.65003" lon="5.95023">
        <ele>560</ele>
        <time>2012-04-22T12:32:31.000Z</time>
      </trkpt>
      <trkpt lat="45.65007" lon="5.95017">
        <ele>559</ele>
        <time>2012-04-22T12:32:34.000Z</time>
      </trkpt>
      <trkpt lat="45.6501" lon="5.9501">
        <ele>557</ele>
        <time>2012-04-22T12:32:37.000Z</time>
      </trkpt>
      <trkpt lat="45.65015" lon="5.95004">
        <ele>558</ele>
        <time>2012-04-22T12:32:41.000Z</time>
      </trkpt>
      <trkpt lat="45.65018" lon="5.94998">
        <ele>549</ele>
        <time>2012-04-22T12:32:43.000Z</time>
      </trkpt>
      <trkpt lat="45.6502" lon="5.94991">
        <ele>548</ele>
        <time>2012-04-22T12:32:45.000Z</time>
      </trkpt>
      <trkpt lat="45.65024" lon="5.94983">
        <ele>547</ele>
        <time>2012-04-22T12:32:48.000Z</time>
      </trkpt>
      <trkpt lat="45.65026" lon="5.94974">
        <ele>546</ele>
        <time>2012-04-22T12:32:51.000Z</time>
      </trkpt>
      <trkpt lat="45.65028" lon="5.94968">
        <ele>545</ele>
        <time>2012-04-22T12:32:53.000Z</time>
      </trkpt>
      <trkpt lat="45.65031" lon="5.94961">
        <ele>544</ele>
        <time>2012-04-22T12:32:55.000Z</time>
      </trkpt>
      <trkpt lat="45.65032" lon="5.94955">
        <ele>543</ele>
        <time>2012-04-22T12:32:57.000Z</time>
      </trkpt>
      <trkpt lat="45.65033" lon="5.94948">
        <ele>542</ele>
        <time>2012-04-22T12:32:59.000Z</time>
      </trkpt>
      <trkpt lat="45.65034" lon="5.94942">
        <ele>542</ele>
        <time>2012-04-22T12:33:01.000Z</time>
      </trkpt>
      <trkpt lat="45.65035" lon="5.94935">
        <ele>541</ele>
        <time>2012-04-22T12:33:03.000Z</time>
      </trkpt>
      <trkpt lat="45.65037" lon="5.94927">
        <ele>540</ele>
        <time>2012-04-22T12:33:06.000Z</time>
      </trkpt>
      <trkpt lat="45.65038" lon="5.9492">
        <ele>540</ele>
        <time>2012-04-22T12:33:08.000Z</time>
      </trkpt>
      <trkpt lat="45.65039" lon="5.94914">
        <ele>529</ele>
        <time>2012-04-22T12:33:10.000Z</time>
      </trkpt>
      <trkpt lat="45.6504" lon="5.94908">
        <ele>529</ele>
        <time>2012-04-22T12:33:12.000Z</time>
      </trkpt>
      <trkpt lat="45.65041" lon="5.94899">
        <ele>529</ele>
        <time>2012-04-22T12:33:14.000Z</time>
      </trkpt>
      <trkpt lat="45.65042" lon="5.94892">
        <ele>528</ele>
        <time>2012-04-22T12:33:16.000Z</time>
      </trkpt>
      <trkpt lat="45.65044" lon="5.94886">
        <ele>528</ele>
        <time>2012-04-22T12:33:18.000Z</time>
      </trkpt>
      <trkpt lat="45.65045" lon="5.9488">
        <ele>527</ele>
        <time>2012-04-22T12:33:20.000Z</time>
      </trkpt>
      <trkpt lat="45.65046" lon="5.94869">
        <ele>526</ele>
        <time>2012-04-22T12:33:23.000Z</time>
      </trkpt>
      <trkpt lat="45.65046" lon="5.94858">
        <ele>526</ele>
        <time>2012-04-22T12:33:26.000Z</time>
      </trkpt>
      <trkpt lat="45.65047" lon="5.94852">
        <ele>525</ele>
        <time>2012-04-22T12:33:28.000Z</time>
      </trkpt>
      <trkpt lat="45.65048" lon="5.94843">
        <ele>525</ele>
        <time>2012-04-22T12:33:30.000Z</time>
      </trkpt>
      <trkpt lat="45.65048" lon="5.94834">
        <ele>525</ele>
        <time>2012-04-22T12:33:32.000Z</time>
      </trkpt>
      <trkpt lat="45.65049" lon="5.94826">
        <ele>516</ele>
        <time>2012-04-22T12:33:34.000Z</time>
      </trkpt>
      <trkpt lat="45.65049" lon="5.94817">
        <ele>516</ele>
        <time>2012-04-22T12:33:36.000Z</time>
      </trkpt>
      <trkpt lat="45.6505" lon="5.94809">
        <ele>515</ele>
        <time>2012-04-22T12:33:38.000Z</time>
      </trkpt>
      <trkpt lat="45.65051" lon="5.948">
        <ele>514</ele>
        <time>2012-04-22T12:33:40.000Z</time>
      </trkpt>
      <trkpt lat="45.65051" lon="5.94792">
        <ele>514</ele>
        <time>2012-04-22T12:33:42.000Z</time>
      </trkpt>
      <trkpt lat="45.65051" lon="5.94783">
        <ele>513</ele>
        <time>2012-04-22T12:33:44.000Z</time>
      </trkpt>
      <trkpt lat="45.65052" lon="5.94777">
        <ele>513</ele>
        <time>2012-04-22T12:33:46.000Z</time>
      </trkpt>
      <trkpt lat="45.65053" lon="5.94768">
        <ele>512</ele>
        <time>2012-04-22T12:33:48.000Z</time>
      </trkpt>
      <trkpt lat="45.65054" lon="5.94762">
        <ele>512</ele>
        <time>2012-04-22T12:33:50.000Z</time>
      </trkpt>
      <trkpt lat="45.65055" lon="5.94753">
        <ele>512</ele>
        <time>2012-04-22T12:33:52.000Z</time>
      </trkpt>
      <trkpt lat="45.65054" lon="5.94744">
        <ele>503</ele>
        <time>2012-04-22T12:33:54.000Z</time>
      </trkpt>
      <trkpt lat="45.65052" lon="5.94736">
        <ele>502</ele>
        <time>2012-04-22T12:33:56.000Z</time>
      </trkpt>
      <trkpt lat="45.6505" lon="5.94725">
        <ele>501</ele>
        <time>2012-04-22T12:33:58.000Z</time>
      </trkpt>
      <trkpt lat="45.65048" lon="5.94719">
        <ele>501</ele>
        <time>2012-04-22T12:33:59.000Z</time>
      </trkpt>
      <trkpt lat="45.65047" lon="5.94712">
        <ele>500</ele>
        <time>2012-04-22T12:34:00.000Z</time>
      </trkpt>
      <trkpt lat="45.65044" lon="5.94704">
        <ele>499</ele>
        <time>2012-04-22T12:34:02.000Z</time>
      </trkpt>
      <trkpt lat="45.65041" lon="5.94697">
        <ele>498</ele>
        <time>2012-04-22T12:34:03.000Z</time>
      </trkpt>
      <trkpt lat="45.65039" lon="5.94691">
        <ele>498</ele>
        <time>2012-04-22T12:34:05.000Z</time>
      </trkpt>
      <trkpt lat="45.65038" lon="5.94682">
        <ele>497</ele>
        <time>2012-04-22T12:34:07.000Z</time>
      </trkpt>
      <trkpt lat="45.65039" lon="5.94676">
        <ele>497</ele>
        <time>2012-04-22T12:34:09.000Z</time>
      </trkpt>
      <trkpt lat="45.65041" lon="5.94669">
        <ele>497</ele>
        <time>2012-04-22T12:34:11.000Z</time>
      </trkpt>
      <trkpt lat="45.65044" lon="5.94663">
        <ele>487</ele>
        <time>2012-04-22T12:34:13.000Z</time>
      </trkpt>
      <trkpt lat="45.65047" lon="5.94656">
        <ele>487</ele>
        <time>2012-04-22T12:34:16.000Z</time>
      </trkpt>
      <trkpt lat="45.65049" lon="5.9465">
        <ele>487</ele>
        <time>2012-04-22T12:34:18.000Z</time>
      </trkpt>
      <trkpt lat="45.65052" lon="5.94644">
        <ele>487</ele>
        <time>2012-04-22T12:34:21.000Z</time>
      </trkpt>
      <trkpt lat="45.65054" lon="5.94637">
        <ele>486</ele>
        <time>2012-04-22T12:34:24.000Z</time>
      </trkpt>
      <trkpt lat="45.65056" lon="5.94631">
        <ele>486</ele>
        <time>2012-04-22T12:34:27.000Z</time>
      </trkpt>
      <trkpt lat="45.65058" lon="5.94624">
        <ele>485</ele>
        <time>2012-04-22T12:34:29.000Z</time>
      </trkpt>
      <trkpt lat="45.65062" lon="5.94618">
        <ele>484</ele>
        <time>2012-04-22T12:34:31.000Z</time>
      </trkpt>
      <trkpt lat="45.65065" lon="5.94611">
        <ele>484</ele>
        <time>2012-04-22T12:34:34.000Z</time>
      </trkpt>
      <trkpt lat="45.65066" lon="5.94605">
        <ele>483</ele>
        <time>2012-04-22T12:34:36.000Z</time>
      </trkpt>
      <trkpt lat="45.65068" lon="5.94596">
        <ele>482</ele>
        <time>2012-04-22T12:34:39.000Z</time>
      </trkpt>
      <trkpt lat="45.6507" lon="5.9459">
        <ele>482</ele>
        <time>2012-04-22T12:34:41.000Z</time>
      </trkpt>
      <trkpt lat="45.65071" lon="5.94584">
        <ele>481</ele>
        <time>2012-04-22T12:34:43.000Z</time>
      </trkpt>
      <trkpt lat="45.65074" lon="5.94577">
        <ele>476</ele>
        <time>2012-04-22T12:34:45.000Z</time>
      </trkpt>
      <trkpt lat="45.65075" lon="5.94568">
        <ele>474</ele>
        <time>2012-04-22T12:34:47.000Z</time>
      </trkpt>
      <trkpt lat="45.65076" lon="5.9456">
        <ele>473</ele>
        <time>2012-04-22T12:34:49.000Z</time>
      </trkpt>
      <trkpt lat="45.65078" lon="5.94551">
        <ele>471</ele>
        <time>2012-04-22T12:34:51.000Z</time>
      </trkpt>
      <trkpt lat="45.65079" lon="5.94543">
        <ele>470</ele>
        <time>2012-04-22T12:34:53.000Z</time>
      </trkpt>
      <trkpt lat="45.65079" lon="5.94534">
        <ele>469</ele>
        <time>2012-04-22T12:34:56.000Z</time>
      </trkpt>
      <trkpt lat="45.6508" lon="5.94526">
        <ele>468</ele>
        <time>2012-04-22T12:34:58.000Z</time>
      </trkpt>
      <trkpt lat="45.65081" lon="5.94519">
        <ele>467</ele>
        <time>2012-04-22T12:35:00.000Z</time>
      </trkpt>
      <trkpt lat="45.65082" lon="5.9451">
        <ele>465</ele>
        <time>2012-04-22T12:35:02.000Z</time>
      </trkpt>
      <trkpt lat="45.65084" lon="5.94502">
        <ele>464</ele>
        <time>2012-04-22T12:35:04.000Z</time>
      </trkpt>
      <trkpt lat="45.65085" lon="5.94493">
        <ele>461</ele>
        <time>2012-04-22T12:35:06.000Z</time>
      </trkpt>
      <trkpt lat="45.65086" lon="5.94485">
        <ele>459</ele>
        <time>2012-04-22T12:35:08.000Z</time>
      </trkpt>
      <trkpt lat="45.65086" lon="5.94478">
        <ele>458</ele>
        <time>2012-04-22T12:35:10.000Z</time>
      </trkpt>
      <trkpt lat="45.65088" lon="5.9447">
        <ele>457</ele>
        <time>2012-04-22T12:35:12.000Z</time>
      </trkpt>
      <trkpt lat="45.65089" lon="5.94461">
        <ele>455</ele>
        <time>2012-04-22T12:35:14.000Z</time>
      </trkpt>
      <trkpt lat="45.65089" lon="5.94455">
        <ele>454</ele>
        <time>2012-04-22T12:35:16.000Z</time>
      </trkpt>
      <trkpt lat="45.65091" lon="5.94446">
        <ele>453</ele>
        <time>2012-04-22T12:35:18.000Z</time>
      </trkpt>
      <trkpt lat="45.65092" lon="5.94438">
        <ele>451</ele>
        <time>2012-04-22T12:35:20.000Z</time>
      </trkpt>
      <trkpt lat="45.65093" lon="5.94431">
        <ele>450</ele>
        <time>2012-04-22T12:35:21.000Z</time>
      </trkpt>
      <trkpt lat="45.65094" lon="5.94422">
        <ele>448</ele>
        <time>2012-04-22T12:35:23.000Z</time>
      </trkpt>
      <trkpt lat="45.65096" lon="5.94414">
        <ele>442</ele>
        <time>2012-04-22T12:35:25.000Z</time>
      </trkpt>
      <trkpt lat="45.65097" lon="5.94403">
        <ele>442</ele>
        <time>2012-04-22T12:35:27.000Z</time>
      </trkpt>
      <trkpt lat="45.65099" lon="5.94392">
        <ele>441</ele>
        <time>2012-04-22T12:35:29.000Z</time>
      </trkpt>
      <trkpt lat="45.65102" lon="5.94382">
        <ele>440</ele>
        <time>2012-04-22T12:35:31.000Z</time>
      </trkpt>
      <trkpt lat="45.65105" lon="5.94371">
        <ele>439</ele>
        <time>2012-04-22T12:35:33.000Z</time>
      </trkpt>
      <trkpt lat="45.65109" lon="5.94362">
        <ele>438</ele>
        <time>2012-04-22T12:35:35.000Z</time>
      </trkpt>
      <trkpt lat="45.65112" lon="5.94354">
        <ele>437</ele>
        <time>2012-04-22T12:35:37.000Z</time>
      </trkpt>
      <trkpt lat="45.65114" lon="5.94345">
        <ele>437</ele>
        <time>2012-04-22T12:35:39.000Z</time>
      </trkpt>
      <trkpt lat="45.65116" lon="5.94337">
        <ele>437</ele>
        <time>2012-04-22T12:35:41.000Z</time>
      </trkpt>
      <trkpt lat="45.65119" lon="5.94326">
        <ele>429</ele>
        <time>2012-04-22T12:35:43.000Z</time>
      </trkpt>
      <trkpt lat="45.6512" lon="5.94317">
        <ele>429</ele>
        <time>2012-04-22T12:35:45.000Z</time>
      </trkpt>
      <trkpt lat="45.65121" lon="5.94311">
        <ele>429</ele>
        <time>2012-04-22T12:35:47.000Z</time>
      </trkpt>
      <trkpt lat="45.65122" lon="5.94302">
        <ele>428</ele>
        <time>2012-04-22T12:35:49.000Z</time>
      </trkpt>
      <trkpt lat="45.65123" lon="5.94296">
        <ele>428</ele>
        <time>2012-04-22T12:35:51.000Z</time>
      </trkpt>
      <trkpt lat="45.65123" lon="5.94285">
        <ele>427</ele>
        <time>2012-04-22T12:35:54.000Z</time>
      </trkpt>
      <trkpt lat="45.65124" lon="5.94277">
        <ele>427</ele>
        <time>2012-04-22T12:35:57.000Z</time>
      </trkpt>
      <trkpt lat="45.65125" lon="5.94268">
        <ele>427</ele>
        <time>2012-04-22T12:36:00.000Z</time>
      </trkpt>
      <trkpt lat="45.65127" lon="5.9426">
        <ele>426</ele>
        <time>2012-04-22T12:36:03.000Z</time>
      </trkpt>
      <trkpt lat="45.65129" lon="5.94253">
        <ele>426</ele>
        <time>2012-04-22T12:36:05.000Z</time>
      </trkpt>
      <trkpt lat="45.6513" lon="5.94247">
        <ele>420</ele>
        <time>2012-04-22T12:36:07.000Z</time>
      </trkpt>
      <trkpt lat="45.65133" lon="5.9424">
        <ele>420</ele>
        <time>2012-04-22T12:36:09.000Z</time>
      </trkpt>
      <trkpt lat="45.65135" lon="5.94234">
        <ele>420</ele>
        <time>2012-04-22T12:36:11.000Z</time>
      </trkpt>
      <trkpt lat="45.65136" lon="5.94225">
        <ele>419</ele>
        <time>2012-04-22T12:36:13.000Z</time>
      </trkpt>
      <trkpt lat="45.65138" lon="5.94216">
        <ele>419</ele>
        <time>2012-04-22T12:36:15.000Z</time>
      </trkpt>
      <trkpt lat="45.6514" lon="5.94208">
        <ele>418</ele>
        <time>2012-04-22T12:36:17.000Z</time>
      </trkpt>
      <trkpt lat="45.65142" lon="5.94202">
        <ele>418</ele>
        <time>2012-04-22T12:36:19.000Z</time>
      </trkpt>
      <trkpt lat="45.65142" lon="5.94193">
        <ele>417</ele>
        <time>2012-04-22T12:36:21.000Z</time>
      </trkpt>
      <trkpt lat="45.6514" lon="5.94186">
        <ele>417</ele>
        <time>2012-04-22T12:36:23.000Z</time>
      </trkpt>
      <trkpt lat="45.65137" lon="5.9418">
        <ele>417</ele>
        <time>2012-04-22T12:36:25.000Z</time>
      </trkpt>
      <trkpt lat="45.65132" lon="5.94174">
        <ele>417</ele>
        <time>2012-04-22T12:36:27.000Z</time>
      </trkpt>
      <trkpt lat="45.65125" lon="5.94169">
        <ele>416</ele>
        <time>2012-04-22T12:36:29.000Z</time>
      </trkpt>
      <trkpt lat="45.6512" lon="5.94167">
        <ele>416</ele>
        <time>2012-04-22T12:36:31.000Z</time>
      </trkpt>
      <trkpt lat="45.65114" lon="5.94165">
        <ele>412</ele>
        <time>2012-04-22T12:36:33.000Z</time>
      </trkpt>
      <trkpt lat="45.65108" lon="5.94165">
        <ele>412</ele>
        <time>2012-04-22T12:36:35.000Z</time>
      </trkpt>
      <trkpt lat="45.65102" lon="5.94163">
        <ele>412</ele>
        <time>2012-04-22T12:36:37.000Z</time>
      </trkpt>
      <trkpt lat="45.65096" lon="5.94163">
        <ele>412</ele>
        <time>2012-04-22T12:36:39.000Z</time>
      </trkpt>
      <trkpt lat="45.65091" lon="5.94163">
        <ele>412</ele>
        <time>2012-04-22T12:36:41.000Z</time>
      </trkpt>
      <trkpt lat="45.65084" lon="5.94163">
        <ele>413</ele>
        <time>2012-04-22T12:36:43.000Z</time>
      </trkpt>
      <trkpt lat="45.65079" lon="5.94163">
        <ele>412</ele>
        <time>2012-04-22T12:36:45.000Z</time>
      </trkpt>
      <trkpt lat="45.65072" lon="5.94161">
        <ele>412</ele>
        <time>2012-04-22T12:36:47.000Z</time>
      </trkpt>
      <trkpt lat="45.65067" lon="5.94161">
        <ele>412</ele>
        <time>2012-04-22T12:36:49.000Z</time>
      </trkpt>
      <trkpt lat="45.65061" lon="5.94161">
        <ele>411</ele>
        <time>2012-04-22T12:36:51.000Z</time>
      </trkpt>
      <trkpt lat="45.65055" lon="5.94161">
        <ele>411</ele>
        <time>2012-04-22T12:36:53.000Z</time>
      </trkpt>
      <trkpt lat="45.65049" lon="5.94161">
        <ele>411</ele>
        <time>2012-04-22T12:36:55.000Z</time>
      </trkpt>
      <trkpt lat="45.65042" lon="5.94161">
        <ele>411</ele>
        <time>2012-04-22T12:36:58.000Z</time>
      </trkpt>
      <trkpt lat="45.65036" lon="5.94159">
        <ele>411</ele>
        <time>2012-04-22T12:37:01.000Z</time>
      </trkpt>
      <trkpt lat="45.65031" lon="5.94159">
        <ele>411</ele>
        <time>2012-04-22T12:37:03.000Z</time>
      </trkpt>
      <trkpt lat="45.65025" lon="5.94159">
        <ele>412</ele>
        <time>2012-04-22T12:37:05.000Z</time>
      </trkpt>
      <trkpt lat="45.6502" lon="5.94156">
        <ele>412</ele>
        <time>2012-04-22T12:37:07.000Z</time>
      </trkpt>
      <trkpt lat="45.65015" lon="5.94156">
        <ele>412</ele>
        <time>2012-04-22T12:37:09.000Z</time>
      </trkpt>
      <trkpt lat="45.65009" lon="5.94154">
        <ele>412</ele>
        <time>2012-04-22T12:37:12.000Z</time>
      </trkpt>
      <trkpt lat="45.65004" lon="5.94154">
        <ele>413</ele>
        <time>2012-04-22T12:37:14.000Z</time>
      </trkpt>
      <trkpt lat="45.64997" lon="5.94154">
        <ele>413</ele>
        <time>2012-04-22T12:37:17.000Z</time>
      </trkpt>
      <trkpt lat="45.64992" lon="5.94154">
        <ele>413</ele>
        <time>2012-04-22T12:37:19.000Z</time>
      </trkpt>
      <trkpt lat="45.64987" lon="5.94152">
        <ele>412</ele>
        <time>2012-04-22T12:37:21.000Z</time>
      </trkpt>
      <trkpt lat="45.6498" lon="5.94152">
        <ele>412</ele>
        <time>2012-04-22T12:37:23.000Z</time>
      </trkpt>
      <trkpt lat="45.64973" lon="5.94152">
        <ele>412</ele>
        <time>2012-04-22T12:37:25.000Z</time>
      </trkpt>
      <trkpt lat="45.64965" lon="5.94152">
        <ele>411</ele>
        <time>2012-04-22T12:37:27.000Z</time>
      </trkpt>
      <trkpt lat="45.64958" lon="5.94152">
        <ele>411</ele>
        <time>2012-04-22T12:37:29.000Z</time>
      </trkpt>
      <trkpt lat="45.64949" lon="5.94152">
        <ele>412</ele>
        <time>2012-04-22T12:37:31.000Z</time>
      </trkpt>
      <trkpt lat="45.64942" lon="5.94152">
        <ele>412</ele>
        <time>2012-04-22T12:37:33.000Z</time>
      </trkpt>
      <trkpt lat="45.64934" lon="5.94152">
        <ele>412</ele>
        <time>2012-04-22T12:37:35.000Z</time>
      </trkpt>
      <trkpt lat="45.64927" lon="5.94152">
        <ele>412</ele>
        <time>2012-04-22T12:37:37.000Z</time>
      </trkpt>
      <trkpt lat="45.64919" lon="5.94152">
        <ele>413</ele>
        <time>2012-04-22T12:37:39.000Z</time>
      </trkpt>
      <trkpt lat="45.64913" lon="5.9415">
        <ele>412</ele>
        <time>2012-04-22T12:37:41.000Z</time>
      </trkpt>
      <trkpt lat="45.64906" lon="5.9415">
        <ele>411</ele>
        <time>2012-04-22T12:37:43.000Z</time>
      </trkpt>
      <trkpt lat="45.649" lon="5.9415">
        <ele>411</ele>
        <time>2012-04-22T12:37:45.000Z</time>
      </trkpt>
      <trkpt lat="45.64894" lon="5.9415">
        <ele>411</ele>
        <time>2012-04-22T12:37:47.000Z</time>
      </trkpt>
      <trkpt lat="45.64889" lon="5.9415">
        <ele>410</ele>
        <time>2012-04-22T12:37:49.000Z</time>
      </trkpt>
      <trkpt lat="45.64884" lon="5.94148">
        <ele>410</ele>
        <time>2012-04-22T12:37:51.000Z</time>
      </trkpt>
      <trkpt lat="45.64878" lon="5.94148">
        <ele>410</ele>
        <time>2012-04-22T12:37:53.000Z</time>
      </trkpt>
      <trkpt lat="45.64873" lon="5.94148">
        <ele>410</ele>
        <time>2012-04-22T12:37:55.000Z</time>
      </trkpt>
      <trkpt lat="45.64866" lon="5.94148">
        <ele>409</ele>
        <time>2012-04-22T12:37:57.000Z</time>
      </trkpt>
      <trkpt lat="45.64861" lon="5.94148">
        <ele>409</ele>
        <time>2012-04-22T12:37:59.000Z</time>
      </trkpt>
      <trkpt lat="45.64856" lon="5.94146">
        <ele>409</ele>
        <time>2012-04-22T12:38:01.000Z</time>
      </trkpt>
      <trkpt lat="45.64849" lon="5.94146">
        <ele>409</ele>
        <time>2012-04-22T12:38:03.000Z</time>
      </trkpt>
      <trkpt lat="45.64844" lon="5.94146">
        <ele>409</ele>
        <time>2012-04-22T12:38:05.000Z</time>
      </trkpt>
      <trkpt lat="45.64836" lon="5.94144">
        <ele>409</ele>
        <time>2012-04-22T12:38:07.000Z</time>
      </trkpt>
      <trkpt lat="45.6483" lon="5.94141">
        <ele>409</ele>
        <time>2012-04-22T12:38:09.000Z</time>
      </trkpt>
      <trkpt lat="45.64825" lon="5.94141">
        <ele>409</ele>
        <time>2012-04-22T12:38:11.000Z</time>
      </trkpt>
      <trkpt lat="45.6482" lon="5.94139">
        <ele>409</ele>
        <time>2012-04-22T12:38:13.000Z</time>
      </trkpt>
      <trkpt lat="45.64815" lon="5.94139">
        <ele>409</ele>
        <time>2012-04-22T12:38:16.000Z</time>
      </trkpt>
      <trkpt lat="45.6481" lon="5.94137">
        <ele>409</ele>
        <time>2012-04-22T12:38:23.000Z</time>
      </trkpt>
      <trkpt lat="45.6481" lon="5.94137">
        <ele>409</ele>
        <time>2012-04-22T12:38:23.000Z</time>
      </trkpt>
      <trkpt lat="45.6481" lon="5.94137">
        <ele>409</ele>
        <time>2012-04-22T12:38:25.000Z</time>
      </trkpt>
      <trkpt lat="45.64804" lon="5.94139">
        <ele>409</ele>
        <time>2012-04-22T12:38:33.000Z</time>
      </trkpt>
      <trkpt lat="45.64804" lon="5.94139">
        <ele>409</ele>
        <time>2012-04-22T12:38:33.000Z</time>
      </trkpt>
      <trkpt lat="45.64804" lon="5.94139">
        <ele>409</ele>
        <time>2012-04-22T12:38:37.000Z</time>
      </trkpt>
      <trkpt lat="45.648" lon="5.94137">
        <ele>409</ele>
        <time>2012-04-22T12:38:42.000Z</time>
      </trkpt>
      <trkpt lat="45.64795" lon="5.94137">
        <ele>409</ele>
        <time>2012-04-22T12:38:46.000Z</time>
      </trkpt>
      <trkpt lat="45.64795" lon="5.94137">
        <ele>409</ele>
        <time>2012-04-22T12:38:46.000Z</time>
      </trkpt>
      <trkpt lat="45.64795" lon="5.94137">
        <ele>409</ele>
        <time>2012-04-22T12:38:47.000Z</time>
      </trkpt>
      <trkpt lat="45.64789" lon="5.94135">
        <ele>409</ele>
        <time>2012-04-22T12:38:52.000Z</time>
      </trkpt>
      <trkpt lat="45.64784" lon="5.94133">
        <ele>409</ele>
        <time>2012-04-22T12:38:58.000Z</time>
      </trkpt>
      <trkpt lat="45.64778" lon="5.94133">
        <ele>409</ele>
        <time>2012-04-22T12:39:03.000Z</time>
      </trkpt>
      <trkpt lat="45.64773" lon="5.94131">
        <ele>409</ele>
        <time>2012-04-22T12:39:07.000Z</time>
      </trkpt>
      <trkpt lat="45.64768" lon="5.94131">
        <ele>409</ele>
        <time>2012-04-22T12:39:12.000Z</time>
      </trkpt>
      <trkpt lat="45.64764" lon="5.94129">
        <ele>409</ele>
        <time>2012-04-22T12:39:33.000Z</time>
      </trkpt>
      <trkpt lat="45.64764" lon="5.94129">
        <ele>409</ele>
        <time>2012-04-22T12:39:33.000Z</time>
      </trkpt>
    </trkseg>
  </trk>
</gpx>